<
# Wetter Temperatur Luftdruck Luftfeuchtigkeit Sichtweite Windgeschwindigkeit Windrichtung Zeit
1 Clear 10 1018 76 10000 4.1 80 07:50 14.07.2020
2 Clear 10 1018 76 10000 5.1 80 07:20 14.07.2020
3 Clear 9 1018 81 10000 5.1 80 06:59 14.07.2020
4 Clear 9 1018 81 10000 4.6 90 06:27 14.07.2020
5 Clear 9 1018 87 10000 4.1 90 05:54 14.07.2020
6 Clear 9 1018 81 10000 5.1 80 04:54 14.07.2020
7 Clear 9 1018 81 10000 5.1 80 04:34 14.07.2020
8 Clear 9 1018 81 10000 4.1 80 03:33 14.07.2020
9 Clear 8 1018 81 10000 5.1 70 02:30 14.07.2020
10 Clouds 8 1018 87 10000 5.1 70 01:45 14.07.2020
11 Clouds 8 1018 87 10000 5.1 70 01:24 14.07.2020
12 Clouds 9 1018 81 10000 5.1 80 00:43 14.07.2020
13 Clouds 9 1018 81 10000 5.1 70 00:25 14.07.2020
14 Clouds 9 1018 81 10000 5.7 70 23:39 13.07.2020
15 Clouds 10 1018 76 10000 6.2 70 23:20 13.07.2020
16 Clouds 10 1018 76 10000 6.7 70 22:58 13.07.2020
17 Clouds 10 1018 76 10000 6.7 70 22:39 13.07.2020
18 Clouds 10 1018 76 10000 6.7 70 22:19 13.07.2020
19 Clouds 10 1018 76 10000 6.2 70 21:55 13.07.2020
20 Clouds 10 1018 76 10000 6.2 70 21:37 13.07.2020
21 Clouds 11 1018 71 10000 6.2 70 21:19 13.07.2020
22 Clouds 11 1018 71 10000 6.2 70 20:54 13.07.2020
23 Clouds 11 1018 71 10000 6.2 70 20:36 13.07.2020
24 Clouds 12 1018 66 10000 7.2 60 20:18 13.07.2020
25 Clouds 12 1018 66 10000 6.7 60 19:42 13.07.2020
26 Rain 12 1018 66 10000 7.7 60 19:23 13.07.2020
27 Rain 12 1018 66 10000 8.2 60 18:57 13.07.2020
28 Rain 12 1018 66 10000 8.2 60 18:38 13.07.2020
29 Rain 13 1018 62 10000 7.2 60 18:20 13.07.2020
30 Rain 13 1018 62 10000 7.2 60 17:55 13.07.2020
31 Rain 13 1018 62 10000 7.2 60 17:37 13.07.2020
32 Rain 13 1018 62 10000 6.7 60 17:18 13.07.2020
33 Rain 13 1018 62 10000 6.2 60 16:43 13.07.2020
34 Rain 13 1017 62 10000 6.2 60 16:21 13.07.2020
35 Rain 17 1018 48 10000 5.7 60 15:59 13.07.2020
36 Rain 17 1018 48 10000 5.7 60 15:39 13.07.2020
37 Rain 14 1017 62 10000 6.2 60 15:20 13.07.2020
38 Rain 14 1017 58 10000 5.1 60 14:58 13.07.2020
39 Rain 14 1017 58 10000 5.1 60 14:58 13.07.2020
40 Rain 14 1017 58 10000 5.1 60 14:39 13.07.2020
41 Rain 14 1017 62 10000 5.1 60 14:20 13.07.2020
42 Rain 15 1017 58 10000 5.1 70 13:55 13.07.2020
43 Rain 15 1017 58 10000 5.1 70 13:37 13.07.2020
44 Rain 15 1017 58 10000 4.6 70 13:19 13.07.2020
45 Rain 15 1017 62 10000 4.6 70 12:43 13.07.2020
46 Rain 15 1017 62 10000 5.1 80 12:22 13.07.2020
47 Rain 15 1017 62 10000 5.1 80 11:56 13.07.2020
48 Rain 15 1017 62 10000 5.1 80 11:36 13.07.2020
49 Rain 15 1017 62 10000 5.1 80 11:18 13.07.2020
50 Rain 15 1017 62 10000 5.1 90 10:38 13.07.2020
51 Rain 15 1017 62 10000 5.1 90 10:20 13.07.2020
52 Rain 15 1017 62 10000 4.1 80 09:43 13.07.2020
53 Clouds 14 1017 67 10000 5.1 70 09:24 13.07.2020
54 Clouds 13 1017 71 10000 4.1 80 08:53 13.07.2020
55 Clouds 13 1017 71 10000 4.1 80 08:34 13.07.2020
56 Clouds 13 1017 66 10000 2.6 70 07:42 13.07.2020
57 Rain 13 1017 66 10000 2.6 70 07:19 13.07.2020
58 Rain 13 1017 71 10000 2.1 90 06:42 13.07.2020
59 Clouds 12 1017 76 10000 2.1 50 06:22 13.07.2020
60 Clouds 12 1016 76 10000 2.1 60 04:43 13.07.2020
61 Rain 10 1016 76 10000 2.1 110 01:57 13.07.2020
62 Rain 10 1016 76 10000 2.6 110 01:29 13.07.2020
63 Rain 10 1015 76 10000 2.1 110 00:59 13.07.2020
64 Clouds 11 1015 71 10000 4.1 80 00:27 13.07.2020
65 Clouds 11 1015 71 10000 4.6 80 23:59 12.07.2020
66 Clouds 11 1015 71 10000 4.6 80 23:40 12.07.2020
67 Clouds 11 1015 71 10000 4.6 80 23:22 12.07.2020
68 Clouds 12 1015 66 10000 5.1 70 22:54 12.07.2020
69 Clouds 12 1015 66 10000 5.1 70 22:36 12.07.2020
70 Clouds 12 1015 66 10000 5.1 70 22:36 12.07.2020
71 Clouds 12 1015 66 10000 5.1 70 22:36 12.07.2020
72 Clouds 12 1015 66 10000 5.1 70 22:36 12.07.2020
73 Clouds 13 1015 62 10000 5.7 80 22:18 12.07.2020
74 Clouds 13 1015 66 10000 6.2 80 21:42 12.07.2020
75 Rain 12 1014 66 10000 6.2 80 21:20 12.07.2020
76 Rain 13 1014 62 10000 5.1 80 20:59 12.07.2020
77 Rain 13 1014 62 10000 5.1 80 20:41 12.07.2020
78 Rain 13 1014 62 10000 5.1 80 20:20 12.07.2020
79 Rain 14 1014 58 10000 5.7 80 19:58 12.07.2020
80 Rain 14 1014 58 10000 5.7 80 19:39 12.07.2020
81 Rain 14 1014 58 10000 5.7 80 19:39 12.07.2020
82 Rain 14 1014 58 10000 5.7 70 19:18 12.07.2020
83 Rain 15 1014 54 10000 6.2 70 18:43 12.07.2020
84 Rain 14 1014 54 10000 5.7 70 18:43 12.07.2020
85 Rain 15 1014 54 10000 6.2 70 18:21 12.07.2020
86 Rain 15 1014 54 10000 5.7 70 17:58 12.07.2020
87 Rain 15 1014 54 10000 5.7 70 17:37 12.07.2020
88 Rain 15 1014 54 10000 6.2 70 17:19 12.07.2020
89 Rain 15 1014 54 10000 6.7 70 16:45 12.07.2020
90 Rain 15 1013 54 10000 5.7 70 16:21 12.07.2020
91 Rain 15 1013 54 10000 6.2 70 15:48 12.07.2020
92 Rain 15 1013 54 10000 5.7 70 15:29 12.07.2020
93 Rain 16 1013 51 10000 5.1 70 14:57 12.07.2020
94 Rain 16 1013 51 10000 5.1 70 14:38 12.07.2020
95 Rain 16 1013 55 10000 5.1 70 14:19 12.07.2020
96 Rain 16 1013 55 10000 5.1 70 14:19 12.07.2020
97 Rain 16 1013 51 10000 5.1 80 13:39 12.07.2020
98 Rain 16 1013 51 10000 5.1 80 13:21 12.07.2020
99 Rain 16 1013 48 10000 4.6 80 12:55 12.07.2020
100 Rain 16 1012 55 10000 5.1 90 12:36 12.07.2020
101 Rain 16 1012 55 10000 5.1 90 12:18 12.07.2020
102 Rain 16 1012 51 10000 5.1 90 11:44 12.07.2020
103 Rain 15 1012 54 10000 5.1 80 11:20 12.07.2020
104 Rain 16 1012 55 10000 5.1 80 10:44 12.07.2020
105 Rain 15 1012 54 10000 5.1 80 10:23 12.07.2020
106 Rain 15 1012 54 10000 5.1 80 10:23 12.07.2020
107 Rain 14 1011 62 10000 4.6 80 09:58 12.07.2020
108 Rain 14 1011 62 10000 4.6 80 09:40 12.07.2020
109 Rain 14 1011 62 10000 4.1 80 09:20 12.07.2020
110 Rain 15 1011 58 10000 4.1 80 08:55 12.07.2020
111 Rain 15 1011 58 10000 4.1 80 08:36 12.07.2020
112 Clouds 15 1011 58 10000 3.1 80 08:18 12.07.2020
113 Clouds 15 1011 62 10000 3.6 80 07:42 12.07.2020
114 Clouds 15 1011 62 10000 2.6 100 07:22 12.07.2020
115 Clouds 14 1010 62 10000 2.6 120 06:51 12.07.2020
116 Clouds 13 1010 71 10000 2.1 120 06:22 12.07.2020
117 Clouds 12 1010 71 10000 1.5 120 05:44 12.07.2020
118 Clouds 12 1010 71 10000 2.6 110 04:57 12.07.2020
119 Drizzle 11 1010 81 10000 3.1 100 04:28 12.07.2020
120 Clouds 12 1010 71 10000 3.1 110 03:40 12.07.2020
121 Clouds 11 1010 76 10000 2.6 120 03:19 12.07.2020
122 Clouds 12 1010 66 10000 3.6 130 01:50 12.07.2020
123 Clouds 12 1010 66 10000 2.6 150 00:55 12.07.2020
124 Clouds 12 1010 66 10000 4.1 130 00:24 12.07.2020
125 Clouds 13 1010 62 10000 2.6 150 23:59 11.07.2020
126 Clouds 13 1010 62 10000 2.6 150 23:40 11.07.2020
127 Clouds 12 1010 66 10000 3.6 100 23:20 11.07.2020
128 Clouds 12 1009 66 10000 4.6 90 22:56 11.07.2020
129 Clouds 12 1009 66 10000 4.6 90 22:37 11.07.2020
130 Clouds 12 1009 66 10000 4.6 100 22:18 11.07.2020
131 Clouds 12 1009 66 10000 5.7 90 21:42 11.07.2020
132 Clouds 13 1009 66 10000 5.7 80 21:23 11.07.2020
133 Clouds 13 1009 66 10000 5.1 80 20:59 11.07.2020
134 Clouds 13 1009 66 10000 5.1 80 20:40 11.07.2020
135 Clouds 13 1009 66 10000 5.1 80 20:40 11.07.2020
136 Clouds 14 1009 62 10000 4.1 90 20:21 11.07.2020
137 Clouds 14 1009 62 10000 4.1 90 19:58 11.07.2020
138 Clouds 14 1009 62 10000 4.1 90 19:40 11.07.2020
139 Clouds 13 1009 62 10000 4.6 80 19:22 11.07.2020
140 Clouds 13 1009 62 10000 4.6 80 18:56 11.07.2020
141 Clouds 13 1009 62 10000 4.6 80 18:38 11.07.2020
142 Clouds 13 1009 62 10000 4.6 80 18:19 11.07.2020
143 Clouds 13 1009 62 10000 4.6 80 17:55 11.07.2020
144 Clouds 13 1009 62 10000 4.6 80 17:37 11.07.2020
145 Clouds 13 1009 62 10000 5.1 80 17:18 11.07.2020
146 Clouds 13 1009 62 10000 5.1 80 16:42 11.07.2020
147 Clouds 14 1009 58 10000 4.1 70 16:23 11.07.2020
148 Clouds 14 1009 58 10000 4.1 80 15:58 11.07.2020
149 Clouds 14 1009 58 10000 4.1 80 15:39 11.07.2020
150 Clouds 15 1009 54 10000 4.1 80 15:20 11.07.2020
151 Clouds 15 1009 58 10000 4.1 70 14:57 11.07.2020
152 Clouds 15 1009 58 10000 4.1 70 14:37 11.07.2020
153 Clouds 15 1009 54 10000 4.1 70 14:19 11.07.2020
154 Clouds 15 1008 51 10000 2.6 0 13:42 11.07.2020
155 Clouds 15 1008 51 10000 1 0 13:22 11.07.2020
156 Clouds 15 1008 51 10000 2.1 260 12:57 11.07.2020
157 Clouds 14 1008 54 10000 2.6 200 12:38 11.07.2020
158 Clouds 14 1008 54 10000 2.6 200 12:20 11.07.2020
159 Clouds 13 1008 62 10000 3.6 220 11:42 11.07.2020
160 Clouds 13 1008 66 10000 3.6 210 11:21 11.07.2020
161 Clouds 11 1008 76 10000 4.1 210 10:57 11.07.2020
162 Clouds 11 1008 76 10000 4.1 210 10:39 11.07.2020
163 Clouds 10 1008 81 10000 4.6 210 10:21 11.07.2020
164 Clouds 10 1008 81 10000 4.6 210 09:43 11.07.2020
165 Clouds 10 1007 81 10000 4.6 220 09:20 11.07.2020
166 Clouds 10 1007 81 10000 4.6 210 08:49 11.07.2020
167 Clouds 9 1007 87 10000 4.6 220 08:31 11.07.2020
168 Clouds 9 1007 87 10000 4.6 200 07:59 11.07.2020
169 Clouds 9 1007 87 10000 4.6 210 07:40 11.07.2020
170 Clouds 9 1007 87 10000 4.6 210 07:19 11.07.2020
171 Clouds 8 1007 93 10000 4.6 220 06:46 11.07.2020
172 Clouds 8 1007 93 10000 4.6 220 06:18 11.07.2020
173 Clouds 8 1006 93 10000 6.7 260 05:20 11.07.2020
174 Clouds 8 1006 93 10000 6.7 260 04:53 11.07.2020
175 Clouds 8 1006 93 10000 7.2 270 04:31 11.07.2020
176 Rain 8 1006 93 10000 7.7 260 02:57 11.07.2020
177 Rain 8 1006 93 10000 7.7 260 02:36 11.07.2020
178 Clouds 7 1005 100 10000 8.7 250 01:27 11.07.2020
179 Clouds 7 1005 100 10000 8.2 260 00:59 11.07.2020
180 Clouds 7 1005 100 10000 8.2 260 00:38 11.07.2020
181 Clouds 7 1005 100 10000 9.3 250 00:19 11.07.2020
182 Clouds 7 1005 100 10000 9.8 260 23:56 10.07.2020
183 Clouds 8 1005 93 10000 8.7 260 23:38 10.07.2020
184 Clouds 8 1005 93 10000 8.7 260 23:18 10.07.2020
185 Clouds 8 1005 93 10000 8.7 260 22:42 10.07.2020
186 Rain 8 1005 93 10000 9.3 260 22:19 10.07.2020
187 Rain 8 1005 93 10000 7.2 270 21:41 10.07.2020
188 Rain 8 1005 93 10000 6.7 280 21:21 10.07.2020
189 Rain 8 1005 87 10000 7.7 290 20:59 10.07.2020
190 Rain 8 1005 87 10000 7.7 290 20:41 10.07.2020
191 Rain 8 1005 87 10000 8.7 270 20:21 10.07.2020
192 Rain 8 1005 87 10000 9.3 270 19:57 10.07.2020
193 Rain 8 1005 87 10000 8.7 270 19:39 10.07.2020
194 Rain 8 1005 87 10000 8.7 270 19:19 10.07.2020
195 Rain 8 1005 87 10000 7.2 280 18:41 10.07.2020
196 Rain 8 1005 87 10000 8.7 270 18:20 10.07.2020
197 Rain 7 1005 93 10000 7.7 270 17:57 10.07.2020
198 Rain 7 1005 93 10000 7.7 270 17:38 10.07.2020
199 Rain 7 1005 100 10000 7.2 280 17:20 10.07.2020
200 Rain 7 1005 93 10000 10.8 290 16:42 10.07.2020
201 Rain 7 1005 93 10000 11.3 290 16:20 10.07.2020
202 Rain 7 1005 93 10000 11.8 290 15:47 10.07.2020
203 Clouds 7 1005 93 10000 12.3 290 15:26 10.07.2020
204 Clouds 7 1005 93 10000 11.8 290 14:56 10.07.2020
205 Clouds 7 1005 93 10000 11.8 290 14:38 10.07.2020
206 Clouds 7 1005 93 10000 10.8 290 14:20 10.07.2020
207 Clouds 7 1005 87 10000 10.3 290 13:57 10.07.2020
208 Clouds 8 1005 81 10000 9.3 290 13:38 10.07.2020
209 Clouds 8 1005 81 10000 9.3 290 13:20 10.07.2020
210 Clouds 7 1005 87 10000 8.7 290 12:55 10.07.2020
211 Clouds 7 1006 87 10000 7.7 290 12:37 10.07.2020
212 Clouds 7 1006 87 10000 7.7 290 12:18 10.07.2020
213 Clouds 7 1006 87 10000 6.7 300 11:39 10.07.2020
214 Clouds 7 1005 87 10000 8.2 310 11:20 10.07.2020
215 Clouds 8 1006 81 10000 8.7 310 10:56 10.07.2020
216 Clouds 8 1006 81 10000 8.7 310 10:38 10.07.2020
217 Clouds 8 1006 81 10000 8.7 310 10:18 10.07.2020
218 Clouds 8 1006 81 10000 8.7 310 09:40 10.07.2020
219 Clouds 7 1006 87 10000 7.2 310 09:22 10.07.2020
220 Clouds 7 1006 87 10000 8.2 320 08:58 10.07.2020
221 Clouds 7 1006 87 10000 8.2 320 08:40 10.07.2020
222 Clouds 8 1006 81 10000 8.2 330 08:22 10.07.2020
223 Clouds 8 1006 81 10000 7.2 320 07:44 10.07.2020
224 Clouds 9 1006 81 10000 7.7 330 07:23 10.07.2020
225 Clouds 7 1007 87 10000 5.7 340 06:52 10.07.2020
226 Clouds 8 1006 87 10000 4.6 330 06:32 10.07.2020
227 Clouds 7 1006 93 10000 4.6 320 05:27 10.07.2020
228 Clouds 7 1007 93 10000 6.7 310 03:44 10.07.2020
229 Clouds 7 1007 87 10000 6.2 330 02:53 10.07.2020
230 Clouds 6 1008 93 10000 4.6 340 01:57 10.07.2020
231 Clouds 6 1008 93 10000 5.1 340 00:54 10.07.2020
232 Clouds 7 1008 87 10000 4.1 330 00:22 10.07.2020
233 Clouds 7 1008 87 10000 4.1 330 23:55 09.07.2020
234 Clouds 7 1008 87 10000 4.1 330 23:37 09.07.2020
235 Clouds 7 1008 93 10000 3.6 340 23:18 09.07.2020
236 Clouds 7 1008 93 10000 3.1 350 22:56 09.07.2020
237 Clouds 7 1008 93 10000 3.1 350 22:38 09.07.2020
238 Clouds 8 1008 87 10000 3.1 350 22:19 09.07.2020
239 Clouds 8 1008 87 10000 3.1 350 21:39 09.07.2020
240 Clouds 8 1008 87 10000 3.6 340 21:20 09.07.2020
241 Clouds 9 1008 87 10000 3.1 330 20:59 09.07.2020
242 Clouds 9 1008 87 10000 3.1 330 20:40 09.07.2020
243 Clouds 10 1008 81 10000 2.6 340 20:22 09.07.2020
244 Clouds 10 1008 81 10000 3.6 350 19:43 09.07.2020
245 Clouds 10 1008 81 10000 4.1 340 19:22 09.07.2020
246 Clouds 11 1008 76 10000 3.1 340 18:57 09.07.2020
247 Clouds 11 1008 76 10000 3.1 340 18:39 09.07.2020
248 Clouds 12 1008 71 10000 3.6 350 18:19 09.07.2020
249 Clouds 12 1008 71 10000 4.1 340 17:43 09.07.2020
250 Clouds 12 1008 71 10000 4.1 340 17:23 09.07.2020
251 Clouds 12 1008 71 10000 4.6 340 16:58 09.07.2020
252 Clouds 12 1008 71 10000 4.6 340 16:38 09.07.2020
253 Clouds 12 1008 71 10000 5.1 330 16:19 09.07.2020
254 Clouds 12 1008 71 10000 4.6 330 15:58 09.07.2020
255 Clouds 12 1008 71 10000 4.6 330 15:38 09.07.2020
256 Clouds 11 1008 76 10000 4.1 340 15:18 09.07.2020
257 Clouds 11 1008 76 10000 5.1 330 14:58 09.07.2020
258 Clouds 11 1008 76 10000 5.1 330 14:39 09.07.2020
259 Clouds 11 1007 76 10000 5.1 340 14:20 09.07.2020
260 Clouds 12 1007 71 10000 5.1 330 13:56 09.07.2020
261 Clouds 12 1007 71 10000 5.1 330 13:38 09.07.2020
262 Clouds 12 1007 76 10000 4.1 320 13:19 09.07.2020
263 Clouds 12 1007 71 10000 4.6 330 12:42 09.07.2020
264 Clouds 11 1007 76 10000 4.6 310 12:23 09.07.2020
265 Clouds 10 1007 81 10000 6.2 300 11:58 09.07.2020
266 Clouds 10 1007 81 10000 6.2 300 11:40 09.07.2020
267 Clouds 10 1006 87 10000 6.7 290 11:19 09.07.2020
268 Clouds 10 1006 87 10000 6.2 290 10:56 09.07.2020
269 Clouds 10 1006 87 10000 6.2 290 10:38 09.07.2020
270 Clouds 9 1006 87 10000 4.6 280 10:19 09.07.2020
271 Clouds 9 1006 87 10000 5.1 280 09:43 09.07.2020
272 Clouds 8 1006 100 10000 5.1 280 09:23 09.07.2020
273 Clouds 8 1006 100 10000 5.1 270 08:52 09.07.2020
274 Clouds 7 1006 100 10000 4.1 260 08:27 09.07.2020
275 Fog 7 1006 100 5000 4.6 270 07:58 09.07.2020
276 Fog 7 1006 100 5000 4.6 270 07:40 09.07.2020
277 Fog 7 1005 100 1000 5.1 280 07:21 09.07.2020
278 Fog 7 1005 100 700 5.1 300 06:21 09.07.2020
279 Clouds 7 1005 100 10000 4.1 300 05:57 09.07.2020
280 Clouds 8 1005 93 10000 5.7 330 04:29 09.07.2020
281 Clouds 8 1005 93 10000 4.1 320 03:22 09.07.2020
282 Clouds 8 1005 93 10000 1.5 330 01:56 09.07.2020
283 Clouds 8 1005 93 10000 1.5 40 01:19 09.07.2020
284 Clouds 8 1005 93 10000 2.1 50 00:41 09.07.2020
285 Clouds 8 1005 93 10000 2.1 10 00:22 09.07.2020
286 Clouds 7 1005 100 10000 2.1 350 23:43 08.07.2020
287 Clouds 8 1005 93 10000 1 0 23:25 08.07.2020
288 Clouds 8 1005 100 10000 1.5 50 22:56 08.07.2020
289 Clouds 8 1005 100 10000 1.5 50 22:38 08.07.2020
290 Clouds 8 1005 100 10000 1.5 50 22:38 08.07.2020
291 Clouds 8 1005 93 10000 2.1 330 22:20 08.07.2020
292 Clouds 9 1005 87 10000 2.1 330 21:56 08.07.2020
293 Clouds 9 1005 87 10000 2.1 330 21:36 08.07.2020
294 Clouds 9 1005 93 10000 1 30 21:18 08.07.2020
295 Clouds 9 1005 87 10000 3.1 60 20:41 08.07.2020
296 Clouds 9 1005 87 10000 1.5 80 20:23 08.07.2020
297 Clouds 9 1005 87 10000 2.1 70 19:56 08.07.2020
298 Clouds 9 1005 87 10000 2.1 70 19:37 08.07.2020
299 Clouds 9 1005 87 10000 4.1 80 19:19 08.07.2020
300 Clouds 9 1006 87 10000 4.6 80 18:42 08.07.2020
301 Clouds 9 1006 87 10000 4.6 70 18:21 08.07.2020
302 Clouds 10 1006 81 10000 4.6 80 17:57 08.07.2020
303 Clouds 10 1006 76 10000 3.6 80 17:39 08.07.2020
304 Clouds 10 1006 76 10000 3.6 80 17:20 08.07.2020
305 Clouds 10 1005 76 10000 4.6 80 16:57 08.07.2020
306 Clouds 10 1005 76 10000 4.6 80 16:38 08.07.2020
307 Clouds 10 1005 76 10000 5.1 70 16:18 08.07.2020
308 Clouds 10 1006 76 10000 4.1 80 15:58 08.07.2020
309 Clouds 10 1006 76 10000 4.1 80 15:38 08.07.2020
310 Clouds 10 1005 81 10000 5.1 70 15:19 08.07.2020
311 Clouds 10 1005 81 10000 4.6 70 14:42 08.07.2020
312 Clouds 10 1005 81 10000 5.1 70 14:23 08.07.2020
313 Clouds 10 1005 81 10000 5.1 70 13:57 08.07.2020
314 Clouds 10 1005 81 10000 5.1 70 13:38 08.07.2020
315 Clouds 10 1005 81 10000 5.1 80 13:18 08.07.2020
316 Clouds 10 1005 81 10000 4.6 70 12:41 08.07.2020
317 Clouds 10 1005 81 10000 4.6 70 12:20 08.07.2020
318 Clouds 10 1005 81 10000 4.6 80 11:55 08.07.2020
319 Clouds 10 1005 81 10000 4.6 80 11:37 08.07.2020
320 Rain 9 1005 93 10000 5.7 80 11:19 08.07.2020
321 Rain 9 1005 87 10000 6.2 80 10:42 08.07.2020
322 Rain 9 1005 81 10000 5.7 80 10:23 08.07.2020
323 Clouds 9 1004 81 10000 6.2 80 09:45 08.07.2020
324 Clouds 9 1004 81 10000 4.1 70 09:25 08.07.2020
325 Clouds 9 1004 81 10000 3.6 70 08:44 08.07.2020
326 Clouds 9 1004 76 10000 4.1 80 08:25 08.07.2020
327 Clouds 9 1004 81 10000 3.6 80 07:57 08.07.2020
328 Clouds 9 1004 81 10000 3.6 80 07:38 08.07.2020
329 Clouds 9 1004 81 10000 3.6 80 07:19 08.07.2020
330 Clouds 10 1004 76 10000 2.1 70 06:43 08.07.2020
331 Clouds 10 1004 76 10000 2.1 70 06:24 08.07.2020
332 Clouds 9 1004 81 10000 2.1 70 05:44 08.07.2020
333 Clouds 9 1004 81 10000 2.1 70 05:44 08.07.2020
334 Clouds 9 1003 81 10000 1 0 04:44 08.07.2020
335 Clouds 9 1003 81 10000 2.1 310 03:33 08.07.2020
336 Clouds 7 1003 87 10000 1.5 310 02:19 08.07.2020
337 Clouds 8 1003 87 10000 2.6 290 01:38 08.07.2020
338 Clouds 8 1002 87 10000 3.6 290 00:50 08.07.2020
339 Clouds 9 1002 81 10000 5.1 250 00:19 08.07.2020
340 Clouds 9 1002 81 10000 5.1 240 23:43 07.07.2020
341 Clouds 9 1001 81 10000 4.6 240 23:22 07.07.2020
342 Clouds 9 1001 81 10000 6.2 260 22:55 07.07.2020
343 Clouds 9 1001 81 10000 6.2 260 22:55 07.07.2020
344 Clouds 9 1001 81 10000 6.2 260 22:37 07.07.2020
345 Clouds 9 1001 81 10000 6.7 270 22:19 07.07.2020
346 Clouds 10 1001 76 10000 7.7 280 21:42 07.07.2020
347 Clouds 10 1000 76 10000 8.7 280 21:22 07.07.2020
348 Clouds 9 1000 81 10000 8.7 270 20:59 07.07.2020
349 Clouds 9 1000 81 10000 8.7 270 20:41 07.07.2020
350 Clouds 10 1000 76 10000 7.7 270 20:23 07.07.2020
351 Clouds 10 1000 76 10000 9.8 270 19:55 07.07.2020
352 Clouds 10 1000 81 10000 9.3 270 19:37 07.07.2020
353 Clouds 10 1000 81 10000 9.3 270 19:19 07.07.2020
354 Clouds 9 1000 87 10000 7.7 270 18:55 07.07.2020
355 Clouds 9 1000 87 10000 7.7 270 18:37 07.07.2020
356 Clouds 10 999 81 10000 8.2 270 18:18 07.07.2020
357 Clouds 10 999 87 10000 10.8 270 17:43 07.07.2020
358 Clouds 10 998 87 10000 9.3 270 17:23 07.07.2020
359 Clouds 10 998 81 10000 10.3 270 16:58 07.07.2020
360 Clouds 10 998 81 10000 10.3 270 16:58 07.07.2020
361 Clouds 10 998 81 10000 10.3 270 16:40 07.07.2020
362 Clouds 10 998 87 10000 8.7 270 16:21 07.07.2020
363 Clouds 10 997 87 10000 9.8 270 15:55 07.07.2020
364 Clouds 10 997 87 10000 9.8 270 15:36 07.07.2020
365 Clouds 10 997 81 10000 8.7 260 15:18 07.07.2020
366 Clouds 10 996 87 10000 8.2 270 14:42 07.07.2020
367 Clouds 10 996 81 10000 7.7 270 14:23 07.07.2020
368 Clouds 10 995 81 10000 8.2 270 13:43 07.07.2020
369 Clouds 10 995 87 10000 6.7 270 13:20 07.07.2020
370 Clouds 9 995 93 10000 8.7 250 12:56 07.07.2020
371 Clouds 9 994 93 10000 7.7 250 12:36 07.07.2020
372 Clouds 9 994 93 10000 7.7 250 12:36 07.07.2020
373 Clouds 9 994 93 10000 7.7 250 12:18 07.07.2020
374 Clouds 9 994 93 10000 9.8 250 11:42 07.07.2020
375 Clouds 9 993 93 10000 11.3 250 11:21 07.07.2020
376 Clouds 9 993 93 10000 10.3 250 10:58 07.07.2020
377 Clouds 9 993 93 10000 10.3 250 10:39 07.07.2020
378 Clouds 8 993 100 10000 9.3 250 10:20 07.07.2020
379 Clouds 8 993 100 10000 9.3 250 09:42 07.07.2020
380 Clouds 8 992 100 10000 9.8 250 09:21 07.07.2020
381 Drizzle 8 992 100 8000 9.8 250 08:54 07.07.2020
382 Drizzle 8 992 100 8000 9.8 250 08:36 07.07.2020
383 Clouds 8 992 93 10000 8.7 260 08:18 07.07.2020
384 Clouds 8 992 93 10000 8.2 270 07:38 07.07.2020
385 Clouds 8 992 93 10000 8.2 270 07:19 07.07.2020
386 Clouds 8 991 93 10000 10.3 270 06:41 07.07.2020
387 Clouds 8 991 93 10000 10.3 270 06:22 07.07.2020
388 Rain 8 991 93 10000 10.8 270 05:43 07.07.2020
389 Clouds 7 991 100 10000 8.7 270 04:52 07.07.2020
390 Clouds 7 990 100 10000 10.8 270 03:49 07.07.2020
391 Clouds 7 990 100 10000 9.8 270 03:30 07.07.2020
392 Mist 7 990 100 4500 9.3 270 01:50 07.07.2020
393 Clouds 7 990 100 10000 7.7 280 01:00 07.07.2020
394 Clouds 7 990 100 10000 7.7 280 00:40 07.07.2020
395 Clouds 7 989 100 10000 9.8 290 00:20 07.07.2020
396 Clouds 7 989 100 10000 10.3 290 23:44 06.07.2020
397 Clouds 7 989 100 10000 10.3 290 23:44 06.07.2020
398 Clouds 7 989 100 10000 11.8 300 23:25 06.07.2020
399 Clouds 7 989 100 10000 10.3 290 22:59 06.07.2020
400 Clouds 7 989 100 10000 10.3 290 22:39 06.07.2020
401 Rain 7 989 100 10000 8.7 290 22:18 06.07.2020
402 Rain 7 989 100 10000 9.8 310 21:56 06.07.2020
403 Rain 7 989 100 10000 9.8 310 21:37 06.07.2020
404 Rain 7 989 100 9000 10.3 310 21:18 06.07.2020
405 Mist 7 989 100 9000 10.3 310 20:41 06.07.2020
406 Mist 7 988 100 5000 10.3 310 20:22 06.07.2020
407 Rain 7 988 100 10000 8.7 300 19:59 06.07.2020
408 Drizzle 7 988 100 9000 10.3 290 19:41 06.07.2020
409 Drizzle 7 988 100 9000 10.3 290 19:23 06.07.2020
410 Drizzle 7 988 100 5000 10.8 280 18:59 06.07.2020
411 Mist 7 988 100 5000 10.8 280 18:41 06.07.2020
412 Mist 7 988 100 5000 10.8 280 18:41 06.07.2020
413 Rain 7 988 100 10000 9.8 280 18:22 06.07.2020
414 Rain 7 988 100 10000 9.8 280 17:57 06.07.2020
415 Rain 7 988 100 10000 9.8 280 17:38 06.07.2020
416 Rain 7 987 100 10000 11.3 280 17:19 06.07.2020
417 Rain 7 987 100 10000 11.3 290 16:43 06.07.2020
418 Rain 7 987 100 10000 12.3 290 16:24 06.07.2020
419 Rain 7 987 100 10000 12.3 290 16:24 06.07.2020
420 Rain 7 987 100 10000 11.3 290 15:57 06.07.2020
421 Drizzle 7 987 93 10000 12.3 290 15:39 06.07.2020
422 Drizzle 7 987 93 10000 12.3 290 15:20 06.07.2020
423 Clouds 7 987 93 10000 11.8 290 14:55 06.07.2020
424 Clouds 7 987 93 10000 11.8 290 14:36 06.07.2020
425 Drizzle 7 987 100 10000 10.8 290 14:18 06.07.2020
426 Rain 7 987 100 8000 9.8 300 13:43 06.07.2020
427 Rain 7 987 100 7000 9.8 310 13:24 06.07.2020
428 Rain 7 987 100 9000 10.3 290 12:54 06.07.2020
429 Drizzle 7 987 100 10000 11.3 290 12:36 06.07.2020
430 Drizzle 7 987 100 10000 11.3 290 12:18 06.07.2020
431 Rain 7 987 100 10000 12.3 280 11:41 06.07.2020
432 Rain 7 987 100 10000 11.8 290 11:23 06.07.2020
433 Rain 7 987 100 6000 11.3 280 10:59 06.07.2020
434 Rain 7 987 100 6000 11.3 280 10:40 06.07.2020
435 Drizzle 7 988 100 5000 10.3 290 10:21 06.07.2020
436 Drizzle 7 988 100 6000 9.3 280 09:55 06.07.2020
437 Drizzle 7 988 100 10000 9.8 280 09:37 06.07.2020
438 Drizzle 7 988 100 10000 9.8 280 09:18 06.07.2020
439 Drizzle 7 988 93 10000 9.8 280 08:40 06.07.2020
440 Drizzle 7 989 93 10000 9.8 270 08:22 06.07.2020
441 Rain 6 989 100 10000 9.8 270 07:53 06.07.2020
442 Clouds 6 989 100 10000 10.8 280 07:31 06.07.2020
443 Clouds 6 990 100 10000 10.8 280 06:56 06.07.2020
444 Rain 6 990 100 10000 11.3 280 06:37 06.07.2020
445 Rain 7 991 87 10000 12.9 290 05:55 06.07.2020
446 Drizzle 7 991 87 10000 10.3 290 05:28 06.07.2020
447 Clouds 7 992 93 10000 9.8 310 03:58 06.07.2020
448 Clouds 7 993 87 10000 11.3 300 02:44 06.07.2020
449 Clouds 7 994 93 10000 10.8 310 01:59 06.07.2020
450 Clouds 7 994 93 10000 8.2 320 00:51 06.07.2020
451 Clouds 7 994 93 10000 9.3 330 00:25 06.07.2020
452 Drizzle 7 995 93 10000 8.2 320 23:58 05.07.2020
453 Drizzle 7 995 93 10000 8.2 320 23:39 05.07.2020
454 Drizzle 7 995 93 10000 7.7 320 23:21 05.07.2020
455 Drizzle 7 995 93 10000 7.2 330 22:57 05.07.2020
456 Drizzle 7 995 93 10000 7.2 330 22:37 05.07.2020
457 Drizzle 7 996 93 10000 8.2 340 22:18 05.07.2020
458 Drizzle 7 996 93 10000 7.2 350 21:55 05.07.2020
459 Drizzle 7 996 93 10000 7.2 350 21:37 05.07.2020
460 Drizzle 7 996 93 10000 7.2 350 21:37 05.07.2020
461 Rain 7 996 93 10000 6.7 350 21:18 05.07.2020
462 Rain 7 996 93 10000 7.7 350 20:41 05.07.2020
463 Rain 7 996 87 10000 8.2 360 20:23 05.07.2020
464 Drizzle 7 997 93 10000 8.2 360 19:58 05.07.2020
465 Drizzle 7 997 93 10000 8.2 360 19:40 05.07.2020
466 Drizzle 8 997 87 10000 8.2 360 19:20 05.07.2020
467 Drizzle 8 997 87 10000 5.7 10 18:55 05.07.2020
468 Rain 8 997 87 10000 6.2 20 18:37 05.07.2020
469 Rain 8 997 87 10000 6.2 20 18:18 05.07.2020
470 Clouds 9 997 76 10000 6.2 10 17:42 05.07.2020
471 Clouds 9 998 76 10000 6.2 10 17:19 05.07.2020
472 Clouds 8 998 81 10000 5.7 10 16:45 05.07.2020
473 Clouds 9 998 76 10000 5.7 10 16:26 05.07.2020
474 Drizzle 8 998 81 10000 5.7 10 15:59 05.07.2020
475 Drizzle 8 998 81 10000 5.7 10 15:40 05.07.2020
476 Rain 8 998 81 10000 4.6 10 15:20 05.07.2020
477 Clouds 8 998 75 10000 5.7 40 14:43 05.07.2020
478 Clouds 8 998 75 10000 5.7 40 14:23 05.07.2020
479 Clouds 9 998 70 10000 5.7 40 13:59 05.07.2020
480 Clouds 9 998 70 10000 5.7 10 13:40 05.07.2020
481 Clouds 9 998 70 10000 5.7 10 13:20 05.07.2020
482 Clouds 10 998 66 10000 5.1 20 12:44 05.07.2020
483 Clouds 9 998 70 10000 4.6 20 12:20 05.07.2020
484 Clouds 9 999 66 10000 4.1 50 11:55 05.07.2020
485 Clouds 9 998 66 10000 3.6 60 11:37 05.07.2020
486 Clouds 9 998 66 10000 3.6 60 11:18 05.07.2020
487 Clouds 9 999 70 10000 4.1 70 10:54 05.07.2020
488 Clouds 9 999 70 10000 4.1 70 10:36 05.07.2020
489 Clouds 10 999 66 10000 2.6 40 10:18 05.07.2020
490 Clouds 11 999 57 10000 1.5 340 09:41 05.07.2020
491 Clouds 10 999 61 10000 1.5 340 09:20 05.07.2020
492 Clouds 10 999 61 10000 2.1 350 08:56 05.07.2020
493 Clouds 10 999 61 10000 2.1 350 08:37 05.07.2020
494 Clouds 10 999 61 10000 1.5 0 07:59 05.07.2020
495 Clouds 9 999 70 10000 1.5 0 07:39 05.07.2020
496 Clouds 9 999 70 10000 1.5 0 07:21 05.07.2020
497 Clouds 9 1000 70 10000 1.5 230 06:30 05.07.2020
498 Clouds 6 1000 87 10000 3.1 210 04:24 05.07.2020
499 Clouds 6 1000 87 10000 3.1 220 03:18 05.07.2020
500 Clouds 6 1000 87 10000 3.6 210 02:40 05.07.2020
501 Clouds 6 1000 87 10000 4.1 210 01:59 05.07.2020
502 Clouds 6 1000 87 10000 5.1 210 01:28 05.07.2020
503 Clouds 6 1000 87 10000 4.6 210 00:52 05.07.2020
504 Clouds 6 1000 87 10000 3.6 210 00:31 05.07.2020
505 Clouds 6 1000 87 10000 5.1 250 23:57 04.07.2020
506 Clouds 6 1000 87 10000 5.1 250 23:38 04.07.2020
507 Clouds 6 1000 87 10000 5.7 260 23:20 04.07.2020
508 Clouds 6 1000 93 10000 6.7 260 22:42 04.07.2020
509 Clouds 6 1001 93 10000 6.7 250 22:24 04.07.2020
510 Clouds 6 1000 93 10000 6.2 250 21:58 04.07.2020
511 Clouds 6 1000 93 10000 6.2 250 21:40 04.07.2020
512 Clouds 6 1000 93 10000 6.7 250 21:22 04.07.2020
513 Clouds 6 1000 93 10000 6.7 250 20:43 04.07.2020
514 Drizzle 6 1000 93 10000 7.2 260 20:22 04.07.2020
515 Rain 6 1000 93 10000 9.3 270 19:58 04.07.2020
516 Rain 6 1000 87 10000 9.8 270 19:39 04.07.2020
517 Rain 6 1000 87 10000 9.8 270 19:21 04.07.2020
518 Rain 6 1000 87 10000 9.8 270 19:21 04.07.2020
519 Clouds 7 1000 87 10000 10.8 260 18:46 04.07.2020
520 Clouds 7 1000 87 10000 10.8 260 18:23 04.07.2020
521 Clouds 7 999 87 10000 11.8 240 17:56 04.07.2020
522 Clouds 7 999 87 10000 11.8 240 17:38 04.07.2020
523 Clouds 7 999 87 10000 11.3 240 17:19 04.07.2020
524 Clouds 7 999 93 10000 12.9 240 16:56 04.07.2020
525 Clouds 7 999 93 10000 12.9 240 16:36 04.07.2020
526 Clouds 7 999 93 10000 12.9 240 16:36 04.07.2020
527 Clouds 7 999 93 10000 12.9 240 16:18 04.07.2020
528 Clouds 8 999 93 10000 10.8 240 15:41 04.07.2020
529 Clouds 9 999 87 10000 8.7 240 15:23 04.07.2020
530 Clouds 8 998 93 10000 7.7 240 14:57 04.07.2020
531 Clouds 8 998 93 10000 7.7 240 14:37 04.07.2020
532 Clouds 8 998 93 10000 5.1 230 14:18 04.07.2020
533 Rain 7 998 100 10000 5.7 220 13:43 04.07.2020
534 Clouds 7 998 100 10000 5.1 220 13:20 04.07.2020
535 Clouds 7 998 100 10000 5.1 210 12:59 04.07.2020
536 Clouds 7 998 100 10000 5.1 210 12:40 04.07.2020
537 Rain 7 998 100 10000 4.1 210 12:20 04.07.2020
538 Rain 7 998 93 10000 3.6 220 11:45 04.07.2020
539 Rain 7 999 93 10000 3.6 220 11:24 04.07.2020
540 Rain 7 999 93 10000 4.1 270 10:57 04.07.2020
541 Rain 7 999 93 10000 4.1 270 10:38 04.07.2020
542 Rain 7 999 93 10000 5.1 270 10:19 04.07.2020
543 Rain 7 999 93 10000 4.6 290 09:54 04.07.2020
544 Rain 7 999 93 10000 4.6 290 09:36 04.07.2020
545 Drizzle 7 999 93 10000 5.1 300 09:18 04.07.2020
546 Drizzle 7 999 93 10000 1 0 08:43 04.07.2020
547 Rain 7 1000 87 10000 1 0 08:24 04.07.2020
548 Drizzle 8 1000 81 10000 2.1 20 07:42 04.07.2020
549 Drizzle 8 1000 81 10000 2.1 20 07:20 04.07.2020
550 Rain 8 1001 81 10000 2.6 50 06:40 04.07.2020
551 Drizzle 8 1001 75 10000 2.6 70 06:20 04.07.2020
552 Clouds 9 1001 66 10000 2.6 70 05:31 04.07.2020
553 Rain 8 1002 75 10000 4.1 90 04:22 04.07.2020
554 Rain 7 1003 81 10000 7.2 90 02:45 04.07.2020
555 Clouds 8 1003 81 10000 6.7 100 01:42 04.07.2020
556 Clouds 8 1004 81 10000 5.7 80 00:59 04.07.2020
557 Clouds 8 1004 81 10000 5.7 80 00:40 04.07.2020
558 Clouds 9 1004 76 10000 7.2 90 00:21 04.07.2020
559 Clouds 9 1004 76 10000 7.2 90 23:39 03.07.2020
560 Clouds 9 1004 70 10000 7.2 80 23:18 03.07.2020
561 Clouds 9 1004 70 10000 7.2 80 23:18 03.07.2020
562 Clouds 8 1004 75 10000 7.2 70 22:43 03.07.2020
563 Clouds 8 1005 75 10000 6.2 70 22:25 03.07.2020
564 Clouds 8 1005 75 10000 5.7 70 21:59 03.07.2020
565 Clouds 8 1005 75 10000 5.7 70 21:59 03.07.2020
566 Clouds 8 1005 75 10000 5.7 70 21:39 03.07.2020
567 Clouds 8 1005 81 10000 5.1 60 21:19 03.07.2020
568 Clouds 9 1005 70 10000 5.1 70 20:43 03.07.2020
569 Clouds 10 1005 71 10000 5.1 70 20:25 03.07.2020
570 Clouds 10 1005 71 10000 4.6 90 19:59 03.07.2020
571 Clouds 10 1005 71 10000 4.6 90 19:39 03.07.2020
572 Clouds 10 1005 71 10000 4.6 80 19:18 03.07.2020
573 Clouds 10 1005 71 10000 4.6 80 18:45 03.07.2020
574 Clouds 10 1005 76 10000 4.6 80 18:24 03.07.2020
575 Clouds 10 1005 71 10000 4.1 80 17:56 03.07.2020
576 Clouds 10 1005 71 10000 4.1 80 17:38 03.07.2020
577 Clouds 11 1005 66 10000 3.6 80 17:20 03.07.2020
578 Clouds 12 1004 58 10000 4.1 330 16:40 03.07.2020
579 Clouds 13 1004 54 10000 4.6 290 16:21 03.07.2020
580 Clouds 12 1004 54 10000 4.1 290 15:45 03.07.2020
581 Clouds 12 1004 58 10000 4.6 240 15:24 03.07.2020
582 Clouds 11 1004 62 10000 5.7 260 14:57 03.07.2020
583 Clouds 11 1004 62 10000 6.7 260 14:39 03.07.2020
584 Clouds 11 1004 62 10000 6.7 260 14:19 03.07.2020
585 Clouds 10 1004 66 10000 5.7 250 13:47 03.07.2020
586 Clouds 10 1004 71 10000 4.1 260 13:28 03.07.2020
587 Clouds 10 1004 71 10000 5.7 280 12:45 03.07.2020
588 Clouds 9 1004 76 10000 6.2 250 12:24 03.07.2020
589 Clouds 9 1003 87 10000 7.7 240 11:58 03.07.2020
590 Clouds 9 1003 87 10000 7.7 240 11:40 03.07.2020
591 Clouds 8 1003 81 10000 7.7 250 11:21 03.07.2020
592 Rain 7 1003 93 10000 6.2 250 10:55 03.07.2020
593 Rain 7 1003 93 10000 6.2 250 10:37 03.07.2020
594 Drizzle 7 1003 93 10000 6.7 240 10:18 03.07.2020
595 Rain 7 1002 93 10000 7.7 240 09:54 03.07.2020
596 Rain 7 1002 93 10000 7.7 240 09:54 03.07.2020
597 Rain 7 1002 87 10000 6.7 220 09:36 03.07.2020
598 Rain 7 1002 87 10000 6.7 220 09:18 03.07.2020
599 Rain 7 1002 93 10000 6.2 220 08:39 03.07.2020
600 Rain 6 1002 100 10000 5.7 220 08:18 03.07.2020
601 Rain 6 1001 93 10000 6.2 220 07:48 03.07.2020
602 Rain 6 1001 93 10000 7.2 220 07:26 03.07.2020
603 Rain 6 1001 93 10000 8.2 230 06:47 03.07.2020
604 Drizzle 6 1001 93 10000 7.2 220 05:59 03.07.2020
605 Drizzle 6 1000 100 10000 7.7 230 04:48 03.07.2020
606 Drizzle 6 1000 93 10000 8.2 250 03:26 03.07.2020
607 Drizzle 6 999 93 10000 8.7 250 02:45 03.07.2020
608 Drizzle 6 999 93 10000 8.7 250 02:23 03.07.2020
609 Rain 6 999 93 10000 6.2 240 01:28 03.07.2020
610 Rain 6 999 93 10000 8.2 250 00:44 03.07.2020
611 Rain 6 999 93 10000 8.2 260 00:26 03.07.2020
612 Drizzle 6 999 93 10000 8.2 260 23:44 02.07.2020
613 Drizzle 6 999 93 10000 8.7 250 23:20 02.07.2020
614 Rain 6 998 93 10000 9.3 260 22:57 02.07.2020
615 Rain 6 998 93 10000 9.3 260 22:39 02.07.2020
616 Rain 6 998 93 10000 9.8 260 22:20 02.07.2020
617 Rain 5 998 100 10000 9.8 260 21:54 02.07.2020
618 Rain 5 998 100 10000 9.8 260 21:36 02.07.2020
619 Rain 5 998 100 10000 10.3 260 21:18 02.07.2020
620 Drizzle 5 997 93 10000 11.8 270 20:42 02.07.2020
621 Drizzle 5 997 93 10000 13.4 270 20:21 02.07.2020
622 Rain 5 997 93 10000 12.3 270 19:59 02.07.2020
623 Drizzle 5 997 93 10000 12.9 260 19:38 02.07.2020
624 Drizzle 5 997 93 10000 12.9 260 19:20 02.07.2020
625 Rain 5 996 93 10000 13.4 270 18:57 02.07.2020
626 Rain 5 996 93 10000 13.4 270 18:39 02.07.2020
627 Drizzle 5 996 93 10000 12.9 270 18:20 02.07.2020
628 Drizzle 5 996 93 10000 14.4 270 17:40 02.07.2020
629 Rain 5 995 93 10000 13.9 270 17:20 02.07.2020
630 Rain 5 995 93 10000 13.9 270 17:20 02.07.2020
631 Rain 5 995 93 10000 13.9 270 16:58 02.07.2020
632 Rain 5 995 93 10000 13.9 270 16:40 02.07.2020
633 Rain 5 995 93 10000 14.9 260 16:20 02.07.2020
634 Rain 6 994 87 10000 15.4 270 15:55 02.07.2020
635 Rain 6 994 87 10000 15.4 270 15:36 02.07.2020
636 Rain 6 994 87 10000 13.9 270 15:18 02.07.2020
637 Rain 6 993 93 10000 12.3 270 14:43 02.07.2020
638 Rain 6 993 93 9000 13.4 270 14:20 02.07.2020
639 Rain 6 992 93 10000 10.8 280 13:56 02.07.2020
640 Rain 6 992 93 10000 10.8 280 13:37 02.07.2020
641 Drizzle 6 992 93 9000 10.8 290 13:18 02.07.2020
642 Rain 6 991 100 9000 12.9 290 12:41 02.07.2020
643 Drizzle 6 991 100 9000 12.9 290 12:22 02.07.2020
644 Drizzle 6 990 93 6000 14.4 290 11:46 02.07.2020
645 Drizzle 6 990 100 6000 13.9 290 11:27 02.07.2020
646 Drizzle 6 990 93 5000 12.9 290 10:59 02.07.2020
647 Drizzle 6 990 93 5000 12.9 290 10:41 02.07.2020
648 Rain 6 989 93 10000 12.3 290 10:23 02.07.2020
649 Rain 6 989 93 10000 10.3 290 09:44 02.07.2020
650 Rain 6 989 93 10000 9.3 300 09:22 02.07.2020
651 Rain 6 989 93 10000 10.8 300 08:58 02.07.2020
652 Rain 6 989 93 10000 10.8 300 08:39 02.07.2020
653 Rain 6 988 93 10000 11.3 300 08:19 02.07.2020
654 Drizzle 5 988 100 6000 10.8 300 07:42 02.07.2020
655 Drizzle 5 988 100 8000 9.8 310 07:21 02.07.2020
656 Drizzle 5 988 100 4500 9.3 310 06:45 02.07.2020
657 Drizzle 5 988 100 5000 7.7 320 06:26 02.07.2020
658 Fog 5 988 100 8000 8.2 320 05:48 02.07.2020
659 Drizzle 6 987 93 6000 9.3 340 04:55 02.07.2020
660 Drizzle 6 987 93 10000 8.2 350 03:34 02.07.2020
661 Drizzle 6 987 93 8000 7.7 350 01:51 02.07.2020
662 Drizzle 6 986 93 7000 8.7 10 00:44 02.07.2020
663 Drizzle 6 986 93 10000 9.3 360 00:18 02.07.2020
664 Rain 6 986 93 6000 9.3 20 23:43 01.07.2020
665 Rain 6 986 93 9000 9.8 20 23:22 01.07.2020
666 Rain 6 986 93 8000 10.3 10 22:55 01.07.2020
667 Rain 6 986 93 8000 10.3 10 22:37 01.07.2020
668 Rain 6 986 93 9000 10.3 30 22:18 01.07.2020
669 Drizzle 6 986 93 9000 9.8 30 21:56 01.07.2020
670 Drizzle 6 986 93 9000 9.8 30 21:38 01.07.2020
671 Drizzle 6 986 93 9000 10.3 40 21:19 01.07.2020
672 Drizzle 6 986 100 10000 12.3 40 20:46 01.07.2020
673 Drizzle 6 985 100 10000 15.4 40 20:26 01.07.2020
674 Rain 6 985 100 10000 14.4 40 19:58 01.07.2020
675 Rain 6 985 100 10000 14.4 40 19:39 01.07.2020
676 Rain 6 985 100 10000 11.8 40 19:20 01.07.2020
677 Rain 6 985 100 9000 15.4 40 18:56 01.07.2020
678 Rain 6 985 100 10000 13.4 50 18:38 01.07.2020
679 Rain 6 985 100 10000 13.4 50 18:20 01.07.2020
680 Rain 6 985 100 10000 12.9 40 17:41 01.07.2020
681 Rain 6 985 100 10000 12.3 40 17:20 01.07.2020
682 Rain 6 985 100 10000 12.9 50 16:56 01.07.2020
683 Rain 6 985 100 10000 12.9 50 16:38 01.07.2020
684 Rain 7 985 93 10000 12.3 40 16:20 01.07.2020
685 Rain 6 985 100 10000 12.3 40 15:41 01.07.2020
686 Rain 7 985 93 10000 11.8 40 15:22 01.07.2020
687 Rain 7 985 93 10000 11.8 50 14:56 01.07.2020
688 Rain 7 985 93 10000 11.8 50 14:37 01.07.2020
689 Rain 7 986 93 10000 10.3 60 14:19 01.07.2020
690 Rain 7 986 93 10000 9.8 50 13:40 01.07.2020
691 Rain 7 986 93 10000 8.2 50 13:22 01.07.2020
692 Rain 7 986 93 10000 7.2 60 12:59 01.07.2020
693 Rain 7 986 93 10000 7.2 60 12:40 01.07.2020
694 Rain 7 986 93 10000 6.2 50 12:22 01.07.2020
695 Rain 6 987 100 10000 7.2 60 11:58 01.07.2020
696 Rain 6 987 100 10000 7.2 60 11:38 01.07.2020
697 Rain 6 987 100 10000 7.2 60 11:38 01.07.2020
698 Rain 6 987 93 10000 7.2 50 11:19 01.07.2020
699 Rain 6 987 93 10000 7.7 50 10:43 01.07.2020
700 Rain 6 987 93 10000 7.7 50 10:23 01.07.2020
701 Rain 6 988 93 10000 7.2 50 09:59 01.07.2020
702 Rain 6 988 93 10000 7.2 50 09:38 01.07.2020
703 Rain 6 988 93 10000 6.7 50 09:20 01.07.2020
704 Rain 5 988 100 10000 5.7 50 08:56 01.07.2020
705 Rain 5 988 100 10000 5.7 50 08:38 01.07.2020
706 Rain 5 988 100 10000 6.2 70 08:18 01.07.2020
707 Clouds 5 989 100 10000 6.2 80 07:40 01.07.2020
708 Clouds 5 989 100 10000 6.7 80 07:21 01.07.2020
709 Clouds 5 989 93 10000 5.7 80 06:50 01.07.2020
710 Clouds 5 989 93 10000 5.7 80 06:28 01.07.2020
711 Rain 5 990 93 10000 9.8 90 05:28 01.07.2020
712 Clouds 5 991 93 10000 11.3 90 03:48 01.07.2020
713 Clouds 5 991 93 10000 11.3 90 03:28 01.07.2020
714 Clouds 5 991 93 10000 11.3 90 02:41 01.07.2020
715 Drizzle 5 992 93 10000 11.3 90 01:53 01.07.2020
716 Rain 5 992 93 10000 10.8 90 00:48 01.07.2020
717 Rain 5 993 93 10000 10.8 90 00:26 01.07.2020
718 Clouds 5 993 93 10000 9.8 90 23:43 30.06.2020
719 Rain 5 993 93 10000 9.3 80 23:23 30.06.2020
720 Rain 5 993 93 10000 8.7 80 22:59 30.06.2020
721 Rain 5 993 93 10000 8.7 80 22:41 30.06.2020
722 Rain 5 994 93 10000 8.2 80 22:18 30.06.2020
723 Rain 4 994 100 10000 9.8 90 21:41 30.06.2020
724 Rain 5 994 93 10000 11.8 90 21:19 30.06.2020
725 Rain 5 994 93 10000 11.8 90 21:19 30.06.2020
726 Rain 5 994 86 9000 11.3 90 20:57 30.06.2020
727 Rain 5 994 86 10000 10.8 90 20:39 30.06.2020
728 Rain 5 994 86 10000 10.8 90 20:20 30.06.2020
729 Rain 5 995 93 10000 9.3 90 19:42 30.06.2020
730 Rain 5 995 93 10000 9.3 90 19:19 30.06.2020
731 Rain 5 995 93 10000 9.3 80 18:46 30.06.2020
732 Rain 5 995 86 10000 8.7 80 18:21 30.06.2020
733 Rain 5 995 86 10000 7.7 80 17:59 30.06.2020
734 Rain 5 995 86 10000 7.7 80 17:38 30.06.2020
735 Rain 5 995 86 10000 7.7 70 17:19 30.06.2020
736 Rain 5 996 86 10000 7.7 80 16:54 30.06.2020
737 Rain 5 996 86 10000 7.7 80 16:36 30.06.2020
738 Rain 5 996 80 10000 8.7 70 16:18 30.06.2020
739 Rain 5 996 80 10000 8.7 70 15:41 30.06.2020
740 Rain 5 996 80 10000 9.3 70 15:22 30.06.2020
741 Clouds 6 997 70 10000 9.8 60 14:57 30.06.2020
742 Clouds 6 997 70 10000 9.8 60 14:38 30.06.2020
743 Clouds 5 997 80 10000 9.8 60 14:18 30.06.2020
744 Clouds 5 997 80 10000 9.8 60 14:18 30.06.2020
745 Clouds 5 997 75 10000 9.3 60 13:41 30.06.2020
746 Clouds 6 997 70 10000 9.8 70 13:21 30.06.2020
747 Clouds 6 997 77 10000 10.3 70 12:59 30.06.2020
748 Clouds 6 997 77 10000 10.3 70 12:40 30.06.2020
749 Clouds 6 997 70 10000 10.3 80 12:21 30.06.2020
750 Clouds 6 998 70 10000 10.8 80 11:58 30.06.2020
751 Clouds 6 998 70 10000 10.8 80 11:39 30.06.2020
752 Clouds 5 998 80 10000 9.8 80 11:39 30.06.2020
753 Clouds 5 998 80 10000 9.8 80 11:19 30.06.2020
754 Clouds 5 998 80 10000 10.3 80 10:58 30.06.2020
755 Clouds 5 998 80 10000 10.3 80 10:58 30.06.2020
756 Clouds 7 1018 81 10000 4.1 70 16:40 28.06.2020
757 Clouds 7 1018 81 10000 4.1 80 16:22 28.06.2020
758 Clouds 7 1018 81 10000 4.1 80 15:56 28.06.2020
759 Clouds 7 1018 81 10000 4.1 80 15:38 28.06.2020
760 Clouds 7 1018 81 10000 4.6 60 15:18 28.06.2020
761 Clear 7 1018 81 10000 3.1 40 14:46 28.06.2020
762 Clouds 7 1018 81 10000 3.1 40 14:27 28.06.2020
763 Clouds 7 1018 81 10000 3.1 40 13:58 28.06.2020
764 Clouds 7 1018 81 10000 3.1 40 13:37 28.06.2020
765 Clouds 7 1018 81 10000 3.1 40 13:37 28.06.2020
766 Clouds 7 1019 81 10000 2.1 360 13:19 28.06.2020
767 Clouds 7 1019 87 10000 3.1 10 12:56 28.06.2020
768 Clouds 7 1019 87 10000 3.1 10 12:37 28.06.2020
769 Clouds 6 1019 93 10000 2.6 30 12:18 28.06.2020
770 Clouds 6 1019 93 10000 2.6 30 12:18 28.06.2020
771 Clouds 6 1019 93 10000 2.6 50 11:56 28.06.2020
772 Clouds 6 1019 93 10000 2.6 50 11:37 28.06.2020
773 Clouds 6 1019 93 10000 3.1 70 11:19 28.06.2020
774 Clouds 6 1019 93 10000 2.1 70 10:42 28.06.2020
775 Clouds 6 1019 93 10000 2.1 70 10:42 28.06.2020
776 Clouds 6 1019 87 10000 2.1 30 10:23 28.06.2020
777 Clouds 6 1019 87 10000 1.5 0 09:59 28.06.2020
778 Clouds 6 1019 87 10000 1.5 0 09:39 28.06.2020
779 Clouds 6 1019 87 10000 1 0 09:20 28.06.2020
780 Clouds 6 1019 93 10000 1 0 08:45 28.06.2020
781 Clouds 6 1019 93 10000 1.5 0 08:25 28.06.2020
782 Clouds 5 1020 93 10000 1 0 07:46 28.06.2020
783 Clouds 5 1020 93 10000 1.5 0 07:28 28.06.2020
784 Clouds 5 1020 93 10000 2.6 330 06:34 28.06.2020
785 Clouds 5 1020 93 10000 3.6 340 05:57 28.06.2020
786 Clouds 6 1020 87 10000 2.6 320 05:26 28.06.2020
787 Clouds 6 1020 87 10000 2.6 320 05:26 28.06.2020
788 Clouds 6 1021 87 10000 2.6 310 03:32 28.06.2020
789 Clouds 6 1021 87 10000 3.6 330 02:39 28.06.2020
790 Clouds 6 1021 87 10000 3.6 310 01:52 28.06.2020
791 Clouds 6 1021 87 10000 3.6 290 01:26 28.06.2020
792 Clouds 6 1021 87 10000 4.1 300 00:46 28.06.2020
793 Clouds 6 1021 93 10000 4.6 310 00:24 28.06.2020
794 Clouds 6 1021 93 10000 3.6 300 23:41 27.06.2020
795 Clouds 6 1021 93 10000 4.6 290 23:23 27.06.2020
796 Clouds 6 1021 93 10000 5.1 310 22:58 27.06.2020
797 Clouds 6 1021 93 10000 5.1 310 22:40 27.06.2020
798 Clouds 6 1021 93 10000 5.7 310 22:20 27.06.2020
799 Clouds 6 1021 93 10000 6.7 310 21:54 27.06.2020
800 Clouds 6 1022 93 10000 6.2 310 21:36 27.06.2020
801 Clouds 6 1022 93 10000 6.2 310 21:18 27.06.2020
802 Clouds 6 1022 93 10000 7.2 310 20:41 27.06.2020
803 Clouds 6 1022 93 10000 7.7 310 20:18 27.06.2020
804 Clouds 7 1022 87 10000 7.7 310 19:54 27.06.2020
805 Clouds 7 1022 87 10000 7.2 320 19:36 27.06.2020
806 Clouds 7 1022 87 10000 7.2 320 19:18 27.06.2020
807 Mist 6 1022 100 6000 7.2 310 18:43 27.06.2020
808 Clouds 7 1022 87 10000 8.7 300 18:22 27.06.2020
809 Clouds 7 1022 87 10000 8.7 310 17:55 27.06.2020
810 Clouds 7 1022 87 10000 8.7 310 17:37 27.06.2020
811 Mist 6 1022 100 4700 8.2 310 17:19 27.06.2020
812 Mist 6 1022 100 6000 9.3 320 16:43 27.06.2020
813 Clouds 7 1022 87 10000 8.2 300 16:24 27.06.2020
814 Clouds 6 1022 100 9000 8.7 310 15:54 27.06.2020
815 Clouds 6 1022 100 9000 8.7 310 15:36 27.06.2020
816 Clouds 7 1022 87 10000 9.3 320 15:18 27.06.2020
817 Clouds 7 1022 87 10000 9.8 320 14:41 27.06.2020
818 Clouds 7 1022 93 10000 9.8 320 14:22 27.06.2020
819 Clouds 7 1022 87 10000 9.8 320 13:57 27.06.2020
820 Clouds 6 1021 93 10000 9.3 320 13:37 27.06.2020
821 Clouds 6 1021 93 10000 9.3 320 13:19 27.06.2020
822 Clouds 7 1022 87 10000 9.3 320 12:56 27.06.2020
823 Clouds 7 1022 93 10000 9.3 320 12:37 27.06.2020
824 Clouds 7 1022 93 10000 9.3 320 12:19 27.06.2020
825 Clouds 6 1021 93 10000 8.2 310 11:41 27.06.2020
826 Clouds 6 1021 100 10000 8.7 310 11:23 27.06.2020
827 Mist 6 1021 100 8000 9.3 310 10:57 27.06.2020
828 Mist 6 1021 100 8000 9.3 310 10:38 27.06.2020
829 Mist 7 1021 93 5000 9.8 310 10:18 27.06.2020
830 Rain 7 1021 93 9000 10.3 310 09:41 27.06.2020
831 Clouds 7 1021 93 7000 10.3 320 09:21 27.06.2020
832 Rain 6 1021 100 10000 9.3 320 08:56 27.06.2020
833 Rain 6 1021 100 10000 9.3 320 08:37 27.06.2020
834 Rain 6 1020 100 8000 9.8 320 08:19 27.06.2020
835 Drizzle 6 1020 100 7000 10.3 310 07:38 27.06.2020
836 Drizzle 6 1020 100 7000 10.3 310 07:19 27.06.2020
837 Rain 6 1020 100 10000 10.8 320 06:37 27.06.2020
838 Clouds 6 1020 100 8000 10.8 310 05:46 27.06.2020
839 Drizzle 7 1020 93 10000 11.3 320 04:21 27.06.2020
840 Clouds 7 1019 93 10000 12.9 310 03:51 27.06.2020
841 Rain 7 1019 93 10000 12.9 320 02:48 27.06.2020
842 Clouds 7 1018 93 10000 12.9 320 02:27 27.06.2020
843 Rain 7 1018 93 10000 14.4 320 01:41 27.06.2020
844 Clouds 7 1018 87 10000 13.4 310 00:54 27.06.2020
845 Rain 7 1018 93 10000 11.8 320 00:18 27.06.2020
846 Clouds 7 1018 87 10000 12.3 320 23:41 26.06.2020
847 Clouds 7 1017 87 10000 12.3 310 23:22 26.06.2020
848 Clouds 7 1017 87 10000 12.3 310 22:56 26.06.2020
849 Clouds 7 1017 87 10000 12.3 310 22:37 26.06.2020
850 Rain 7 1017 87 10000 14.4 320 22:18 26.06.2020
851 Rain 7 1017 93 5000 14.9 310 21:56 26.06.2020
852 Rain 7 1017 93 5000 14.9 310 21:37 26.06.2020
853 Rain 7 1016 93 6000 13.4 310 21:18 26.06.2020
854 Rain 7 1016 93 7000 13.9 300 20:42 26.06.2020
855 Rain 7 1016 93 9000 14.4 290 20:19 26.06.2020
856 Rain 7 1016 93 10000 14.4 290 19:42 26.06.2020
857 Rain 7 1016 93 6000 15.9 300 19:23 26.06.2020
858 Rain 7 1016 93 4000 14.9 300 18:54 26.06.2020
859 Rain 7 1016 93 6000 18.5 300 18:36 26.06.2020
860 Rain 7 1016 93 6000 18.5 300 18:18 26.06.2020
861 Rain 7 1015 100 7000 18.5 300 17:43 26.06.2020
862 Rain 7 1015 100 9000 17.5 290 17:23 26.06.2020
863 Rain 8 1015 93 10000 17 290 16:47 26.06.2020
864 Drizzle 8 1015 87 10000 18.5 290 16:25 26.06.2020
865 Rain 8 1015 87 10000 18 290 15:55 26.06.2020
866 Rain 8 1015 87 10000 18 290 15:37 26.06.2020
867 Rain 8 1015 87 10000 17.5 290 15:18 26.06.2020
868 Rain 8 1014 87 10000 18.5 290 14:55 26.06.2020
869 Rain 8 1014 87 10000 18.5 290 14:37 26.06.2020
870 Clouds 10 1014 81 10000 18 290 14:19 26.06.2020
871 Rain 8 1014 93 10000 18 290 13:43 26.06.2020
872 Rain 8 1014 93 10000 19 300 13:18 26.06.2020
873 Rain 8 1014 93 10000 19 300 13:18 26.06.2020
874 Clouds 9 1013 87 10000 14.9 290 12:41 26.06.2020
875 Clouds 9 1013 87 10000 14.9 290 12:23 26.06.2020
876 Rain 9 1013 93 10000 13.9 290 11:59 26.06.2020
877 Rain 9 1013 93 10000 13.9 290 11:39 26.06.2020
878 Rain 9 1013 93 10000 12.9 280 11:21 26.06.2020
879 Rain 9 1013 93 8000 14.4 280 10:58 26.06.2020
880 Rain 9 1013 93 8000 14.4 280 10:39 26.06.2020
881 Rain 9 1013 93 8000 14.4 280 10:19 26.06.2020
882 Rain 9 1012 93 9000 13.9 270 09:44 26.06.2020
883 Rain 9 1013 93 10000 13.4 270 09:26 26.06.2020
884 Drizzle 9 1013 93 10000 14.9 270 08:57 26.06.2020
885 Drizzle 9 1013 93 10000 14.9 270 08:37 26.06.2020
886 Rain 9 1013 87 8000 14.4 270 08:19 26.06.2020
887 Rain 9 1013 87 10000 17 270 07:44 26.06.2020
888 Rain 10 1013 76 10000 17.5 270 07:21 26.06.2020
889 Clouds 10 1013 76 10000 15.4 270 06:44 26.06.2020
890 Rain 10 1013 76 10000 13.4 270 06:26 26.06.2020
891 Rain 10 1014 76 10000 12.9 270 05:48 26.06.2020
892 Rain 10 1014 76 10000 11.3 270 04:42 26.06.2020
893 Rain 9 1016 93 10000 8.7 260 02:22 26.06.2020
894 Rain 10 1016 81 10000 11.3 270 01:22 26.06.2020
895 Clouds 10 1016 81 10000 9.3 270 00:42 26.06.2020
896 Clouds 9 1017 93 10000 11.8 270 00:20 26.06.2020
897 Rain 9 1017 93 10000 7.2 230 23:45 25.06.2020
898 Rain 9 1017 93 10000 8.7 260 23:20 25.06.2020
899 Rain 9 1017 93 10000 8.7 260 23:20 25.06.2020
900 Rain 10 1017 81 10000 8.7 260 22:57 25.06.2020
901 Rain 10 1017 81 10000 8.7 260 22:38 25.06.2020
902 Rain 11 1017 76 10000 10.3 260 22:19 25.06.2020
903 Clouds 11 1018 76 10000 9.8 260 21:56 25.06.2020
904 Clouds 11 1018 76 10000 9.8 260 21:38 25.06.2020
905 Clouds 11 1018 76 10000 11.3 260 21:19 25.06.2020
906 Clouds 11 1018 76 10000 10.8 270 20:45 25.06.2020
907 Clouds 12 1018 71 10000 9.8 270 20:24 25.06.2020
908 Clouds 12 1018 71 10000 9.8 280 19:59 25.06.2020
909 Clouds 12 1018 71 10000 9.8 280 19:40 25.06.2020
910 Clouds 12 1019 71 10000 11.3 280 19:19 25.06.2020
911 Clouds 12 1019 71 10000 11.3 280 19:19 25.06.2020
912 Clouds 12 1019 71 10000 11.3 280 18:58 25.06.2020
913 Clouds 12 1019 71 10000 10.8 270 18:38 25.06.2020
914 Clouds 12 1019 71 10000 10.8 270 18:19 25.06.2020
915 Clouds 12 1020 71 10000 10.8 270 17:44 25.06.2020
916 Clouds 12 1020 71 10000 12.3 280 17:20 25.06.2020
917 Clouds 12 1020 71 10000 12.3 280 17:20 25.06.2020
918 Clouds 12 1020 71 10000 13.4 280 16:58 25.06.2020
919 Clouds 12 1020 71 10000 13.4 280 16:37 25.06.2020
920 Clouds 12 1019 76 10000 12.9 280 16:19 25.06.2020
921 Clouds 12 1020 76 10000 13.9 270 15:41 25.06.2020
922 Clouds 12 1019 81 10000 9.8 280 15:22 25.06.2020
923 Rain 12 1019 81 10000 10.3 280 14:45 25.06.2020
924 Clouds 12 1019 81 10000 9.8 280 14:25 25.06.2020
925 Clouds 12 1019 87 10000 12.9 280 13:59 25.06.2020
926 Clouds 12 1019 87 10000 12.9 280 13:41 25.06.2020
927 Rain 12 1019 87 10000 8.7 280 13:19 25.06.2020
928 Rain 12 1019 87 10000 8.7 280 13:19 25.06.2020
929 Rain 13 1019 76 5000 9.3 290 12:55 25.06.2020
930 Rain 14 1017 67 10000 5.7 250 12:37 25.06.2020
931 Rain 14 1017 67 10000 5.7 250 12:18 25.06.2020
932 Clouds 16 1017 59 10000 5.1 220 11:42 25.06.2020
933 Clouds 14 1017 67 10000 5.7 230 11:21 25.06.2020
934 Clouds 13 1017 66 10000 4.1 200 10:44 25.06.2020
935 Clouds 12 1018 71 10000 7.7 210 10:25 25.06.2020
936 Rain 13 1018 62 10000 6.7 200 09:55 25.06.2020
937 Rain 13 1018 62 10000 6.7 200 09:36 25.06.2020
938 Clouds 13 1018 62 10000 6.7 200 09:18 25.06.2020
939 Clouds 12 1018 66 10000 7.2 200 08:42 25.06.2020
940 Clouds 12 1018 66 10000 6.2 190 08:18 25.06.2020
941 Clouds 12 1018 66 10000 6.2 190 08:18 25.06.2020
942 Clouds 12 1019 62 10000 7.7 200 07:43 25.06.2020
943 Clouds 12 1019 62 10000 7.2 190 07:24 25.06.2020
944 Clouds 12 1020 62 10000 5.7 190 06:45 25.06.2020
945 Clouds 12 1020 66 10000 5.1 190 06:25 25.06.2020
946 Clouds 12 1021 66 10000 5.1 190 05:38 25.06.2020
947 Clouds 10 1022 76 10000 5.7 200 03:49 25.06.2020
948 Clouds 8 1023 87 10000 5.7 210 02:58 25.06.2020
949 Clouds 8 1023 87 10000 5.7 210 02:40 25.06.2020
950 Clouds 8 1024 87 10000 5.7 240 01:43 25.06.2020
951 Clouds 8 1024 93 10000 6.2 250 00:52 25.06.2020
952 Clouds 8 1024 87 10000 5.1 260 00:26 25.06.2020
953 Clouds 8 1025 87 10000 6.7 260 23:59 24.06.2020
954 Clouds 8 1025 87 10000 6.7 260 23:39 24.06.2020
955 Clouds 9 1025 81 10000 7.7 260 23:21 24.06.2020
956 Clouds 9 1025 81 10000 5.1 260 22:54 24.06.2020
957 Clouds 9 1025 81 10000 5.1 260 22:36 24.06.2020
958 Clouds 9 1025 81 10000 6.7 270 22:18 24.06.2020
959 Clouds 10 1025 76 10000 7.7 280 21:54 24.06.2020
960 Clouds 10 1025 76 10000 8.2 280 21:36 24.06.2020
961 Clouds 10 1025 76 10000 8.2 280 21:18 24.06.2020
962 Clouds 10 1025 76 10000 10.3 290 20:41 24.06.2020
963 Clouds 11 1025 71 10000 11.8 290 20:22 24.06.2020
964 Clouds 11 1025 71 10000 14.4 280 19:59 24.06.2020
965 Clouds 11 1025 71 10000 14.4 280 19:39 24.06.2020
966 Clouds 12 1025 66 10000 14.4 280 19:21 24.06.2020
967 Clouds 12 1025 66 10000 14.9 280 18:59 24.06.2020
968 Clouds 12 1025 66 10000 14.9 280 18:40 24.06.2020
969 Clouds 12 1025 66 10000 12.3 290 18:22 24.06.2020
970 Clouds 12 1025 71 10000 12.3 290 17:56 24.06.2020
971 Clouds 12 1025 71 10000 12.3 290 17:38 24.06.2020
972 Clouds 12 1025 71 10000 11.3 290 17:19 24.06.2020
973 Clouds 12 1025 71 10000 11.8 290 16:56 24.06.2020
974 Clouds 12 1025 71 10000 11.8 290 16:38 24.06.2020
975 Clouds 11 1025 76 10000 12.3 280 16:20 24.06.2020
976 Clouds 10 1025 81 10000 11.3 290 15:56 24.06.2020
977 Clouds 10 1025 81 10000 11.8 290 15:37 24.06.2020
978 Clouds 10 1025 81 10000 11.8 290 15:19 24.06.2020
979 Clouds 10 1025 87 10000 13.9 290 14:42 24.06.2020
980 Clouds 10 1024 87 10000 13.4 280 14:24 24.06.2020
981 Clouds 10 1024 81 10000 15.9 280 13:43 24.06.2020
982 Clouds 10 1024 81 10000 13.4 280 13:22 24.06.2020
983 Clouds 10 1024 81 10000 10.8 280 12:57 24.06.2020
984 Clouds 10 1024 81 10000 9.3 290 12:38 24.06.2020
985 Clouds 10 1024 81 10000 9.3 290 12:20 24.06.2020
986 Clouds 10 1024 87 10000 10.8 280 11:55 24.06.2020
987 Clouds 10 1024 87 10000 10.8 280 11:37 24.06.2020
988 Clouds 10 1023 87 10000 11.8 270 11:18 24.06.2020
989 Rain 10 1023 93 10000 10.8 260 10:41 24.06.2020
990 Clouds 9 1022 100 10000 9.3 270 10:19 24.06.2020
991 Clouds 10 1022 100 10000 7.2 280 09:43 24.06.2020
992 Drizzle 10 1022 100 10000 7.7 270 09:22 24.06.2020
993 Drizzle 10 1021 93 10000 8.2 270 08:43 24.06.2020
994 Clouds 9 1021 100 10000 7.7 260 08:21 24.06.2020
995 Clouds 9 1021 100 8000 5.7 260 07:51 24.06.2020
996 Clouds 9 1021 100 4000 5.7 260 07:31 24.06.2020
997 Rain 9 1021 93 2500 4.1 250 06:51 24.06.2020
998 Fog 9 1020 93 10000 3.1 250 06:26 24.06.2020
999 Fog 10 1020 87 10000 3.1 240 05:57 24.06.2020
1000 Clouds 10 1020 93 10000 2.6 240 05:20 24.06.2020
1001 Clouds 10 1020 93 10000 3.1 250 04:35 24.06.2020
1002 Clouds 10 1020 87 10000 3.1 210 03:35 24.06.2020
1003 Clouds 10 1020 93 10000 1.5 180 02:51 24.06.2020
1004 Clouds 10 1020 93 10000 3.1 210 01:45 24.06.2020
1005 Clouds 10 1020 93 10000 4.6 220 00:47 24.06.2020
1006 Clouds 11 1020 87 10000 4.1 210 00:27 24.06.2020
1007 Clouds 11 1020 87 10000 5.1 230 23:46 23.06.2020
1008 Clouds 11 1020 81 10000 5.1 220 23:20 23.06.2020
1009 Clouds 11 1020 87 10000 2.6 210 22:57 23.06.2020
1010 Clouds 12 1020 81 10000 2.1 200 22:36 23.06.2020
1011 Clouds 12 1020 81 10000 2.1 200 22:18 23.06.2020
1012 Clouds 12 1020 81 10000 2.1 200 21:41 23.06.2020
1013 Clouds 12 1020 81 10000 2.1 130 21:20 23.06.2020
1014 Clouds 11 1020 81 10000 3.1 110 20:56 23.06.2020
1015 Clouds 11 1021 81 10000 3.1 100 20:37 23.06.2020
1016 Clouds 11 1021 81 10000 3.1 100 20:19 23.06.2020
1017 Clouds 12 1021 76 10000 2.1 110 19:49 23.06.2020
1018 Clouds 12 1021 76 10000 2.1 80 19:28 23.06.2020
1019 Clouds 12 1020 76 10000 2.6 80 18:55 23.06.2020
1020 Clouds 14 1020 62 10000 2.1 350 18:37 23.06.2020
1021 Clouds 14 1020 62 10000 2.1 350 18:18 23.06.2020
1022 Clouds 14 1020 54 10000 3.1 350 17:40 23.06.2020
1023 Clouds 14 1020 54 10000 3.6 350 17:22 23.06.2020
1024 Clouds 14 1020 54 10000 4.1 350 16:57 23.06.2020
1025 Clouds 15 1020 51 10000 2.1 330 16:38 23.06.2020
1026 Clouds 15 1020 51 10000 2.1 330 16:20 23.06.2020
1027 Clouds 15 1020 51 10000 2.1 0 15:55 23.06.2020
1028 Clouds 14 1020 54 10000 3.1 300 15:37 23.06.2020
1029 Clouds 14 1020 54 10000 3.1 300 15:18 23.06.2020
1030 Clouds 16 1020 48 10000 2.6 290 14:42 23.06.2020
1031 Clouds 15 1020 51 10000 1 0 14:19 23.06.2020
1032 Clouds 15 1020 51 10000 2.6 180 13:56 23.06.2020
1033 Clouds 14 1020 50 10000 2.6 180 13:38 23.06.2020
1034 Clouds 14 1020 50 10000 2.6 180 13:20 23.06.2020
1035 Clouds 15 1020 51 10000 2.1 150 12:42 23.06.2020
1036 Clouds 14 1020 54 10000 2.1 170 12:22 23.06.2020
1037 Clouds 14 1020 54 10000 1.5 160 11:58 23.06.2020
1038 Clouds 14 1020 54 10000 1.5 160 11:39 23.06.2020
1039 Clouds 13 1020 54 10000 2.1 150 11:19 23.06.2020
1040 Clouds 12 1020 58 10000 2.1 120 10:55 23.06.2020
1041 Clouds 12 1020 58 10000 2.1 120 10:37 23.06.2020
1042 Clear 12 1019 58 10000 3.1 110 10:19 23.06.2020
1043 Clear 11 1019 57 10000 3.1 110 09:41 23.06.2020
1044 Clear 11 1019 57 10000 3.1 110 09:20 23.06.2020
1045 Clear 11 1019 57 10000 3.1 100 08:57 23.06.2020
1046 Clear 11 1019 57 10000 3.1 100 08:38 23.06.2020
1047 Clear 10 1019 66 10000 2.6 110 08:19 23.06.2020
1048 Clear 10 1019 61 10000 3.1 100 07:40 23.06.2020
1049 Clear 9 1019 66 10000 3.1 90 07:21 23.06.2020
1050 Clear 9 1019 70 10000 3.6 80 06:48 23.06.2020
1051 Clear 8 1019 75 10000 4.6 80 06:30 23.06.2020
1052 Clear 7 1019 81 10000 4.1 80 05:39 23.06.2020
1053 Clear 7 1019 87 10000 6.7 70 03:39 23.06.2020
1054 Clear 6 1019 87 10000 2.1 90 02:56 23.06.2020
1055 Clear 5 1019 93 10000 2.1 90 02:37 23.06.2020
1056 Clear 5 1019 93 10000 2.1 90 02:19 23.06.2020
1057 Clear 6 1018 87 10000 4.6 90 01:37 23.06.2020
1058 Clear 6 1018 87 10000 4.6 90 01:18 23.06.2020
1059 Clear 5 1018 93 10000 5.1 80 00:24 23.06.2020
1060 Clear 5 1018 93 10000 4.6 70 23:57 22.06.2020
1061 Clear 5 1018 93 10000 4.6 70 23:38 22.06.2020
1062 Clear 5 1018 93 10000 4.1 80 23:19 22.06.2020
1063 Clear 5 1018 86 10000 4.6 70 22:57 22.06.2020
1064 Clear 5 1018 86 10000 4.6 70 22:38 22.06.2020
1065 Clear 5 1018 93 10000 4.1 70 22:19 22.06.2020
1066 Clear 5 1018 93 10000 4.1 70 22:19 22.06.2020
1067 Clear 6 1018 87 10000 5.1 70 21:57 22.06.2020
1068 Clear 6 1018 87 10000 5.1 60 21:38 22.06.2020
1069 Clear 6 1018 87 10000 5.1 60 21:20 22.06.2020
1070 Clear 7 1018 75 10000 5.1 70 20:42 22.06.2020
1071 Clouds 7 1018 75 10000 5.1 70 20:24 22.06.2020
1072 Clouds 7 1018 81 10000 4.1 80 19:57 22.06.2020
1073 Clouds 8 1018 75 10000 4.6 70 19:37 22.06.2020
1074 Clouds 8 1018 75 10000 4.6 70 19:18 22.06.2020
1075 Clouds 8 1018 75 10000 4.6 60 18:41 22.06.2020
1076 Clouds 8 1018 75 10000 4.6 60 18:23 22.06.2020
1077 Clouds 8 1018 75 10000 3.6 40 17:57 22.06.2020
1078 Clouds 9 1018 70 10000 2.1 0 17:38 22.06.2020
1079 Clouds 9 1018 70 10000 2.1 0 17:20 22.06.2020
1080 Clouds 8 1018 75 10000 2.6 350 16:57 22.06.2020
1081 Clouds 9 1018 70 10000 3.1 340 16:38 22.06.2020
1082 Clouds 9 1018 70 10000 3.1 340 16:18 22.06.2020
1083 Clouds 8 1018 75 10000 3.6 350 15:44 22.06.2020
1084 Clear 8 1018 75 10000 3.6 350 15:26 22.06.2020
1085 Clear 9 1018 70 10000 3.6 350 14:58 22.06.2020
1086 Clouds 9 1017 70 10000 3.6 360 14:38 22.06.2020
1087 Clouds 9 1017 70 10000 3.6 360 14:19 22.06.2020
1088 Clouds 9 1017 70 10000 4.1 350 13:54 22.06.2020
1089 Clouds 8 1017 75 10000 3.6 340 13:36 22.06.2020
1090 Clouds 8 1017 75 10000 3.6 340 13:18 22.06.2020
1091 Clouds 9 1017 76 10000 3.6 350 12:41 22.06.2020
1092 Clouds 9 1017 76 10000 3.6 350 12:22 22.06.2020
1093 Clouds 9 1017 76 10000 5.1 350 11:38 22.06.2020
1094 Clouds 9 1017 76 10000 4.1 350 11:19 22.06.2020
1095 Clouds 9 1017 76 10000 4.1 350 10:57 22.06.2020
1096 Clouds 9 1017 76 10000 3.1 340 10:39 22.06.2020
1097 Clouds 9 1017 70 10000 2.6 340 10:19 22.06.2020
1098 Clouds 9 1017 70 10000 2.6 340 09:58 22.06.2020
1099 Clouds 9 1017 70 10000 2.1 330 09:40 22.06.2020
1100 Clouds 9 1017 70 10000 2.1 330 09:19 22.06.2020
1101 Clouds 8 1017 75 10000 2.1 340 08:57 22.06.2020
1102 Clouds 8 1017 75 10000 2.1 340 08:38 22.06.2020
1103 Clouds 8 1017 75 10000 2.6 340 08:19 22.06.2020
1104 Clouds 8 1017 75 10000 2.6 340 07:50 22.06.2020
1105 Clouds 8 1017 75 10000 3.1 360 07:31 22.06.2020
1106 Clouds 7 1017 81 10000 4.1 350 06:44 22.06.2020
1107 Clouds 7 1017 81 10000 4.1 350 06:25 22.06.2020
1108 Clouds 7 1017 81 10000 4.6 350 05:43 22.06.2020
1109 Clouds 6 1018 87 10000 3.1 320 03:48 22.06.2020
1110 Clouds 6 1018 87 10000 3.6 340 02:35 22.06.2020
1111 Clouds 6 1018 87 10000 3.6 340 01:21 22.06.2020
1112 Clouds 7 1018 87 10000 3.6 330 00:39 22.06.2020
1113 Clouds 7 1018 81 10000 4.6 300 23:58 21.06.2020
1114 Clouds 8 1018 75 10000 5.1 310 23:39 21.06.2020
1115 Clouds 8 1018 75 10000 5.1 310 23:21 21.06.2020
1116 Clouds 8 1018 70 10000 4.6 320 22:57 21.06.2020
1117 Clouds 8 1018 81 10000 5.1 340 22:37 21.06.2020
1118 Clouds 8 1018 81 10000 5.1 340 22:19 21.06.2020
1119 Clouds 8 1018 75 10000 5.1 340 21:57 21.06.2020
1120 Clouds 9 1018 70 10000 5.1 340 21:39 21.06.2020
1121 Clouds 9 1018 70 10000 5.1 340 21:39 21.06.2020
1122 Clouds 9 1018 70 10000 5.1 340 21:21 21.06.2020
1123 Clouds 11 1019 50 10000 5.1 340 20:58 21.06.2020
1124 Clouds 14 1019 33 10000 5.1 330 20:38 21.06.2020
1125 Clouds 14 1019 33 10000 5.1 330 20:18 21.06.2020
1126 Clouds 14 1019 28 10000 4.6 330 19:56 21.06.2020
1127 Clouds 15 1019 28 10000 4.1 340 19:38 21.06.2020
1128 Clouds 16 1019 31 10000 3.6 330 19:19 21.06.2020
1129 Clouds 16 1019 57 10000 3.6 330 18:54 21.06.2020
1130 Clouds 16 1019 57 10000 3.6 330 18:36 21.06.2020
1131 Clouds 16 1019 56 10000 3.6 330 18:18 21.06.2020
1132 Clouds 16 1019 56 10000 3.1 340 17:39 21.06.2020
1133 Clouds 16 1020 36 10000 3.6 340 17:20 21.06.2020
1134 Clouds 17 1020 58 10000 4.1 340 16:43 21.06.2020
1135 Clouds 17 1020 59 10000 4.1 340 16:24 21.06.2020
1136 Clouds 16 1020 38 10000 4.1 340 15:59 21.06.2020
1137 Clouds 15 1020 47 10000 3.1 350 15:37 21.06.2020
1138 Clouds 15 1020 47 10000 3.1 350 15:19 21.06.2020
1139 Clouds 15 1020 51 10000 2.6 340 14:39 21.06.2020
1140 Clouds 15 1020 51 10000 3.1 350 14:20 21.06.2020
1141 Clouds 15 1020 51 10000 3.1 350 13:59 21.06.2020
1142 Clouds 14 1020 58 10000 2.6 340 13:40 21.06.2020
1143 Clouds 14 1020 58 10000 2.6 340 13:22 21.06.2020
1144 Clouds 15 1020 54 10000 2.6 340 12:54 21.06.2020
1145 Clouds 14 1020 58 10000 1.5 0 12:36 21.06.2020
1146 Clouds 14 1020 58 10000 1.5 0 12:18 21.06.2020
1147 Clouds 14 1021 58 10000 1 0 11:41 21.06.2020
1148 Clouds 14 1021 58 10000 1 0 11:23 21.06.2020
1149 Clouds 13 1021 66 10000 3.49 14 10:58 21.06.2020
1150 Clouds 13 1021 66 10000 1 0 10:39 21.06.2020
1151 Clouds 13 1021 66 10000 1 0 10:20 21.06.2020
1152 Clouds 13 1021 62 10000 1.5 290 09:44 21.06.2020
1153 Clouds 13 1021 62 10000 1.5 290 09:23 21.06.2020
1154 Clouds 12 1021 66 10000 1 0 08:57 21.06.2020
1155 Clouds 11 1021 71 10000 3.07 12 08:39 21.06.2020
1156 Clouds 11 1021 71 10000 2.66 14 08:20 21.06.2020
1157 Clouds 11 1021 71 10000 1 0 07:42 21.06.2020
1158 Clear 11 1021 71 10000 1 0 07:24 21.06.2020
1159 Clear 11 1021 76 10000 1 0 06:51 21.06.2020
1160 Clear 11 1022 71 10000 1.5 0 06:28 21.06.2020
1161 Clear 10 1022 76 10000 1.5 360 05:57 21.06.2020
1162 Clear 9 1022 76 10000 1.5 0 04:36 21.06.2020
1163 Clear 7 1023 81 10000 1.5 140 03:19 21.06.2020
1164 Clear 7 1023 75 10000 1.5 150 02:36 21.06.2020
1165 Clear 7 1024 81 10000 2.6 200 01:40 21.06.2020
1166 Clear 7 1024 81 10000 2.6 200 01:19 21.06.2020
1167 Clear 6 1024 87 10000 1 140 00:46 21.06.2020
1168 Clear 6 1024 87 10000 1 140 00:25 21.06.2020
1169 Clear 6 1024 93 10000 3.1 100 23:46 20.06.2020
1170 Clear 6 1024 93 10000 3.1 100 23:23 20.06.2020
1171 Clear 7 1024 87 10000 3.6 100 22:59 20.06.2020
1172 Clear 7 1024 87 10000 3.6 100 22:59 20.06.2020
1173 Clear 7 1024 87 10000 4.6 100 22:40 20.06.2020
1174 Clear 7 1024 87 10000 4.6 100 22:20 20.06.2020
1175 Clear 7 1024 87 10000 3.6 100 21:58 20.06.2020
1176 Clear 7 1024 81 10000 3.6 90 21:40 20.06.2020
1177 Clear 7 1024 81 10000 3.6 90 21:21 20.06.2020
1178 Clear 8 1024 81 10000 3.1 90 20:58 20.06.2020
1179 Clear 9 1024 70 10000 3.1 80 20:40 20.06.2020
1180 Clear 9 1024 70 10000 3.1 80 20:21 20.06.2020
1181 Clear 9 1024 76 10000 1.5 70 19:59 20.06.2020
1182 Clear 10 1025 71 10000 1 0 19:40 20.06.2020
1183 Clear 10 1025 71 10000 1 0 19:20 20.06.2020
1184 Clear 10 1025 66 10000 3.21 42 18:43 20.06.2020
1185 Clear 10 1025 66 10000 3.69 35 18:21 20.06.2020
1186 Clear 10 1025 66 10000 1 0 17:57 20.06.2020
1187 Clear 11 1025 62 10000 2.1 10 17:39 20.06.2020
1188 Clear 11 1025 62 10000 2.1 10 17:20 20.06.2020
1189 Clear 11 1025 62 10000 1 0 16:55 20.06.2020
1190 Clear 11 1025 62 10000 1.5 80 16:36 20.06.2020
1191 Clear 11 1025 62 10000 1.5 80 16:18 20.06.2020
1192 Clear 10 1025 61 10000 1 0 15:41 20.06.2020
1193 Clear 10 1025 66 10000 1.5 0 15:18 20.06.2020
1194 Clear 10 1026 61 10000 2.1 90 14:43 20.06.2020
1195 Clear 10 1026 61 10000 2.1 90 14:21 20.06.2020
1196 Clear 9 1026 66 10000 3.1 80 13:46 20.06.2020
1197 Clear 10 1026 61 10000 2.1 40 13:27 20.06.2020
1198 Clear 10 1026 61 10000 1.5 0 12:59 20.06.2020
1199 Clear 10 1026 61 10000 1.5 50 12:40 20.06.2020
1200 Clear 10 1026 61 10000 1.5 50 12:20 20.06.2020
1201 Clear 10 1026 61 10000 1 0 11:57 20.06.2020
1202 Clear 9 1026 66 10000 1.5 270 11:37 20.06.2020
1203 Clear 9 1026 66 10000 1.5 270 11:19 20.06.2020
1204 Clear 9 1026 61 10000 1.5 0 10:47 20.06.2020
1205 Clear 9 1026 61 10000 2.1 280 10:22 20.06.2020
1206 Clouds 8 1026 65 10000 1 0 09:56 20.06.2020
1207 Clouds 8 1026 65 10000 2.1 280 09:38 20.06.2020
1208 Clouds 8 1026 65 10000 2.1 280 09:20 20.06.2020
1209 Clouds 7 1026 70 10000 2.6 280 08:46 20.06.2020
1210 Clouds 7 1026 70 10000 2.6 280 08:27 20.06.2020
1211 Clouds 6 1026 75 10000 3.1 260 07:52 20.06.2020
1212 Clouds 6 1026 75 10000 4.1 270 07:28 20.06.2020
1213 Clouds 6 1026 75 10000 4.1 270 06:58 20.06.2020
1214 Clouds 6 1026 75 10000 5.1 270 06:24 20.06.2020
1215 Clouds 6 1026 75 10000 5.1 270 05:54 20.06.2020
1216 Clouds 6 1026 75 10000 5.1 270 05:25 20.06.2020
1217 Clouds 6 1026 75 10000 5.7 270 02:56 20.06.2020
1218 Clouds 6 1026 70 10000 6.2 270 01:50 20.06.2020
1219 Clouds 6 1027 75 10000 6.2 270 01:27 20.06.2020
1220 Clouds 6 1027 70 10000 5.7 270 00:22 20.06.2020
1221 Clouds 6 1027 70 10000 7.2 280 23:58 19.06.2020
1222 Clouds 6 1027 75 10000 7.2 300 23:39 19.06.2020
1223 Clouds 6 1027 75 10000 7.2 300 23:18 19.06.2020
1224 Clouds 6 1027 75 10000 7.2 300 22:42 19.06.2020
1225 Clouds 6 1027 75 10000 7.2 300 22:24 19.06.2020
1226 Clouds 6 1026 75 10000 6.7 300 21:59 19.06.2020
1227 Clouds 6 1026 70 10000 7.2 300 21:39 19.06.2020
1228 Clouds 6 1026 70 10000 7.2 300 21:39 19.06.2020
1229 Clouds 6 1026 70 10000 7.2 300 21:18 19.06.2020
1230 Clouds 6 1026 75 10000 7.2 300 20:59 19.06.2020
1231 Clouds 7 1026 70 10000 7.7 300 20:40 19.06.2020
1232 Clouds 7 1026 70 10000 7.7 300 20:21 19.06.2020
1233 Clouds 7 1026 70 10000 7.7 300 20:21 19.06.2020
1234 Clouds 7 1026 70 10000 7.7 300 20:21 19.06.2020
1235 Clouds 7 1026 70 10000 7.7 300 20:21 19.06.2020
1236 Clouds 7 1026 70 10000 8.7 290 19:59 19.06.2020
1237 Clouds 7 1026 65 10000 8.7 290 19:41 19.06.2020
1238 Clouds 7 1026 65 10000 8.7 290 19:23 19.06.2020
1239 Clouds 7 1026 65 10000 8.7 290 18:57 19.06.2020
1240 Clouds 7 1026 65 10000 9.3 290 18:38 19.06.2020
1241 Clouds 7 1026 65 10000 9.3 290 18:20 19.06.2020
1242 Clouds 7 1026 65 10000 9.3 290 18:20 19.06.2020
1243 Clouds 7 1026 70 10000 8.7 290 17:42 19.06.2020
1244 Clouds 7 1026 70 10000 8.7 290 17:23 19.06.2020
1245 Clouds 8 1026 65 10000 9.8 290 16:57 19.06.2020
1246 Clouds 8 1026 65 10000 9.3 300 16:38 19.06.2020
1247 Clouds 8 1026 65 10000 9.3 300 16:20 19.06.2020
1248 Clouds 7 1026 75 10000 9.8 310 15:44 19.06.2020
1249 Clouds 7 1026 75 10000 9.8 310 15:25 19.06.2020
1250 Clouds 7 1026 75 10000 9.8 310 14:57 19.06.2020
1251 Clouds 7 1026 70 10000 9.3 310 14:39 19.06.2020
1252 Clouds 7 1026 70 10000 9.3 310 14:20 19.06.2020
1253 Clouds 7 1025 70 10000 9.8 310 13:57 19.06.2020
1254 Clouds 7 1025 70 10000 8.7 310 13:39 19.06.2020
1255 Clouds 7 1025 70 10000 8.7 310 13:19 19.06.2020
1256 Clouds 7 1025 70 10000 9.8 310 12:43 19.06.2020
1257 Clouds 7 1025 70 10000 9.8 310 12:20 19.06.2020
1258 Clouds 7 1024 70 10000 9.8 310 11:40 19.06.2020
1259 Clouds 7 1024 70 10000 9.8 310 11:19 19.06.2020
1260 Clouds 6 1024 81 10000 9.8 320 10:59 19.06.2020
1261 Clouds 6 1023 81 10000 9.3 320 10:41 19.06.2020
1262 Clouds 6 1023 81 10000 9.3 320 10:41 19.06.2020
1263 Clouds 6 1023 81 10000 9.3 320 10:41 19.06.2020
1264 Clouds 6 1023 81 10000 9.3 320 10:20 19.06.2020
1265 Clouds 6 1023 81 10000 10.3 310 09:45 19.06.2020
1266 Clouds 6 1023 81 10000 10.3 310 09:25 19.06.2020
1267 Clouds 6 1023 81 10000 9.8 310 08:59 19.06.2020
1268 Clouds 6 1022 75 10000 9.8 300 08:39 19.06.2020
1269 Clouds 6 1022 75 10000 9.8 300 08:20 19.06.2020
1270 Clouds 6 1022 75 10000 10.3 310 07:41 19.06.2020
1271 Clouds 6 1022 75 10000 10.3 310 07:21 19.06.2020
1272 Rain 5 1022 86 10000 11.8 320 06:47 19.06.2020
1273 Rain 5 1022 86 10000 11.8 320 06:21 19.06.2020
1274 Drizzle 5 1021 93 10000 12.3 300 05:28 19.06.2020
1275 Rain 5 1020 93 10000 11.3 310 03:37 19.06.2020
1276 Rain 5 1020 86 10000 10.8 310 02:20 19.06.2020
1277 Rain 5 1019 93 10000 10.8 300 00:44 19.06.2020
1278 Rain 5 1019 93 10000 10.8 300 00:22 19.06.2020
1279 Drizzle 5 1019 93 4500 12.3 290 23:57 18.06.2020
1280 Clouds 5 1019 93 10000 12.3 290 23:39 18.06.2020
1281 Clouds 5 1018 93 10000 12.9 290 23:20 18.06.2020
1282 Drizzle 5 1018 93 8000 13.4 290 22:41 18.06.2020
1283 Drizzle 5 1018 93 8000 13.4 290 22:20 18.06.2020
1284 Clouds 6 1018 87 10000 13.4 290 21:56 18.06.2020
1285 Clouds 6 1018 87 10000 13.9 290 21:37 18.06.2020
1286 Clouds 6 1018 87 10000 13.9 290 21:19 18.06.2020
1287 Drizzle 6 1017 87 10000 14.4 290 20:41 18.06.2020
1288 Drizzle 6 1017 87 10000 14.4 290 20:21 18.06.2020
1289 Clouds 7 1017 81 10000 14.9 290 19:58 18.06.2020
1290 Clouds 7 1017 81 10000 15.4 290 19:40 18.06.2020
1291 Clouds 7 1017 81 10000 15.4 290 19:19 18.06.2020
1292 Clouds 7 1017 81 10000 14.9 280 18:41 18.06.2020
1293 Clouds 7 1017 81 10000 13.4 280 18:23 18.06.2020
1294 Clouds 7 1017 81 10000 13.4 280 17:55 18.06.2020
1295 Clouds 8 1017 70 10000 11.3 280 17:37 18.06.2020
1296 Clouds 8 1017 70 10000 11.3 280 17:19 18.06.2020
1297 Clouds 9 1016 70 10000 13.4 280 16:43 18.06.2020
1298 Clouds 9 1016 70 10000 13.4 280 16:25 18.06.2020
1299 Clouds 9 1016 70 10000 12.3 290 15:59 18.06.2020
1300 Clouds 10 1016 66 10000 10.8 290 15:40 18.06.2020
1301 Clouds 10 1016 66 10000 10.8 290 15:20 18.06.2020
1302 Clouds 10 1016 71 10000 7.7 300 14:57 18.06.2020
1303 Clouds 8 1016 87 10000 8.7 290 14:38 18.06.2020
1304 Clouds 8 1016 87 10000 8.7 290 14:20 18.06.2020
1305 Clouds 8 1016 87 10000 7.7 290 13:48 18.06.2020
1306 Clouds 8 1016 93 10000 6.7 300 13:29 18.06.2020
1307 Clouds 9 1015 81 10000 8.7 300 12:58 18.06.2020
1308 Clouds 9 1015 76 10000 7.7 300 12:40 18.06.2020
1309 Clouds 9 1015 76 10000 7.7 300 12:40 18.06.2020
1310 Clouds 9 1015 76 10000 7.7 300 12:20 18.06.2020
1311 Clouds 10 1015 71 10000 6.7 300 11:57 18.06.2020
1312 Clouds 10 1015 71 10000 5.1 290 11:38 18.06.2020
1313 Clouds 10 1015 71 10000 5.1 290 11:19 18.06.2020
1314 Clouds 10 1015 71 10000 5.7 270 10:40 18.06.2020
1315 Clouds 10 1015 71 10000 5.7 270 10:19 18.06.2020
1316 Clouds 10 1015 71 10000 5.7 270 10:19 18.06.2020
1317 Clouds 10 1015 71 10000 5.7 280 09:54 18.06.2020
1318 Clouds 10 1015 66 10000 5.1 270 09:36 18.06.2020
1319 Clouds 10 1015 66 10000 5.7 270 09:18 18.06.2020
1320 Clouds 10 1015 61 10000 4.1 260 08:39 18.06.2020
1321 Clouds 10 1015 61 10000 4.1 260 08:20 18.06.2020
1322 Clouds 10 1015 66 10000 4.6 270 07:46 18.06.2020
1323 Clouds 10 1015 66 10000 4.6 270 07:26 18.06.2020
1324 Clouds 10 1015 66 10000 4.1 270 06:54 18.06.2020
1325 Clear 10 1015 71 10000 5.1 270 05:40 18.06.2020
1326 Clear 10 1015 66 10000 5.7 240 04:21 18.06.2020
1327 Clear 9 1016 66 10000 5.1 270 02:37 18.06.2020
1328 Clear 10 1016 66 10000 5.1 260 01:28 18.06.2020
1329 Clear 9 1016 70 10000 4.6 240 00:55 18.06.2020
1330 Clear 9 1016 70 10000 5.1 260 00:33 18.06.2020
1331 Clear 9 1016 70 10000 4.1 270 23:58 17.06.2020
1332 Clear 9 1016 70 10000 4.1 270 23:39 17.06.2020
1333 Clear 9 1016 70 10000 4.1 270 23:20 17.06.2020
1334 Clear 9 1016 76 10000 3.1 250 22:57 17.06.2020
1335 Clear 9 1016 76 10000 3.6 230 22:38 17.06.2020
1336 Clear 9 1016 76 10000 3.6 230 22:20 17.06.2020
1337 Clear 10 1016 66 10000 3.6 220 21:55 17.06.2020
1338 Clear 10 1016 71 10000 2.1 240 21:36 17.06.2020
1339 Clear 10 1016 71 10000 2.1 240 21:18 17.06.2020
1340 Clear 10 1016 71 10000 2.1 240 21:18 17.06.2020
1341 Clear 12 1017 58 10000 1.5 220 20:38 17.06.2020
1342 Clear 12 1017 58 10000 1.5 220 20:38 17.06.2020
1343 Clear 12 1017 58 10000 1.5 220 20:38 17.06.2020
1344 Clear 12 1017 58 10000 1.5 220 20:20 17.06.2020
1345 Clear 12 1017 62 10000 1 0 19:56 17.06.2020
1346 Clear 12 1017 58 10000 1 0 19:37 17.06.2020
1347 Clouds 12 1017 58 10000 1 0 19:18 17.06.2020
1348 Clouds 11 1018 62 10000 1.5 110 18:44 17.06.2020
1349 Clouds 11 1018 62 10000 1.5 110 18:26 17.06.2020
1350 Clouds 10 1018 66 10000 4.1 90 17:45 17.06.2020
1351 Clouds 10 1018 66 10000 4.1 90 17:23 17.06.2020
1352 Clouds 10 1019 66 10000 3.6 80 16:58 17.06.2020
1353 Clouds 11 1019 57 10000 3.1 100 16:39 17.06.2020
1354 Clouds 11 1019 57 10000 3.1 100 16:21 17.06.2020
1355 Clouds 10 1019 61 10000 3.1 100 15:57 17.06.2020
1356 Clouds 10 1019 61 10000 4.1 110 15:38 17.06.2020
1357 Clouds 10 1019 61 10000 4.1 110 15:19 17.06.2020
1358 Clouds 9 1020 61 10000 4.1 90 14:57 17.06.2020
1359 Clouds 9 1020 66 10000 3.6 80 14:39 17.06.2020
1360 Clouds 9 1020 66 10000 3.6 80 14:19 17.06.2020
1361 Clouds 9 1020 61 10000 4.1 90 13:56 17.06.2020
1362 Clouds 9 1020 66 10000 3.1 90 13:36 17.06.2020
1363 Clouds 9 1020 66 10000 3.1 90 13:18 17.06.2020
1364 Clouds 9 1021 61 10000 4.6 100 12:42 17.06.2020
1365 Clouds 9 1021 61 10000 4.6 100 12:22 17.06.2020
1366 Clouds 9 1021 61 10000 2.1 0 11:45 17.06.2020
1367 Clouds 9 1021 61 10000 2.1 0 11:26 17.06.2020
1368 Clouds 9 1021 61 10000 2.1 0 10:59 17.06.2020
1369 Clouds 8 1021 61 10000 2.1 10 10:38 17.06.2020
1370 Clouds 8 1021 61 10000 2.1 10 10:19 17.06.2020
1371 Clouds 8 1021 61 10000 2.1 10 10:19 17.06.2020
1372 Clouds 8 1021 61 10000 2.1 10 09:57 17.06.2020
1373 Clouds 7 1021 65 10000 0.5 0 09:39 17.06.2020
1374 Clouds 7 1021 65 10000 0.5 0 09:20 17.06.2020
1375 Clouds 7 1021 65 10000 1.5 0 08:45 17.06.2020
1376 Clouds 7 1021 65 10000 1.5 0 08:20 17.06.2020
1377 Clouds 7 1021 70 10000 2.6 270 07:55 17.06.2020
1378 Clouds 6 1022 70 10000 3.6 280 07:37 17.06.2020
1379 Clouds 6 1022 70 10000 3.6 280 07:19 17.06.2020
1380 Clouds 6 1022 70 10000 5.1 290 06:41 17.06.2020
1381 Clouds 6 1022 70 10000 5.1 290 06:23 17.06.2020
1382 Clouds 6 1022 70 10000 6.2 290 05:59 17.06.2020
1383 Clouds 6 1022 75 10000 7.2 290 04:39 17.06.2020
1384 Clouds 5 1023 75 0 1.94 312 02:44 17.06.2020
1385 Clouds 6 1022 75 10000 7.7 290 01:28 17.06.2020
1386 Clouds 6 1022 70 10000 9.3 290 00:37 17.06.2020
1387 Clouds 6 1022 70 10000 9.3 290 00:19 17.06.2020
1388 Clouds 6 1022 75 10000 8.7 300 23:55 16.06.2020
1389 Clouds 6 1022 75 10000 9.3 300 23:37 16.06.2020
1390 Clouds 5 1022 80 10000 8.7 300 23:18 16.06.2020
1391 Clouds 6 1022 75 10000 9.3 300 22:39 16.06.2020
1392 Clouds 6 1022 75 10000 9.3 300 22:19 16.06.2020
1393 Clouds 6 1022 75 10000 8.7 300 21:58 16.06.2020
1394 Clouds 5 1022 80 10000 9.8 300 21:40 16.06.2020
1395 Clouds 5 1022 80 10000 9.8 300 21:22 16.06.2020
1396 Clouds 6 1022 75 10000 9.8 300 20:57 16.06.2020
1397 Clouds 6 1022 75 10000 9.3 300 20:39 16.06.2020
1398 Clouds 6 1022 75 10000 9.3 300 20:18 16.06.2020
1399 Clouds 6 1022 75 10000 9.8 300 19:56 16.06.2020
1400 Clouds 6 1022 70 10000 9.8 290 19:37 16.06.2020
1401 Clouds 6 1022 70 10000 9.8 290 19:18 16.06.2020
1402 Clouds 6 1023 75 10000 8.7 300 18:44 16.06.2020
1403 Clouds 6 1023 75 10000 8.7 300 18:21 16.06.2020
1404 Clouds 6 1023 75 10000 8.2 300 17:58 16.06.2020
1405 Clouds 6 1023 75 10000 8.7 290 17:39 16.06.2020
1406 Clouds 6 1023 75 10000 8.7 290 17:21 16.06.2020
1407 Clouds 6 1023 75 10000 8.2 290 16:58 16.06.2020
1408 Clouds 6 1023 75 10000 9.3 290 16:39 16.06.2020
1409 Rain 7 1023 65 10000 10.3 300 16:19 16.06.2020
1410 Rain 7 1023 65 10000 10.3 300 16:19 16.06.2020
1411 Rain 7 1023 65 10000 10.3 300 15:56 16.06.2020
1412 Rain 7 1023 65 10000 10.3 300 15:56 16.06.2020
1413 Rain 7 1023 65 10000 10.3 300 15:56 16.06.2020
1414 Rain 6 1023 75 10000 10.3 300 15:38 16.06.2020
1415 Clouds 7 1023 70 10000 10.8 290 15:20 16.06.2020
1416 Clouds 7 1023 70 10000 10.8 290 14:55 16.06.2020
1417 Rain 7 1023 70 10000 10.8 290 14:36 16.06.2020
1418 Rain 7 1023 70 10000 10.8 290 14:18 16.06.2020
1419 Drizzle 6 1023 81 10000 10.3 290 13:44 16.06.2020
1420 Drizzle 6 1023 81 10000 10.3 290 13:24 16.06.2020
1421 Drizzle 6 1023 81 10000 10.3 290 13:24 16.06.2020
1422 Drizzle 6 1023 81 10000 10.3 290 13:24 16.06.2020
1423 Clouds 7 1023 65 10000 10.3 290 12:42 16.06.2020
1424 Clouds 6 1023 75 10000 9.3 300 12:22 16.06.2020
1425 Clouds 6 1023 75 10000 9.3 300 11:58 16.06.2020
1426 Clouds 6 1022 75 10000 9.3 290 11:40 16.06.2020
1427 Clouds 6 1022 75 10000 9.3 290 11:22 16.06.2020
1428 Clouds 5 1022 86 10000 8.7 290 10:58 16.06.2020
1429 Rain 6 1022 75 10000 8.2 290 10:38 16.06.2020
1430 Rain 6 1022 75 10000 8.2 290 10:20 16.06.2020
1431 Clouds 5 1022 80 10000 8.7 280 09:45 16.06.2020
1432 Clouds 5 1022 80 10000 8.7 280 09:23 16.06.2020
1433 Clouds 4 1022 86 10000 10.8 290 08:53 16.06.2020
1434 Clouds 5 1022 80 10000 10.8 290 08:33 16.06.2020
1435 Clouds 4 1022 86 10000 9.3 290 07:55 16.06.2020
1436 Rain 5 1022 80 10000 8.7 280 07:37 16.06.2020
1437 Rain 5 1022 80 10000 8.7 280 07:19 16.06.2020
1438 Rain 5 1022 86 10000 7.2 280 06:34 16.06.2020
1439 Clouds 4 1022 86 10000 8.7 300 05:52 16.06.2020
1440 Drizzle 4 1022 80 10000 7.7 300 04:58 16.06.2020
1441 Clouds 4 1021 86 10000 10.8 290 04:25 16.06.2020
1442 Rain 5 1021 75 10000 8.7 300 02:46 16.06.2020
1443 Rain 5 1020 75 10000 9.8 290 01:34 16.06.2020
1444 Rain 5 1020 80 10000 8.7 310 00:58 16.06.2020
1445 Rain 5 1020 80 10000 11.3 290 00:27 16.06.2020
1446 Rain 5 1020 80 10000 10.8 300 23:57 15.06.2020
1447 Clouds 5 1020 80 10000 11.3 310 23:38 15.06.2020
1448 Rain 5 1019 80 10000 11.8 300 23:20 15.06.2020
1449 Rain 5 1019 80 10000 12.3 300 22:42 15.06.2020
1450 Rain 5 1019 80 10000 12.3 300 22:23 15.06.2020
1451 Rain 5 1019 86 10000 10.3 290 21:58 15.06.2020
1452 Rain 5 1019 86 10000 12.3 290 21:38 15.06.2020
1453 Rain 5 1019 86 10000 12.3 290 21:20 15.06.2020
1454 Rain 5 1019 86 10000 12.3 290 21:20 15.06.2020
1455 Rain 5 1019 86 10000 11.3 290 20:59 15.06.2020
1456 Rain 5 1018 86 10000 12.3 300 20:39 15.06.2020
1457 Rain 5 1018 86 10000 12.3 300 20:20 15.06.2020
1458 Rain 6 1018 81 10000 13.9 290 19:59 15.06.2020
1459 Rain 6 1018 81 10000 13.9 290 19:59 15.06.2020
1460 Rain 5 1018 86 10000 15.4 300 19:40 15.06.2020
1461 Rain 5 1018 86 10000 15.4 300 19:21 15.06.2020
1462 Rain 5 1018 80 10000 11.8 290 18:57 15.06.2020
1463 Rain 6 1018 81 10000 14.9 290 18:39 15.06.2020
1464 Rain 6 1018 81 10000 14.9 290 18:19 15.06.2020
1465 Rain 6 1018 75 10000 14.9 300 17:57 15.06.2020
1466 Clouds 7 1017 65 10000 13.9 290 17:39 15.06.2020
1467 Clouds 7 1017 65 10000 13.9 290 17:19 15.06.2020
1468 Rain 7 1017 70 10000 13.4 290 16:42 15.06.2020
1469 Rain 7 1017 70 10000 13.4 290 16:19 15.06.2020
1470 Rain 7 1017 70 10000 13.9 300 15:58 15.06.2020
1471 Rain 7 1017 70 10000 14.4 300 15:40 15.06.2020
1472 Rain 7 1017 70 10000 14.4 300 15:20 15.06.2020
1473 Rain 7 1017 70 10000 14.9 290 14:55 15.06.2020
1474 Rain 7 1017 75 10000 13.9 300 14:37 15.06.2020
1475 Rain 7 1016 70 10000 14.4 290 14:18 15.06.2020
1476 Rain 7 1016 70 10000 13.9 290 13:42 15.06.2020
1477 Rain 7 1016 70 10000 13.9 290 13:24 15.06.2020
1478 Rain 7 1016 70 10000 13.9 290 13:24 15.06.2020
1479 Rain 7 1016 65 10000 14.4 280 12:59 15.06.2020
1480 Rain 7 1016 70 10000 15.9 280 12:40 15.06.2020
1481 Rain 7 1016 70 10000 15.9 280 12:21 15.06.2020
1482 Rain 7 1016 75 10000 15.4 280 11:46 15.06.2020
1483 Rain 7 1016 75 10000 15.4 280 11:26 15.06.2020
1484 Rain 7 1015 75 10000 14.4 280 10:57 15.06.2020
1485 Rain 7 1015 75 10000 13.4 290 10:38 15.06.2020
1486 Rain 7 1015 75 10000 13.4 290 10:19 15.06.2020
1487 Rain 7 1015 75 10000 12.3 270 09:42 15.06.2020
1488 Rain 7 1015 75 10000 12.3 270 09:22 15.06.2020
1489 Rain 7 1015 75 10000 12.9 270 08:45 15.06.2020
1490 Rain 7 1015 75 10000 12.9 270 08:26 15.06.2020
1491 Clouds 6 1014 81 10000 15.4 280 07:52 15.06.2020
1492 Rain 7 1014 70 10000 15.9 280 07:34 15.06.2020
1493 Clouds 7 1014 70 10000 15.4 270 06:57 15.06.2020
1494 Clouds 7 1014 70 10000 15.4 270 06:57 15.06.2020
1495 Clouds 7 1014 70 10000 17 280 06:27 15.06.2020
1496 Clouds 7 1014 75 10000 18.5 270 05:50 15.06.2020
1497 Clouds 7 1014 75 10000 18.5 270 05:28 15.06.2020
1498 Clouds 7 1014 75 10000 14.4 270 04:22 15.06.2020
1499 Clouds 7 1014 75 10000 13.9 270 03:48 15.06.2020
1500 Clouds 7 1014 75 10000 15.9 280 02:56 15.06.2020
1501 Clouds 7 1014 75 10000 11.3 280 02:26 15.06.2020
1502 Clouds 7 1014 81 10000 9.3 270 01:44 15.06.2020
1503 Clouds 7 1014 81 10000 9.3 270 01:24 15.06.2020
1504 Clouds 8 1014 81 10000 10.3 270 00:44 15.06.2020
1505 Clouds 8 1014 81 10000 10.3 270 00:23 15.06.2020
1506 Clouds 8 1014 81 10000 12.3 270 23:57 14.06.2020
1507 Clouds 8 1014 81 10000 12.3 270 23:57 14.06.2020
1508 Clouds 8 1014 87 10000 11.3 270 23:39 14.06.2020
1509 Clouds 8 1014 87 10000 11.3 270 23:20 14.06.2020
1510 Clouds 8 1014 87 10000 9.8 280 22:56 14.06.2020
1511 Clouds 8 1014 87 10000 10.3 270 22:37 14.06.2020
1512 Clouds 8 1014 87 10000 10.3 270 22:18 14.06.2020
1513 Clouds 8 1014 87 10000 12.3 270 21:56 14.06.2020
1514 Clouds 8 1014 87 10000 14.9 270 21:37 14.06.2020
1515 Clouds 8 1014 87 10000 14.9 270 21:18 14.06.2020
1516 Clouds 8 1014 87 10000 14.9 270 21:18 14.06.2020
1517 Clouds 8 1014 87 10000 11.3 260 20:55 14.06.2020
1518 Clouds 9 1014 81 10000 11.3 270 20:37 14.06.2020
1519 Clouds 9 1014 81 10000 11.3 270 20:18 14.06.2020
1520 Clouds 9 1014 81 10000 12.3 270 19:55 14.06.2020
1521 Clouds 9 1014 81 10000 11.8 270 19:37 14.06.2020
1522 Clouds 9 1014 81 10000 11.8 270 19:18 14.06.2020
1523 Clouds 10 1014 71 10000 10.3 260 18:55 14.06.2020
1524 Clouds 10 1014 71 10000 10.3 270 18:37 14.06.2020
1525 Clouds 10 1014 71 10000 10.3 270 18:18 14.06.2020
1526 Rain 10 1015 76 10000 7.2 250 17:40 14.06.2020
1527 Rain 10 1015 76 10000 7.2 250 17:20 14.06.2020
1528 Clouds 11 1015 71 10000 8.2 280 16:59 14.06.2020
1529 Clouds 12 1015 66 10000 6.7 290 16:40 14.06.2020
1530 Clouds 12 1015 66 10000 6.7 290 16:20 14.06.2020
1531 Clouds 13 1014 62 10000 7.2 270 15:57 14.06.2020
1532 Clouds 13 1014 58 10000 9.3 270 15:37 14.06.2020
1533 Clouds 13 1015 58 10000 9.8 260 15:18 14.06.2020
1534 Clouds 15 1015 54 10000 10.8 270 14:41 14.06.2020
1535 Clouds 15 1015 54 10000 10.8 270 14:23 14.06.2020
1536 Clouds 14 1015 58 10000 8.7 270 13:59 14.06.2020
1537 Clouds 14 1015 54 10000 7.2 280 13:41 14.06.2020
1538 Clouds 14 1015 54 10000 7.2 280 13:22 14.06.2020
1539 Clouds 15 1015 54 10000 7.7 280 12:57 14.06.2020
1540 Clouds 14 1015 54 10000 7.2 270 12:39 14.06.2020
1541 Clouds 14 1015 54 10000 7.2 270 12:21 14.06.2020
1542 Clouds 14 1015 54 10000 8.7 250 11:58 14.06.2020
1543 Clouds 15 1015 51 10000 8.2 260 11:38 14.06.2020
1544 Clouds 15 1015 51 10000 8.2 260 11:20 14.06.2020
1545 Clouds 15 1015 51 10000 9.3 250 10:43 14.06.2020
1546 Clouds 15 1015 51 10000 9.3 250 10:21 14.06.2020
1547 Clouds 15 1015 51 10000 8.7 250 09:58 14.06.2020
1548 Clouds 15 1015 54 10000 9.3 260 09:40 14.06.2020
1549 Clouds 15 1015 54 10000 9.3 260 09:21 14.06.2020
1550 Clouds 14 1015 58 10000 9.3 250 08:42 14.06.2020
1551 Clouds 14 1015 58 10000 9.3 250 08:22 14.06.2020
1552 Clouds 14 1015 58 10000 8.2 270 07:52 14.06.2020
1553 Clouds 13 1015 62 10000 8.2 270 07:34 14.06.2020
1554 Clouds 14 1015 54 10000 5.1 280 06:51 14.06.2020
1555 Clouds 15 1015 51 10000 4.6 280 05:51 14.06.2020
1556 Clouds 16 1015 48 10000 4.6 250 05:22 14.06.2020
1557 Clouds 15 1015 47 10000 3.6 240 04:37 14.06.2020
1558 Clouds 14 1015 50 10000 4.6 240 03:54 14.06.2020
1559 Clouds 13 1016 58 10000 5.1 220 02:35 14.06.2020
1560 Clouds 12 1016 62 10000 6.2 210 01:55 14.06.2020
1561 Clouds 13 1016 58 10000 6.7 210 01:27 14.06.2020
1562 Clouds 12 1017 62 10000 5.7 210 00:48 14.06.2020
1563 Clouds 12 1017 62 10000 5.7 210 00:21 14.06.2020
1564 Clouds 13 1018 58 10000 5.7 210 23:46 13.06.2020
1565 Clouds 13 1018 58 10000 5.7 210 23:26 13.06.2020
1566 Clouds 11 1018 71 10000 6.2 210 22:59 13.06.2020
1567 Clouds 10 1018 76 10000 5.1 210 22:38 13.06.2020
1568 Clouds 10 1018 76 10000 5.1 210 22:19 13.06.2020
1569 Clouds 10 1019 71 10000 4.6 200 21:58 13.06.2020
1570 Clouds 13 1019 62 10000 3.6 210 21:40 13.06.2020
1571 Clouds 13 1019 62 10000 3.6 210 21:21 13.06.2020
1572 Clouds 13 1019 58 10000 3.1 220 20:54 13.06.2020
1573 Clouds 14 1019 54 10000 1.5 200 20:36 13.06.2020
1574 Clouds 14 1019 54 10000 1.5 200 20:18 13.06.2020
1575 Clouds 14 1020 54 10000 1 0 19:39 13.06.2020
1576 Clouds 14 1020 54 10000 1 0 19:20 13.06.2020
1577 Clouds 14 1020 54 10000 1 0 18:58 13.06.2020
1578 Clouds 14 1020 58 10000 2.6 340 18:40 13.06.2020
1579 Clouds 14 1020 58 10000 2.6 340 18:20 13.06.2020
1580 Clouds 14 1020 62 10000 2.1 340 17:57 13.06.2020
1581 Clouds 14 1021 58 10000 1.5 0 17:38 13.06.2020
1582 Clouds 14 1021 58 10000 1.5 0 17:20 13.06.2020
1583 Clouds 15 1021 54 10000 0.5 0 16:54 13.06.2020
1584 Clouds 15 1021 51 10000 2.1 190 16:36 13.06.2020
1585 Clouds 15 1021 51 10000 2.1 190 16:18 13.06.2020
1586 Clouds 15 1022 47 10000 4.1 280 15:42 13.06.2020
1587 Clouds 15 1022 47 10000 4.1 280 15:21 13.06.2020
1588 Clouds 14 1022 50 10000 4.1 250 14:44 13.06.2020
1589 Clear 14 1022 50 10000 4.1 250 14:25 13.06.2020
1590 Clear 14 1022 50 10000 3.6 250 13:58 13.06.2020
1591 Clear 15 1022 51 10000 4.1 260 13:39 13.06.2020
1592 Clear 15 1022 51 10000 4.1 260 13:20 13.06.2020
1593 Clear 13 1023 62 10000 4.6 250 12:43 13.06.2020
1594 Clear 13 1023 62 10000 4.6 250 12:25 13.06.2020
1595 Clear 13 1023 62 10000 4.1 240 11:57 13.06.2020
1596 Clear 13 1023 50 10000 4.1 260 11:38 13.06.2020
1597 Clear 13 1023 50 10000 4.1 260 11:19 13.06.2020
1598 Clear 12 1023 58 10000 4.1 260 10:55 13.06.2020
1599 Clear 12 1024 58 10000 5.1 270 10:37 13.06.2020
1600 Clear 12 1024 58 10000 5.1 270 10:18 13.06.2020
1601 Clear 9 1024 76 10000 6.2 240 09:42 13.06.2020
1602 Clear 9 1024 76 10000 6.2 240 09:20 13.06.2020
1603 Clear 8 1024 81 10000 7.7 250 08:46 13.06.2020
1604 Clear 8 1024 81 10000 7.7 250 08:28 13.06.2020
1605 Clear 8 1024 81 10000 7.2 240 07:50 13.06.2020
1606 Clear 8 1024 81 10000 6.2 240 07:27 13.06.2020
1607 Clear 7 1025 87 10000 9.8 260 06:47 13.06.2020
1608 Clear 7 1025 87 10000 9.8 260 06:27 13.06.2020
1609 Clouds 7 1025 81 10000 9.3 260 05:36 13.06.2020
1610 Clouds 6 1025 87 10000 9.3 270 04:59 13.06.2020
1611 Clouds 6 1025 87 10000 10.3 270 03:47 13.06.2020
1612 Clouds 6 1025 87 10000 9.8 270 02:53 13.06.2020
1613 Clear 6 1025 87 10000 9.3 270 02:29 13.06.2020
1614 Clear 6 1026 87 10000 10.8 270 01:37 13.06.2020
1615 Clear 6 1026 87 10000 10.8 270 01:18 13.06.2020
1616 Clear 7 1026 81 10000 11.3 270 00:39 13.06.2020
1617 Clear 7 1026 81 10000 11.3 270 00:21 13.06.2020
1618 Clear 7 1026 81 10000 12.9 270 23:41 12.06.2020
1619 Clear 7 1026 81 10000 12.9 270 23:19 12.06.2020
1620 Clear 7 1026 81 10000 12.9 270 23:19 12.06.2020
1621 Clear 8 1026 75 10000 12.9 270 22:56 12.06.2020
1622 Clear 8 1026 75 10000 11.8 270 22:38 12.06.2020
1623 Clear 8 1026 75 10000 11.3 270 22:18 12.06.2020
1624 Clear 8 1026 75 10000 13.4 270 21:44 12.06.2020
1625 Clouds 8 1026 75 10000 13.4 270 21:24 12.06.2020
1626 Clouds 8 1026 75 10000 13.9 280 20:58 12.06.2020
1627 Clouds 8 1026 75 10000 14.4 280 20:39 12.06.2020
1628 Clouds 8 1026 75 10000 14.4 280 20:21 12.06.2020
1629 Clouds 9 1026 70 10000 13.4 280 19:54 12.06.2020
1630 Clouds 9 1026 70 10000 13.4 280 19:36 12.06.2020
1631 Clouds 9 1026 70 10000 13.4 280 19:18 12.06.2020
1632 Clouds 10 1026 66 10000 12.3 270 18:37 12.06.2020
1633 Clouds 10 1026 66 10000 10.8 270 18:18 12.06.2020
1634 Clouds 9 1027 70 10000 10.8 270 17:46 12.06.2020
1635 Clouds 9 1027 70 10000 10.8 270 17:27 12.06.2020
1636 Clouds 9 1027 70 10000 9.8 270 16:58 12.06.2020
1637 Clouds 9 1027 70 10000 10.8 270 16:40 12.06.2020
1638 Clouds 9 1027 70 10000 10.3 270 16:19 12.06.2020
1639 Clouds 9 1027 70 10000 11.8 270 15:45 12.06.2020
1640 Clouds 9 1027 70 10000 12.3 270 15:20 12.06.2020
1641 Clouds 9 1027 70 10000 11.8 260 14:44 12.06.2020
1642 Clouds 9 1027 70 10000 11.8 260 14:23 12.06.2020
1643 Clouds 9 1027 70 10000 12.3 260 13:59 12.06.2020
1644 Clouds 9 1027 66 10000 13.9 260 13:40 12.06.2020
1645 Clouds 9 1027 66 10000 13.9 260 13:19 12.06.2020
1646 Clouds 8 1027 70 10000 15.9 270 12:40 12.06.2020
1647 Clouds 8 1027 70 10000 15.9 270 12:19 12.06.2020
1648 Clouds 8 1027 75 10000 14.9 270 11:56 12.06.2020
1649 Clouds 8 1027 70 10000 14.9 270 11:37 12.06.2020
1650 Clouds 8 1027 70 10000 14.9 270 11:19 12.06.2020
1651 Clouds 9 1027 66 10000 15.9 270 10:43 12.06.2020
1652 Clouds 9 1027 66 10000 15.9 270 10:23 12.06.2020
1653 Clouds 8 1027 70 10000 14.9 270 09:44 12.06.2020
1654 Clouds 8 1027 70 10000 14.9 270 09:21 12.06.2020
1655 Clouds 8 1026 70 10000 12.9 260 08:44 12.06.2020
1656 Clouds 8 1026 70 10000 12.9 260 08:24 12.06.2020
1657 Clouds 7 1026 75 10000 13.9 260 07:44 12.06.2020
1658 Clouds 7 1027 75 10000 13.4 270 07:25 12.06.2020
1659 Clouds 7 1027 75 10000 13.4 270 06:55 12.06.2020
1660 Clouds 7 1027 75 10000 12.3 270 06:30 12.06.2020
1661 Clouds 7 1027 75 10000 13.4 260 05:53 12.06.2020
1662 Clouds 7 1027 75 10000 11.8 270 05:30 12.06.2020
1663 Clouds 6 1027 81 10000 12.3 270 04:55 12.06.2020
1664 Clouds 6 1028 75 10000 12.3 270 03:20 12.06.2020
1665 Clouds 6 1028 75 10000 11.8 270 01:53 12.06.2020
1666 Clouds 6 1028 75 10000 11.3 260 01:27 12.06.2020
1667 Clouds 6 1029 75 10000 11.3 270 00:45 12.06.2020
1668 Clouds 6 1029 75 10000 11.3 270 00:25 12.06.2020
1669 Clouds 6 1029 75 10000 10.8 270 23:59 11.06.2020
1670 Clouds 6 1029 75 10000 9.8 270 23:41 11.06.2020
1671 Clouds 6 1029 75 10000 9.8 270 23:21 11.06.2020
1672 Clouds 6 1029 75 10000 9.8 270 22:59 11.06.2020
1673 Clouds 6 1029 75 10000 10.8 270 22:39 11.06.2020
1674 Clouds 6 1029 75 10000 10.8 270 22:20 11.06.2020
1675 Clouds 6 1029 75 10000 8.7 270 21:56 11.06.2020
1676 Clouds 6 1029 75 10000 9.8 260 21:38 11.06.2020
1677 Clouds 6 1029 75 10000 9.8 260 21:20 11.06.2020
1678 Clouds 6 1029 75 10000 7.7 260 20:45 11.06.2020
1679 Clouds 6 1029 75 10000 7.7 260 20:22 11.06.2020
1680 Clouds 6 1029 81 10000 8.2 270 19:55 11.06.2020
1681 Clouds 6 1029 81 10000 8.7 280 19:37 11.06.2020
1682 Clouds 6 1029 81 10000 8.7 280 19:37 11.06.2020
1683 Clouds 6 1029 81 10000 8.7 280 19:18 11.06.2020
1684 Clouds 6 1029 81 10000 8.7 280 18:42 11.06.2020
1685 Clouds 6 1029 81 10000 10.8 280 18:24 11.06.2020
1686 Clouds 6 1029 87 10000 11.8 270 17:57 11.06.2020
1687 Clouds 6 1029 87 10000 11.8 270 17:38 11.06.2020
1688 Clouds 5 1029 93 10000 11.8 280 17:19 11.06.2020
1689 Clouds 5 1029 93 10000 12.3 270 16:57 11.06.2020
1690 Clouds 5 1029 93 10000 12.3 270 16:38 11.06.2020
1691 Clouds 6 1029 81 10000 13.4 280 16:20 11.06.2020
1692 Clouds 6 1029 81 10000 12.3 280 15:43 11.06.2020
1693 Clouds 6 1029 81 10000 10.8 270 15:25 11.06.2020
1694 Clouds 6 1029 81 10000 9.8 270 14:58 11.06.2020
1695 Clouds 6 1029 81 10000 9.8 270 14:39 11.06.2020
1696 Clouds 6 1029 81 10000 9.8 270 14:39 11.06.2020
1697 Clouds 6 1029 81 10000 10.8 270 14:20 11.06.2020
1698 Clouds 5 1029 86 10000 10.3 270 13:55 11.06.2020
1699 Rain 6 1029 81 10000 10.3 270 13:37 11.06.2020
1700 Rain 6 1029 81 10000 10.3 270 13:18 11.06.2020
1701 Rain 6 1028 81 10000 10.3 270 12:54 11.06.2020
1702 Clouds 6 1028 81 10000 8.7 280 12:36 11.06.2020
1703 Clouds 6 1028 81 10000 8.7 280 12:18 11.06.2020
1704 Clouds 6 1028 75 10000 8.7 280 11:56 11.06.2020
1705 Clouds 6 1028 75 10000 8.7 280 11:37 11.06.2020
1706 Clouds 6 1028 75 10000 8.7 280 11:18 11.06.2020
1707 Clouds 6 1027 75 10000 8.7 280 10:42 11.06.2020
1708 Clouds 6 1027 75 10000 8.7 280 10:20 11.06.2020
1709 Clouds 6 1027 75 10000 8.2 290 09:56 11.06.2020
1710 Clouds 6 1027 75 10000 8.2 290 09:38 11.06.2020
1711 Clouds 6 1027 75 10000 9.3 300 09:20 11.06.2020
1712 Clouds 6 1026 75 10000 10.8 290 08:39 11.06.2020
1713 Clouds 6 1026 75 10000 12.9 290 08:19 11.06.2020
1714 Clouds 6 1026 70 10000 14.9 290 07:42 11.06.2020
1715 Clouds 6 1026 75 10000 14.4 300 07:24 11.06.2020
1716 Clouds 5 1026 80 10000 9.8 310 06:37 11.06.2020
1717 Clouds 5 1026 80 10000 9.3 300 05:58 11.06.2020
1718 Clouds 5 1025 75 10000 9.3 300 04:49 11.06.2020
1719 Clouds 5 1025 80 10000 9.3 310 03:25 11.06.2020
1720 Clouds 6 1025 81 10000 8.7 310 02:49 11.06.2020
1721 Clouds 6 1024 87 10000 8.7 320 01:57 11.06.2020
1722 Clouds 6 1024 87 10000 8.7 310 01:35 11.06.2020
1723 Clouds 6 1024 87 9000 10.8 310 00:59 11.06.2020
1724 Clouds 5 1024 100 9000 10.3 320 00:39 11.06.2020
1725 Clouds 5 1024 100 9000 10.3 320 00:20 11.06.2020
1726 Drizzle 6 1024 93 4500 9.8 320 23:43 10.06.2020
1727 Drizzle 6 1023 100 3600 9.3 310 23:23 10.06.2020
1728 Drizzle 6 1023 93 1600 10.3 280 22:55 10.06.2020
1729 Drizzle 6 1023 93 8000 11.3 270 22:37 10.06.2020
1730 Drizzle 6 1023 93 8000 11.3 270 22:18 10.06.2020
1731 Drizzle 6 1023 93 10000 11.3 270 21:55 10.06.2020
1732 Drizzle 6 1023 87 10000 12.3 260 21:37 10.06.2020
1733 Drizzle 6 1023 87 10000 12.3 260 21:18 10.06.2020
1734 Drizzle 6 1023 87 10000 10.3 260 20:55 10.06.2020
1735 Drizzle 6 1023 81 10000 10.8 260 20:37 10.06.2020
1736 Drizzle 6 1023 81 10000 10.8 260 20:18 10.06.2020
1737 Clouds 6 1023 75 10000 10.3 260 19:38 10.06.2020
1738 Clouds 6 1023 75 10000 10.3 260 19:18 10.06.2020
1739 Clouds 6 1023 75 10000 9.8 260 19:18 10.06.2020
1740 Clouds 6 1023 75 10000 9.8 260 18:57 10.06.2020
1741 Clouds 6 1023 70 10000 10.8 260 18:38 10.06.2020
1742 Clouds 6 1023 70 10000 10.8 260 18:19 10.06.2020
1743 Clouds 6 1023 70 10000 10.8 260 17:55 10.06.2020
1744 Rain 6 1023 70 10000 9.8 260 17:36 10.06.2020
1745 Rain 6 1023 70 10000 9.8 260 17:18 10.06.2020
1746 Clouds 6 1023 75 10000 9.3 270 16:55 10.06.2020
1747 Clouds 7 1023 75 10000 10.8 260 16:37 10.06.2020
1748 Clouds 7 1023 72 10000 10.8 260 16:18 10.06.2020
1749 Clouds 7 1023 52 10000 11.8 260 15:39 10.06.2020
1750 Clouds 7 1023 69 10000 10.8 270 15:20 10.06.2020
1751 Clouds 8 1023 69 10000 10.8 270 14:55 10.06.2020
1752 Clouds 8 1023 69 10000 10.8 270 14:37 10.06.2020
1753 Clouds 8 1023 67 10000 10.3 270 14:19 10.06.2020
1754 Clouds 7 1023 64 10000 11.3 280 13:39 10.06.2020
1755 Clouds 7 1023 63 10000 10.3 270 13:21 10.06.2020
1756 Clouds 7 1023 70 10000 8.2 260 12:43 10.06.2020
1757 Clouds 7 1023 70 10000 8.2 260 12:20 10.06.2020
1758 Clouds 7 1023 70 10000 8.7 260 11:57 10.06.2020
1759 Clouds 7 1023 65 10000 9.8 240 11:39 10.06.2020
1760 Clouds 7 1023 65 10000 9.8 240 11:19 10.06.2020
1761 Clouds 7 1023 65 10000 9.8 240 11:19 10.06.2020
1762 Clouds 7 1023 65 10000 10.3 250 10:55 10.06.2020
1763 Clouds 7 1023 70 10000 9.8 260 10:36 10.06.2020
1764 Clouds 7 1023 65 10000 8.7 260 10:18 10.06.2020
1765 Clouds 6 1023 70 10000 7.2 250 09:40 10.06.2020
1766 Clouds 6 1023 70 10000 7.2 250 09:22 10.06.2020
1767 Clouds 6 1023 68 10000 8.7 260 08:44 10.06.2020
1768 Clouds 6 1023 69 10000 8.7 260 08:23 10.06.2020
1769 Clouds 7 1023 69 10000 8.2 270 07:54 10.06.2020
1770 Clouds 6 1023 60 10000 8.2 270 07:36 10.06.2020
1771 Clouds 6 1023 60 10000 8.2 270 07:18 10.06.2020
1772 Clouds 6 1023 60 10000 8.7 270 06:44 10.06.2020
1773 Clouds 6 1023 60 10000 8.7 270 06:19 10.06.2020
1774 Clouds 5 1023 72 10000 8.2 260 05:55 10.06.2020
1775 Clouds 5 1023 65 10000 8.7 270 05:23 10.06.2020
1776 Clouds 5 1023 65 10000 9.3 280 04:32 10.06.2020
1777 Clouds 5 1023 65 10000 7.2 270 02:50 10.06.2020
1778 Clouds 5 1023 65 10000 6.7 270 01:59 10.06.2020
1779 Clouds 5 1023 65 10000 6.2 270 01:35 10.06.2020
1780 Clouds 5 1023 65 10000 6.7 270 00:39 10.06.2020
1781 Clouds 5 1023 65 10000 6.7 270 00:21 10.06.2020
1782 Clouds 5 1023 65 10000 6.7 270 23:55 09.06.2020
1783 Clouds 5 1023 65 10000 6.7 270 23:37 09.06.2020
1784 Clouds 5 1023 65 10000 6.7 260 23:18 09.06.2020
1785 Clouds 5 1023 65 10000 8.7 280 22:55 09.06.2020
1786 Clouds 5 1023 71 10000 6.2 280 22:36 09.06.2020
1787 Clouds 5 1023 71 10000 6.2 280 22:18 09.06.2020
1788 Clouds 5 1023 75 10000 6.7 300 21:55 09.06.2020
1789 Clouds 5 1022 65 10000 7.2 280 21:36 09.06.2020
1790 Clouds 5 1022 65 10000 7.2 280 21:18 09.06.2020
1791 Clouds 5 1022 75 10000 5.1 270 20:56 09.06.2020
1792 Clouds 5 1022 75 10000 6.2 270 20:37 09.06.2020
1793 Clouds 5 1022 75 10000 6.2 270 20:18 09.06.2020
1794 Clouds 5 1022 75 10000 7.2 290 19:55 09.06.2020
1795 Clouds 5 1022 75 10000 7.7 290 19:36 09.06.2020
1796 Clouds 5 1022 75 10000 7.7 290 19:18 09.06.2020
1797 Clouds 6 1022 70 10000 6.2 290 18:43 09.06.2020
1798 Clouds 6 1022 60 10000 6.7 280 18:25 09.06.2020
1799 Clouds 6 1022 60 10000 6.7 280 17:57 09.06.2020
1800 Clouds 6 1022 60 10000 6.7 280 17:38 09.06.2020
1801 Clouds 6 1022 60 10000 6.7 280 17:38 09.06.2020
1802 Clouds 6 1022 69 10000 6.7 290 17:20 09.06.2020
1803 Clouds 6 1022 69 10000 7.2 300 16:55 09.06.2020
1804 Clouds 6 1022 69 10000 7.2 300 16:36 09.06.2020
1805 Clouds 6 1022 68 10000 8.2 290 16:18 09.06.2020
1806 Clouds 6 1021 68 10000 4.6 300 15:39 09.06.2020
1807 Clouds 6 1021 68 10000 4.6 300 15:21 09.06.2020
1808 Clouds 6 1021 70 10000 4.1 300 14:57 09.06.2020
1809 Clouds 6 1021 70 10000 4.1 300 14:37 09.06.2020
1810 Clouds 5 1021 75 10000 2.6 310 14:18 09.06.2020
1811 Clouds 5 1021 80 10000 3.6 310 13:43 09.06.2020
1812 Clouds 6 1020 75 10000 3.1 320 13:21 09.06.2020
1813 Rain 5 1020 80 10000 4.6 340 12:59 09.06.2020
1814 Rain 5 1020 80 10000 4.6 340 12:41 09.06.2020
1815 Rain 5 1019 75 10000 5.1 310 12:19 09.06.2020
1816 Clouds 5 1019 80 10000 6.2 320 11:56 09.06.2020
1817 Clouds 5 1019 80 10000 6.2 320 11:56 09.06.2020
1818 Clouds 5 1019 80 10000 6.2 320 11:37 09.06.2020
1819 Clouds 5 1019 75 10000 4.1 320 11:19 09.06.2020
1820 Rain 5 1019 75 10000 5.7 320 10:45 09.06.2020
1821 Rain 5 1019 75 10000 5.7 320 10:45 09.06.2020
1822 Rain 6 1018 70 10000 6.2 310 10:25 09.06.2020
1823 Clouds 5 1018 80 10000 4.6 320 09:57 09.06.2020
1824 Clouds 5 1018 80 10000 4.6 320 09:38 09.06.2020
1825 Clouds 5 1017 75 10000 7.2 330 09:18 09.06.2020
1826 Drizzle 5 1017 75 10000 7.2 330 08:39 09.06.2020
1827 Drizzle 5 1017 75 10000 7.2 330 08:39 09.06.2020
1828 Drizzle 5 1017 75 10000 7.2 330 08:39 09.06.2020
1829 Drizzle 4 1016 86 10000 7.2 340 08:20 09.06.2020
1830 Drizzle 4 1016 93 7000 8.2 350 07:42 09.06.2020
1831 Drizzle 4 1016 93 7000 8.2 350 07:22 09.06.2020
1832 Drizzle 4 1015 93 7000 6.7 350 06:55 09.06.2020
1833 Clouds 4 1015 93 6000 6.7 360 06:36 09.06.2020
1834 Drizzle 4 1014 93 7000 7.7 350 05:37 09.06.2020
1835 Mist 5 1013 93 7000 7.2 360 03:53 09.06.2020
1836 Mist 5 1012 93 2600 6.2 350 02:20 09.06.2020
1837 Clouds 5 1012 100 7000 4.6 320 01:36 09.06.2020
1838 Clouds 5 1012 100 7000 4.6 320 01:18 09.06.2020
1839 Rain 6 1011 93 1700 5.7 320 00:40 09.06.2020
1840 Mist 6 1011 93 1700 5.7 320 00:19 09.06.2020
1841 Clouds 7 1010 87 10000 5.7 290 23:41 08.06.2020
1842 Clouds 7 1010 87 10000 5.7 290 23:21 08.06.2020
1843 Clouds 7 1010 87 10000 4.6 290 22:58 08.06.2020
1844 Clouds 7 1010 87 10000 4.6 290 22:38 08.06.2020
1845 Clouds 7 1010 87 10000 4.6 290 22:38 08.06.2020
1846 Clouds 7 1010 87 10000 6.7 290 22:20 08.06.2020
1847 Clouds 7 1009 81 10000 8.7 270 21:55 08.06.2020
1848 Clouds 7 1009 81 10000 12.3 270 21:37 08.06.2020
1849 Clouds 7 1009 81 10000 12.3 270 21:18 08.06.2020
1850 Clouds 7 1009 81 10000 11.3 270 20:55 08.06.2020
1851 Clouds 7 1009 81 10000 11.3 270 20:36 08.06.2020
1852 Clouds 7 1009 81 10000 11.3 270 20:18 08.06.2020
1853 Clouds 7 1009 81 10000 11.3 270 20:18 08.06.2020
1854 Clouds 7 1008 81 10000 11.8 270 19:43 08.06.2020
1855 Clouds 7 1008 87 10000 11.8 270 19:21 08.06.2020
1856 Clouds 7 1007 87 10000 12.3 270 18:43 08.06.2020
1857 Clouds 7 1007 87 10000 12.3 270 18:21 08.06.2020
1858 Clouds 8 1007 81 10000 12.9 280 17:58 08.06.2020
1859 Clouds 8 1007 81 10000 12.9 280 17:58 08.06.2020
1860 Clouds 8 1007 81 10000 12.9 280 17:40 08.06.2020
1861 Clouds 8 1006 75 10000 14.4 280 17:21 08.06.2020
1862 Clouds 8 1005 75 10000 14.4 270 16:58 08.06.2020
1863 Clouds 8 1005 75 10000 14.4 270 16:58 08.06.2020
1864 Clouds 8 1005 75 10000 17.5 260 16:39 08.06.2020
1865 Clouds 8 1005 75 10000 17.5 260 16:21 08.06.2020
1866 Clouds 9 1004 70 10000 13.9 270 15:43 08.06.2020
1867 Clouds 9 1004 70 10000 18.5 270 15:22 08.06.2020
1868 Clouds 9 1003 70 10000 17.5 270 14:58 08.06.2020
1869 Clouds 9 1003 70 10000 17.5 270 14:58 08.06.2020
1870 Clouds 9 1003 70 10000 16.5 270 14:39 08.06.2020
1871 Clouds 9 1003 70 10000 16.5 270 14:19 08.06.2020
1872 Clouds 9 1002 70 10000 17 280 13:43 08.06.2020
1873 Clouds 9 1001 76 10000 18.5 270 13:23 08.06.2020
1874 Clouds 8 1000 81 10000 20.6 260 12:43 08.06.2020
1875 Clouds 8 1000 81 10000 20.6 260 12:20 08.06.2020
1876 Clouds 9 1000 76 10000 18.5 270 11:59 08.06.2020
1877 Clouds 9 1000 76 10000 18.5 270 11:40 08.06.2020
1878 Clouds 9 999 76 10000 15.9 270 11:22 08.06.2020
1879 Clouds 9 999 76 10000 15.9 270 11:22 08.06.2020
1880 Clouds 8 999 81 10000 15.4 270 10:58 08.06.2020
1881 Clouds 8 999 81 10000 15.4 270 10:38 08.06.2020
1882 Clouds 8 998 81 10000 14.9 260 10:20 08.06.2020
1883 Clouds 8 998 81 10000 14.9 260 10:20 08.06.2020
1884 Clouds 8 998 81 10000 15.4 260 09:57 08.06.2020
1885 Clouds 8 998 81 10000 15.4 260 09:39 08.06.2020
1886 Rain 8 997 81 10000 16.5 270 09:20 08.06.2020
1887 Rain 8 996 81 10000 15.4 270 08:44 08.06.2020
1888 Rain 8 996 87 10000 12.3 260 08:21 08.06.2020
1889 Rain 8 995 87 10000 11.3 250 07:46 08.06.2020
1890 Rain 7 995 93 10000 9.8 240 07:21 08.06.2020
1891 Clouds 7 994 93 10000 10.8 230 06:49 08.06.2020
1892 Clouds 8 993 87 10000 12.3 240 06:28 08.06.2020
1893 Clouds 8 993 87 10000 12.3 240 05:46 08.06.2020
1894 Clouds 8 993 87 10000 8.7 240 04:29 08.06.2020
1895 Clouds 8 992 93 10000 6.7 240 02:32 08.06.2020
1896 Clouds 8 992 93 10000 5.7 240 01:45 08.06.2020
1897 Clouds 8 992 93 10000 5.7 250 01:26 08.06.2020
1898 Clouds 8 991 93 10000 5.7 260 00:30 08.06.2020
1899 Rain 8 991 93 10000 6.2 250 23:42 07.06.2020
1900 Clouds 9 991 81 10000 7.7 240 23:20 07.06.2020
1901 Rain 10 990 76 10000 8.2 230 22:59 07.06.2020
1902 Rain 10 990 76 10000 8.2 230 22:39 07.06.2020
1903 Drizzle 10 990 76 10000 7.7 220 22:19 07.06.2020
1904 Clouds 11 990 71 10000 7.7 210 21:59 07.06.2020
1905 Clouds 11 990 71 10000 7.7 210 21:38 07.06.2020
1906 Clouds 11 990 66 10000 6.7 210 21:38 07.06.2020
1907 Clouds 11 990 66 10000 6.7 210 21:20 07.06.2020
1908 Clouds 11 989 66 10000 6.7 210 20:56 07.06.2020
1909 Clouds 11 989 66 10000 8.7 200 20:37 07.06.2020
1910 Clouds 11 989 66 10000 8.7 200 20:18 07.06.2020
1911 Clouds 12 989 62 10000 7.7 200 19:55 07.06.2020
1912 Clouds 13 989 62 10000 7.2 190 19:37 07.06.2020
1913 Clouds 13 989 62 10000 7.2 190 19:18 07.06.2020
1914 Clouds 14 989 58 10000 7.7 170 18:42 07.06.2020
1915 Clouds 14 989 58 10000 7.7 170 18:23 07.06.2020
1916 Clouds 13 990 58 10000 10.8 160 18:00 07.06.2020
1917 Clouds 13 990 58 10000 10.8 160 17:40 07.06.2020
1918 Clouds 14 990 54 10000 10.3 170 17:22 07.06.2020
1919 Clouds 14 990 54 10000 11.3 170 16:45 07.06.2020
1920 Clouds 13 990 58 10000 10.3 180 16:23 07.06.2020
1921 Clouds 15 990 54 10000 11.3 170 15:59 07.06.2020
1922 Clouds 15 990 54 10000 11.3 170 15:36 07.06.2020
1923 Clouds 14 990 54 10000 12.9 180 15:18 07.06.2020
1924 Clouds 15 990 47 10000 13.9 180 14:38 07.06.2020
1925 Clouds 15 991 51 10000 11.3 190 14:19 07.06.2020
1926 Clouds 14 991 58 10000 9.8 190 13:47 07.06.2020
1927 Clouds 14 991 58 10000 9.8 190 13:47 07.06.2020
1928 Clouds 14 991 58 10000 9.8 190 13:47 07.06.2020
1929 Clouds 14 991 58 10000 11.3 180 13:21 07.06.2020
1930 Clouds 14 991 58 10000 13.4 170 12:55 07.06.2020
1931 Clouds 13 991 58 10000 10.3 180 12:36 07.06.2020
1932 Clouds 13 991 58 10000 10.3 180 12:18 07.06.2020
1933 Clouds 13 991 58 10000 9.8 180 11:54 07.06.2020
1934 Clouds 13 991 58 10000 9.8 180 11:36 07.06.2020
1935 Clouds 13 991 58 10000 9.3 180 11:18 07.06.2020
1936 Clouds 13 991 62 10000 11.8 180 10:42 07.06.2020
1937 Clouds 13 991 76 10000 13.9 160 10:19 07.06.2020
1938 Rain 13 991 76 10000 16.5 140 09:57 07.06.2020
1939 Rain 13 991 76 10000 16.5 140 09:38 07.06.2020
1940 Rain 14 992 71 10000 16.5 140 09:19 07.06.2020
1941 Rain 13 992 76 10000 14.4 150 08:47 07.06.2020
1942 Clear 13 992 76 10000 11.8 140 08:23 07.06.2020
1943 Clear 12 993 76 10000 14.4 150 07:49 07.06.2020
1944 Clear 11 993 81 10000 8.7 160 07:28 07.06.2020
1945 Clear 12 994 76 10000 7.2 150 06:43 07.06.2020
1946 Clear 12 994 76 10000 6.7 160 05:40 07.06.2020
1947 Clear 13 995 76 10000 8.2 190 04:20 07.06.2020
1948 Clear 13 995 76 10000 8.2 190 04:20 07.06.2020
1949 Clouds 12 996 81 10000 8.2 160 02:34 07.06.2020
1950 Clear 12 996 81 10000 7.7 190 01:50 07.06.2020
1951 Clear 13 997 76 10000 7.7 180 01:25 07.06.2020
1952 Clear 13 997 76 10000 6.2 160 00:45 07.06.2020
1953 Clear 13 997 76 10000 7.7 160 00:19 07.06.2020
1954 Clear 12 997 76 10000 7.7 160 23:57 06.06.2020
1955 Clear 12 997 76 10000 7.7 160 23:36 06.06.2020
1956 Clear 12 997 76 10000 6.2 170 23:18 06.06.2020
1957 Clear 12 998 76 10000 6.2 180 22:56 06.06.2020
1958 Clear 12 998 76 10000 6.2 180 22:37 06.06.2020
1959 Clear 12 998 76 10000 10.3 180 22:18 06.06.2020
1960 Clear 11 998 81 10000 9.8 170 21:44 06.06.2020
1961 Clear 12 998 76 10000 15.4 150 21:22 06.06.2020
1962 Clear 12 998 76 10000 14.4 150 20:57 06.06.2020
1963 Clear 12 998 76 10000 14.4 150 20:38 06.06.2020
1964 Clouds 13 999 71 10000 12.9 150 20:18 06.06.2020
1965 Clouds 12 999 76 10000 12.9 140 19:56 06.06.2020
1966 Clouds 12 999 76 10000 12.9 140 19:37 06.06.2020
1967 Clouds 12 999 76 10000 12.9 140 19:19 06.06.2020
1968 Clouds 13 1000 71 10000 11.8 140 18:43 06.06.2020
1969 Clouds 13 1000 71 10000 9.8 140 18:24 06.06.2020
1970 Clouds 13 1000 71 10000 7.2 170 17:58 06.06.2020
1971 Clouds 13 1000 71 10000 10.8 160 17:39 06.06.2020
1972 Clouds 13 1000 71 10000 10.8 160 17:19 06.06.2020
1973 Clouds 13 1001 71 10000 10.8 160 16:44 06.06.2020
1974 Clouds 13 1001 66 10000 7.2 170 16:22 06.06.2020
1975 Clouds 12 1001 71 10000 11.8 140 15:56 06.06.2020
1976 Clouds 12 1001 71 10000 11.8 140 15:37 06.06.2020
1977 Clouds 12 1001 71 10000 13.4 140 15:19 06.06.2020
1978 Clouds 11 1001 76 10000 12.3 130 14:43 06.06.2020
1979 Clouds 11 1002 76 10000 9.3 150 14:25 06.06.2020
1980 Clouds 11 1002 76 10000 9.3 140 13:59 06.06.2020
1981 Clouds 10 1002 81 10000 10.8 150 13:40 06.06.2020
1982 Clouds 10 1002 81 10000 10.8 150 13:18 06.06.2020
1983 Clouds 11 1003 76 10000 10.3 120 12:43 06.06.2020
1984 Clouds 11 1003 71 10000 9.3 130 12:23 06.06.2020
1985 Clouds 10 1003 76 10000 10.8 130 11:58 06.06.2020
1986 Clouds 10 1003 76 10000 10.8 130 11:39 06.06.2020
1987 Clouds 10 1003 76 10000 6.7 130 11:20 06.06.2020
1988 Clouds 9 1004 81 10000 7.7 150 10:58 06.06.2020
1989 Clouds 9 1004 81 10000 7.7 150 10:58 06.06.2020
1990 Clouds 9 1004 81 10000 7.7 150 10:39 06.06.2020
1991 Clouds 8 1004 81 10000 7.7 130 10:21 06.06.2020
1992 Clouds 8 1004 81 10000 6.7 100 09:58 06.06.2020
1993 Clouds 8 1004 81 10000 6.7 100 09:40 06.06.2020
1994 Clouds 8 1004 81 10000 8.2 100 09:20 06.06.2020
1995 Clouds 8 1005 81 10000 7.7 110 08:40 06.06.2020
1996 Clouds 8 1005 81 10000 7.7 110 08:20 06.06.2020
1997 Clouds 8 1005 81 10000 8.2 100 07:46 06.06.2020
1998 Clouds 8 1005 87 10000 6.7 100 07:22 06.06.2020
1999 Clouds 8 1005 87 10000 6.7 100 06:48 06.06.2020
2000 Clouds 8 1006 81 10000 8.2 100 06:30 06.06.2020
2001 Clouds 8 1006 81 10000 8.7 100 05:55 06.06.2020
2002 Clouds 8 1006 81 10000 9.8 100 05:28 06.06.2020
2003 Clouds 8 1006 81 10000 12.3 90 04:46 06.06.2020
2004 Clouds 8 1008 87 10000 9.3 80 02:52 06.06.2020
2005 Rain 9 1009 81 10000 8.7 100 01:57 06.06.2020
2006 Drizzle 10 1009 81 10000 9.8 110 01:19 06.06.2020
2007 Drizzle 10 1009 76 10000 7.2 120 00:46 06.06.2020
2008 Clouds 10 1009 71 10000 9.8 110 00:27 06.06.2020
2009 Clouds 10 1010 66 10000 8.2 100 23:58 05.06.2020
2010 Clouds 10 1010 66 10000 8.2 100 23:39 05.06.2020
2011 Clouds 10 1010 66 10000 8.2 100 23:39 05.06.2020
2012 Clouds 11 1010 62 10000 6.2 100 23:19 05.06.2020
2013 Clouds 11 1010 62 10000 7.2 130 22:55 05.06.2020
2014 Clouds 11 1010 62 10000 7.2 130 22:37 05.06.2020
2015 Clouds 11 1010 62 10000 6.7 120 22:18 05.06.2020
2016 Clouds 12 1010 58 10000 8.2 120 21:42 05.06.2020
2017 Clouds 12 1010 62 10000 4.6 120 21:22 05.06.2020
2018 Clouds 12 1010 62 10000 5.1 100 20:58 05.06.2020
2019 Clouds 12 1010 62 10000 5.1 100 20:39 05.06.2020
2020 Clouds 14 1010 50 10000 8.7 110 20:21 05.06.2020
2021 Clouds 15 1010 47 10000 8.2 120 19:42 05.06.2020
2022 Clouds 15 1010 47 10000 6.7 110 19:23 05.06.2020
2023 Clouds 15 1010 47 10000 6.7 110 19:23 05.06.2020
2024 Clouds 16 1010 48 10000 6.7 100 18:57 05.06.2020
2025 Clouds 16 1010 51 10000 6.7 120 18:38 05.06.2020
2026 Clouds 16 1010 51 10000 6.7 120 18:19 05.06.2020
2027 Clouds 16 1010 55 10000 5.7 100 17:57 05.06.2020
2028 Clouds 16 1010 55 10000 5.7 100 17:39 05.06.2020
2029 Clouds 17 1010 51 10000 5.7 110 17:19 05.06.2020
2030 Clouds 15 1010 62 10000 5.7 90 16:39 05.06.2020
2031 Clouds 15 1011 58 10000 5.7 70 16:20 05.06.2020
2032 Clouds 16 1011 55 10000 2.6 100 15:56 05.06.2020
2033 Clouds 16 1011 55 10000 1.5 0 15:37 05.06.2020
2034 Clouds 16 1011 55 10000 1.5 0 15:19 05.06.2020
2035 Clouds 15 1011 58 10000 1 0 14:41 05.06.2020
2036 Clouds 15 1011 58 10000 1 0 14:41 05.06.2020
2037 Clouds 14 1011 62 10000 1 0 14:22 05.06.2020
2038 Clouds 14 1011 62 10000 2.6 160 13:59 05.06.2020
2039 Clouds 14 1011 62 10000 2.6 160 13:41 05.06.2020
2040 Clouds 15 1011 62 10000 2.1 170 13:22 05.06.2020
2041 Clouds 13 1011 66 10000 3.1 170 12:43 05.06.2020
2042 Clouds 13 1011 66 10000 3.6 180 12:20 05.06.2020
2043 Clouds 14 1011 62 10000 2.6 180 11:57 05.06.2020
2044 Clouds 14 1011 62 10000 2.6 180 11:39 05.06.2020
2045 Clouds 14 1011 67 10000 4.1 190 11:20 05.06.2020
2046 Clouds 12 1011 71 10000 3.1 180 10:54 05.06.2020
2047 Clouds 12 1011 71 10000 3.1 180 10:36 05.06.2020
2048 Clouds 11 1011 71 10000 2.6 160 10:18 05.06.2020
2049 Clouds 11 1011 71 10000 3.6 170 09:55 05.06.2020
2050 Clouds 11 1011 71 10000 3.6 170 09:36 05.06.2020
2051 Clouds 11 1011 71 10000 2.1 170 09:18 05.06.2020
2052 Clouds 11 1011 71 10000 2.1 170 09:18 05.06.2020
2053 Clouds 11 1011 71 10000 2.1 170 08:41 05.06.2020
2054 Clouds 11 1011 71 10000 2.1 180 08:20 05.06.2020
2055 Clouds 11 1011 71 10000 2.6 160 07:58 05.06.2020
2056 Clouds 11 1011 71 10000 1.5 0 07:39 05.06.2020
2057 Clouds 11 1011 71 10000 2.1 190 07:19 05.06.2020
2058 Clouds 9 1011 76 10000 7.2 160 05:50 05.06.2020
2059 Clouds 10 1011 76 10000 5.7 150 05:19 05.06.2020
2060 Clouds 9 1013 84 0 3.62 135 03:53 05.06.2020
2061 Clouds 9 1012 81 10000 6.2 180 02:53 05.06.2020
2062 Clouds 9 1012 81 10000 6.2 180 02:21 05.06.2020
2063 Clouds 9 1012 81 10000 6.2 180 01:52 05.06.2020
2064 Clouds 9 1012 81 10000 9.3 190 01:20 05.06.2020
2065 Clouds 9 1011 81 10000 5.1 170 00:41 05.06.2020
2066 Clouds 9 1011 81 10000 5.1 170 00:20 05.06.2020
2067 Clouds 9 1012 81 10000 6.2 160 23:46 04.06.2020
2068 Clouds 9 1012 76 10000 8.2 150 23:26 04.06.2020
2069 Clouds 9 1012 76 10000 9.3 160 22:55 04.06.2020
2070 Clouds 10 1012 76 10000 7.2 150 22:36 04.06.2020
2071 Clouds 10 1012 76 10000 7.2 150 22:18 04.06.2020
2072 Clouds 10 1012 76 10000 7.2 150 22:18 04.06.2020
2073 Clouds 8 1012 81 10000 9.8 130 21:55 04.06.2020
2074 Clouds 8 1012 81 10000 9.8 130 21:36 04.06.2020
2075 Clouds 9 1012 76 10000 9.8 150 21:18 04.06.2020
2076 Clouds 9 1011 76 10000 8.2 130 20:40 04.06.2020
2077 Clouds 9 1011 76 10000 9.8 120 20:21 04.06.2020
2078 Clouds 9 1012 76 10000 10.8 130 19:59 04.06.2020
2079 Clouds 9 1012 70 10000 11.8 140 19:39 04.06.2020
2080 Clouds 9 1012 70 10000 11.8 140 19:21 04.06.2020
2081 Clouds 9 1012 70 10000 10.3 130 18:56 04.06.2020
2082 Clouds 9 1012 76 10000 8.2 120 18:37 04.06.2020
2083 Clouds 9 1012 76 10000 8.2 120 18:19 04.06.2020
2084 Rain 8 1012 81 10000 9.3 120 17:42 04.06.2020
2085 Rain 8 1012 81 10000 7.7 140 17:21 04.06.2020
2086 Clouds 8 1012 75 10000 8.2 150 16:56 04.06.2020
2087 Clouds 8 1012 75 10000 8.2 150 16:38 04.06.2020
2088 Rain 9 1013 70 10000 7.2 160 16:18 04.06.2020
2089 Clouds 9 1012 70 10000 6.7 140 15:42 04.06.2020
2090 Clouds 9 1013 70 10000 8.2 160 15:24 04.06.2020
2091 Clouds 9 1013 70 10000 7.7 160 14:40 04.06.2020
2092 Clouds 9 1013 70 10000 6.7 160 14:21 04.06.2020
2093 Clouds 9 1013 70 10000 7.7 150 13:56 04.06.2020
2094 Clouds 9 1013 70 10000 7.7 150 13:38 04.06.2020
2095 Clouds 9 1013 70 10000 8.7 150 13:20 04.06.2020
2096 Clouds 9 1013 66 10000 9.3 150 12:56 04.06.2020
2097 Clouds 9 1013 66 10000 9.3 160 12:38 04.06.2020
2098 Clouds 9 1013 66 10000 9.3 160 12:19 04.06.2020
2099 Clouds 10 1013 61 10000 9.3 160 11:41 04.06.2020
2100 Clouds 10 1013 61 10000 9.3 160 11:41 04.06.2020
2101 Clouds 10 1013 61 10000 9.3 160 11:21 04.06.2020
2102 Clouds 10 1013 61 10000 5.7 170 10:59 04.06.2020
2103 Clouds 10 1013 61 10000 5.7 170 10:39 04.06.2020
2104 Clouds 10 1013 61 10000 6.7 160 10:21 04.06.2020
2105 Clouds 9 1013 66 10000 6.2 140 09:56 04.06.2020
2106 Clouds 9 1013 66 10000 6.2 140 09:37 04.06.2020
2107 Clouds 9 1013 61 10000 5.7 150 09:18 04.06.2020
2108 Clouds 9 1013 66 10000 6.2 150 08:38 04.06.2020
2109 Clouds 9 1013 61 10000 5.7 150 08:20 04.06.2020
2110 Clouds 7 1013 75 10000 3.6 120 07:32 04.06.2020
2111 Clouds 7 1014 75 10000 3.1 140 06:57 04.06.2020
2112 Clouds 7 1014 75 10000 3.6 110 06:39 04.06.2020
2113 Clouds 7 1014 75 10000 3.6 110 06:18 04.06.2020
2114 Clouds 6 1014 81 10000 5.1 90 05:32 04.06.2020
2115 Clouds 6 1014 87 10000 5.1 100 03:37 04.06.2020
2116 Clouds 5 1015 93 10000 3.1 80 02:21 04.06.2020
2117 Clouds 6 1015 81 10000 2.1 80 01:22 04.06.2020
2118 Clouds 6 1015 81 10000 2.6 80 01:00 04.06.2020
2119 Clouds 6 1015 81 10000 2.6 70 00:18 04.06.2020
2120 Clouds 6 1015 75 10000 1 0 23:38 03.06.2020
2121 Clouds 6 1015 75 10000 1 0 23:19 03.06.2020
2122 Clouds 7 1015 65 10000 1.5 350 22:54 03.06.2020
2123 Clouds 7 1015 70 10000 2.1 340 22:36 03.06.2020
2124 Clouds 7 1015 70 10000 2.1 340 22:18 03.06.2020
2125 Clouds 7 1015 70 10000 2.6 300 21:55 03.06.2020
2126 Clouds 7 1015 70 10000 2.6 300 21:36 03.06.2020
2127 Clouds 7 1015 70 10000 2.6 300 21:18 03.06.2020
2128 Clouds 7 1015 70 10000 2.6 300 20:41 03.06.2020
2129 Clouds 7 1015 70 10000 2.6 300 20:21 03.06.2020
2130 Clouds 8 1015 65 10000 3.1 300 19:57 03.06.2020
2131 Clouds 9 1015 66 10000 3.1 310 19:38 03.06.2020
2132 Clouds 9 1015 66 10000 3.1 310 19:20 03.06.2020
2133 Clouds 9 1015 66 10000 3.6 310 18:57 03.06.2020
2134 Clouds 9 1015 66 10000 4.1 300 18:39 03.06.2020
2135 Clouds 9 1015 66 10000 4.1 300 18:19 03.06.2020
2136 Clouds 8 1015 70 10000 3.6 300 17:44 03.06.2020
2137 Clouds 8 1015 70 10000 3.6 310 17:23 03.06.2020
2138 Clouds 8 1015 70 10000 4.1 320 16:58 03.06.2020
2139 Clouds 8 1015 70 10000 4.1 320 16:39 03.06.2020
2140 Clouds 8 1015 70 10000 3.6 320 16:19 03.06.2020
2141 Clouds 9 1015 70 10000 4.1 320 15:54 03.06.2020
2142 Clouds 9 1015 61 10000 4.6 300 15:36 03.06.2020
2143 Clouds 9 1015 61 10000 4.6 300 15:36 03.06.2020
2144 Clouds 9 1015 61 10000 4.6 300 15:18 03.06.2020
2145 Clouds 8 1015 65 10000 5.1 290 14:42 03.06.2020
2146 Clouds 9 1015 61 10000 6.2 260 14:22 03.06.2020
2147 Clouds 10 1015 53 10000 6.2 240 13:40 03.06.2020
2148 Clouds 9 1015 61 10000 6.7 240 13:21 03.06.2020
2149 Clouds 10 1015 61 10000 6.2 240 12:56 03.06.2020
2150 Clouds 10 1015 61 10000 6.2 240 12:38 03.06.2020
2151 Clouds 8 1015 65 10000 6.2 240 12:18 03.06.2020
2152 Clouds 8 1015 65 10000 6.7 250 11:43 03.06.2020
2153 Clouds 8 1015 70 10000 6.7 240 11:24 03.06.2020
2154 Clouds 8 1015 65 10000 6.2 250 10:43 03.06.2020
2155 Clouds 8 1015 70 10000 6.7 240 10:24 03.06.2020
2156 Clouds 8 1015 65 10000 6.7 240 09:55 03.06.2020
2157 Clouds 8 1015 65 10000 6.7 240 09:36 03.06.2020
2158 Clouds 8 1015 70 10000 6.7 240 09:18 03.06.2020
2159 Clouds 7 1015 75 10000 6.7 240 08:45 03.06.2020
2160 Clouds 7 1015 75 10000 7.2 240 08:21 03.06.2020
2161 Clouds 7 1015 75 10000 6.7 240 07:45 03.06.2020
2162 Clouds 7 1015 81 10000 7.7 250 07:24 03.06.2020
2163 Clouds 7 1015 81 10000 7.7 250 07:24 03.06.2020
2164 Clouds 7 1015 81 10000 7.7 250 06:58 03.06.2020
2165 Clouds 7 1015 75 10000 7.7 260 06:40 03.06.2020
2166 Clouds 7 1015 75 10000 7.7 260 06:21 03.06.2020
2167 Clouds 7 1015 75 10000 8.7 270 05:42 03.06.2020
2168 Clouds 6 1015 81 10000 8.2 260 04:18 03.06.2020
2169 Clouds 6 1015 81 10000 6.2 260 03:40 03.06.2020
2170 Clouds 6 1016 81 10000 6.2 280 02:25 03.06.2020
2171 Clouds 6 1016 87 10000 5.7 270 01:26 03.06.2020
2172 Clouds 6 1016 87 10000 8.2 290 00:37 03.06.2020
2173 Clouds 6 1016 87 10000 8.2 290 00:18 03.06.2020
2174 Clouds 6 1016 93 10000 9.8 280 23:39 02.06.2020
2175 Clouds 6 1016 93 10000 8.7 270 23:21 02.06.2020
2176 Clouds 6 1015 100 10000 9.3 270 22:40 02.06.2020
2177 Clouds 6 1015 100 10000 9.3 270 22:40 02.06.2020
2178 Clouds 6 1015 100 10000 9.3 270 22:19 02.06.2020
2179 Clouds 6 1015 100 10000 8.2 270 21:57 02.06.2020
2180 Clouds 6 1015 100 10000 8.2 270 21:39 02.06.2020
2181 Clouds 6 1015 100 10000 9.3 270 21:21 02.06.2020
2182 Drizzle 6 1015 100 10000 7.2 270 20:59 02.06.2020
2183 Drizzle 6 1015 100 10000 7.2 270 20:40 02.06.2020
2184 Drizzle 6 1015 100 10000 6.7 260 20:22 02.06.2020
2185 Drizzle 6 1015 100 10000 5.1 250 19:45 02.06.2020
2186 Drizzle 6 1015 100 10000 5.1 250 19:26 02.06.2020
2187 Drizzle 6 1015 100 10000 6.7 270 18:59 02.06.2020
2188 Rain 7 1015 87 10000 7.7 270 18:40 02.06.2020
2189 Rain 7 1015 87 10000 7.7 270 18:21 02.06.2020
2190 Drizzle 7 1015 93 10000 8.2 270 17:59 02.06.2020
2191 Drizzle 7 1015 93 10000 8.2 270 17:40 02.06.2020
2192 Drizzle 7 1015 93 10000 7.7 280 17:21 02.06.2020
2193 Clouds 7 1015 87 10000 6.2 290 16:56 02.06.2020
2194 Clouds 7 1015 87 10000 6.2 290 16:37 02.06.2020
2195 Clouds 8 1015 87 10000 4.6 290 16:19 02.06.2020
2196 Clouds 8 1015 87 10000 7.2 280 15:41 02.06.2020
2197 Clouds 9 1015 81 10000 8.2 290 15:22 02.06.2020
2198 Clouds 9 1015 81 10000 7.2 290 14:49 02.06.2020
2199 Clouds 10 1015 76 10000 7.2 280 14:30 02.06.2020
2200 Clouds 11 1015 71 10000 7.2 290 13:57 02.06.2020
2201 Clouds 11 1015 71 10000 7.2 290 13:38 02.06.2020
2202 Clouds 12 1015 66 10000 7.2 290 13:19 02.06.2020
2203 Clouds 12 1015 71 10000 7.7 290 12:57 02.06.2020
2204 Clouds 12 1015 71 10000 7.7 290 12:39 02.06.2020
2205 Clouds 12 1015 71 10000 7.7 300 12:20 02.06.2020
2206 Clouds 12 1015 66 10000 6.2 310 11:55 02.06.2020
2207 Clouds 12 1015 66 10000 6.2 310 11:36 02.06.2020
2208 Clouds 12 1015 66 10000 5.1 290 11:18 02.06.2020
2209 Clouds 13 1015 62 10000 4.1 280 10:46 02.06.2020
2210 Clouds 13 1015 62 10000 4.1 280 10:28 02.06.2020
2211 Clouds 12 1015 66 10000 4.6 290 09:55 02.06.2020
2212 Clouds 12 1015 66 10000 4.6 290 09:36 02.06.2020
2213 Clouds 12 1015 66 10000 4.1 320 09:18 02.06.2020
2214 Clouds 13 1015 58 10000 6.2 310 08:45 02.06.2020
2215 Clouds 13 1015 58 10000 5.7 310 08:20 02.06.2020
2216 Clouds 13 1015 58 10000 4.1 250 07:39 02.06.2020
2217 Clouds 13 1015 58 10000 4.1 250 07:20 02.06.2020
2218 Clouds 13 1015 58 10000 5.1 220 06:43 02.06.2020
2219 Clouds 12 1015 62 10000 7.2 210 05:46 02.06.2020
2220 Clouds 14 1016 58 10000 5.7 190 04:57 02.06.2020
2221 Clouds 10 1017 66 10000 5.1 190 03:20 02.06.2020
2222 Clear 10 1018 71 10000 4.1 200 02:20 02.06.2020
2223 Clear 11 1019 66 10000 5.7 210 00:57 02.06.2020
2224 Clear 12 1019 62 10000 5.1 220 00:23 02.06.2020
2225 Clear 12 1019 66 10000 6.2 230 23:39 01.06.2020
2226 Clouds 12 1020 66 10000 6.7 240 23:21 01.06.2020
2227 Clouds 12 1020 66 10000 7.2 230 22:59 01.06.2020
2228 Clouds 12 1020 66 10000 7.2 230 22:40 01.06.2020
2229 Clouds 13 1020 66 10000 6.7 240 22:20 01.06.2020
2230 Clouds 13 1020 66 10000 8.7 250 21:57 01.06.2020
2231 Clouds 14 1020 62 10000 9.3 250 21:37 01.06.2020
2232 Clouds 14 1020 62 10000 9.3 250 21:18 01.06.2020
2233 Clear 14 1021 62 10000 9.3 250 20:55 01.06.2020
2234 Clouds 16 1021 55 10000 6.2 260 20:36 01.06.2020
2235 Clouds 16 1021 55 10000 6.2 260 20:18 01.06.2020
2236 Clouds 16 1021 55 10000 6.2 260 19:43 01.06.2020
2237 Clouds 16 1021 55 10000 6.7 260 19:21 01.06.2020
2238 Clouds 16 1022 55 10000 8.7 270 18:59 01.06.2020
2239 Clouds 17 1022 51 10000 7.7 270 18:39 01.06.2020
2240 Clouds 17 1022 51 10000 7.7 270 18:19 01.06.2020
2241 Clouds 17 1022 51 10000 8.7 280 17:55 01.06.2020
2242 Clouds 17 1022 51 10000 8.7 280 17:36 01.06.2020
2243 Clouds 18 1022 52 10000 8.7 270 17:18 01.06.2020
2244 Clouds 18 1022 52 10000 7.7 270 16:39 01.06.2020
2245 Clouds 17 1022 51 10000 7.2 270 16:20 01.06.2020
2246 Clouds 17 1022 55 10000 6.2 250 15:55 01.06.2020
2247 Clouds 17 1022 55 10000 6.2 250 15:37 01.06.2020
2248 Clouds 17 1023 51 10000 5.1 220 15:18 01.06.2020
2249 Clouds 17 1023 55 10000 3.1 210 14:56 01.06.2020
2250 Clouds 16 1023 55 10000 5.7 260 14:38 01.06.2020
2251 Clouds 16 1023 55 10000 5.7 260 14:19 01.06.2020
2252 Clouds 16 1024 55 10000 6.2 260 13:43 01.06.2020
2253 Clouds 16 1024 55 10000 6.2 260 13:21 01.06.2020
2254 Clouds 16 1024 55 10000 6.2 260 12:58 01.06.2020
2255 Clouds 17 1024 55 10000 6.2 260 12:40 01.06.2020
2256 Clouds 17 1024 55 10000 6.2 260 12:40 01.06.2020
2257 Clouds 17 1024 55 10000 6.2 260 12:21 01.06.2020
2258 Clouds 16 1024 55 10000 6.7 250 11:58 01.06.2020
2259 Clouds 15 1024 58 10000 7.2 260 11:37 01.06.2020
2260 Clouds 15 1024 58 10000 7.2 260 11:18 01.06.2020
2261 Clouds 14 1024 62 10000 8.2 270 10:56 01.06.2020
2262 Clouds 14 1024 62 10000 7.2 270 10:36 01.06.2020
2263 Clouds 14 1024 62 10000 7.2 270 10:18 01.06.2020
2264 Clouds 13 1025 71 10000 8.2 270 09:44 01.06.2020
2265 Clouds 13 1025 71 10000 8.2 270 09:25 01.06.2020
2266 Clouds 13 1025 66 10000 9.3 270 08:57 01.06.2020
2267 Clouds 13 1025 71 10000 9.3 260 08:34 01.06.2020
2268 Clouds 12 1025 71 10000 8.7 260 07:59 01.06.2020
2269 Clouds 12 1025 71 10000 10.3 270 07:40 01.06.2020
2270 Clouds 12 1025 71 10000 10.3 270 07:22 01.06.2020
2271 Clouds 11 1025 76 10000 11.8 270 06:49 01.06.2020
2272 Clouds 11 1025 76 10000 11.8 270 05:57 01.06.2020
2273 Clouds 10 1026 76 10000 12.3 270 04:56 01.06.2020
2274 Clouds 11 1026 71 10000 11.3 270 03:56 01.06.2020
2275 Clouds 11 1026 71 10000 11.3 260 03:37 01.06.2020
2276 Clouds 11 1026 71 10000 10.8 270 02:49 01.06.2020
2277 Clouds 11 1026 71 10000 12.3 270 01:40 01.06.2020
2278 Clouds 11 1026 71 10000 12.3 270 01:18 01.06.2020
2279 Clouds 11 1026 66 10000 11.8 270 00:46 01.06.2020
2280 Clouds 11 1026 66 10000 11.8 270 00:21 01.06.2020
2281 Clouds 12 1026 62 10000 11.8 270 23:59 31.05.2020
2282 Clouds 11 1027 66 10000 10.8 260 23:40 31.05.2020
2283 Clouds 11 1027 66 10000 10.8 260 23:22 31.05.2020
2284 Clouds 12 1027 62 10000 11.3 260 22:58 31.05.2020
2285 Clouds 12 1027 62 10000 10.8 260 22:40 31.05.2020
2286 Clouds 12 1027 62 10000 10.8 250 22:22 31.05.2020
2287 Clouds 12 1027 62 10000 10.8 250 21:57 31.05.2020
2288 Clouds 12 1027 62 10000 11.3 250 21:38 31.05.2020
2289 Clouds 12 1027 62 10000 11.3 250 21:20 31.05.2020
2290 Clouds 13 1027 58 10000 12.3 260 20:44 31.05.2020
2291 Clouds 13 1027 58 10000 12.3 260 20:25 31.05.2020
2292 Clouds 12 1027 62 10000 11.8 260 19:56 31.05.2020
2293 Clouds 11 1027 66 10000 11.8 260 19:38 31.05.2020
2294 Clouds 11 1027 66 10000 11.8 260 19:20 31.05.2020
2295 Clouds 12 1028 62 10000 12.3 250 18:45 31.05.2020
2296 Clouds 12 1028 62 10000 12.3 250 18:25 31.05.2020
2297 Clouds 12 1028 66 10000 13.4 250 17:59 31.05.2020
2298 Clouds 11 1028 71 10000 13.4 250 17:40 31.05.2020
2299 Clouds 11 1028 71 10000 13.4 250 17:21 31.05.2020
2300 Clouds 11 1028 71 10000 13.4 260 16:41 31.05.2020
2301 Clouds 11 1028 71 10000 13.4 260 16:21 31.05.2020
2302 Clouds 11 1028 71 10000 13.9 260 15:56 31.05.2020
2303 Clouds 11 1028 71 10000 13.9 270 15:37 31.05.2020
2304 Clouds 11 1028 71 10000 13.9 270 15:18 31.05.2020
2305 Clouds 10 1028 76 10000 13.4 270 14:41 31.05.2020
2306 Clouds 10 1028 76 10000 13.4 270 14:19 31.05.2020
2307 Clouds 10 1028 76 10000 12.9 270 13:55 31.05.2020
2308 Clouds 10 1028 76 10000 13.4 270 13:37 31.05.2020
2309 Clouds 10 1029 76 10000 12.9 270 13:19 31.05.2020
2310 Clouds 10 1029 76 10000 12.9 270 12:46 31.05.2020
2311 Clouds 10 1029 76 10000 12.9 270 12:24 31.05.2020
2312 Clouds 10 1028 76 10000 13.4 270 11:59 31.05.2020
2313 Clouds 9 1028 81 10000 12.3 270 11:39 31.05.2020
2314 Clouds 9 1028 81 10000 12.3 270 11:21 31.05.2020
2315 Clouds 8 1029 81 10000 10.3 270 10:45 31.05.2020
2316 Clouds 8 1029 81 10000 10.3 270 10:27 31.05.2020
2317 Drizzle 9 1028 76 10000 11.8 270 09:59 31.05.2020
2318 Drizzle 9 1028 76 10000 10.8 270 09:41 31.05.2020
2319 Drizzle 9 1028 76 10000 10.8 270 09:21 31.05.2020
2320 Clouds 8 1028 81 10000 7.2 270 08:43 31.05.2020
2321 Clouds 8 1028 81 10000 7.2 270 08:24 31.05.2020
2322 Drizzle 8 1028 81 10000 9.3 270 07:52 31.05.2020
2323 Rain 7 1028 93 10000 14.4 270 07:22 31.05.2020
2324 Rain 7 1028 93 10000 14.4 270 07:22 31.05.2020
2325 Drizzle 6 1028 93 10000 9.8 250 06:58 31.05.2020
2326 Rain 6 1028 100 10000 10.8 260 06:36 31.05.2020
2327 Clouds 6 1029 93 10000 8.7 260 05:56 31.05.2020
2328 Clouds 7 1029 87 10000 5.1 220 05:37 31.05.2020
2329 Rain 6 1029 93 10000 4.1 210 04:22 31.05.2020
2330 Rain 6 1029 93 10000 3.1 240 03:47 31.05.2020
2331 Rain 6 1030 100 10000 4.6 240 02:58 31.05.2020
2332 Drizzle 6 1030 93 10000 7.7 240 01:47 31.05.2020
2333 Drizzle 5 1030 100 10000 7.7 230 00:52 31.05.2020
2334 Rain 5 1031 100 10000 6.7 230 00:29 31.05.2020
2335 Rain 5 1031 100 10000 6.2 230 23:45 30.05.2020
2336 Rain 5 1031 100 10000 6.2 230 23:27 30.05.2020
2337 Drizzle 5 1031 100 10000 5.7 220 22:59 30.05.2020
2338 Rain 5 1031 100 10000 6.2 240 22:40 30.05.2020
2339 Rain 5 1031 100 10000 6.2 240 22:40 30.05.2020
2340 Rain 5 1031 100 10000 6.2 240 22:40 30.05.2020
2341 Rain 5 1031 100 10000 6.2 240 22:21 30.05.2020
2342 Drizzle 6 1031 100 10000 6.2 230 21:56 30.05.2020
2343 Rain 6 1031 100 10000 5.1 240 21:37 30.05.2020
2344 Rain 6 1031 100 10000 5.1 240 21:18 30.05.2020
2345 Drizzle 5 1031 100 10000 6.7 250 20:56 30.05.2020
2346 Drizzle 5 1032 100 1200 6.2 250 20:37 30.05.2020
2347 Drizzle 5 1032 100 1200 6.2 250 20:19 30.05.2020
2348 Rain 5 1032 100 8000 6.7 270 19:42 30.05.2020
2349 Rain 5 1032 100 8000 6.7 270 19:21 30.05.2020
2350 Fog 5 1032 100 350 5.7 270 18:45 30.05.2020
2351 Fog 5 1032 100 350 5.7 270 18:24 30.05.2020
2352 Fog 5 1032 100 300 5.1 250 17:55 30.05.2020
2353 Fog 5 1032 100 500 5.1 280 17:37 30.05.2020
2354 Fog 5 1032 100 500 5.1 280 17:18 30.05.2020
2355 Drizzle 5 1032 100 7000 6.7 290 16:41 30.05.2020
2356 Drizzle 5 1032 100 7000 6.7 290 16:22 30.05.2020
2357 Mist 5 1032 100 9000 7.7 280 15:48 30.05.2020
2358 Clouds 5 1032 100 10000 8.7 290 15:28 30.05.2020
2359 Clouds 6 1032 87 10000 9.3 290 14:48 30.05.2020
2360 Clouds 6 1032 87 10000 9.3 290 14:30 30.05.2020
2361 Clouds 5 1032 93 10000 9.3 290 13:47 30.05.2020
2362 Clouds 5 1032 93 10000 9.3 290 13:27 30.05.2020
2363 Clouds 5 1032 93 10000 9.3 290 12:57 30.05.2020
2364 Clouds 5 1031 93 10000 10.8 290 12:39 30.05.2020
2365 Clouds 5 1031 93 10000 10.8 290 12:19 30.05.2020
2366 Clouds 5 1031 93 10000 11.3 290 11:41 30.05.2020
2367 Clouds 5 1031 93 10000 12.3 290 11:23 30.05.2020
2368 Clouds 5 1031 93 10000 12.3 290 10:58 30.05.2020
2369 Clouds 5 1031 93 10000 12.3 290 10:58 30.05.2020
2370 Clouds 5 1031 86 10000 12.3 300 10:38 30.05.2020
2371 Clouds 5 1031 86 10000 12.3 300 10:20 30.05.2020
2372 Clouds 5 1030 80 10000 10.8 300 09:44 30.05.2020
2373 Clouds 5 1030 80 10000 10.8 300 09:25 30.05.2020
2374 Clouds 5 1029 80 10000 9.8 300 08:44 30.05.2020
2375 Clouds 5 1029 80 10000 9.8 300 08:44 30.05.2020
2376 Clouds 5 1029 80 10000 9.8 300 08:26 30.05.2020
2377 Clouds 5 1029 80 10000 10.3 290 07:40 30.05.2020
2378 Clouds 5 1029 80 10000 10.3 290 07:19 30.05.2020
2379 Drizzle 4 1029 86 10000 8.7 290 06:30 30.05.2020
2380 Clouds 5 1029 80 10000 9.3 290 05:52 30.05.2020
2381 Drizzle 4 1028 86 10000 11.3 300 04:59 30.05.2020
2382 Drizzle 4 1027 93 10000 12.9 290 02:56 30.05.2020
2383 Drizzle 4 1026 93 10000 11.8 290 02:23 30.05.2020
2384 Rain 4 1026 93 10000 11.3 290 01:20 30.05.2020
2385 Clouds 5 1025 80 10000 9.3 290 00:36 30.05.2020
2386 Clouds 5 1025 80 10000 9.3 290 00:18 30.05.2020
2387 Clouds 5 1025 80 10000 11.3 300 23:38 29.05.2020
2388 Clouds 5 1025 80 10000 11.3 300 23:19 29.05.2020
2389 Clouds 5 1024 80 10000 10.3 290 22:56 29.05.2020
2390 Clouds 5 1024 80 10000 13.9 300 22:37 29.05.2020
2391 Clouds 5 1024 80 10000 13.9 300 22:18 29.05.2020
2392 Drizzle 5 1023 93 5000 9.3 290 21:41 29.05.2020
2393 Drizzle 5 1023 93 5000 9.3 290 21:41 29.05.2020
2394 Drizzle 5 1023 93 5000 9.3 290 21:21 29.05.2020
2395 Drizzle 5 1023 93 8000 9.3 290 20:58 29.05.2020
2396 Clouds 5 1022 93 10000 9.3 300 20:39 29.05.2020
2397 Clouds 5 1022 93 10000 9.3 300 20:19 29.05.2020
2398 Clouds 6 1021 87 10000 9.8 290 19:43 29.05.2020
2399 Clouds 6 1021 87 10000 9.8 290 19:25 29.05.2020
2400 Clouds 6 1021 93 10000 8.2 290 18:48 29.05.2020
2401 Clouds 5 1021 100 10000 9.3 290 18:24 29.05.2020
2402 Fog 5 1020 100 4000 9.3 290 17:59 29.05.2020
2403 Clouds 6 1020 93 10000 7.7 270 17:39 29.05.2020
2404 Clouds 6 1020 93 10000 7.7 270 17:20 29.05.2020
2405 Clouds 5 1019 100 10000 8.2 280 16:55 29.05.2020
2406 Drizzle 6 1019 87 10000 9.3 280 16:37 29.05.2020
2407 Drizzle 6 1019 87 10000 9.3 280 16:19 29.05.2020
2408 Rain 6 1018 87 10000 11.3 270 15:42 29.05.2020
2409 Rain 6 1018 87 10000 11.3 270 15:21 29.05.2020
2410 Clouds 6 1018 87 10000 10.3 270 14:58 29.05.2020
2411 Rain 5 1018 93 10000 11.3 270 14:38 29.05.2020
2412 Rain 5 1018 93 10000 11.3 270 14:19 29.05.2020
2413 Drizzle 6 1017 87 10000 7.7 270 13:43 29.05.2020
2414 Drizzle 6 1017 87 10000 7.7 270 13:23 29.05.2020
2415 Rain 5 1017 93 10000 7.7 270 12:58 29.05.2020
2416 Rain 6 1017 87 10000 8.7 270 12:39 29.05.2020
2417 Rain 6 1017 87 10000 8.7 270 12:39 29.05.2020
2418 Rain 6 1017 87 10000 8.7 270 12:20 29.05.2020
2419 Drizzle 6 1016 87 10000 8.7 250 11:44 29.05.2020
2420 Drizzle 6 1016 87 10000 8.7 250 11:25 29.05.2020
2421 Drizzle 5 1016 93 10000 9.3 250 10:55 29.05.2020
2422 Drizzle 5 1016 93 10000 8.7 250 10:36 29.05.2020
2423 Drizzle 5 1016 93 10000 8.7 250 10:18 29.05.2020
2424 Clouds 6 1016 87 10000 7.7 240 09:41 29.05.2020
2425 Clouds 6 1016 87 10000 7.7 240 09:19 29.05.2020
2426 Clouds 5 1016 93 10000 7.7 240 08:48 29.05.2020
2427 Clouds 5 1016 93 10000 6.7 240 08:26 29.05.2020
2428 Rain 5 1016 93 10000 6.2 260 07:52 29.05.2020
2429 Clouds 5 1016 93 10000 7.7 260 07:33 29.05.2020
2430 Clouds 5 1016 93 10000 6.2 260 06:58 29.05.2020
2431 Clouds 5 1016 86 10000 6.7 260 06:40 29.05.2020
2432 Clouds 5 1016 86 10000 6.7 260 06:22 29.05.2020
2433 Rain 4 1016 93 10000 6.2 260 05:40 29.05.2020
2434 Rain 5 1016 86 10000 8.2 260 02:20 29.05.2020
2435 Rain 5 1016 86 10000 7.2 260 02:20 29.05.2020
2436 Drizzle 5 1016 86 10000 9.3 250 01:27 29.05.2020
2437 Rain 5 1017 86 10000 8.7 250 00:53 29.05.2020
2438 Drizzle 5 1017 86 10000 9.8 240 00:33 29.05.2020
2439 Drizzle 5 1016 93 10000 8.7 240 23:57 28.05.2020
2440 Drizzle 4 1017 93 10000 6.2 250 23:39 28.05.2020
2441 Drizzle 4 1017 93 10000 7.7 270 23:18 28.05.2020
2442 Drizzle 4 1017 93 10000 6.7 260 22:42 28.05.2020
2443 Drizzle 4 1017 93 10000 6.7 260 22:24 28.05.2020
2444 Drizzle 5 1017 80 10000 8.7 260 21:56 28.05.2020
2445 Clouds 5 1017 80 10000 9.3 260 21:37 28.05.2020
2446 Clouds 5 1017 80 10000 9.3 260 21:19 28.05.2020
2447 Clouds 5 1017 80 10000 9.3 260 21:19 28.05.2020
2448 Clouds 5 1017 80 10000 8.7 260 20:56 28.05.2020
2449 Clouds 6 1017 75 10000 8.7 270 20:37 28.05.2020
2450 Clouds 6 1017 75 10000 8.7 270 20:18 28.05.2020
2451 Clouds 6 1017 75 10000 10.3 270 19:43 28.05.2020
2452 Clouds 6 1017 75 10000 10.3 270 19:21 28.05.2020
2453 Clouds 5 1017 80 10000 10.3 270 18:57 28.05.2020
2454 Clouds 5 1017 80 10000 13.4 270 18:39 28.05.2020
2455 Clouds 5 1017 80 10000 13.4 270 18:21 28.05.2020
2456 Clouds 6 1016 75 10000 12.3 270 17:41 28.05.2020
2457 Clouds 6 1016 75 10000 12.3 270 17:22 28.05.2020
2458 Clouds 7 1016 70 10000 11.8 260 16:56 28.05.2020
2459 Clouds 6 1016 75 10000 12.3 260 16:37 28.05.2020
2460 Clouds 6 1016 75 10000 12.3 260 16:18 28.05.2020
2461 Clouds 6 1016 75 10000 11.3 270 15:42 28.05.2020
2462 Clouds 6 1016 75 10000 11.3 270 15:23 28.05.2020
2463 Clouds 7 1015 75 10000 8.2 260 14:44 28.05.2020
2464 Clouds 7 1015 75 10000 8.2 260 14:25 28.05.2020
2465 Clouds 7 1015 70 10000 7.7 270 13:58 28.05.2020
2466 Clouds 7 1015 70 10000 8.7 260 13:39 28.05.2020
2467 Clouds 7 1015 70 10000 8.7 260 13:20 28.05.2020
2468 Clouds 6 1015 75 10000 9.8 260 12:42 28.05.2020
2469 Clouds 6 1015 75 10000 9.8 260 12:19 28.05.2020
2470 Clouds 7 1015 70 10000 8.2 270 11:43 28.05.2020
2471 Clouds 7 1015 70 10000 8.2 270 11:43 28.05.2020
2472 Clouds 8 1014 65 10000 8.2 270 11:24 28.05.2020
2473 Clouds 8 1014 65 10000 8.2 270 10:57 28.05.2020
2474 Clouds 8 1014 65 10000 6.7 250 10:39 28.05.2020
2475 Clouds 7 1014 70 10000 4.6 240 10:18 28.05.2020
2476 Clouds 7 1014 70 10000 5.7 260 09:39 28.05.2020
2477 Clouds 6 1014 75 10000 5.1 270 09:20 28.05.2020
2478 Clouds 6 1014 75 10000 5.1 270 08:49 28.05.2020
2479 Clouds 6 1014 75 10000 5.1 260 08:26 28.05.2020
2480 Clouds 6 1014 81 10000 4.1 260 07:45 28.05.2020
2481 Clouds 6 1014 81 10000 4.1 260 07:26 28.05.2020
2482 Rain 5 1014 93 10000 6.2 250 06:57 28.05.2020
2483 Clouds 6 1014 81 10000 6.2 240 06:37 28.05.2020
2484 Clouds 6 1014 81 10000 5.1 240 05:56 28.05.2020
2485 Clouds 6 1014 81 10000 5.1 240 05:35 28.05.2020
2486 Clouds 6 1014 81 10000 5.7 260 04:28 28.05.2020
2487 Clouds 6 1015 81 10000 5.7 280 03:45 28.05.2020
2488 Rain 5 1015 86 10000 4.1 250 02:45 28.05.2020
2489 Rain 5 1015 93 10000 3.1 230 01:51 28.05.2020
2490 Clouds 5 1015 86 10000 4.1 230 00:54 28.05.2020
2491 Rain 5 1015 86 10000 2.6 110 00:26 28.05.2020
2492 Rain 6 1015 87 10000 1 0 23:58 27.05.2020
2493 Rain 6 1015 87 10000 1 0 23:58 27.05.2020
2494 Rain 7 1016 81 10000 5.1 290 23:39 27.05.2020
2495 Rain 7 1016 81 10000 5.1 290 23:20 27.05.2020
2496 Clouds 7 1015 81 10000 2.1 260 22:56 27.05.2020
2497 Clouds 7 1015 81 10000 2.1 330 22:38 27.05.2020
2498 Clouds 7 1015 81 10000 2.1 330 22:19 27.05.2020
2499 Clouds 7 1015 81 10000 5.1 350 21:41 27.05.2020
2500 Clouds 7 1015 81 10000 5.1 350 21:23 27.05.2020
2501 Clouds 8 1015 75 10000 5.7 350 20:59 27.05.2020
2502 Clouds 9 1015 70 10000 1 0 20:41 27.05.2020
2503 Clouds 9 1015 70 10000 1 0 20:41 27.05.2020
2504 Clouds 9 1015 70 10000 1 0 20:21 27.05.2020
2505 Clouds 10 1015 61 10000 2.1 140 19:57 27.05.2020
2506 Clouds 10 1015 66 10000 2.6 130 19:39 27.05.2020
2507 Clouds 10 1015 66 10000 2.6 130 19:18 27.05.2020
2508 Clouds 11 1016 66 10000 1.5 130 18:40 27.05.2020
2509 Clouds 11 1016 62 10000 1 120 18:19 27.05.2020
2510 Clouds 11 1016 62 10000 1 120 17:46 27.05.2020
2511 Clouds 11 1016 62 10000 1 120 17:46 27.05.2020
2512 Clouds 10 1016 71 10000 1 0 17:28 27.05.2020
2513 Clouds 11 1016 62 10000 5.08 187 16:57 27.05.2020
2514 Clouds 10 1016 71 10000 0.5 170 16:39 27.05.2020
2515 Clouds 11 1016 62 10000 1 180 16:20 27.05.2020
2516 Clouds 11 1016 62 10000 1 180 15:59 27.05.2020
2517 Clouds 10 1016 66 10000 1.5 240 15:39 27.05.2020
2518 Clouds 10 1016 66 10000 1.5 240 15:21 27.05.2020
2519 Clouds 9 1017 70 10000 3.1 220 14:43 27.05.2020
2520 Clouds 9 1017 70 10000 3.1 220 14:21 27.05.2020
2521 Rain 9 1017 70 10000 4.1 230 13:55 27.05.2020
2522 Rain 9 1017 70 10000 3.6 240 13:36 27.05.2020
2523 Rain 9 1017 70 10000 3.6 240 13:18 27.05.2020
2524 Clouds 9 1017 70 10000 4.6 240 12:40 27.05.2020
2525 Clouds 9 1017 70 10000 4.6 240 12:22 27.05.2020
2526 Rain 8 1017 75 10000 3.6 290 11:40 27.05.2020
2527 Rain 8 1017 75 10000 3.6 290 11:40 27.05.2020
2528 Rain 8 1017 75 10000 3.6 290 11:22 27.05.2020
2529 Rain 8 1017 70 10000 2.6 250 10:58 27.05.2020
2530 Rain 9 1017 66 10000 2.1 250 10:39 27.05.2020
2531 Rain 9 1017 66 10000 2.1 250 10:20 27.05.2020
2532 Clouds 8 1016 70 10000 1.5 70 09:41 27.05.2020
2533 Rain 8 1016 70 10000 1.5 40 09:22 27.05.2020
2534 Rain 8 1016 70 10000 1.5 70 09:22 27.05.2020
2535 Rain 8 1016 70 10000 1.5 40 08:56 27.05.2020
2536 Rain 8 1016 70 10000 1.5 40 08:56 27.05.2020
2537 Rain 9 1016 66 10000 1 360 08:36 27.05.2020
2538 Rain 9 1016 66 10000 1 360 08:18 27.05.2020
2539 Drizzle 9 1017 66 10000 1 0 07:50 27.05.2020
2540 Clouds 8 1017 70 10000 2.6 270 07:32 27.05.2020
2541 Rain 8 1017 70 10000 2.6 280 06:52 27.05.2020
2542 Clouds 8 1017 70 10000 3.1 280 06:24 27.05.2020
2543 Clouds 7 1018 75 10000 3.6 260 05:49 27.05.2020
2544 Clouds 7 1018 75 10000 3.6 260 05:22 27.05.2020
2545 Clouds 8 1019 65 10000 5.7 210 02:42 27.05.2020
2546 Clouds 7 1020 70 10000 2.6 220 02:18 27.05.2020
2547 Clouds 7 1020 70 10000 2.6 220 01:31 27.05.2020
2548 Clouds 8 1020 65 10000 4.1 190 00:47 27.05.2020
2549 Clouds 8 1020 65 10000 4.1 190 00:20 27.05.2020
2550 Clouds 8 1020 65 10000 4.1 190 00:20 27.05.2020
2551 Clouds 8 1021 65 10000 3.6 180 23:57 26.05.2020
2552 Clouds 8 1021 70 10000 3.6 200 23:39 26.05.2020
2553 Clouds 8 1021 70 10000 3.6 200 23:20 26.05.2020
2554 Clouds 8 1022 65 10000 3.1 100 22:42 26.05.2020
2555 Clouds 8 1022 65 10000 3.1 100 22:23 26.05.2020
2556 Clouds 8 1022 65 10000 2.1 90 21:59 26.05.2020
2557 Clouds 9 1022 66 10000 3.1 80 21:40 26.05.2020
2558 Clouds 9 1022 66 10000 3.1 80 21:22 26.05.2020
2559 Clouds 10 1023 61 10000 3.6 90 20:58 26.05.2020
2560 Clouds 10 1023 61 10000 3.6 100 20:39 26.05.2020
2561 Clouds 10 1023 61 10000 3.6 100 20:20 26.05.2020
2562 Clouds 11 1024 57 10000 3.6 80 19:41 26.05.2020
2563 Clouds 11 1024 57 10000 3.6 80 19:20 26.05.2020
2564 Clouds 11 1024 57 10000 3.6 90 18:58 26.05.2020
2565 Clouds 11 1024 57 10000 4.1 100 18:39 26.05.2020
2566 Clouds 11 1024 57 10000 4.1 100 18:20 26.05.2020
2567 Clouds 12 1025 54 10000 1.5 90 17:42 26.05.2020
2568 Clouds 12 1025 54 10000 1.5 90 17:23 26.05.2020
2569 Clouds 12 1025 54 10000 1.5 90 16:49 26.05.2020
2570 Clouds 13 1026 47 10000 2.1 270 16:23 26.05.2020
2571 Clouds 14 1026 47 10000 4.1 270 15:59 26.05.2020
2572 Clouds 13 1026 54 10000 4.6 290 15:40 26.05.2020
2573 Clouds 13 1026 54 10000 4.6 290 15:20 26.05.2020
2574 Clouds 13 1026 54 10000 4.6 290 15:20 26.05.2020
2575 Clouds 13 1026 50 10000 4.1 290 14:55 26.05.2020
2576 Clouds 13 1026 50 10000 3.6 290 14:36 26.05.2020
2577 Clouds 13 1026 50 10000 3.6 290 14:18 26.05.2020
2578 Clouds 13 1026 50 10000 4.1 240 13:40 26.05.2020
2579 Clouds 13 1026 54 10000 4.6 220 13:22 26.05.2020
2580 Clouds 13 1026 50 10000 5.1 220 12:44 26.05.2020
2581 Clouds 13 1026 50 10000 5.1 220 12:23 26.05.2020
2582 Clouds 13 1026 50 10000 6.7 210 11:59 26.05.2020
2583 Clouds 12 1026 50 10000 7.2 200 11:40 26.05.2020
2584 Clouds 12 1026 50 10000 7.2 200 11:40 26.05.2020
2585 Clouds 12 1026 50 10000 7.2 200 11:40 26.05.2020
2586 Clouds 12 1026 50 10000 7.2 200 11:19 26.05.2020
2587 Clouds 12 1026 50 10000 7.7 200 10:47 26.05.2020
2588 Clear 12 1026 50 10000 7.7 190 10:19 26.05.2020
2589 Clear 12 1026 50 10000 7.2 190 09:57 26.05.2020
2590 Clear 11 1026 53 10000 6.7 190 09:37 26.05.2020
2591 Clear 11 1026 53 10000 6.7 190 09:18 26.05.2020
2592 Clear 11 1026 53 10000 7.2 190 08:40 26.05.2020
2593 Clear 11 1026 53 10000 7.2 190 08:22 26.05.2020
2594 Clear 10 1026 57 10000 4.6 170 07:43 26.05.2020
2595 Clear 10 1026 57 10000 4.6 170 07:23 26.05.2020
2596 Clear 10 1027 57 10000 5.1 160 06:53 26.05.2020
2597 Clear 10 1027 61 10000 4.1 160 06:28 26.05.2020
2598 Clear 8 1027 75 10000 3.1 120 05:43 26.05.2020
2599 Clouds 7 1027 75 10000 4.1 100 05:20 26.05.2020
2600 Clouds 7 1027 75 10000 4.1 100 04:48 26.05.2020
2601 Clouds 7 1027 75 10000 4.1 100 04:29 26.05.2020
2602 Clouds 7 1027 75 10000 4.1 100 04:29 26.05.2020
2603 Clouds 6 1028 81 10000 4.1 90 03:49 26.05.2020
2604 Clouds 7 1028 81 10000 3.1 90 02:36 26.05.2020
2605 Clouds 6 1028 75 10000 1.5 0 01:47 26.05.2020
2606 Clouds 8 1028 65 10000 1.5 0 00:44 26.05.2020
2607 Clouds 8 1028 65 10000 1.5 0 00:26 26.05.2020
2608 Clouds 8 1028 65 10000 2.6 250 23:59 25.05.2020
2609 Clouds 8 1028 65 10000 3.1 220 23:39 25.05.2020
2610 Clouds 8 1028 65 10000 3.1 220 23:20 25.05.2020
2611 Clouds 9 1028 66 10000 3.6 220 22:56 25.05.2020
2612 Clouds 8 1027 70 10000 4.1 220 22:38 25.05.2020
2613 Clouds 8 1027 70 10000 4.1 220 22:20 25.05.2020
2614 Clouds 8 1027 70 10000 3.6 210 21:59 25.05.2020
2615 Clouds 9 1027 66 10000 3.6 210 21:39 25.05.2020
2616 Clouds 9 1027 66 10000 3.6 210 21:20 25.05.2020
2617 Clouds 10 1027 61 10000 3.6 220 20:59 25.05.2020
2618 Clouds 11 1026 57 10000 3.6 220 20:41 25.05.2020
2619 Clouds 11 1026 57 10000 3.6 220 20:20 25.05.2020
2620 Clouds 12 1026 54 10000 3.6 240 19:58 25.05.2020
2621 Clouds 13 1026 47 10000 3.6 240 19:38 25.05.2020
2622 Clouds 13 1026 47 10000 3.6 240 19:18 25.05.2020
2623 Clouds 13 1026 47 10000 3.6 240 19:18 25.05.2020
2624 Clouds 13 1026 47 10000 3.6 260 18:43 25.05.2020
2625 Clouds 13 1026 47 10000 3.6 260 18:22 25.05.2020
2626 Clouds 13 1025 47 10000 1.5 240 17:57 25.05.2020
2627 Clouds 14 1025 47 10000 1 0 17:38 25.05.2020
2628 Clouds 14 1025 47 10000 1.5 330 17:20 25.05.2020
2629 Clouds 14 1025 47 10000 1.5 330 16:56 25.05.2020
2630 Clouds 14 1025 47 10000 4.1 300 16:37 25.05.2020
2631 Clouds 14 1025 47 10000 4.1 300 16:19 25.05.2020
2632 Clouds 13 1024 50 10000 4.1 300 15:42 25.05.2020
2633 Clouds 13 1024 50 10000 4.1 300 15:18 25.05.2020
2634 Clouds 13 1024 50 10000 4.1 270 14:44 25.05.2020
2635 Clouds 13 1024 50 10000 4.1 270 14:25 25.05.2020
2636 Clouds 13 1023 47 10000 5.1 270 13:59 25.05.2020
2637 Clouds 13 1023 50 10000 5.1 250 13:39 25.05.2020
2638 Clouds 13 1023 50 10000 5.1 250 13:20 25.05.2020
2639 Clouds 13 1023 47 10000 5.1 230 12:57 25.05.2020
2640 Clouds 13 1022 50 10000 5.1 220 12:37 25.05.2020
2641 Clouds 13 1022 50 10000 5.1 220 12:19 25.05.2020
2642 Clouds 12 1022 50 10000 6.2 210 11:39 25.05.2020
2643 Clouds 14 1021 44 10000 6.7 200 11:20 25.05.2020
2644 Clouds 14 1021 44 10000 6.7 200 10:54 25.05.2020
2645 Clouds 13 1021 96 10000 8.7 200 10:36 25.05.2020
2646 Clouds 13 1021 96 10000 8.7 200 10:36 25.05.2020
2647 Clouds 13 1021 96 10000 8.7 200 10:18 25.05.2020
2648 Clouds 12 1020 96 10000 8.7 190 09:42 25.05.2020
2649 Clouds 12 1020 84 10000 8.7 190 09:20 25.05.2020
2650 Clouds 13 1020 84 10000 8.7 190 08:59 25.05.2020
2651 Clouds 13 1020 43 10000 6.7 190 08:38 25.05.2020
2652 Clouds 13 1020 43 10000 6.7 190 08:20 25.05.2020
2653 Clouds 12 1019 46 10000 7.2 190 07:47 25.05.2020
2654 Clouds 12 1019 46 10000 5.7 190 07:26 25.05.2020
2655 Clouds 12 1019 46 10000 6.7 190 06:56 25.05.2020
2656 Clouds 11 1019 50 10000 6.2 190 06:35 25.05.2020
2657 Clouds 9 1019 57 10000 7.7 200 05:20 25.05.2020
2658 Clouds 10 1018 53 10000 7.7 190 03:25 25.05.2020
2659 Clouds 9 1018 57 10000 6.2 190 02:46 25.05.2020
2660 Clouds 9 1018 57 10000 6.2 190 02:18 25.05.2020
2661 Clouds 6 1018 90 10000 5.1 190 01:41 25.05.2020
2662 Clouds 7 1018 65 10000 5.1 190 00:46 25.05.2020
2663 Clouds 7 1018 65 10000 6.2 190 00:24 25.05.2020
2664 Clouds 7 1018 65 10000 5.7 200 23:58 24.05.2020
2665 Clouds 7 1018 65 10000 3.1 180 23:39 24.05.2020
2666 Clouds 7 1018 65 10000 3.1 180 23:20 24.05.2020
2667 Clouds 9 1018 57 10000 2.6 140 22:55 24.05.2020
2668 Clouds 8 1017 61 10000 2.1 160 22:37 24.05.2020
2669 Clouds 8 1017 61 10000 2.1 160 22:18 24.05.2020
2670 Clouds 7 1017 65 10000 2.1 180 21:54 24.05.2020
2671 Clouds 9 1017 57 10000 2.6 180 21:36 24.05.2020
2672 Clouds 10 1017 57 10000 6.2 210 21:18 24.05.2020
2673 Clouds 10 1016 57 10000 6.7 200 20:41 24.05.2020
2674 Clouds 10 1016 57 10000 6.7 200 20:19 24.05.2020
2675 Clouds 11 1016 53 10000 7.2 190 19:56 24.05.2020
2676 Clouds 11 1016 53 10000 8.7 180 19:36 24.05.2020
2677 Clouds 11 1016 53 10000 8.7 180 19:18 24.05.2020
2678 Clouds 11 1016 53 10000 8.7 180 19:18 24.05.2020
2679 Clouds 11 1015 53 10000 7.2 190 18:42 24.05.2020
2680 Clouds 11 1015 53 10000 7.2 190 18:23 24.05.2020
2681 Clouds 11 1015 53 10000 5.1 170 17:57 24.05.2020
2682 Clouds 11 1015 53 10000 5.1 190 17:38 24.05.2020
2683 Clouds 11 1015 53 10000 5.1 190 17:19 24.05.2020
2684 Clouds 11 1014 53 10000 6.7 200 16:54 24.05.2020
2685 Clouds 11 1014 53 10000 6.2 200 16:36 24.05.2020
2686 Clouds 11 1014 53 10000 6.2 200 16:18 24.05.2020
2687 Clouds 11 1014 53 10000 8.7 200 15:55 24.05.2020
2688 Clouds 11 1013 53 10000 12.3 210 15:36 24.05.2020
2689 Clouds 11 1013 53 10000 12.3 210 15:18 24.05.2020
2690 Clouds 11 1013 53 10000 12.9 200 14:41 24.05.2020
2691 Clouds 11 1013 53 10000 12.9 200 14:21 24.05.2020
2692 Clouds 11 1013 53 10000 12.9 200 14:21 24.05.2020
2693 Clouds 11 1012 50 10000 11.3 200 13:55 24.05.2020
2694 Clouds 11 1012 50 10000 11.3 190 13:37 24.05.2020
2695 Clouds 11 1012 50 10000 11.3 190 13:18 24.05.2020
2696 Clouds 11 1012 50 10000 11.8 200 12:55 24.05.2020
2697 Clouds 11 1012 50 10000 17.5 190 12:37 24.05.2020
2698 Clouds 11 1012 50 10000 8.7 210 12:18 24.05.2020
2699 Clouds 11 1012 50 10000 8.7 210 11:54 24.05.2020
2700 Clouds 12 1012 46 10000 10.3 210 11:36 24.05.2020
2701 Clear 12 1012 46 10000 10.3 210 11:18 24.05.2020
2702 Clear 12 1012 40 10000 11.8 190 10:41 24.05.2020
2703 Clear 12 1012 40 10000 11.8 190 10:23 24.05.2020
2704 Clear 12 1012 93 10000 11.8 200 09:57 24.05.2020
2705 Clear 11 1011 93 10000 6.2 230 09:39 24.05.2020
2706 Clear 11 1011 81 10000 6.2 230 09:18 24.05.2020
2707 Clear 10 1011 53 10000 12.3 200 08:42 24.05.2020
2708 Clear 10 1011 53 10000 12.3 200 08:24 24.05.2020
2709 Clear 9 1011 57 10000 12.9 190 07:58 24.05.2020
2710 Clear 9 1010 57 10000 11.8 190 07:40 24.05.2020
2711 Clear 9 1010 82 10000 11.8 190 07:21 24.05.2020
2712 Clear 10 1011 82 10000 11.3 190 06:39 24.05.2020
2713 Clear 10 1011 82 10000 10.8 190 05:50 24.05.2020
2714 Clear 9 1011 49 10000 4.6 180 03:58 24.05.2020
2715 Clear 10 1011 46 10000 5.7 200 03:39 24.05.2020
2716 Clear 9 1011 85 10000 8.2 200 02:26 24.05.2020
2717 Clear 9 1011 85 10000 7.2 190 01:21 24.05.2020
2718 Clear 10 1011 85 10000 9.8 190 00:38 24.05.2020
2719 Clear 10 1011 85 10000 9.8 190 00:20 24.05.2020
2720 Clear 10 1011 85 10000 8.2 200 23:40 23.05.2020
2721 Clear 10 1011 82 10000 8.2 200 23:20 23.05.2020
2722 Clear 10 1011 82 10000 6.7 200 22:56 23.05.2020
2723 Clear 11 1010 82 10000 7.7 190 22:37 23.05.2020
2724 Clear 11 1010 81 10000 5.7 180 22:19 23.05.2020
2725 Clear 11 1010 81 10000 5.7 180 21:56 23.05.2020
2726 Clear 11 1010 43 10000 8.7 190 21:37 23.05.2020
2727 Clear 11 1010 43 10000 8.7 190 21:18 23.05.2020
2728 Clear 12 1010 40 10000 10.3 190 20:41 23.05.2020
2729 Clouds 12 1010 40 10000 9.3 190 20:20 23.05.2020
2730 Clouds 12 1010 40 10000 9.3 190 19:59 23.05.2020
2731 Clouds 12 1010 40 10000 9.3 190 19:41 23.05.2020
2732 Clouds 12 1010 40 10000 9.3 190 19:19 23.05.2020
2733 Clouds 12 1010 40 10000 8.7 200 18:55 23.05.2020
2734 Clouds 12 1010 40 10000 8.7 200 18:36 23.05.2020
2735 Clouds 12 1010 40 10000 8.7 200 18:18 23.05.2020
2736 Clouds 12 1010 40 10000 7.7 190 17:54 23.05.2020
2737 Clouds 12 1010 40 10000 7.2 200 17:36 23.05.2020
2738 Clouds 12 1010 40 10000 7.2 200 17:18 23.05.2020
2739 Clouds 12 1010 87 10000 8.7 210 16:41 23.05.2020
2740 Clouds 12 1010 87 10000 8.7 210 16:21 23.05.2020
2741 Clouds 12 1010 87 10000 8.7 210 16:21 23.05.2020
2742 Clouds 12 1009 40 10000 9.3 200 15:59 23.05.2020
2743 Clouds 12 1009 40 10000 11.8 200 15:41 23.05.2020
2744 Clouds 12 1009 40 10000 11.8 200 15:22 23.05.2020
2745 Clouds 12 1009 40 10000 10.8 190 14:43 23.05.2020
2746 Clouds 12 1009 40 10000 10.8 190 14:24 23.05.2020
2747 Clouds 12 1009 40 10000 9.8 190 13:56 23.05.2020
2748 Clouds 12 1010 40 10000 10.3 190 13:37 23.05.2020
2749 Clouds 11 1010 43 10000 11.3 190 13:18 23.05.2020
2750 Clouds 11 1010 43 10000 11.8 190 12:41 23.05.2020
2751 Clouds 11 1010 43 10000 11.8 190 12:20 23.05.2020
2752 Clouds 10 1010 95 10000 9.8 190 11:59 23.05.2020
2753 Clouds 10 1010 95 10000 9.8 190 11:59 23.05.2020
2754 Clouds 11 1010 95 10000 9.3 200 11:40 23.05.2020
2755 Clouds 11 1010 96 10000 9.3 200 11:19 23.05.2020
2756 Clouds 9 1010 96 10000 9.3 200 10:56 23.05.2020
2757 Clouds 9 1010 96 10000 10.3 200 10:37 23.05.2020
2758 Clouds 9 1010 97 10000 10.3 200 10:18 23.05.2020
2759 Clouds 9 1010 97 10000 11.3 200 09:43 23.05.2020
2760 Clouds 9 1010 96 10000 11.3 200 09:24 23.05.2020
2761 Clouds 9 1010 92 10000 9.3 190 08:58 23.05.2020
2762 Clouds 9 1011 92 10000 6.7 180 08:38 23.05.2020
2763 Clouds 9 1011 91 10000 6.7 180 08:19 23.05.2020
2764 Clouds 9 1011 91 10000 6.2 180 07:45 23.05.2020
2765 Clouds 9 1011 90 10000 6.2 180 07:23 23.05.2020
2766 Clouds 7 1012 52 10000 6.7 190 06:43 23.05.2020
2767 Clouds 7 1012 52 10000 5.7 190 05:55 23.05.2020
2768 Clouds 3 1013 59 10000 4.1 180 03:55 23.05.2020
2769 Clouds 3 1013 59 10000 4.6 180 03:26 23.05.2020
2770 Clouds 3 1014 59 10000 4.1 160 02:40 23.05.2020
2771 Clear 2 1015 69 10000 4.6 190 01:48 23.05.2020
2772 Clear 2 1015 69 10000 4.6 190 01:18 23.05.2020
2773 Clear 3 1016 64 10000 4.1 190 00:42 23.05.2020
2774 Clear 3 1016 64 10000 3.1 180 00:19 23.05.2020
2775 Clear 3 1016 64 10000 2.6 180 23:44 22.05.2020
2776 Clear 3 1016 64 10000 2.6 180 23:22 22.05.2020
2777 Clear 3 1016 69 10000 2.6 140 22:58 22.05.2020
2778 Clear 4 1016 64 10000 2.6 140 22:40 22.05.2020
2779 Clear 4 1016 64 10000 2.6 140 22:20 22.05.2020
2780 Clear 5 1017 60 10000 2.6 180 21:48 22.05.2020
2781 Clouds 5 1017 60 10000 2.6 180 21:24 22.05.2020
2782 Clouds 5 1017 56 10000 3.6 140 20:59 22.05.2020
2783 Clouds 5 1017 60 10000 2.6 140 20:41 22.05.2020
2784 Clouds 5 1017 60 10000 2.6 140 20:41 22.05.2020
2785 Clouds 5 1017 60 10000 2.6 140 20:20 22.05.2020
2786 Clouds 5 1017 60 10000 2.6 140 20:20 22.05.2020
2787 Clouds 7 1018 56 10000 1.5 160 19:45 22.05.2020
2788 Clouds 7 1018 56 10000 1.5 160 19:26 22.05.2020
2789 Clouds 7 1018 52 10000 1 150 18:57 22.05.2020
2790 Clouds 7 1019 52 10000 3.1 200 18:38 22.05.2020
2791 Clouds 7 1019 52 10000 3.1 200 18:19 22.05.2020
2792 Clouds 7 1019 52 10000 4.6 200 17:40 22.05.2020
2793 Clouds 7 1019 52 10000 4.6 200 17:20 22.05.2020
2794 Clouds 7 1019 52 10000 5.1 200 16:58 22.05.2020
2795 Clouds 7 1019 52 10000 4.6 200 16:39 22.05.2020
2796 Clouds 7 1019 52 10000 4.6 200 16:20 22.05.2020
2797 Clouds 7 1020 48 10000 4.1 200 15:56 22.05.2020
2798 Clouds 7 1020 48 10000 4.1 210 15:38 22.05.2020
2799 Clouds 7 1020 48 10000 4.1 210 15:18 22.05.2020
2800 Clouds 7 1021 48 10000 5.1 200 14:40 22.05.2020
2801 Clouds 7 1021 48 10000 5.1 200 14:21 22.05.2020
2802 Clouds 6 1021 52 10000 5.1 200 13:44 22.05.2020
2803 Clouds 6 1021 52 10000 5.1 200 13:19 22.05.2020
2804 Clouds 6 1021 48 10000 6.2 190 12:43 22.05.2020
2805 Clouds 6 1021 48 10000 6.2 190 12:25 22.05.2020
2806 Clouds 6 1021 48 10000 5.7 180 11:56 22.05.2020
2807 Clouds 7 1022 45 10000 7.2 190 11:37 22.05.2020
2808 Clouds 7 1022 45 10000 7.2 190 11:19 22.05.2020
2809 Clouds 6 1022 48 10000 5.7 190 10:41 22.05.2020
2810 Clouds 6 1022 48 10000 5.7 190 10:22 22.05.2020
2811 Clouds 6 1022 48 10000 3.6 180 09:59 22.05.2020
2812 Clouds 6 1022 48 10000 3.6 180 09:59 22.05.2020
2813 Clouds 6 1022 52 10000 4.1 180 09:40 22.05.2020
2814 Clouds 6 1022 52 10000 4.1 180 09:18 22.05.2020
2815 Clouds 6 1022 52 10000 4.1 180 09:18 22.05.2020
2816 Clouds 6 1023 56 10000 2.6 180 08:43 22.05.2020
2817 Clear 6 1023 56 10000 2.6 180 08:20 22.05.2020
2818 Clear 5 1023 60 10000 2.6 190 07:56 22.05.2020
2819 Clear 5 1023 60 10000 3.6 200 07:24 22.05.2020
2820 Clear 5 1023 60 10000 3.1 190 06:56 22.05.2020
2821 Clear 3 1024 69 10000 3.6 200 06:35 22.05.2020
2822 Clear 3 1024 69 10000 4.6 210 05:38 22.05.2020
2823 Clear 2 1024 74 10000 3.6 200 04:51 22.05.2020
2824 Clear 2 1024 74 10000 3.6 200 04:20 22.05.2020
2825 Clear 2 1024 74 10000 4.1 200 03:47 22.05.2020
2826 Clear 2 1024 80 10000 4.6 200 02:59 22.05.2020
2827 Clear 1 1024 80 10000 3.1 200 01:53 22.05.2020
2828 Clear 1 1025 86 10000 3.1 200 01:25 22.05.2020
2829 Clear 1 1025 86 10000 3.6 210 00:46 22.05.2020
2830 Clear 2 1025 80 10000 3.1 210 00:27 22.05.2020
2831 Clear 3 1025 86 10000 2.6 220 23:42 21.05.2020
2832 Clear 3 1025 86 10000 2.6 220 23:24 21.05.2020
2833 Clear 3 1025 86 10000 3.1 230 22:58 21.05.2020
2834 Clear 3 1025 86 10000 2.6 250 22:38 21.05.2020
2835 Clear 3 1025 86 10000 2.6 250 22:20 21.05.2020
2836 Clear 4 1025 80 10000 2.6 260 21:56 21.05.2020
2837 Clear 4 1025 80 10000 2.6 260 21:38 21.05.2020
2838 Clouds 4 1025 80 10000 2.6 260 21:18 21.05.2020
2839 Clear 5 1025 75 10000 4.1 280 20:42 21.05.2020
2840 Clouds 5 1025 75 10000 4.1 280 20:22 21.05.2020
2841 Clouds 6 1025 75 10000 4.1 270 19:41 21.05.2020
2842 Clouds 6 1025 75 10000 4.1 270 19:21 21.05.2020
2843 Clouds 5 1025 75 10000 4.1 270 18:59 21.05.2020
2844 Clouds 6 1026 70 10000 5.1 270 18:39 21.05.2020
2845 Clouds 6 1026 70 10000 5.1 270 18:19 21.05.2020
2846 Clouds 6 1026 85 10000 5.1 270 17:57 21.05.2020
2847 Clouds 6 1026 85 10000 5.7 270 17:39 21.05.2020
2848 Clouds 6 1026 84 10000 5.7 270 17:21 21.05.2020
2849 Clouds 6 1026 60 10000 5.7 260 16:45 21.05.2020
2850 Clouds 6 1026 60 10000 5.7 260 16:23 21.05.2020
2851 Clouds 5 1026 65 10000 4.6 260 15:45 21.05.2020
2852 Clouds 5 1026 65 10000 4.6 260 15:24 21.05.2020
2853 Clouds 6 1026 56 10000 3.6 270 14:56 21.05.2020
2854 Clouds 5 1026 65 10000 4.1 280 14:36 21.05.2020
2855 Clear 5 1026 65 10000 4.1 280 14:18 21.05.2020
2856 Clear 5 1026 65 10000 3.1 270 13:39 21.05.2020
2857 Clear 5 1026 65 10000 3.1 270 13:39 21.05.2020
2858 Clear 5 1026 60 10000 3.6 270 13:21 21.05.2020
2859 Clear 5 1026 60 10000 3.6 270 12:55 21.05.2020
2860 Clear 5 1026 65 10000 3.6 260 12:36 21.05.2020
2861 Clear 5 1026 65 10000 3.6 260 12:18 21.05.2020
2862 Clear 4 1025 69 10000 3.1 260 11:40 21.05.2020
2863 Clear 4 1025 69 10000 3.1 260 11:22 21.05.2020
2864 Clear 4 1025 69 10000 2.6 250 10:55 21.05.2020
2865 Clear 4 1025 69 10000 2.6 250 10:37 21.05.2020
2866 Clear 4 1025 69 10000 2.6 250 10:18 21.05.2020
2867 Clear 4 1025 64 10000 2.1 250 09:42 21.05.2020
2868 Clear 4 1025 64 10000 2.1 250 09:24 21.05.2020
2869 Clear 4 1025 64 10000 1.5 250 08:58 21.05.2020
2870 Clear 4 1025 64 10000 1.5 260 08:39 21.05.2020
2871 Clear 4 1025 64 10000 1.5 260 08:21 21.05.2020
2872 Clear 3 1025 64 10000 2.1 260 07:43 21.05.2020
2873 Clear 4 1025 64 10000 2.1 250 07:22 21.05.2020
2874 Clear 2 1025 74 10000 2.6 250 06:44 21.05.2020
2875 Clear 2 1025 74 10000 2.6 240 05:52 21.05.2020
2876 Clear 1 1025 80 10000 3.1 230 04:29 21.05.2020
2877 Clear -1 1025 86 10000 3.6 210 03:21 21.05.2020
2878 Clear -1 1025 86 10000 3.6 210 03:21 21.05.2020
2879 Clear -1 1025 86 10000 3.6 210 03:21 21.05.2020
2880 Clear 0 1025 94 10000 2.1 200 02:33 21.05.2020
2881 Clear -1 1025 86 10000 1.5 190 01:58 21.05.2020
2882 Clear 1 1025 80 10000 1.5 200 01:39 21.05.2020
2883 Clear 1 1025 80 10000 1.5 200 01:18 21.05.2020
2884 Clear 0 1025 94 10000 1 120 00:41 21.05.2020
2885 Clear 0 1025 94 10000 1 120 00:21 21.05.2020
2886 Clear 1 1024 80 10000 1.5 90 23:40 20.05.2020
2887 Clouds 1 1024 80 10000 1.5 90 23:19 20.05.2020
2888 Clouds 1 1024 80 10000 1.5 90 22:55 20.05.2020
2889 Clouds 1 1024 80 10000 2.1 80 22:37 20.05.2020
2890 Clouds 1 1024 80 10000 2.1 90 22:19 20.05.2020
2891 Clouds 2 1024 74 10000 1.5 100 21:40 20.05.2020
2892 Clear 2 1024 74 10000 1.5 100 21:20 20.05.2020
2893 Clouds 2 1024 74 10000 2.1 80 20:44 20.05.2020
2894 Clouds 2 1024 74 10000 2.1 80 20:24 20.05.2020
2895 Clouds 3 1024 69 10000 1.5 0 19:56 20.05.2020
2896 Clouds 3 1024 69 10000 1 90 19:37 20.05.2020
2897 Clouds 3 1024 69 10000 1 90 19:19 20.05.2020
2898 Clouds 5 1024 60 10000 1 320 18:43 20.05.2020
2899 Clouds 5 1024 60 10000 1 320 18:23 20.05.2020
2900 Clouds 5 1023 60 10000 2.6 330 17:42 20.05.2020
2901 Clouds 5 1023 60 10000 2.6 340 17:22 20.05.2020
2902 Clouds 5 1023 60 10000 2.6 340 17:22 20.05.2020
2903 Clouds 5 1023 60 10000 2.6 340 16:57 20.05.2020
2904 Clouds 5 1023 60 10000 2.6 320 16:39 20.05.2020
2905 Clouds 5 1023 60 10000 2.6 320 16:20 20.05.2020
2906 Clouds 5 1023 60 10000 2.6 320 15:44 20.05.2020
2907 Clouds 5 1023 60 10000 2.6 320 15:25 20.05.2020
2908 Clouds 5 1023 60 10000 3.1 330 14:45 20.05.2020
2909 Clouds 5 1023 60 10000 3.1 330 14:26 20.05.2020
2910 Clouds 4 1023 64 10000 2.6 330 13:59 20.05.2020
2911 Clouds 4 1023 64 10000 3.1 330 13:39 20.05.2020
2912 Clouds 4 1023 64 10000 3.1 330 13:18 20.05.2020
2913 Rain 4 1022 69 10000 2.6 320 12:42 20.05.2020
2914 Rain 4 1022 69 10000 2.6 320 12:21 20.05.2020
2915 Clouds 4 1022 92 10000 3.1 330 11:39 20.05.2020
2916 Clouds 4 1022 94 10000 3.1 330 11:20 20.05.2020
2917 Rain 3 1022 94 10000 2.6 300 10:55 20.05.2020
2918 Rain 3 1021 74 10000 4.1 320 10:37 20.05.2020
2919 Rain 3 1021 74 10000 4.1 320 10:19 20.05.2020
2920 Rain 3 1021 95 10000 3.6 330 09:41 20.05.2020
2921 Rain 3 1021 97 10000 3.6 330 09:20 20.05.2020
2922 Rain 2 1020 94 10000 3.6 300 08:42 20.05.2020
2923 Rain 2 1020 95 10000 3.6 300 08:20 20.05.2020
2924 Clouds 2 1020 95 10000 3.6 330 07:50 20.05.2020
2925 Rain 2 1020 97 10000 4.6 300 07:25 20.05.2020
2926 Rain 2 1020 97 10000 5.1 290 06:55 20.05.2020
2927 Clouds 2 1020 98 10000 4.6 290 06:24 20.05.2020
2928 Snow 1 1019 98 10000 3.6 290 04:59 20.05.2020
2929 Snow 1 1019 99 10000 3.6 280 04:19 20.05.2020
2930 Rain 1 1019 99 10000 3.6 320 03:36 20.05.2020
2931 Snow 1 1018 98 10000 2.1 330 01:57 20.05.2020
2932 Snow 1 1018 98 10000 2.6 350 01:24 20.05.2020
2933 Snow 1 1018 98 10000 2.6 340 00:41 20.05.2020
2934 Snow 1 1018 97 10000 2.6 340 00:22 20.05.2020
2935 Rain 2 1018 80 10000 3.1 350 23:38 19.05.2020
2936 Rain 2 1018 80 10000 3.1 350 23:19 19.05.2020
2937 Rain 2 1017 80 10000 3.6 350 22:55 19.05.2020
2938 Rain 2 1017 97 10000 3.6 340 22:37 19.05.2020
2939 Rain 2 1017 96 10000 3.6 340 22:18 19.05.2020
2940 Rain 1 1017 96 10000 3.1 350 21:55 19.05.2020
2941 Rain 2 1017 96 10000 3.6 360 21:36 19.05.2020
2942 Rain 2 1017 97 10000 4.6 360 21:18 19.05.2020
2943 Rain 2 1017 97 10000 4.6 360 20:56 19.05.2020
2944 Rain 2 1016 97 10000 4.1 360 20:38 19.05.2020
2945 Rain 2 1016 97 10000 4.1 360 20:19 19.05.2020
2946 Rain 2 1016 93 10000 4.1 360 19:39 19.05.2020
2947 Rain 2 1016 93 10000 4.1 360 19:20 19.05.2020
2948 Rain 3 1016 86 10000 4.1 360 18:45 19.05.2020
2949 Rain 3 1016 86 10000 4.1 360 18:23 19.05.2020
2950 Rain 3 1016 86 10000 3.6 340 17:59 19.05.2020
2951 Drizzle 2 1015 94 10000 4.1 340 17:40 19.05.2020
2952 Drizzle 2 1015 92 10000 4.1 340 17:20 19.05.2020
2953 Clouds 3 1015 92 10000 4.6 330 16:56 19.05.2020
2954 Rain 4 1015 80 10000 2.6 330 16:37 19.05.2020
2955 Rain 4 1015 80 10000 2.6 330 16:19 19.05.2020
2956 Clouds 4 1015 92 10000 3.6 330 15:43 19.05.2020
2957 Clouds 4 1015 91 10000 3.6 330 15:20 19.05.2020
2958 Clouds 5 1014 65 10000 2.6 330 14:55 19.05.2020
2959 Clouds 5 1014 89 10000 2.1 330 14:37 19.05.2020
2960 Clouds 5 1014 89 10000 2.1 330 14:19 19.05.2020
2961 Rain 4 1014 89 10000 2.1 330 13:56 19.05.2020
2962 Clouds 4 1014 89 10000 3.1 330 13:37 19.05.2020
2963 Clouds 4 1014 89 10000 3.1 330 13:37 19.05.2020
2964 Clouds 4 1014 89 10000 3.1 330 13:18 19.05.2020
2965 Clouds 4 1014 69 10000 1.5 0 12:56 19.05.2020
2966 Clouds 4 1014 89 10000 1.5 30 12:36 19.05.2020
2967 Clouds 4 1014 90 10000 1.5 30 12:18 19.05.2020
2968 Clouds 4 1013 90 10000 2.1 20 11:42 19.05.2020
2969 Clouds 4 1013 90 10000 2.1 20 11:22 19.05.2020
2970 Clouds 4 1013 90 10000 1.5 10 10:56 19.05.2020
2971 Clouds 3 1013 74 10000 2.1 40 10:38 19.05.2020
2972 Clouds 3 1013 74 10000 2.1 40 10:18 19.05.2020
2973 Rain 2 1013 91 10000 2.1 50 09:44 19.05.2020
2974 Rain 2 1013 91 10000 2.1 50 09:25 19.05.2020
2975 Clouds 2 1012 93 10000 1 0 08:47 19.05.2020
2976 Clouds 2 1012 93 10000 1 0 08:25 19.05.2020
2977 Clouds 2 1012 93 10000 1 0 08:25 19.05.2020
2978 Rain 2 1012 92 10000 2.6 30 07:49 19.05.2020
2979 Rain 2 1012 93 10000 2.1 40 07:28 19.05.2020
2980 Drizzle 1 1012 100 10000 3.1 50 06:55 19.05.2020
2981 Drizzle 1 1012 100 10000 3.1 50 06:55 19.05.2020
2982 Rain 1 1012 100 6000 3.6 50 06:32 19.05.2020
2983 Rain 1 1012 94 5000 3.6 70 05:53 19.05.2020
2984 Rain 1 1012 94 5000 3.6 70 05:35 19.05.2020
2985 Clouds 1 1011 95 7000 5.1 60 04:50 19.05.2020
2986 Clouds 2 1011 97 10000 2.6 80 02:59 19.05.2020
2987 Clouds 2 1011 98 10000 6.2 80 00:59 19.05.2020
2988 Clouds 2 1011 93 10000 6.7 90 00:36 19.05.2020
2989 Clouds 2 1011 93 10000 6.7 90 00:18 19.05.2020
2990 Drizzle 1 1011 99 10000 6.7 90 23:40 18.05.2020
2991 Drizzle 1 1011 97 10000 6.7 90 23:20 18.05.2020
2992 Drizzle 2 1011 93 10000 6.2 90 22:56 18.05.2020
2993 Drizzle 2 1011 93 10000 6.2 90 22:56 18.05.2020
2994 Drizzle 2 1011 93 10000 5.7 80 22:38 18.05.2020
2995 Drizzle 2 1011 93 10000 5.7 80 22:19 18.05.2020
2996 Drizzle 2 1010 93 10000 2.6 70 21:42 18.05.2020
2997 Drizzle 2 1010 93 10000 2.6 70 21:21 18.05.2020
2998 Clouds 2 1010 94 10000 2.6 80 20:57 18.05.2020
2999 Clouds 2 1010 93 10000 2.6 80 20:37 18.05.2020
3000 Clouds 2 1010 93 10000 2.6 80 20:19 18.05.2020
3001 Clouds 2 1010 93 10000 2.6 80 19:54 18.05.2020
3002 Clouds 2 1010 91 10000 3.6 90 19:36 18.05.2020
3003 Clouds 2 1010 89 10000 3.6 90 19:18 18.05.2020
3004 Clouds 3 1010 89 10000 3.1 70 18:43 18.05.2020
3005 Clouds 3 1010 87 10000 3.1 70 18:20 18.05.2020
3006 Clouds 4 1010 80 10000 4.1 50 17:39 18.05.2020
3007 Clouds 4 1010 80 10000 4.1 50 17:18 18.05.2020
3008 Clouds 3 1010 87 10000 3.6 50 16:56 18.05.2020
3009 Clouds 4 1010 69 10000 4.1 60 16:37 18.05.2020
3010 Clouds 4 1010 69 10000 4.1 60 16:18 18.05.2020
3011 Clouds 3 1010 74 10000 4.1 90 15:54 18.05.2020
3012 Clouds 3 1010 74 10000 5.7 90 15:36 18.05.2020
3013 Clouds 3 1010 74 10000 5.7 90 15:18 18.05.2020
3014 Clouds 4 1009 69 10000 4.1 110 14:42 18.05.2020
3015 Clouds 3 1009 74 10000 4.1 120 14:23 18.05.2020
3016 Clouds 3 1009 74 10000 4.1 120 13:57 18.05.2020
3017 Clouds 4 1009 69 10000 4.1 120 13:38 18.05.2020
3018 Clouds 4 1009 69 10000 4.1 120 13:19 18.05.2020
3019 Clouds 3 1009 74 10000 5.1 120 12:55 18.05.2020
3020 Clouds 3 1009 69 10000 5.7 120 12:37 18.05.2020
3021 Clouds 3 1009 69 10000 5.7 120 12:18 18.05.2020
3022 Clouds 3 1008 69 10000 5.1 110 11:46 18.05.2020
3023 Clouds 3 1008 69 10000 4.1 120 11:26 18.05.2020
3024 Clouds 3 1008 69 10000 3.1 110 10:55 18.05.2020
3025 Clouds 2 1007 80 10000 2.6 100 10:37 18.05.2020
3026 Clouds 2 1007 80 10000 2.6 100 10:19 18.05.2020
3027 Clear 2 1007 80 10000 5.1 100 09:42 18.05.2020
3028 Clear 2 1007 80 10000 5.1 100 09:23 18.05.2020
3029 Clear 2 1006 74 10000 4.1 100 08:42 18.05.2020
3030 Clear 2 1006 74 10000 4.1 100 08:24 18.05.2020
3031 Clear 1 1006 80 10000 4.1 120 07:50 18.05.2020
3032 Clear 2 1006 74 10000 3.6 120 07:26 18.05.2020
3033 Clear 1 1006 74 10000 3.6 120 06:50 18.05.2020
3034 Clear 0 1006 94 10000 3.6 140 06:32 18.05.2020
3035 Clear 0 1006 95 10000 3.1 150 05:49 18.05.2020
3036 Clear 0 1006 95 10000 3.6 150 04:42 18.05.2020
3037 Clouds 0 1005 95 10000 3.1 180 03:30 18.05.2020
3038 Clouds 0 1005 96 10000 3.1 180 02:19 18.05.2020
3039 Clouds 0 1004 96 10000 2.6 160 00:55 18.05.2020
3040 Clouds 0 1004 96 10000 2.1 160 00:23 18.05.2020
3041 Clouds 1 1004 86 10000 2.6 180 23:57 17.05.2020
3042 Clouds 1 1004 96 10000 3.6 160 23:38 17.05.2020
3043 Clouds 1 1004 94 10000 3.6 160 23:19 17.05.2020
3044 Rain 1 1004 94 10000 1 0 22:56 17.05.2020
3045 Rain 1 1004 94 10000 4.1 200 22:37 17.05.2020
3046 Rain 1 1004 94 10000 4.1 200 22:18 17.05.2020
3047 Rain 1 1004 94 10000 4.1 200 22:18 17.05.2020
3048 Clouds 1 1004 94 10000 5.1 230 21:43 17.05.2020
3049 Clouds 1 1004 93 10000 5.1 230 21:21 17.05.2020
3050 Clouds 1 1004 93 10000 5.1 230 21:21 17.05.2020
3051 Clouds 1 1003 96 10000 5.1 230 20:59 17.05.2020
3052 Rain 1 1004 96 10000 5.7 230 20:41 17.05.2020
3053 Rain 1 1004 96 10000 5.7 230 20:20 17.05.2020
3054 Drizzle 1 1003 96 10000 5.1 240 19:56 17.05.2020
3055 Rain 1 1003 96 10000 4.6 260 19:37 17.05.2020
3056 Rain 1 1003 97 10000 4.6 260 19:19 17.05.2020
3057 Rain 1 1003 100 10000 3.6 260 18:41 17.05.2020
3058 Rain 1 1003 100 10000 3.6 260 18:23 17.05.2020
3059 Rain 1 1003 97 6000 3.6 270 17:58 17.05.2020
3060 Rain 1 1003 97 7000 4.1 290 17:39 17.05.2020
3061 Rain 1 1003 98 7000 4.1 290 17:18 17.05.2020
3062 Rain 1 1003 98 8000 6.7 270 16:40 17.05.2020
3063 Rain 1 1003 98 8000 6.7 270 16:20 17.05.2020
3064 Snow 1 1003 98 4500 4.6 300 15:57 17.05.2020
3065 Snow 1 1004 98 2300 7.7 300 15:38 17.05.2020
3066 Snow 1 1004 97 2300 7.7 300 15:20 17.05.2020
3067 Rain 2 1003 97 10000 5.7 310 14:43 17.05.2020
3068 Rain 2 1003 97 10000 5.7 310 14:24 17.05.2020
3069 Rain 1 1003 97 5000 5.1 330 13:58 17.05.2020
3070 Snow 1 1003 97 4300 4.1 310 13:40 17.05.2020
3071 Rain 2 1004 98 7000 5.7 310 13:19 17.05.2020
3072 Drizzle 1 1005 97 10000 6.7 60 04:41 17.05.2020
3073 Rain 1 1005 97 9000 5.1 60 02:46 17.05.2020
3074 Rain 1 1006 97 10000 5.1 80 02:20 17.05.2020
3075 Rain 1 1006 97 10000 5.7 60 01:47 17.05.2020
3076 Drizzle 1 1006 98 10000 4.6 60 00:40 17.05.2020
3077 Drizzle 1 1006 97 10000 4.6 60 00:20 17.05.2020
3078 Drizzle 1 1006 100 10000 6.2 70 23:40 16.05.2020
3079 Drizzle 1 1006 100 10000 6.2 70 23:20 16.05.2020
3080 Drizzle 2 1006 97 10000 6.7 50 22:58 16.05.2020
3081 Rain 2 1006 97 10000 7.7 60 22:40 16.05.2020
3082 Rain 2 1006 97 10000 7.7 60 22:20 16.05.2020
3083 Drizzle 2 1006 97 10000 7.2 60 21:46 16.05.2020
3084 Snow 2 1006 97 10000 7.7 80 21:28 16.05.2020
3085 Snow 2 1006 97 10000 8.7 80 20:59 16.05.2020
3086 Snow 3 1006 86 10000 8.7 70 20:41 16.05.2020
3087 Snow 3 1006 86 10000 8.7 70 20:22 16.05.2020
3088 Snow 3 1006 86 10000 8.7 60 19:58 16.05.2020
3089 Snow 3 1006 86 10000 8.2 50 19:40 16.05.2020
3090 Clouds 3 1006 86 10000 8.2 50 19:22 16.05.2020
3091 Clouds 3 1006 86 10000 6.7 60 18:44 16.05.2020
3092 Clouds 3 1006 86 10000 6.7 60 18:25 16.05.2020
3093 Clouds 4 1006 80 10000 7.7 60 17:58 16.05.2020
3094 Clouds 4 1006 80 10000 7.2 60 17:40 16.05.2020
3095 Clouds 4 1006 80 10000 7.2 60 17:20 16.05.2020
3096 Clouds 5 1006 60 10000 5.1 60 16:42 16.05.2020
3097 Clouds 5 1006 60 10000 5.1 60 16:23 16.05.2020
3098 Clouds 5 1006 60 10000 5.1 60 16:23 16.05.2020
3099 Clouds 5 1006 60 10000 4.1 80 15:58 16.05.2020
3100 Clouds 5 1006 60 10000 5.7 70 15:40 16.05.2020
3101 Clouds 5 1006 60 10000 5.7 70 15:20 16.05.2020
3102 Clouds 4 1006 64 10000 4.6 100 14:48 16.05.2020
3103 Clear 5 1006 56 10000 5.7 100 14:21 16.05.2020
3104 Clear 5 1006 56 10000 5.7 100 13:59 16.05.2020
3105 Clear 5 1006 56 10000 8.2 100 13:41 16.05.2020
3106 Clear 5 1006 56 10000 8.2 100 13:41 16.05.2020
3107 Clear 5 1006 56 10000 8.2 100 13:22 16.05.2020
3108 Clear 4 1006 60 10000 5.7 120 12:56 16.05.2020
3109 Clear 4 1006 60 10000 6.7 110 12:38 16.05.2020
3110 Clear 3 1006 64 10000 6.2 110 12:18 16.05.2020
3111 Clear 4 1006 60 10000 5.7 110 11:40 16.05.2020
3112 Clear 4 1006 60 10000 5.7 110 11:22 16.05.2020
3113 Clear 4 1005 60 10000 6.2 120 10:56 16.05.2020
3114 Clear 4 1005 60 10000 6.7 110 10:38 16.05.2020
3115 Clear 4 1005 60 10000 6.7 110 10:19 16.05.2020
3116 Clear 3 1005 59 10000 6.2 120 09:46 16.05.2020
3117 Clear 3 1005 59 10000 6.2 120 09:27 16.05.2020
3118 Clear 4 1004 51 10000 6.7 110 08:46 16.05.2020
3119 Clouds 3 1004 59 10000 8.2 110 08:24 16.05.2020
3120 Clouds 3 1004 55 10000 12.3 140 07:58 16.05.2020
3121 Clouds 3 1003 55 10000 11.3 130 07:40 16.05.2020
3122 Clouds 3 1003 55 10000 11.3 130 07:21 16.05.2020
3123 Clouds 2 1003 59 10000 11.3 120 06:46 16.05.2020
3124 Clouds 1 1003 64 10000 10.8 130 06:19 16.05.2020
3125 Clouds 2 1002 59 10000 12.3 140 05:41 16.05.2020
3126 Clouds 3 1002 51 10000 13.9 150 04:53 16.05.2020
3127 Clouds 2 1002 55 10000 12.9 150 03:26 16.05.2020
3128 Clouds 2 1001 55 10000 15.9 150 02:39 16.05.2020
3129 Clouds 2 1001 55 10000 15.9 150 02:18 16.05.2020
3130 Clouds 2 1000 59 10000 15.4 150 01:39 16.05.2020
3131 Clouds 2 999 64 10000 14.4 150 00:57 16.05.2020
3132 Clouds 2 999 64 10000 14.4 150 00:57 16.05.2020
3133 Clouds 1 999 69 10000 14.9 150 00:38 16.05.2020
3134 Clouds 1 999 69 10000 14.9 150 00:19 16.05.2020
3135 Clouds 2 998 64 10000 17 160 23:39 15.05.2020
3136 Clouds 2 998 64 10000 17 160 23:19 15.05.2020
3137 Clouds 2 997 69 10000 15.9 150 22:41 15.05.2020
3138 Clouds 2 997 69 10000 15.9 150 22:20 15.05.2020
3139 Clouds 2 997 69 10000 16.5 150 21:57 15.05.2020
3140 Clouds 3 996 64 10000 17.5 150 21:38 15.05.2020
3141 Clouds 3 996 64 10000 17.5 150 21:20 15.05.2020
3142 Clouds 2 995 64 10000 15.9 160 20:55 15.05.2020
3143 Clouds 2 994 69 10000 16.5 170 20:37 15.05.2020
3144 Clouds 2 994 69 10000 16.5 170 20:18 15.05.2020
3145 Clouds 3 993 64 10000 11.3 170 19:43 15.05.2020
3146 Clouds 3 993 64 10000 11.3 170 19:23 15.05.2020
3147 Clouds 3 992 64 10000 16.5 180 18:54 15.05.2020
3148 Clouds 3 992 64 10000 16.5 180 18:54 15.05.2020
3149 Clouds 3 991 64 10000 16.5 190 18:36 15.05.2020
3150 Clouds 3 991 64 10000 11.8 180 18:18 15.05.2020
3151 Clouds 4 991 60 10000 12.3 190 17:37 15.05.2020
3152 Clouds 4 991 60 10000 12.3 190 17:19 15.05.2020
3153 Rain 3 990 64 10000 6.7 200 16:56 15.05.2020
3154 Snow 3 990 69 10000 8.7 190 16:37 15.05.2020
3155 Snow 3 990 69 10000 8.7 190 16:18 15.05.2020
3156 Snow 3 988 69 10000 9.3 190 15:41 15.05.2020
3157 Snow 3 988 69 10000 9.3 190 15:41 15.05.2020
3158 Snow 3 988 69 10000 9.3 190 15:21 15.05.2020
3159 Clouds 3 987 64 10000 7.7 180 14:58 15.05.2020
3160 Snow 3 986 69 10000 7.7 180 14:40 15.05.2020
3161 Snow 3 986 69 10000 7.7 180 14:21 15.05.2020
3162 Rain 3 984 69 10000 9.8 190 13:42 15.05.2020
3163 Rain 3 984 69 10000 9.8 190 13:22 15.05.2020
3164 Rain 3 983 69 10000 12.9 200 12:56 15.05.2020
3165 Rain 3 982 69 10000 15.9 200 12:37 15.05.2020
3166 Rain 3 982 69 10000 15.9 200 12:18 15.05.2020
3167 Rain 2 981 80 10000 11.3 200 11:56 15.05.2020
3168 Rain 2 981 80 10000 14.9 200 11:37 15.05.2020
3169 Rain 2 981 80 10000 14.9 200 11:19 15.05.2020
3170 Rain 2 980 93 10000 11.3 210 10:56 15.05.2020
3171 Rain 1 980 93 10000 13.4 230 10:38 15.05.2020
3172 Rain 1 980 94 10000 13.4 230 10:19 15.05.2020
3173 Snow 0 979 94 6000 15.9 240 09:40 15.05.2020
3174 Snow 0 979 94 6000 15.9 240 09:20 15.05.2020
3175 Snow 0 978 94 2500 6.2 220 08:58 15.05.2020
3176 Snow 0 978 94 2500 6.2 220 08:58 15.05.2020
3177 Snow 0 978 94 1200 5.1 210 08:38 15.05.2020
3178 Snow 0 978 95 1200 5.1 210 08:19 15.05.2020
3179 Snow 0 978 95 2500 5.1 240 07:46 15.05.2020
3180 Snow 0 978 95 2500 5.1 240 07:46 15.05.2020
3181 Snow 1 978 94 2000 3.6 240 07:27 15.05.2020
3182 Snow 0 978 94 4000 3.1 30 06:57 15.05.2020
3183 Snow 1 980 94 1100 7.2 270 05:55 15.05.2020
3184 Snow 1 981 96 1000 8.7 270 04:33 15.05.2020
3185 Snow 1 982 98 2500 8.7 270 03:49 15.05.2020
3186 Snow 1 984 98 5000 8.2 270 02:40 15.05.2020
3187 Snow 1 985 97 2500 8.2 270 01:31 15.05.2020
3188 Snow 0 986 98 2000 8.7 270 00:57 15.05.2020
3189 Snow 0 987 98 800 8.7 270 00:38 15.05.2020
3190 Snow 0 987 97 800 8.7 270 00:20 15.05.2020
3191 Snow 0 989 97 800 8.2 0 23:40 14.05.2020
3192 Snow 0 989 97 800 8.2 0 23:40 14.05.2020
3193 Snow 0 989 98 800 8.2 0 23:18 14.05.2020
3194 Snow 0 991 98 1100 7.7 270 22:41 14.05.2020
3195 Snow 0 991 99 1100 7.7 270 22:21 14.05.2020
3196 Snow 0 992 99 1300 7.7 270 21:58 14.05.2020
3197 Clouds 0 992 99 1100 8.2 0 21:40 14.05.2020
3198 Clouds 0 992 99 1100 8.2 0 21:19 14.05.2020
3199 Clouds 1 993 86 1200 5.7 0 20:56 14.05.2020
3200 Clouds 1 994 80 2200 4.1 0 20:38 14.05.2020
3201 Clouds 1 994 80 2200 4.1 0 20:19 14.05.2020
3202 Snow 1 994 86 2500 4.6 0 19:55 14.05.2020
3203 Clouds 1 994 86 7000 21.1 330 19:37 14.05.2020
3204 Clouds 1 994 86 7000 21.1 330 19:19 14.05.2020
3205 Snow 1 995 86 6000 19.5 330 18:54 14.05.2020
3206 Snow 1 995 86 5000 18 310 18:36 14.05.2020
3207 Snow 1 995 86 5000 18 310 18:18 14.05.2020
3208 Snow 0 996 99 2500 22.1 320 17:55 14.05.2020
3209 Snow 1 996 86 1000 18 310 17:36 14.05.2020
3210 Snow 1 996 86 1000 18 310 17:18 14.05.2020
3211 Rain 1 997 80 10000 18.5 310 16:39 14.05.2020
3212 Snow 2 997 74 10000 18 320 16:20 14.05.2020
3213 Snow 2 997 74 10000 18 320 15:57 14.05.2020
3214 Rain 3 998 69 10000 15.9 320 15:39 14.05.2020
3215 Rain 3 998 69 10000 15.9 320 15:19 14.05.2020
3216 Rain 3 998 64 10000 15.4 320 14:56 14.05.2020
3217 Rain 1 998 80 10000 12.3 310 14:38 14.05.2020
3218 Rain 1 998 80 10000 12.3 310 14:19 14.05.2020
3219 Snow 1 999 80 4000 12.3 320 13:55 14.05.2020
3220 Rain 3 999 59 10000 13.4 310 13:37 14.05.2020
3221 Clouds 3 999 59 10000 12.3 320 13:18 14.05.2020
3222 Clouds 3 999 59 10000 12.3 320 12:56 14.05.2020
3223 Clouds 3 1000 59 10000 12.9 330 12:37 14.05.2020
3224 Clouds 3 1000 59 10000 11.3 320 12:18 14.05.2020
3225 Clouds 4 1000 60 10000 9.8 320 11:42 14.05.2020
3226 Clouds 4 1000 60 10000 9.8 320 11:24 14.05.2020
3227 Clouds 4 1001 55 10000 8.7 320 10:58 14.05.2020
3228 Clouds 3 1001 59 10000 7.7 320 10:40 14.05.2020
3229 Clouds 3 1001 59 10000 7.7 320 10:21 14.05.2020
3230 Clouds 2 1002 64 10000 6.7 320 09:43 14.05.2020
3231 Clouds 2 1002 64 10000 6.7 320 09:24 14.05.2020
3232 Clouds 2 1002 64 10000 5.7 320 08:56 14.05.2020
3233 Clouds 1 1002 64 10000 4.1 310 08:37 14.05.2020
3234 Clouds 1 1002 64 10000 4.1 310 08:18 14.05.2020
3235 Clouds 0 1003 88 10000 3.1 300 07:44 14.05.2020
3236 Clouds 0 1003 90 10000 1.5 330 07:21 14.05.2020
3237 Clouds 0 1003 90 10000 1 330 06:43 14.05.2020
3238 Clouds 0 1003 89 10000 1.5 0 06:23 14.05.2020
3239 Clouds -1 1004 58 10000 0.5 0 05:37 14.05.2020
3240 Clouds -1 1004 54 10000 1 110 04:45 14.05.2020
3241 Clouds -3 1004 58 10000 0.5 160 03:37 14.05.2020
3242 Clouds -2 1004 54 10000 1 190 02:57 14.05.2020
3243 Clouds -2 1004 54 10000 1 190 02:57 14.05.2020
3244 Clouds -2 1005 58 10000 1.5 200 02:34 14.05.2020
3245 Clear -2 1005 58 10000 1.5 180 01:48 14.05.2020
3246 Clear 0 1005 88 10000 2.6 170 00:53 14.05.2020
3247 Clear -2 1005 54 10000 2.1 160 00:27 14.05.2020
3248 Clear 0 1005 89 10000 2.1 130 23:45 13.05.2020
3249 Clear 0 1005 89 10000 2.1 130 23:23 13.05.2020
3250 Clear 0 1005 89 10000 2.6 110 22:59 13.05.2020
3251 Clear 0 1004 89 10000 4.1 150 22:41 13.05.2020
3252 Clear 0 1004 90 10000 4.1 150 22:21 13.05.2020
3253 Clear 0 1004 90 10000 4.1 150 22:21 13.05.2020
3254 Clear 1 1004 55 10000 4.6 150 21:57 13.05.2020
3255 Clear 0 1004 90 10000 4.6 160 21:39 13.05.2020
3256 Clear 0 1004 90 10000 4.6 160 21:39 13.05.2020
3257 Clear 0 1004 90 10000 4.6 160 21:19 13.05.2020
3258 Clear 0 1004 90 10000 2.6 150 20:55 13.05.2020
3259 Clear 2 1004 51 10000 2.1 160 20:37 13.05.2020
3260 Clear 2 1004 51 10000 2.1 160 20:18 13.05.2020
3261 Clear 3 1004 47 10000 4.6 200 19:41 13.05.2020
3262 Clear 3 1004 47 10000 4.6 200 19:22 13.05.2020
3263 Clear 4 1004 44 10000 3.6 200 18:43 13.05.2020
3264 Clear 4 1004 44 10000 3.6 200 18:22 13.05.2020
3265 Clear 4 1004 48 10000 4.1 200 18:22 13.05.2020
3266 Clear 4 1004 48 10000 4.1 200 17:58 13.05.2020
3267 Clear 4 1004 44 10000 4.6 200 17:38 13.05.2020
3268 Clear 4 1004 44 10000 4.6 200 17:18 13.05.2020
3269 Clear 4 1003 44 10000 4.1 190 16:40 13.05.2020
3270 Clear 4 1003 44 10000 4.1 190 16:19 13.05.2020
3271 Clear 3 1003 51 10000 5.1 200 15:55 13.05.2020
3272 Clear 4 1003 44 10000 5.7 190 15:36 13.05.2020
3273 Clear 4 1003 44 10000 5.7 190 15:18 13.05.2020
3274 Clear 4 1002 44 10000 6.2 180 14:42 13.05.2020
3275 Clear 4 1002 44 10000 6.2 180 14:42 13.05.2020
3276 Clear 3 1002 47 10000 7.2 190 14:24 13.05.2020
3277 Clear 3 1002 47 10000 7.2 190 13:59 13.05.2020
3278 Clear 3 1002 47 10000 7.7 190 13:41 13.05.2020
3279 Clear 3 1002 47 10000 7.7 190 13:22 13.05.2020
3280 Clear 3 1001 47 10000 6.7 190 12:58 13.05.2020
3281 Clear 3 1001 47 10000 6.7 200 12:39 13.05.2020
3282 Clear 3 1001 47 10000 6.7 200 12:20 13.05.2020
3283 Clear 3 1001 51 10000 7.7 190 11:56 13.05.2020
3284 Clear 3 1001 51 10000 8.2 190 11:37 13.05.2020
3285 Clear 3 1001 51 10000 8.2 190 11:19 13.05.2020
3286 Clear 3 1001 51 10000 7.7 190 10:57 13.05.2020
3287 Clear 2 1001 51 10000 8.2 190 10:38 13.05.2020
3288 Clear 2 1001 51 10000 8.2 190 10:19 13.05.2020
3289 Clear 2 1000 55 10000 8.2 200 09:46 13.05.2020
3290 Clouds 2 1000 55 10000 8.2 200 09:24 13.05.2020
3291 Clouds 1 999 59 10000 8.2 200 08:58 13.05.2020
3292 Clouds 1 999 59 10000 8.7 200 08:39 13.05.2020
3293 Clouds 1 999 59 10000 8.7 200 08:20 13.05.2020
3294 Clouds 1 999 59 10000 8.7 200 07:51 13.05.2020
3295 Clouds 1 998 59 10000 9.3 210 07:31 13.05.2020
3296 Clouds 1 998 59 10000 9.8 210 06:52 13.05.2020
3297 Clouds 1 998 59 10000 9.3 210 06:33 13.05.2020
3298 Clouds -2 1000 93 0 7.28 215 05:34 13.05.2020
3299 Clouds 1 996 64 10000 8.7 260 03:49 13.05.2020
3300 Rain 0 996 94 10000 11.3 200 02:37 13.05.2020
3301 Clouds 0 995 93 10000 12.3 200 01:46 13.05.2020
3302 Clouds -1 995 74 10000 12.3 200 00:58 13.05.2020
3303 Rain -1 994 74 10000 8.7 200 00:23 13.05.2020
3304 Rain -1 994 80 10000 10.8 240 23:58 12.05.2020
3305 Rain -1 994 86 10000 10.8 250 23:39 12.05.2020
3306 Rain -1 994 86 10000 10.8 250 23:18 12.05.2020
3307 Snow -2 994 100 1500 12.3 240 22:42 12.05.2020
3308 Snow -2 994 100 1500 12.3 240 22:22 12.05.2020
3309 Snow -2 994 92 3000 9.8 250 21:57 12.05.2020
3310 Rain -2 994 92 10000 13.4 270 21:38 12.05.2020
3311 Rain -2 994 92 10000 13.4 270 21:20 12.05.2020
3312 Rain -2 994 92 10000 13.4 270 21:20 12.05.2020
3313 Snow -2 993 86 5000 14.9 270 20:59 12.05.2020
3314 Snow -2 993 92 1500 12.9 260 20:39 12.05.2020
3315 Snow -2 993 92 1500 12.9 260 20:21 12.05.2020
3316 Snow -1 992 80 5000 14.4 260 19:58 12.05.2020
3317 Rain -1 992 80 10000 13.4 270 19:40 12.05.2020
3318 Rain -1 992 80 10000 13.4 270 19:21 12.05.2020
3319 Rain -1 992 80 10000 11.8 260 18:56 12.05.2020
3320 Rain -1 992 80 10000 12.3 270 18:38 12.05.2020
3321 Rain -1 992 80 10000 12.3 270 18:20 12.05.2020
3322 Rain -2 991 86 10000 14.9 290 17:43 12.05.2020
3323 Rain -2 991 86 10000 14.9 290 17:24 12.05.2020
3324 Snow -2 991 92 10000 13.9 280 16:47 12.05.2020
3325 Rain -1 991 74 10000 14.9 280 16:26 12.05.2020
3326 Rain -1 991 74 10000 16.5 280 15:56 12.05.2020
3327 Rain -1 991 80 10000 13.9 280 15:38 12.05.2020
3328 Rain -1 991 80 10000 13.9 280 15:38 12.05.2020
3329 Rain -1 990 68 9000 15.9 300 15:19 12.05.2020
3330 Rain -1 990 68 9000 15.9 300 14:57 12.05.2020
3331 Rain 0 990 93 10000 12.9 300 14:38 12.05.2020
3332 Rain 0 990 93 10000 12.9 300 14:20 12.05.2020
3333 Snow -1 990 68 10000 13.9 300 13:58 12.05.2020
3334 Rain -2 990 74 10000 14.9 320 13:39 12.05.2020
3335 Rain -2 990 74 10000 14.9 320 13:19 12.05.2020
3336 Rain -1 990 68 10000 16.5 310 12:57 12.05.2020
3337 Snow -2 989 74 10000 17.5 310 12:39 12.05.2020
3338 Snow -2 989 74 10000 17.5 310 12:21 12.05.2020
3339 Rain -2 989 79 10000 15.9 310 11:58 12.05.2020
3340 Snow -2 989 74 9000 18 310 11:39 12.05.2020
3341 Snow -2 989 74 9000 18 310 11:21 12.05.2020
3342 Rain -2 989 79 9000 16.5 310 10:58 12.05.2020
3343 Snow -2 990 74 10000 16.5 310 10:40 12.05.2020
3344 Snow -2 990 74 10000 16.5 310 10:21 12.05.2020
3345 Snow -2 989 74 1000 18.5 320 09:59 12.05.2020
3346 Snow -3 989 86 2500 17.5 310 09:39 12.05.2020
3347 Snow -3 989 86 2500 17.5 310 09:20 12.05.2020
3348 Snow -3 990 86 10000 19 320 08:54 12.05.2020
3349 Snow -2 990 79 9000 11.8 320 08:36 12.05.2020
3350 Snow -2 990 79 9000 11.8 320 08:18 12.05.2020
3351 Rain -2 990 74 10000 12.3 320 07:41 12.05.2020
3352 Rain -2 990 74 10000 12.3 320 07:22 12.05.2020
3353 Rain -2 990 79 10000 13.9 330 06:47 12.05.2020
3354 Rain -2 990 79 10000 13.9 330 06:27 12.05.2020
3355 Rain -1 990 80 10000 15.9 340 05:50 12.05.2020
3356 Snow -1 990 74 10000 6.7 350 05:30 12.05.2020
3357 Snow -1 990 80 8000 9.3 360 03:27 12.05.2020
3358 Snow 0 990 95 5000 10.3 360 02:41 12.05.2020
3359 Snow -1 990 86 4600 10.3 360 02:18 12.05.2020
3360 Snow 0 990 95 3000 10.3 350 01:26 12.05.2020
3361 Snow 0 990 98 2200 11.8 350 00:27 12.05.2020
3362 Clouds 0 990 98 3500 11.3 360 23:58 11.05.2020
3363 Clouds 0 990 98 1400 11.3 360 23:40 11.05.2020
3364 Clouds 0 990 98 1400 11.3 360 23:20 11.05.2020
3365 Clouds 0 990 98 1000 11.3 350 22:59 11.05.2020
3366 Clouds 0 990 98 1900 9.8 10 22:40 11.05.2020
3367 Clouds 0 990 99 1900 9.8 10 22:20 11.05.2020
3368 Clouds 0 990 99 1800 10.3 360 21:58 11.05.2020
3369 Clouds 0 990 99 2100 10.3 360 21:40 11.05.2020
3370 Clouds 0 990 99 2100 10.3 360 21:19 11.05.2020
3371 Clouds 0 990 99 2100 10.3 360 21:19 11.05.2020
3372 Clouds 0 990 99 1700 10.3 10 20:59 11.05.2020
3373 Snow 0 990 99 800 9.8 360 20:40 11.05.2020
3374 Snow 0 990 99 800 9.8 360 20:21 11.05.2020
3375 Snow 0 990 99 2100 10.8 360 19:55 11.05.2020
3376 Clouds 0 990 99 2200 9.3 10 19:37 11.05.2020
3377 Clouds 0 990 99 2200 9.3 10 19:19 11.05.2020
3378 Snow 0 990 99 1000 9.8 10 18:55 11.05.2020
3379 Snow 0 990 99 1000 8.7 360 18:37 11.05.2020
3380 Snow 0 990 99 1000 8.7 360 18:18 11.05.2020
3381 Snow 0 991 99 1200 10.3 360 17:55 11.05.2020
3382 Snow 0 991 99 1100 10.3 360 17:36 11.05.2020
3383 Snow 0 991 99 1100 10.3 360 17:36 11.05.2020
3384 Snow 0 991 99 1100 9.3 350 17:18 11.05.2020
3385 Snow 0 991 99 1200 8.7 360 16:41 11.05.2020
3386 Snow 0 991 99 1200 8.7 360 16:22 11.05.2020
3387 Snow 0 992 99 800 18.5 340 15:58 11.05.2020
3388 Snow 0 992 99 2000 19.5 350 15:39 11.05.2020
3389 Snow 0 992 99 2000 19.5 350 15:19 11.05.2020
3390 Snow 0 992 99 2000 19.5 350 15:19 11.05.2020
3391 Clouds 0 992 99 4000 17.5 350 14:54 11.05.2020
3392 Rain 0 993 99 4500 15.9 350 14:36 11.05.2020
3393 Rain 0 993 99 4500 15.9 350 14:36 11.05.2020
3394 Rain 0 993 99 4500 15.9 350 14:18 11.05.2020
3395 Rain 1 994 80 10000 11.3 360 13:41 11.05.2020
3396 Rain 0 994 98 10000 12.3 10 13:19 11.05.2020
3397 Rain 0 994 98 10000 12.3 10 12:58 11.05.2020
3398 Clouds 0 994 98 9000 10.3 10 12:40 11.05.2020
3399 Clouds 0 994 97 9000 10.3 10 12:21 11.05.2020
3400 Snow 0 994 97 3000 12.9 10 11:56 11.05.2020
3401 Snow 0 995 97 3500 9.3 20 11:37 11.05.2020
3402 Snow 0 995 93 3500 9.3 20 11:19 11.05.2020
3403 Snow 1 995 86 6000 8.7 30 10:55 11.05.2020
3404 Snow 0 995 93 4500 9.3 30 10:37 11.05.2020
3405 Snow 0 995 98 4500 9.3 30 10:18 11.05.2020
3406 Snow 0 996 98 2000 8.2 20 09:54 11.05.2020
3407 Snow 0 996 98 4000 8.7 10 09:36 11.05.2020
3408 Snow 0 996 93 4000 8.7 10 09:18 11.05.2020
3409 Snow 1 997 80 10000 6.7 20 08:39 11.05.2020
3410 Snow 1 997 80 10000 6.7 20 08:19 11.05.2020
3411 Clouds 1 997 74 10000 6.2 20 07:50 11.05.2020
3412 Clouds 0 997 92 10000 4.1 360 07:32 11.05.2020
3413 Clouds 0 997 92 10000 4.1 360 07:32 11.05.2020
3414 Clouds 0 998 91 10000 4.1 40 06:55 11.05.2020
3415 Clouds 0 998 91 10000 3.1 60 06:31 11.05.2020
3416 Clouds -2 999 86 10000 3.6 90 05:44 11.05.2020
3417 Clouds -2 999 86 10000 3.6 90 05:19 11.05.2020
3418 Clouds -3 1000 79 10000 2.6 110 03:47 11.05.2020
3419 Clouds -2 1001 74 10000 1.5 0 02:35 11.05.2020
3420 Clouds -2 1001 79 10000 1 0 01:55 11.05.2020
3421 Clouds -1 1002 74 10000 3.1 200 00:54 11.05.2020
3422 Clouds -1 1002 74 10000 4.1 200 00:27 11.05.2020
3423 Clouds 0 1002 88 10000 4.1 190 23:56 10.05.2020
3424 Clouds 0 1003 88 10000 4.6 190 23:37 10.05.2020
3425 Clouds 0 1003 88 10000 4.6 190 23:18 10.05.2020
3426 Clouds 1 1003 64 10000 2.1 200 22:42 10.05.2020
3427 Clouds 1 1003 64 10000 2.1 200 22:24 10.05.2020
3428 Clouds 1 1003 59 10000 3.1 180 21:55 10.05.2020
3429 Clouds 1 1003 55 10000 4.1 190 21:37 10.05.2020
3430 Clouds 1 1003 55 10000 4.1 190 21:18 10.05.2020
3431 Clouds 1 1004 55 10000 2.6 180 20:41 10.05.2020
3432 Clouds 1 1004 55 10000 2.6 180 20:23 10.05.2020
3433 Clouds 2 1004 51 10000 3.1 180 19:56 10.05.2020
3434 Clouds 2 1004 51 10000 3.6 170 19:38 10.05.2020
3435 Clouds 2 1004 51 10000 3.6 170 19:20 10.05.2020
3436 Clouds 2 1004 51 10000 6.2 190 18:54 10.05.2020
3437 Clouds 2 1004 51 10000 6.2 190 18:54 10.05.2020
3438 Clouds 3 1004 47 10000 5.7 200 18:36 10.05.2020
3439 Clouds 3 1004 47 10000 5.7 200 18:36 10.05.2020
3440 Clouds 3 1004 47 10000 5.7 200 18:18 10.05.2020
3441 Clouds 3 1004 44 10000 5.7 200 17:56 10.05.2020
3442 Clouds 3 1004 47 10000 5.7 200 17:36 10.05.2020
3443 Clouds 3 1004 47 10000 5.7 200 17:18 10.05.2020
3444 Clouds 3 1004 47 10000 4.1 200 16:43 10.05.2020
3445 Clouds 3 1004 47 10000 4.1 200 16:20 10.05.2020
3446 Clouds 3 1005 47 10000 4.1 210 15:58 10.05.2020
3447 Clouds 3 1005 44 10000 2.6 210 15:38 10.05.2020
3448 Clouds 3 1005 44 10000 2.6 210 15:20 10.05.2020
3449 Clouds 3 1005 44 10000 5.1 180 14:55 10.05.2020
3450 Clouds 3 1005 44 10000 6.2 170 14:37 10.05.2020
3451 Clouds 3 1005 44 10000 6.2 170 14:18 10.05.2020
3452 Clouds 3 1005 44 10000 4.1 170 13:55 10.05.2020
3453 Clouds 2 1005 43 10000 6.7 190 13:36 10.05.2020
3454 Clouds 2 1005 43 10000 6.7 190 13:36 10.05.2020
3455 Clear 2 1005 43 10000 6.7 190 13:18 10.05.2020
3456 Clear 3 1005 47 10000 5.7 180 12:42 10.05.2020
3457 Clouds 3 1005 47 10000 5.7 180 12:21 10.05.2020
3458 Clouds 2 1005 47 10000 7.2 180 11:58 10.05.2020
3459 Clouds 2 1005 51 10000 8.7 190 11:40 10.05.2020
3460 Clear 2 1005 51 10000 8.7 190 11:21 10.05.2020
3461 Clear 2 1005 51 10000 8.2 190 10:55 10.05.2020
3462 Clear 2 1005 51 10000 7.7 190 10:37 10.05.2020
3463 Clear 2 1005 51 10000 7.7 190 10:19 10.05.2020
3464 Clear 1 1005 55 10000 8.7 200 09:42 10.05.2020
3465 Clear 1 1005 55 10000 8.7 200 09:23 10.05.2020
3466 Clear 1 1005 55 10000 8.2 200 08:57 10.05.2020
3467 Clear 1 1005 55 10000 7.7 190 08:39 10.05.2020
3468 Clouds 1 1005 55 10000 7.7 190 08:20 10.05.2020
3469 Clouds 1 1005 55 10000 8.7 200 07:40 10.05.2020
3470 Clouds 1 1005 55 10000 8.7 200 07:19 10.05.2020
3471 Clouds 0 1005 89 10000 8.7 200 06:50 10.05.2020
3472 Clouds 0 1005 89 10000 8.2 200 06:24 10.05.2020
3473 Clouds 0 1005 89 10000 6.7 200 05:45 10.05.2020
3474 Clouds 0 1005 89 10000 6.7 200 04:45 10.05.2020
3475 Clouds 0 1005 89 10000 6.7 200 04:25 10.05.2020
3476 Clouds -1 1006 68 10000 6.2 200 03:47 10.05.2020
3477 Clouds -1 1006 68 10000 6.7 200 02:59 10.05.2020
3478 Clouds -1 1006 68 10000 6.7 200 02:25 10.05.2020
3479 Clouds 0 1006 88 10000 6.7 200 01:58 10.05.2020
3480 Clouds -1 1006 63 10000 4.6 190 01:39 10.05.2020
3481 Clouds -1 1006 63 10000 4.6 190 01:18 10.05.2020
3482 Clouds -1 1006 68 10000 5.7 200 00:52 10.05.2020
3483 Clouds 0 1006 87 10000 6.2 210 00:21 10.05.2020
3484 Clouds 0 1006 87 10000 5.1 210 23:40 09.05.2020
3485 Clouds 0 1006 87 10000 5.1 210 23:40 09.05.2020
3486 Clouds 0 1006 88 10000 5.1 210 23:22 09.05.2020
3487 Clouds 0 1006 88 10000 5.1 200 22:59 09.05.2020
3488 Clouds 1 1006 59 10000 5.7 200 22:40 09.05.2020
3489 Clouds 1 1006 59 10000 5.7 200 22:22 09.05.2020
3490 Clouds 1 1006 59 10000 5.1 200 21:57 09.05.2020
3491 Clouds 1 1006 59 10000 6.2 200 21:39 09.05.2020
3492 Clouds 1 1006 59 10000 6.2 200 21:20 09.05.2020
3493 Clouds 1 1006 59 10000 6.2 200 20:56 09.05.2020
3494 Clouds 2 1006 55 10000 6.7 200 20:38 09.05.2020
3495 Clouds 2 1006 55 10000 6.7 200 20:19 09.05.2020
3496 Clouds 2 1006 55 10000 6.2 200 19:54 09.05.2020
3497 Clouds 2 1006 51 10000 6.7 200 19:36 09.05.2020
3498 Clouds 2 1006 51 10000 6.7 200 19:18 09.05.2020
3499 Clouds 2 1006 55 10000 5.7 200 18:41 09.05.2020
3500 Clouds 2 1006 55 10000 5.7 200 18:21 09.05.2020
3501 Clouds 2 1006 55 10000 7.2 220 17:44 09.05.2020
3502 Clouds 2 1006 55 10000 7.2 220 17:23 09.05.2020
3503 Clouds 2 1006 55 10000 7.7 240 16:56 09.05.2020
3504 Clouds 3 1007 55 10000 7.7 230 16:38 09.05.2020
3505 Clouds 3 1007 55 10000 7.7 230 16:18 09.05.2020
3506 Clouds 2 1006 64 10000 7.2 240 15:42 09.05.2020
3507 Clouds 2 1006 64 10000 7.2 240 15:22 09.05.2020
3508 Clouds 2 1006 64 10000 7.2 240 15:22 09.05.2020
3509 Clouds 2 1006 64 10000 6.7 240 14:56 09.05.2020
3510 Clouds 2 1007 64 10000 5.7 230 14:37 09.05.2020
3511 Clouds 2 1007 64 10000 5.7 230 14:18 09.05.2020
3512 Clouds 2 1006 64 10000 3.6 250 13:55 09.05.2020
3513 Clouds 1 1006 69 10000 5.1 270 13:37 09.05.2020
3514 Clouds 1 1006 69 10000 5.1 270 13:18 09.05.2020
3515 Clouds 1 1006 80 10000 6.7 280 12:39 09.05.2020
3516 Clouds 1 1006 74 10000 6.2 270 12:21 09.05.2020
3517 Clouds 1 1006 80 10000 8.2 260 11:45 09.05.2020
3518 Clouds 1 1006 80 10000 8.2 260 11:20 09.05.2020
3519 Rain 0 1006 92 10000 8.7 260 10:56 09.05.2020
3520 Rain -1 1006 92 10000 10.3 260 10:37 09.05.2020
3521 Rain -1 1006 92 10000 10.3 260 10:19 09.05.2020
3522 Rain 0 1006 93 10000 8.7 240 09:47 09.05.2020
3523 Rain 0 1006 95 10000 9.8 260 09:20 09.05.2020
3524 Clouds 0 1006 95 10000 9.8 240 08:58 09.05.2020
3525 Clouds -1 1005 92 10000 8.7 230 08:40 09.05.2020
3526 Clouds -1 1005 92 10000 8.7 230 08:21 09.05.2020
3527 Clouds 0 1005 96 10000 7.7 230 07:45 09.05.2020
3528 Clouds 0 1005 95 10000 7.7 230 07:27 09.05.2020
3529 Rain -1 1005 86 10000 9.8 250 06:44 09.05.2020
3530 Rain -1 1005 86 10000 9.8 250 06:20 09.05.2020
3531 Clouds -1 1005 86 10000 6.2 220 05:42 09.05.2020
3532 Rain -1 1005 86 10000 7.7 230 03:41 09.05.2020
3533 Clouds -1 1005 86 10000 7.2 240 02:55 09.05.2020
3534 Rain -2 1005 100 10000 8.2 270 02:30 09.05.2020
3535 Rain -1 1005 92 10000 7.2 250 01:51 09.05.2020
3536 Rain -1 1005 92 10000 7.2 250 01:22 09.05.2020
3537 Rain -1 1005 92 10000 8.2 250 00:44 09.05.2020
3538 Rain -1 1005 92 10000 8.2 250 00:24 09.05.2020
3539 Rain -1 1005 86 10000 7.2 220 23:48 08.05.2020
3540 Rain -1 1005 86 10000 6.2 250 23:28 08.05.2020
3541 Rain -1 1005 92 10000 8.7 240 22:57 08.05.2020
3542 Rain 0 1005 91 10000 6.7 260 22:39 08.05.2020
3543 Rain 0 1005 91 10000 6.7 260 22:19 08.05.2020
3544 Clouds 0 1005 91 10000 7.7 250 21:58 08.05.2020
3545 Rain 0 1005 91 10000 7.7 250 21:38 08.05.2020
3546 Rain 0 1005 91 10000 7.7 250 21:18 08.05.2020
3547 Clouds 0 1005 91 10000 6.7 260 20:56 08.05.2020
3548 Clouds -1 1005 92 10000 6.7 270 20:38 08.05.2020
3549 Clouds -1 1005 92 10000 6.7 270 20:19 08.05.2020
3550 Clouds 1 1005 69 10000 6.7 280 19:42 08.05.2020
3551 Clouds 1 1005 74 10000 8.2 290 19:22 08.05.2020
3552 Clouds 1 1005 74 10000 8.2 290 18:50 08.05.2020
3553 Clouds 1 1005 69 10000 8.7 290 18:31 08.05.2020
3554 Clouds 1 1004 69 10000 8.2 270 17:43 08.05.2020
3555 Clouds 1 1004 69 10000 8.2 270 17:21 08.05.2020
3556 Rain 1 1004 69 10000 7.7 270 16:58 08.05.2020
3557 Clouds 1 1004 74 10000 7.7 260 16:39 08.05.2020
3558 Clouds 1 1004 69 10000 8.2 260 16:21 08.05.2020
3559 Clouds 1 1004 69 10000 8.2 260 15:54 08.05.2020
3560 Clouds 2 1004 74 10000 8.2 260 15:36 08.05.2020
3561 Clouds 2 1004 74 10000 8.2 260 15:18 08.05.2020
3562 Clouds 2 1004 74 10000 8.2 260 15:18 08.05.2020
3563 Clouds 1 1004 86 10000 7.7 260 14:41 08.05.2020
3564 Clouds 1 1004 86 10000 7.7 260 14:41 08.05.2020
3565 Clouds 1 1004 86 10000 7.7 260 14:20 08.05.2020
3566 Rain 1 1004 86 10000 6.7 240 13:57 08.05.2020
3567 Rain 1 1004 86 10000 6.7 240 13:57 08.05.2020
3568 Rain 1 1004 86 10000 6.7 250 13:39 08.05.2020
3569 Rain 1 1004 86 10000 6.7 250 13:19 08.05.2020
3570 Rain 1 1003 80 10000 8.7 260 12:45 08.05.2020
3571 Rain 1 1003 80 10000 8.7 260 12:24 08.05.2020
3572 Rain 1 1003 74 10000 6.2 260 11:55 08.05.2020
3573 Snow 0 1003 89 10000 7.7 270 11:37 08.05.2020
3574 Snow 0 1003 89 10000 7.7 270 11:37 08.05.2020
3575 Snow 0 1003 88 10000 7.7 270 11:18 08.05.2020
3576 Rain 1 1003 74 10000 7.7 280 10:45 08.05.2020
3577 Rain 1 1003 74 10000 7.7 280 10:22 08.05.2020
3578 Rain 1 1003 74 10000 11.3 290 10:00 08.05.2020
3579 Clouds 2 1003 74 10000 8.7 290 09:40 08.05.2020
3580 Clouds 2 1003 74 10000 8.7 290 09:19 08.05.2020
3581 Clouds 2 1003 74 10000 8.7 290 09:19 08.05.2020
3582 Clouds 1 1003 80 10000 7.7 290 08:51 08.05.2020
3583 Clouds 0 1003 88 10000 7.7 310 08:25 08.05.2020
3584 Snow 0 1003 88 1500 10.8 280 07:54 08.05.2020
3585 Clouds 0 1003 88 10000 2.1 0 07:36 08.05.2020
3586 Clouds 0 1003 89 10000 2.1 0 07:18 08.05.2020
3587 Clouds 0 1003 89 10000 10.3 290 06:39 08.05.2020
3588 Clouds 0 1003 90 10000 10.3 290 06:18 08.05.2020
3589 Rain 1 1003 86 10000 9.8 300 05:29 08.05.2020
3590 Rain 2 1002 89 10000 14.9 290 03:21 08.05.2020
3591 Rain 2 1002 88 10000 14.9 290 02:29 08.05.2020
3592 Clouds 1 1002 88 10000 17 300 01:39 08.05.2020
3593 Clouds 1 1002 87 10000 17 300 01:20 08.05.2020
3594 Rain 2 1002 93 10000 5.1 270 00:47 08.05.2020
3595 Rain 2 1002 93 10000 5.1 270 00:25 08.05.2020
3596 Rain 2 1002 87 10000 14.9 280 23:56 07.05.2020
3597 Clouds 2 1002 87 9000 17 290 23:37 07.05.2020
3598 Clouds 2 1001 93 10000 4.1 240 23:19 07.05.2020
3599 Clouds 2 1001 93 10000 15.4 290 22:41 07.05.2020
3600 Clouds 2 1001 93 10000 15.4 290 22:20 07.05.2020
3601 Rain 3 1001 86 8000 12.9 300 21:57 07.05.2020
3602 Rain 3 1001 86 8000 12.9 300 21:57 07.05.2020
3603 Rain 3 1001 86 10000 12.3 290 21:38 07.05.2020
3604 Rain 3 1001 86 10000 12.3 290 21:38 07.05.2020
3605 Rain 3 1001 86 10000 12.3 290 21:20 07.05.2020
3606 Rain 2 1001 93 9000 9.8 280 20:57 07.05.2020
3607 Clouds 2 1001 93 8000 8.7 280 20:38 07.05.2020
3608 Clouds 2 1001 93 8000 8.7 280 20:19 07.05.2020
3609 Clouds 2 1000 93 10000 6.7 240 19:47 07.05.2020
3610 Clouds 1 1000 100 10000 9.8 260 19:23 07.05.2020
3611 Clouds 2 1000 93 10000 12.9 270 18:56 07.05.2020
3612 Rain 2 1000 93 10000 12.3 260 18:38 07.05.2020
3613 Rain 2 1000 93 10000 12.3 260 18:20 07.05.2020
3614 Rain 2 999 93 9000 12.9 260 17:41 07.05.2020
3615 Rain 2 999 93 10000 12.3 270 17:20 07.05.2020
3616 Clouds 3 999 86 10000 15.9 290 16:43 07.05.2020
3617 Clouds 3 999 86 10000 15.9 290 16:19 07.05.2020
3618 Clouds 4 999 93 10000 15.9 290 15:58 07.05.2020
3619 Clouds 4 998 80 10000 16.5 290 15:39 07.05.2020
3620 Clouds 4 998 80 10000 16.5 290 15:18 07.05.2020
3621 Clouds 4 998 80 10000 15.4 290 14:57 07.05.2020
3622 Rain 4 997 80 10000 14.4 290 14:39 07.05.2020
3623 Rain 4 997 80 10000 14.4 290 14:18 07.05.2020
3624 Rain 3 997 86 10000 5.1 260 13:42 07.05.2020
3625 Rain 3 997 86 10000 7.2 260 13:24 07.05.2020
3626 Snow 4 997 93 10000 15.9 290 12:43 07.05.2020
3627 Rain 3 996 86 10000 12.9 280 12:20 07.05.2020
3628 Rain 3 996 86 10000 12.9 280 11:57 07.05.2020
3629 Rain 4 996 80 10000 14.9 290 11:38 07.05.2020
3630 Rain 4 996 80 10000 14.9 290 11:20 07.05.2020
3631 Rain 3 995 86 10000 11.8 280 10:40 07.05.2020
3632 Rain 4 995 88 10000 13.4 290 10:21 07.05.2020
3633 Clouds 4 995 88 10000 12.3 290 09:41 07.05.2020
3634 Clouds 4 995 87 10000 12.3 290 09:20 07.05.2020
3635 Rain 3 994 87 10000 13.4 290 08:56 07.05.2020
3636 Rain 3 994 86 10000 15.4 300 08:38 07.05.2020
3637 Rain 3 994 86 10000 15.4 300 08:19 07.05.2020
3638 Rain 3 993 93 10000 19 290 07:44 07.05.2020
3639 Rain 3 993 93 10000 19 290 07:25 07.05.2020
3640 Rain 3 993 93 10000 15.4 290 06:48 07.05.2020
3641 Rain 3 993 86 10000 12.9 290 06:24 07.05.2020
3642 Drizzle 3 992 86 10000 12.3 290 05:30 07.05.2020
3643 Rain 2 991 93 10000 9.3 240 03:55 07.05.2020
3644 Rain 3 991 86 10000 9.3 240 03:25 07.05.2020
3645 Rain 3 991 93 10000 12.3 250 02:42 07.05.2020
3646 Drizzle 2 991 93 10000 12.9 250 01:44 07.05.2020
3647 Drizzle 2 991 93 10000 12.9 250 01:24 07.05.2020
3648 Rain 2 991 93 10000 14.4 240 00:46 07.05.2020
3649 Rain 2 991 93 10000 14.4 240 00:27 07.05.2020
3650 Rain 2 991 93 10000 14.4 240 00:27 07.05.2020
3651 Clouds 3 991 86 10000 13.4 240 23:47 06.05.2020
3652 Rain 3 991 86 10000 10.3 230 23:25 06.05.2020
3653 Clouds 3 991 86 10000 8.2 240 22:58 06.05.2020
3654 Rain 3 991 86 10000 8.2 240 22:40 06.05.2020
3655 Rain 3 991 86 10000 8.2 240 22:19 06.05.2020
3656 Rain 3 991 86 10000 7.7 210 21:57 06.05.2020
3657 Clouds 3 991 89 10000 7.7 210 21:39 06.05.2020
3658 Clouds 3 991 90 10000 8.2 210 21:20 06.05.2020
3659 Rain 3 991 90 10000 7.2 210 20:43 06.05.2020
3660 Rain 3 991 89 10000 7.2 210 20:24 06.05.2020
3661 Clouds 3 992 89 10000 7.2 210 19:59 06.05.2020
3662 Clouds 3 992 89 10000 8.7 210 19:39 06.05.2020
3663 Clouds 3 992 84 10000 8.7 210 19:20 06.05.2020
3664 Clouds 4 992 69 10000 8.7 210 18:59 06.05.2020
3665 Clouds 4 992 69 10000 8.7 210 18:41 06.05.2020
3666 Clouds 4 992 69 10000 8.7 210 18:21 06.05.2020
3667 Clouds 4 992 69 10000 10.3 210 17:59 06.05.2020
3668 Clouds 4 992 69 10000 9.8 200 17:40 06.05.2020
3669 Clouds 4 992 69 10000 9.8 200 17:22 06.05.2020
3670 Rain 4 992 64 10000 10.3 200 16:58 06.05.2020
3671 Rain 4 992 64 10000 10.3 200 16:58 06.05.2020
3672 Clouds 5 992 56 10000 10.8 200 16:40 06.05.2020
3673 Clouds 5 992 56 10000 10.8 200 16:21 06.05.2020
3674 Clouds 5 992 56 10000 11.3 200 15:59 06.05.2020
3675 Clouds 5 992 56 10000 11.3 200 15:59 06.05.2020
3676 Clouds 6 992 52 10000 9.8 200 15:40 06.05.2020
3677 Clouds 6 992 52 10000 9.8 200 15:21 06.05.2020
3678 Clouds 6 992 56 10000 9.3 190 14:56 06.05.2020
3679 Clouds 6 992 56 10000 9.3 190 14:37 06.05.2020
3680 Clouds 6 992 56 10000 9.3 190 14:18 06.05.2020
3681 Clouds 6 992 56 10000 9.3 190 14:18 06.05.2020
3682 Clouds 6 993 56 10000 7.7 190 13:43 06.05.2020
3683 Clouds 6 993 56 10000 7.7 190 13:24 06.05.2020
3684 Clouds 6 993 60 10000 7.2 190 12:58 06.05.2020
3685 Clouds 5 993 65 10000 5.1 190 12:39 06.05.2020
3686 Clouds 5 993 65 10000 5.1 190 12:21 06.05.2020
3687 Clouds 5 993 65 10000 3.6 210 11:41 06.05.2020
3688 Clouds 5 993 65 10000 3.6 210 11:21 06.05.2020
3689 Clouds 4 993 86 10000 3.6 200 10:58 06.05.2020
3690 Rain 3 993 86 10000 5.7 200 10:38 06.05.2020
3691 Rain 3 993 86 10000 5.7 200 10:19 06.05.2020
3692 Rain 4 993 87 10000 3.6 150 09:45 06.05.2020
3693 Rain 4 993 86 10000 3.6 150 09:24 06.05.2020
3694 Rain 3 993 86 10000 3.1 190 08:50 06.05.2020
3695 Clouds 3 994 86 10000 2.6 180 08:24 06.05.2020
3696 Clouds 3 994 86 10000 2.6 190 07:59 06.05.2020
3697 Clouds 3 994 86 10000 4.6 220 07:40 06.05.2020
3698 Clouds 3 994 88 10000 4.6 220 07:21 06.05.2020
3699 Clouds 3 994 88 10000 5.7 250 06:56 06.05.2020
3700 Clouds 3 994 74 10000 5.7 270 06:38 06.05.2020
3701 Clouds 4 994 91 10000 3.6 290 06:18 06.05.2020
3702 Clouds 4 994 91 10000 3.6 290 05:37 06.05.2020
3703 Clouds 4 993 91 10000 7.7 280 04:40 06.05.2020
3704 Clouds 4 993 69 10000 6.7 210 03:44 06.05.2020
3705 Clouds 4 993 69 10000 6.7 210 03:22 06.05.2020
3706 Clouds 5 993 65 10000 9.3 200 02:30 06.05.2020
3707 Clouds 5 993 60 10000 11.8 200 01:56 06.05.2020
3708 Clouds 5 993 60 10000 11.8 200 01:34 06.05.2020
3709 Clouds 4 993 69 10000 10.3 190 00:55 06.05.2020
3710 Clouds 4 993 69 10000 9.8 190 00:31 06.05.2020
3711 Clouds 4 993 69 10000 7.7 190 23:57 05.05.2020
3712 Clouds 4 994 69 10000 11.3 190 23:39 05.05.2020
3713 Clouds 4 994 69 10000 11.3 190 23:19 05.05.2020
3714 Clouds 4 994 69 10000 11.3 190 23:19 05.05.2020
3715 Clouds 4 995 69 10000 14.9 190 22:42 05.05.2020
3716 Clouds 4 995 69 10000 14.9 190 22:20 05.05.2020
3717 Clouds 4 995 69 10000 14.4 180 21:59 05.05.2020
3718 Rain 4 996 82 10000 14.9 190 21:40 05.05.2020
3719 Rain 4 996 86 10000 14.9 190 21:21 05.05.2020
3720 Rain 4 996 69 10000 15.9 190 20:58 05.05.2020
3721 Rain 4 997 86 10000 14.4 190 20:39 05.05.2020
3722 Rain 4 997 85 10000 14.4 190 20:19 05.05.2020
3723 Rain 4 997 69 10000 13.4 190 19:57 05.05.2020
3724 Rain 4 998 69 10000 14.4 190 19:37 05.05.2020
3725 Rain 4 998 69 10000 14.4 190 19:18 05.05.2020
3726 Rain 4 998 64 10000 15.4 190 19:18 05.05.2020
3727 Rain 4 998 64 10000 15.4 190 18:54 05.05.2020
3728 Rain 4 999 64 10000 15.9 190 18:36 05.05.2020
3729 Rain 4 999 64 10000 15.9 190 18:18 05.05.2020
3730 Clouds 5 1000 60 10000 14.4 190 17:42 05.05.2020
3731 Clouds 5 1000 60 10000 14.4 190 17:24 05.05.2020
3732 Clouds 5 1000 60 10000 13.4 190 16:57 05.05.2020
3733 Clouds 4 1001 64 10000 12.3 190 16:37 05.05.2020
3734 Clouds 4 1001 64 10000 12.3 190 16:18 05.05.2020
3735 Clouds 4 1001 64 10000 14.9 190 15:55 05.05.2020
3736 Clouds 4 1002 60 10000 11.8 190 15:37 05.05.2020
3737 Clouds 4 1002 60 10000 11.8 190 15:19 05.05.2020
3738 Clouds 4 1003 60 10000 10.8 190 14:42 05.05.2020
3739 Clouds 4 1003 60 10000 10.8 190 14:24 05.05.2020
3740 Clouds 4 1003 55 10000 12.3 190 13:58 05.05.2020
3741 Clouds 4 1004 60 10000 9.8 180 13:40 05.05.2020
3742 Clouds 4 1004 60 10000 9.8 180 13:21 05.05.2020
3743 Clouds 4 1004 55 10000 9.8 190 12:59 05.05.2020
3744 Clouds 4 1004 55 10000 10.8 190 12:40 05.05.2020
3745 Clouds 4 1004 55 10000 10.8 190 12:20 05.05.2020
3746 Clouds 4 1005 55 10000 10.3 190 11:57 05.05.2020
3747 Clouds 3 1005 59 10000 8.7 180 11:39 05.05.2020
3748 Clouds 3 1005 59 10000 8.7 180 11:18 05.05.2020
3749 Clouds 3 1006 64 10000 11.8 190 10:39 05.05.2020
3750 Clouds 3 1006 64 10000 11.8 190 10:39 05.05.2020
3751 Clouds 3 1006 64 10000 11.8 190 10:39 05.05.2020
3752 Clouds 3 1006 64 10000 11.8 190 10:20 05.05.2020
3753 Clouds 3 1006 64 10000 11.8 190 09:59 05.05.2020
3754 Clouds 3 1006 64 10000 11.8 190 09:59 05.05.2020
3755 Clouds 3 1007 69 10000 7.7 180 09:41 05.05.2020
3756 Clouds 3 1007 69 10000 7.7 180 09:22 05.05.2020
3757 Clouds 3 1007 69 10000 8.7 200 08:42 05.05.2020
3758 Clouds 3 1007 69 10000 8.7 200 08:21 05.05.2020
3759 Clouds 3 1008 74 10000 5.7 200 07:58 05.05.2020
3760 Clouds 2 1008 80 10000 5.1 200 07:39 05.05.2020
3761 Clouds 2 1008 80 10000 5.1 200 07:19 05.05.2020
3762 Clouds 2 1008 85 10000 6.2 230 06:49 05.05.2020
3763 Clouds 2 1008 86 10000 8.2 230 06:23 05.05.2020
3764 Rain 1 1009 86 10000 8.7 260 05:43 05.05.2020
3765 Snow 2 1009 80 9000 10.8 260 03:39 05.05.2020
3766 Clouds 2 1009 83 10000 12.9 300 02:18 05.05.2020
3767 Rain 2 1009 82 10000 9.3 290 00:54 05.05.2020
3768 Rain 2 1009 81 10000 9.3 290 00:22 05.05.2020
3769 Snow 1 1009 81 8000 13.9 300 23:48 04.05.2020
3770 Rain 3 1008 86 10000 12.3 290 23:24 04.05.2020
3771 Clouds 3 1008 82 10000 10.8 300 22:57 04.05.2020
3772 Rain 3 1008 82 10000 11.8 290 22:38 04.05.2020
3773 Rain 3 1008 83 10000 11.8 290 22:20 04.05.2020
3774 Rain 3 1007 83 10000 12.9 300 21:56 04.05.2020
3775 Rain 3 1007 83 10000 12.9 300 21:56 04.05.2020
3776 Rain 3 1007 90 10000 12.3 290 21:35 04.05.2020
3777 Rain 4 1007 80 10000 11.8 290 21:03 04.05.2020
3778 Rain 4 1007 80 10000 11.8 290 21:03 04.05.2020
3779 Rain 4 1007 80 10000 11.8 290 21:03 04.05.2020
3780 Rain 4 1007 80 10000 11.8 290 21:03 04.05.2020
3781 Rain 4 1007 80 10000 11.8 290 21:03 04.05.2020
3782 Clouds 4 1007 80 10000 12.3 290 20:38 04.05.2020
3783 Clouds 4 1007 81 10000 10.3 290 20:18 04.05.2020
3784 Clouds 4 1006 81 10000 11.3 290 19:43 04.05.2020
3785 Clouds 4 1006 83 10000 11.3 290 19:23 04.05.2020
3786 Clouds 4 1006 83 10000 11.3 290 19:23 04.05.2020
3787 Clouds 4 1006 83 10000 12.9 290 18:59 04.05.2020
3788 Clouds 4 1006 80 10000 11.8 290 18:38 04.05.2020
3789 Clouds 4 1006 80 10000 11.3 300 18:19 04.05.2020
3790 Clouds 4 1006 80 10000 11.3 300 17:56 04.05.2020
3791 Clouds 4 1006 80 10000 12.3 300 17:37 04.05.2020
3792 Clouds 4 1006 80 10000 12.3 300 17:18 04.05.2020
3793 Clouds 4 1005 80 10000 9.8 290 16:43 04.05.2020
3794 Clouds 4 1005 80 10000 9.8 290 16:22 04.05.2020
3795 Clouds 4 1005 80 10000 7.2 290 15:57 04.05.2020
3796 Clouds 4 1005 80 10000 7.2 290 15:38 04.05.2020
3797 Clouds 4 1005 80 10000 7.2 290 15:19 04.05.2020
3798 Clouds 4 1004 80 10000 9.3 310 14:48 04.05.2020
3799 Clouds 4 1004 80 10000 9.3 310 14:48 04.05.2020
3800 Clouds 4 1004 80 10000 9.3 310 14:48 04.05.2020
3801 Clouds 4 1005 80 10000 7.2 300 14:48 04.05.2020
3802 Clouds 4 1005 80 10000 7.2 300 14:48 04.05.2020
3803 Clouds 4 1004 80 10000 9.3 310 14:20 04.05.2020
3804 Clouds 4 1003 86 10000 8.7 310 12:57 04.05.2020
3805 Clouds 3 1003 93 10000 8.2 300 12:37 04.05.2020
3806 Clouds 3 1003 93 10000 8.2 300 12:37 04.05.2020
3807 Clouds 3 1003 93 10000 8.2 300 12:37 04.05.2020
3808 Clouds 3 1003 93 10000 8.2 300 12:37 04.05.2020
3809 Clouds 3 1003 93 10000 8.2 300 12:37 04.05.2020
3810 Drizzle 3 1002 93 10000 5.7 290 10:38 04.05.2020
3811 Clouds 3 1002 93 10000 5.7 290 09:26 04.05.2020
3812 Clouds 3 1002 93 10000 5.7 290 09:26 04.05.2020
3813 Clouds 3 1002 93 10000 5.7 290 09:26 04.05.2020
3814 Clouds 3 1002 93 10000 5.7 290 09:26 04.05.2020
3815 Clouds 3 1002 93 10000 5.7 290 09:26 04.05.2020
3816 Drizzle 2 1002 100 10000 4.1 280 07:53 04.05.2020
3817 Drizzle 2 1002 100 10000 4.1 280 07:33 04.05.2020
3818 Drizzle 2 1002 100 10000 4.1 280 07:33 04.05.2020
3819 Drizzle 2 1002 100 10000 4.1 280 07:33 04.05.2020
3820 Drizzle 2 1002 100 10000 4.1 280 07:33 04.05.2020
3821 Drizzle 2 1002 100 10000 4.1 280 07:33 04.05.2020
3822 Drizzle 2 1002 93 10000 4.1 280 05:18 04.05.2020
3823 Drizzle 2 1002 93 10000 3.6 280 04:10 04.05.2020
3824 Drizzle 2 1002 93 10000 3.1 290 02:38 04.05.2020
3825 Drizzle 2 1002 93 10000 2.1 320 01:20 04.05.2020
3826 Drizzle 2 1003 93 10000 3.1 280 23:58 03.05.2020
3827 Drizzle 2 1003 93 10000 3.6 250 23:40 03.05.2020
3828 Drizzle 2 1003 93 10000 3.6 250 23:22 03.05.2020
3829 Drizzle 3 1003 86 10000 4.6 210 22:43 03.05.2020
3830 Drizzle 3 1003 86 10000 4.6 210 22:43 03.05.2020
3831 Drizzle 3 1003 86 10000 4.6 210 22:43 03.05.2020
3832 Drizzle 3 1003 86 10000 4.6 210 22:24 03.05.2020
3833 Clouds 3 1003 89 10000 4.1 190 21:42 03.05.2020
3834 Clouds 3 1003 88 10000 4.1 190 21:22 03.05.2020
3835 Clouds 4 1003 88 10000 5.7 190 20:56 03.05.2020
3836 Clouds 4 1003 88 10000 4.6 200 20:38 03.05.2020
3837 Clouds 4 1003 89 10000 4.6 200 20:20 03.05.2020
3838 Clouds 4 1003 89 10000 4.6 200 20:20 03.05.2020
3839 Clouds 4 1003 89 10000 2.1 150 19:47 03.05.2020
3840 Clouds 4 1003 89 10000 2.1 150 19:47 03.05.2020
3841 Clouds 4 1003 89 10000 2.1 150 19:47 03.05.2020
3842 Clouds 4 1003 89 10000 2.1 150 19:47 03.05.2020
3843 Clouds 4 1003 89 10000 2.1 150 19:47 03.05.2020
3844 Clouds 4 1003 90 10000 2.1 150 19:27 03.05.2020
3845 Clouds 4 1003 90 10000 2.1 150 19:27 03.05.2020
3846 Clouds 4 1003 90 10000 2.1 150 19:27 03.05.2020
3847 Clouds 4 1003 90 10000 5.1 210 18:40 03.05.2020
3848 Clouds 4 1003 90 10000 5.1 210 18:21 03.05.2020
3849 Clouds 5 1003 90 10000 5.7 200 17:59 03.05.2020
3850 Clouds 4 1003 90 10000 7.2 200 17:40 03.05.2020
3851 Clouds 4 1003 90 10000 7.2 200 17:21 03.05.2020
3852 Clouds 5 1004 90 10000 6.2 200 16:45 03.05.2020
3853 Clouds 5 1004 89 10000 6.2 200 16:20 03.05.2020
3854 Clouds 5 1004 89 10000 6.2 200 16:20 03.05.2020
3855 Clouds 4 1004 89 10000 7.2 190 15:58 03.05.2020
3856 Clouds 4 1004 89 10000 8.2 190 15:39 03.05.2020
3857 Clouds 4 1004 89 10000 8.2 190 15:20 03.05.2020
3858 Clouds 4 1004 89 10000 7.7 190 14:57 03.05.2020
3859 Clouds 4 1004 89 10000 7.2 190 14:38 03.05.2020
3860 Clouds 4 1004 90 10000 7.2 190 14:20 03.05.2020
3861 Clouds 5 1004 90 10000 8.2 180 13:44 03.05.2020
3862 Clouds 5 1004 90 10000 8.2 180 13:43 03.05.2020
3863 Clouds 4 1004 88 10000 8.7 180 12:59 03.05.2020
3864 Clouds 4 1004 88 10000 8.7 180 12:59 03.05.2020
3865 Clouds 4 1004 88 10000 8.7 180 12:59 03.05.2020
3866 Clouds 5 1004 88 10000 9.3 180 12:39 03.05.2020
3867 Clouds 5 1004 87 10000 9.3 180 12:18 03.05.2020
3868 Clouds 4 1004 87 10000 9.8 180 11:55 03.05.2020
3869 Clouds 4 1004 87 10000 8.7 180 11:37 03.05.2020
3870 Clouds 4 1004 86 10000 8.7 180 11:18 03.05.2020
3871 Rain 3 1005 86 10000 8.7 170 10:42 03.05.2020
3872 Rain 3 1005 86 10000 8.7 170 10:42 03.05.2020
3873 Rain 3 1005 86 10000 8.7 170 10:42 03.05.2020
3874 Rain 3 1005 86 10000 8.7 170 10:42 03.05.2020
3875 Rain 3 1005 86 10000 8.7 170 10:40 03.05.2020
3876 Drizzle 3 1005 85 10000 8.7 170 09:57 03.05.2020
3877 Drizzle 3 1005 85 10000 8.7 170 09:57 03.05.2020
3878 Drizzle 3 1005 85 10000 8.7 170 09:57 03.05.2020
3879 Drizzle 3 1005 85 10000 8.7 170 09:57 03.05.2020
3880 Drizzle 3 1005 85 10000 8.7 170 09:57 03.05.2020
3881 Rain 3 1005 84 10000 8.7 170 09:32 03.05.2020
3882 Rain 3 1005 84 10000 8.7 170 09:31 03.05.2020
3883 Rain 3 1005 84 10000 8.7 170 09:28 03.05.2020
3884 Rain 3 1005 84 10000 8.7 170 09:28 03.05.2020
3885 Rain 3 1005 84 10000 8.7 170 08:54 03.05.2020
3886 Rain 3 1005 84 10000 8.7 170 08:54 03.05.2020
3887 Rain 3 1005 84 10000 8.7 170 08:54 03.05.2020
3888 Rain 3 1005 84 10000 8.7 170 08:54 03.05.2020
3889 Drizzle 3 1005 85 10000 9.8 160 08:21 03.05.2020
3890 Drizzle 3 1005 85 10000 9.8 160 08:21 03.05.2020
3891 Drizzle 3 1005 85 10000 9.8 160 08:21 03.05.2020
3892 Clouds 3 1005 74 10000 7.7 160 07:38 03.05.2020
3893 Clouds 3 1006 74 10000 8.7 160 06:19 03.05.2020
3894 Clouds 3 1006 74 10000 8.7 180 05:46 03.05.2020
3895 Clouds 3 1006 74 10000 9.3 180 04:31 03.05.2020
3896 Clouds 3 1006 74 10000 8.7 180 03:59 03.05.2020
3897 Clouds 3 1007 69 10000 8.7 180 02:57 03.05.2020
3898 Clouds 3 1007 69 10000 9.3 180 02:24 03.05.2020
3899 Clouds 3 1007 69 10000 9.8 180 01:44 03.05.2020
3900 Clouds 3 1007 69 10000 9.8 180 01:24 03.05.2020
3901 Clouds 3 1007 74 10000 11.3 180 00:42 03.05.2020
3902 Clouds 3 1007 74 10000 11.3 180 00:21 03.05.2020
3903 Clouds 3 1007 74 10000 11.3 180 00:21 03.05.2020
3904 Clouds 3 1007 74 10000 10.3 180 23:59 02.05.2020
3905 Clouds 4 1007 69 10000 14.4 190 23:41 02.05.2020
3906 Clouds 4 1007 69 10000 14.4 190 23:21 02.05.2020
3907 Clouds 4 1007 60 10000 10.3 180 22:43 02.05.2020
3908 Clouds 4 1007 60 10000 10.3 180 22:23 02.05.2020
3909 Clouds 5 1008 52 10000 8.2 170 21:56 02.05.2020
3910 Clouds 4 1008 55 10000 7.2 180 21:38 02.05.2020
3911 Clouds 4 1008 60 10000 6.2 180 21:18 02.05.2020
3912 Clouds 4 1008 60 10000 6.2 180 20:56 02.05.2020
3913 Clouds 5 1008 52 10000 5.1 170 20:37 02.05.2020
3914 Clouds 5 1008 52 10000 5.1 170 20:18 02.05.2020
3915 Clouds 5 1008 56 10000 7.7 190 19:55 02.05.2020
3916 Clouds 5 1008 56 10000 8.2 190 19:37 02.05.2020
3917 Clouds 5 1008 56 10000 8.2 190 19:18 02.05.2020
3918 Clouds 5 1008 52 10000 6.7 180 18:40 02.05.2020
3919 Clear 5 1008 52 10000 6.7 180 18:22 02.05.2020
3920 Clear 5 1008 56 10000 6.7 180 17:57 02.05.2020
3921 Clear 5 1008 56 10000 5.7 180 17:39 02.05.2020
3922 Clear 5 1008 56 10000 5.7 180 17:20 02.05.2020
3923 Clear 5 1009 60 10000 5.7 180 16:57 02.05.2020
3924 Clear 5 1009 56 10000 6.2 170 16:39 02.05.2020
3925 Clear 5 1009 56 10000 6.2 170 16:21 02.05.2020
3926 Clear 5 1009 56 10000 8.2 190 15:42 02.05.2020
3927 Clear 5 1009 56 10000 8.2 190 15:20 02.05.2020
3928 Clear 4 1009 60 10000 6.7 190 14:46 02.05.2020
3929 Clear 4 1009 60 10000 6.7 190 14:28 02.05.2020
3930 Clear 4 1009 55 10000 4.6 190 13:59 02.05.2020
3931 Clear 4 1009 55 10000 2.6 170 13:40 02.05.2020
3932 Clear 4 1009 55 10000 2.6 170 13:21 02.05.2020
3933 Clear 3 1010 59 10000 2.6 150 12:43 02.05.2020
3934 Clear 3 1010 59 10000 2.6 150 12:25 02.05.2020
3935 Clear 3 1010 64 10000 2.6 140 11:59 02.05.2020
3936 Clear 2 1010 64 10000 2.6 120 11:41 02.05.2020
3937 Clear 2 1010 64 10000 2.6 120 11:22 02.05.2020
3938 Clear 2 1010 64 10000 3.1 120 10:58 02.05.2020
3939 Clear 2 1010 59 10000 3.6 120 10:38 02.05.2020
3940 Clear 2 1010 59 10000 3.6 120 10:20 02.05.2020
3941 Clear 2 1010 64 10000 3.1 110 09:56 02.05.2020
3942 Clear 1 1010 64 10000 2.1 110 09:37 02.05.2020
3943 Clear 1 1010 64 10000 2.1 110 09:19 02.05.2020
3944 Clear 1 1010 64 10000 2.6 90 08:46 02.05.2020
3945 Clear -1 1010 68 10000 2.1 90 08:26 02.05.2020
3946 Clear -1 1010 68 10000 1.5 100 07:47 02.05.2020
3947 Clear -1 1010 68 10000 1 140 07:28 02.05.2020
3948 Clear -1 1010 68 10000 1 180 06:51 02.05.2020
3949 Clear -2 1011 91 0 2.65 153 05:29 02.05.2020
3950 Clear -4 1010 73 10000 0.5 160 04:59 02.05.2020
3951 Clear -4 1010 73 10000 0.5 160 04:24 02.05.2020
3952 Clear -2 1009 79 10000 0.5 170 02:44 02.05.2020
3953 Clear -2 1009 79 10000 0.5 170 02:24 02.05.2020
3954 Clear -3 1009 79 10000 1 210 01:49 02.05.2020
3955 Clear -2 1009 79 10000 1.5 200 00:48 02.05.2020
3956 Clear -2 1009 79 10000 1.5 200 00:29 02.05.2020
3957 Clear -3 1009 86 10000 2.1 210 23:59 01.05.2020
3958 Clear -3 1009 86 10000 2.1 220 23:39 01.05.2020
3959 Clear -3 1009 86 10000 2.1 220 23:20 01.05.2020
3960 Clear -1 1009 74 10000 2.1 220 22:56 01.05.2020
3961 Clear -2 1009 79 10000 2.1 220 22:37 01.05.2020
3962 Clear -2 1009 79 10000 2.1 220 22:18 01.05.2020
3963 Clear -2 1009 79 10000 2.1 220 22:18 01.05.2020
3964 Clear 0 1009 92 10000 1.5 200 21:56 01.05.2020
3965 Clear -2 1009 79 10000 1.5 220 21:38 01.05.2020
3966 Clouds -2 1009 79 10000 1.5 220 21:18 01.05.2020
3967 Clouds -1 1009 80 10000 1 220 20:56 01.05.2020
3968 Clouds -1 1009 74 10000 1.5 270 20:37 01.05.2020
3969 Clouds -1 1009 74 10000 1.5 270 20:18 01.05.2020
3970 Clouds 2 1008 64 10000 1.5 270 19:42 01.05.2020
3971 Clouds 2 1008 64 10000 1.5 270 19:42 01.05.2020
3972 Clouds 2 1008 64 10000 1.5 270 19:22 01.05.2020
3973 Clouds 3 1008 64 10000 1.5 290 18:58 01.05.2020
3974 Clouds 3 1008 59 10000 2.6 300 18:39 01.05.2020
3975 Clouds 3 1008 59 10000 2.6 300 18:20 01.05.2020
3976 Clouds 3 1008 59 10000 2.6 290 17:57 01.05.2020
3977 Clouds 3 1008 64 10000 2.6 250 17:38 01.05.2020
3978 Clouds 3 1008 64 10000 2.6 250 17:20 01.05.2020
3979 Clouds 2 1008 69 10000 5.1 210 16:55 01.05.2020
3980 Clouds 2 1008 69 10000 5.1 210 16:55 01.05.2020
3981 Clouds 2 1008 64 10000 6.7 200 16:37 01.05.2020
3982 Clouds 3 1008 64 10000 7.7 200 16:19 01.05.2020
3983 Clouds 3 1008 64 10000 7.7 200 15:55 01.05.2020
3984 Clouds 2 1008 64 10000 8.2 190 15:36 01.05.2020
3985 Clouds 2 1008 64 10000 8.2 190 15:18 01.05.2020
3986 Clouds 2 1008 64 10000 9.3 190 14:41 01.05.2020
3987 Clouds 2 1008 64 10000 9.3 190 14:23 01.05.2020
3988 Clouds 1 1009 64 10000 7.7 190 13:41 01.05.2020
3989 Clouds 1 1009 64 10000 7.7 190 13:23 01.05.2020
3990 Clouds 2 1009 59 10000 9.8 180 12:58 01.05.2020
3991 Clouds 2 1009 59 10000 8.7 170 12:40 01.05.2020
3992 Clouds 2 1009 59 10000 8.7 170 12:20 01.05.2020
3993 Clouds 2 1009 59 10000 7.7 180 11:59 01.05.2020
3994 Clouds 1 1009 64 10000 7.7 180 11:40 01.05.2020
3995 Clouds 1 1009 64 10000 7.7 180 11:19 01.05.2020
3996 Clouds 1 1009 64 10000 10.8 180 10:41 01.05.2020
3997 Clouds 1 1009 64 10000 10.8 180 10:41 01.05.2020
3998 Clouds 1 1009 64 10000 10.8 180 10:20 01.05.2020
3999 Clouds 1 1009 64 10000 10.8 180 09:59 01.05.2020
4000 Clouds 1 1009 64 10000 12.3 180 09:41 01.05.2020
4001 Clouds 1 1009 64 10000 12.3 180 09:18 01.05.2020
4002 Clouds 1 1009 64 10000 8.7 180 08:43 01.05.2020
4003 Clouds 1 1009 64 10000 8.7 180 08:25 01.05.2020
4004 Clouds 0 1010 93 10000 6.7 170 07:55 01.05.2020
4005 Clouds 0 1010 93 10000 6.7 170 07:36 01.05.2020
4006 Clear 0 1010 93 10000 6.2 180 06:58 01.05.2020
4007 Clear -1 1010 68 10000 6.7 180 05:48 01.05.2020
4008 Clear -1 1011 68 10000 6.7 180 05:20 01.05.2020
4009 Clear -1 1011 63 10000 8.7 180 03:42 01.05.2020
4010 Clear -1 1011 63 10000 10.8 190 02:52 01.05.2020
4011 Clear -1 1012 63 10000 8.2 180 02:34 01.05.2020
4012 Clouds -1 1012 63 10000 10.8 180 01:47 01.05.2020
4013 Clouds -1 1012 63 10000 10.3 180 01:26 01.05.2020
4014 Clouds -1 1012 63 10000 7.7 180 00:40 01.05.2020
4015 Clouds -1 1012 63 10000 7.7 180 00:20 01.05.2020
4016 Clouds -2 1012 68 10000 9.3 170 23:57 30.04.2020
4017 Clouds -1 1012 63 10000 10.3 160 23:38 30.04.2020
4018 Clouds -1 1012 63 10000 10.3 160 23:38 30.04.2020
4019 Clouds -1 1012 63 10000 10.3 160 23:20 30.04.2020
4020 Clouds -1 1013 63 10000 10.3 160 22:55 30.04.2020
4021 Clouds -2 1013 74 10000 9.3 150 22:37 30.04.2020
4022 Clouds -2 1013 74 10000 9.3 150 22:18 30.04.2020
4023 Clouds -1 1013 68 10000 11.3 150 21:41 30.04.2020
4024 Clouds -1 1013 68 10000 11.3 150 21:21 30.04.2020
4025 Clouds -1 1013 74 10000 10.3 150 20:58 30.04.2020
4026 Clouds 0 1013 92 10000 10.3 160 20:39 30.04.2020
4027 Clear 0 1013 91 10000 10.3 160 20:18 30.04.2020
4028 Clear 0 1013 91 10000 10.3 160 20:18 30.04.2020
4029 Clear 0 1013 91 10000 8.2 170 19:46 30.04.2020
4030 Clouds 0 1013 92 10000 8.2 170 19:26 30.04.2020
4031 Clouds 0 1013 92 10000 8.2 170 19:26 30.04.2020
4032 Clouds 1 1014 59 10000 9.3 160 18:59 30.04.2020
4033 Clouds 1 1014 59 10000 7.2 170 18:39 30.04.2020
4034 Clear 1 1014 59 10000 7.2 170 18:21 30.04.2020
4035 Clear 1 1014 59 10000 8.2 170 17:58 30.04.2020
4036 Clear 1 1014 59 10000 7.7 160 17:39 30.04.2020
4037 Clear 1 1014 59 10000 7.7 160 17:20 30.04.2020
4038 Clear 1 1014 59 10000 7.2 170 16:57 30.04.2020
4039 Clear 1 1014 59 10000 7.2 160 16:38 30.04.2020
4040 Clear 1 1014 59 10000 7.2 160 16:18 30.04.2020
4041 Clear 1 1015 64 10000 8.7 150 15:45 30.04.2020
4042 Clear 1 1015 64 10000 8.7 150 15:24 30.04.2020
4043 Clear 1 1015 64 10000 8.2 170 14:57 30.04.2020
4044 Clear 1 1015 64 10000 7.7 170 14:39 30.04.2020
4045 Clear 1 1015 64 10000 7.7 170 14:19 30.04.2020
4046 Clear 1 1015 64 10000 7.2 160 13:55 30.04.2020
4047 Clear 1 1015 64 10000 6.7 180 13:36 30.04.2020
4048 Clear 1 1015 64 10000 6.7 180 13:18 30.04.2020
4049 Clear 0 1016 92 10000 7.7 150 12:41 30.04.2020
4050 Clear 0 1016 92 10000 7.7 150 12:20 30.04.2020
4051 Clear 0 1016 92 10000 8.2 160 11:58 30.04.2020
4052 Clear 0 1016 92 10000 6.7 150 11:36 30.04.2020
4053 Clear 0 1016 92 10000 5.7 160 11:18 30.04.2020
4054 Clear 0 1016 92 10000 5.1 160 10:41 30.04.2020
4055 Clear 0 1016 92 10000 5.1 160 10:22 30.04.2020
4056 Clear 0 1016 92 10000 5.1 160 10:22 30.04.2020
4057 Clear 0 1016 92 10000 5.1 150 09:58 30.04.2020
4058 Clear 0 1016 92 10000 4.6 170 09:39 30.04.2020
4059 Clear 0 1016 93 10000 4.6 170 09:21 30.04.2020
4060 Clear 0 1016 93 10000 3.6 180 08:48 30.04.2020
4061 Clear 0 1016 93 10000 3.6 180 08:27 30.04.2020
4062 Clear -1 1017 68 10000 4.6 180 07:58 30.04.2020
4063 Clear -2 1017 68 10000 4.1 170 07:39 30.04.2020
4064 Clear -2 1017 68 10000 4.1 170 07:20 30.04.2020
4065 Clear -2 1017 68 10000 7.2 180 06:38 30.04.2020
4066 Clear -2 1017 68 10000 7.7 190 05:49 30.04.2020
4067 Clear -2 1017 68 10000 7.7 190 05:26 30.04.2020
4068 Clear -3 1017 73 10000 6.7 190 04:25 30.04.2020
4069 Clear -3 1017 73 10000 4.6 180 02:56 30.04.2020
4070 Clear -3 1017 73 10000 4.6 180 02:28 30.04.2020
4071 Clear -3 1017 73 10000 5.7 160 01:48 30.04.2020
4072 Clear -3 1017 73 10000 5.1 160 00:58 30.04.2020
4073 Clear -3 1017 73 10000 5.7 170 00:36 30.04.2020
4074 Clear -3 1017 73 10000 5.7 170 00:18 30.04.2020
4075 Clouds -2 1017 68 10000 9.8 150 23:42 29.04.2020
4076 Clouds -2 1017 68 10000 9.8 150 23:23 29.04.2020
4077 Clouds -3 1017 68 10000 8.7 150 22:59 29.04.2020
4078 Clear -2 1017 68 10000 7.7 140 22:39 29.04.2020
4079 Clear -2 1017 68 10000 7.7 140 22:20 29.04.2020
4080 Clear -2 1017 68 10000 8.2 140 21:39 29.04.2020
4081 Clear -2 1017 68 10000 8.2 140 21:21 29.04.2020
4082 Clear -2 1017 68 10000 8.2 140 21:21 29.04.2020
4083 Clear -2 1017 68 10000 8.2 140 20:59 29.04.2020
4084 Clear -2 1017 68 10000 8.2 140 20:40 29.04.2020
4085 Clear -2 1017 68 10000 8.2 140 20:19 29.04.2020
4086 Clear -1 1017 68 10000 7.2 130 19:57 29.04.2020
4087 Clear -1 1017 63 10000 7.7 140 19:39 29.04.2020
4088 Clear -1 1017 63 10000 7.7 140 19:18 29.04.2020
4089 Clear 0 1017 92 10000 7.2 150 18:42 29.04.2020
4090 Clear 0 1017 92 10000 7.2 150 18:21 29.04.2020
4091 Clear 0 1017 92 10000 7.2 140 17:56 29.04.2020
4092 Clouds 0 1017 92 10000 7.2 150 17:37 29.04.2020
4093 Clouds 0 1017 92 10000 7.2 150 17:19 29.04.2020
4094 Clouds 0 1017 92 10000 7.7 150 16:38 29.04.2020
4095 Clouds 0 1017 92 10000 7.7 150 16:38 29.04.2020
4096 Clouds 0 1017 91 10000 7.7 150 16:19 29.04.2020
4097 Clouds 0 1017 91 10000 7.7 150 15:57 29.04.2020
4098 Clouds 0 1017 91 10000 8.2 150 15:39 29.04.2020
4099 Clouds 1 1017 55 10000 8.2 150 15:20 29.04.2020
4100 Clouds 1 1017 55 10000 8.2 150 14:46 29.04.2020
4101 Clear 0 1017 91 10000 9.3 150 14:27 29.04.2020
4102 Clear 0 1017 91 10000 9.3 150 13:59 29.04.2020
4103 Clear 0 1017 91 10000 8.7 150 13:40 29.04.2020
4104 Clear 0 1017 90 10000 8.7 150 13:20 29.04.2020
4105 Clear 0 1017 90 10000 8.7 150 13:20 29.04.2020
4106 Clear 0 1017 90 10000 7.7 160 12:57 29.04.2020
4107 Clear 0 1017 90 10000 8.7 150 12:38 29.04.2020
4108 Clear 0 1017 90 10000 6.7 150 12:18 29.04.2020
4109 Clear 0 1017 90 10000 6.7 150 12:18 29.04.2020
4110 Clear 0 1017 90 10000 6.2 160 11:40 29.04.2020
4111 Clear -1 1017 63 10000 6.2 150 11:20 29.04.2020
4112 Clear -1 1017 63 10000 6.2 150 10:57 29.04.2020
4113 Clouds -1 1017 63 10000 7.2 150 10:37 29.04.2020
4114 Clouds -2 1017 68 10000 8.7 150 10:19 29.04.2020
4115 Clouds -2 1017 63 10000 6.7 160 09:42 29.04.2020
4116 Clouds -2 1017 63 10000 6.7 160 09:23 29.04.2020
4117 Clouds -2 1017 63 10000 4.6 160 08:56 29.04.2020
4118 Clouds -1 1017 58 10000 8.2 140 08:37 29.04.2020
4119 Clouds -1 1017 58 10000 8.2 140 08:19 29.04.2020
4120 Clouds -3 1017 63 10000 5.1 140 07:41 29.04.2020
4121 Clouds -3 1017 63 10000 5.1 140 07:23 29.04.2020
4122 Clouds -3 1017 63 10000 5.1 140 07:23 29.04.2020
4123 Clear -3 1016 63 10000 5.7 140 06:50 29.04.2020
4124 Clear -3 1016 63 10000 5.7 140 06:30 29.04.2020
4125 Clear -4 1016 62 10000 5.1 110 05:21 29.04.2020
4126 Clear -4 1016 62 10000 5.1 120 04:39 29.04.2020
4127 Clear -4 1016 62 10000 5.1 120 04:18 29.04.2020
4128 Clear -6 1017 91 0 4.53 143 02:40 29.04.2020
4129 Clear -3 1016 73 10000 5.7 140 01:44 29.04.2020
4130 Clear -3 1016 73 10000 5.7 140 01:22 29.04.2020
4131 Clear -2 1016 68 10000 5.7 140 00:41 29.04.2020
4132 Clear -2 1016 68 10000 5.7 140 00:19 29.04.2020
4133 Clear -3 1016 73 10000 3.1 130 23:49 28.04.2020
4134 Clear -3 1016 73 10000 3.1 130 23:24 28.04.2020
4135 Clouds -2 1016 74 10000 5.1 130 22:55 28.04.2020
4136 Clouds -2 1016 74 10000 2.6 150 22:37 28.04.2020
4137 Clouds -2 1016 74 10000 2.6 150 22:37 28.04.2020
4138 Clouds -2 1016 74 10000 3.6 120 22:18 28.04.2020
4139 Clouds -2 1016 74 10000 3.6 120 21:54 28.04.2020
4140 Clouds -3 1015 79 10000 3.1 120 21:36 28.04.2020
4141 Clouds -3 1015 79 10000 3.1 120 21:18 28.04.2020
4142 Clouds -2 1015 74 10000 4.6 110 20:55 28.04.2020
4143 Clouds -2 1015 74 10000 4.6 100 20:36 28.04.2020
4144 Clouds -2 1015 74 10000 4.6 100 20:18 28.04.2020
4145 Clouds -2 1015 74 10000 3.1 100 19:42 28.04.2020
4146 Clouds -2 1015 74 10000 3.1 100 19:22 28.04.2020
4147 Clouds -1 1015 68 10000 3.6 100 18:59 28.04.2020
4148 Clouds -1 1015 68 10000 2.6 100 18:40 28.04.2020
4149 Clouds -1 1015 68 10000 2.6 100 18:19 28.04.2020
4150 Clouds -1 1015 68 10000 2.6 100 17:57 28.04.2020
4151 Clouds -1 1015 68 10000 2.6 120 17:36 28.04.2020
4152 Clouds -1 1015 68 10000 2.6 120 17:18 28.04.2020
4153 Clouds -1 1015 63 10000 2.6 110 16:43 28.04.2020
4154 Clouds -1 1015 63 10000 2.6 110 16:23 28.04.2020
4155 Clouds 0 1015 91 10000 2.6 100 15:58 28.04.2020
4156 Clouds 0 1015 91 10000 1.5 130 15:39 28.04.2020
4157 Clouds 0 1015 90 10000 1.5 130 15:21 28.04.2020
4158 Clouds 0 1015 90 10000 2.1 140 14:59 28.04.2020
4159 Clouds 0 1015 90 10000 2.6 150 14:41 28.04.2020
4160 Clouds 0 1015 90 10000 2.6 150 14:21 28.04.2020
4161 Clouds 0 1015 90 10000 2.1 110 13:58 28.04.2020
4162 Clouds 0 1015 90 10000 2.6 110 13:38 28.04.2020
4163 Clouds 0 1015 90 10000 2.6 110 13:19 28.04.2020
4164 Clouds 0 1015 90 10000 2.6 110 13:19 28.04.2020
4165 Clouds 0 1015 90 10000 2.1 110 12:46 28.04.2020
4166 Clouds 0 1015 90 10000 2.1 110 12:26 28.04.2020
4167 Clouds 0 1015 90 10000 2.6 100 11:56 28.04.2020
4168 Clouds 0 1015 90 10000 2.6 90 11:37 28.04.2020
4169 Clouds 0 1015 90 10000 2.6 90 11:37 28.04.2020
4170 Clouds 0 1015 91 10000 2.6 90 11:18 28.04.2020
4171 Clouds 0 1015 91 10000 3.1 110 10:39 28.04.2020
4172 Clouds 0 1015 91 10000 3.1 110 10:19 28.04.2020
4173 Clouds -2 1015 79 10000 2.6 140 09:59 28.04.2020
4174 Clouds -2 1015 79 10000 2.6 130 09:40 28.04.2020
4175 Clouds -2 1015 79 10000 2.6 130 09:21 28.04.2020
4176 Clouds -2 1015 79 10000 2.6 120 08:46 28.04.2020
4177 Rain -3 1015 92 10000 3.1 110 08:27 28.04.2020
4178 Clouds -3 1015 86 10000 5.1 90 07:46 28.04.2020
4179 Clouds -3 1015 86 10000 5.1 90 07:21 28.04.2020
4180 Rain -3 1015 86 10000 3.6 90 06:55 28.04.2020
4181 Rain -4 1015 92 10000 4.1 90 06:22 28.04.2020
4182 Rain -4 1015 92 10000 3.1 100 05:44 28.04.2020
4183 Rain -4 1015 92 10000 3.1 100 05:25 28.04.2020
4184 Rain -4 1015 92 10000 2.1 100 04:33 28.04.2020
4185 Rain -3 1016 92 10000 5.7 70 02:36 28.04.2020
4186 Snow -3 1016 86 10000 5.7 60 01:25 28.04.2020
4187 Rain -3 1016 86 10000 4.6 40 00:58 28.04.2020
4188 Snow -2 1016 79 10000 4.6 30 00:26 28.04.2020
4189 Rain -2 1016 74 10000 6.2 30 23:47 27.04.2020
4190 Rain -2 1016 74 10000 6.2 30 23:25 27.04.2020
4191 Rain -2 1016 74 10000 6.7 30 22:57 27.04.2020
4192 Rain -2 1016 79 10000 6.7 20 22:38 27.04.2020
4193 Rain -2 1016 79 10000 6.7 20 22:20 27.04.2020
4194 Snow -2 1016 79 10000 6.2 20 21:56 27.04.2020
4195 Rain -2 1016 79 10000 5.1 20 21:38 27.04.2020
4196 Clouds -2 1016 79 10000 4.6 30 21:18 27.04.2020
4197 Clouds -2 1016 79 10000 4.6 30 20:54 27.04.2020
4198 Clouds -2 1016 74 10000 4.1 30 20:36 27.04.2020
4199 Clouds -2 1016 74 10000 4.1 30 20:18 27.04.2020
4200 Rain -1 1016 74 10000 4.1 20 19:40 27.04.2020
4201 Rain -1 1016 74 10000 4.1 20 19:21 27.04.2020
4202 Rain -2 1016 79 10000 5.1 10 18:59 27.04.2020
4203 Rain -1 1016 74 10000 5.7 30 18:40 27.04.2020
4204 Rain -1 1016 74 10000 5.7 30 18:19 27.04.2020
4205 Rain -2 1016 86 10000 4.1 50 17:57 27.04.2020
4206 Rain -2 1016 86 10000 5.7 40 17:38 27.04.2020
4207 Rain -2 1016 86 10000 7.2 30 17:18 27.04.2020
4208 Rain -1 1016 68 10000 7.7 20 16:40 27.04.2020
4209 Rain -1 1016 68 10000 7.7 20 16:22 27.04.2020
4210 Clouds -1 1016 74 10000 8.2 20 15:57 27.04.2020
4211 Clouds -1 1016 74 10000 8.2 20 15:38 27.04.2020
4212 Clouds -1 1016 74 10000 8.2 20 15:19 27.04.2020
4213 Rain -1 1016 68 10000 7.2 20 14:56 27.04.2020
4214 Snow -1 1016 74 5000 8.2 20 14:38 27.04.2020
4215 Snow -1 1016 74 5000 8.2 20 14:18 27.04.2020
4216 Clouds -1 1016 74 10000 8.7 20 13:42 27.04.2020
4217 Clouds -1 1016 74 10000 8.7 20 13:42 27.04.2020
4218 Clouds -1 1016 74 10000 8.7 20 13:22 27.04.2020
4219 Rain -1 1016 74 10000 6.7 30 12:58 27.04.2020
4220 Rain -1 1016 74 10000 8.7 20 12:40 27.04.2020
4221 Rain -1 1016 74 10000 8.7 20 12:20 27.04.2020
4222 Clouds -2 1015 86 10000 6.7 30 11:41 27.04.2020
4223 Clouds -2 1015 86 10000 6.7 30 11:21 27.04.2020
4224 Snow -1 1015 80 10000 8.7 20 10:58 27.04.2020
4225 Rain -1 1015 86 10000 7.7 30 10:39 27.04.2020
4226 Rain -1 1015 86 10000 7.7 30 10:20 27.04.2020
4227 Snow -2 1015 86 10000 8.2 30 09:44 27.04.2020
4228 Snow -2 1015 86 10000 8.2 30 09:21 27.04.2020
4229 Rain -2 1014 79 10000 8.7 30 08:59 27.04.2020
4230 Snow -2 1014 86 10000 7.7 30 08:41 27.04.2020
4231 Snow -2 1014 86 10000 7.7 30 08:23 27.04.2020
4232 Snow -2 1014 86 4600 7.7 20 07:44 27.04.2020
4233 Snow -2 1014 86 4600 7.7 20 07:22 27.04.2020
4234 Snow -2 1014 86 10000 7.7 10 06:57 27.04.2020
4235 Snow -2 1014 74 10000 6.7 10 06:27 27.04.2020
4236 Snow -2 1014 74 10000 6.7 10 05:50 27.04.2020
4237 Snow -1 1013 68 10000 7.2 10 04:51 27.04.2020
4238 Snow -2 1013 79 10000 7.2 20 04:20 27.04.2020
4239 Snow -1 1013 74 10000 10.3 20 03:36 27.04.2020
4240 Snow -1 1012 92 1500 11.3 30 01:45 27.04.2020
4241 Snow -1 1011 92 9000 10.3 20 01:18 27.04.2020
4242 Snow 0 1011 96 10000 10.3 20 00:20 27.04.2020
4243 Snow -1 1011 92 6000 10.3 20 23:59 26.04.2020
4244 Snow -1 1011 92 5000 9.8 20 23:41 26.04.2020
4245 Snow -1 1011 92 5000 9.8 20 23:22 26.04.2020
4246 Snow -1 1011 92 1800 9.8 20 22:58 26.04.2020
4247 Snow -1 1010 92 5000 9.8 40 22:39 26.04.2020
4248 Snow -1 1010 92 5000 9.8 40 22:21 26.04.2020
4249 Snow -1 1010 100 2000 10.3 30 21:58 26.04.2020
4250 Clouds -1 1010 92 1300 9.3 30 21:39 26.04.2020
4251 Clouds -1 1010 92 1300 9.3 30 21:18 26.04.2020
4252 Snow -1 1010 92 7000 9.3 20 20:55 26.04.2020
4253 Snow -1 1009 92 1500 6.7 360 20:37 26.04.2020
4254 Snow -1 1009 92 1500 6.7 360 20:18 26.04.2020
4255 Snow -1 1009 92 9000 6.2 20 19:57 26.04.2020
4256 Snow 0 1009 96 10000 7.7 20 19:36 26.04.2020
4257 Snow 0 1009 96 10000 7.7 20 19:18 26.04.2020
4258 Snow 0 1008 96 5000 8.7 20 18:43 26.04.2020
4259 Snow 0 1008 95 5000 8.7 20 18:24 26.04.2020
4260 Snow 0 1008 95 4000 7.7 10 17:43 26.04.2020
4261 Snow 0 1008 95 4000 7.7 10 17:23 26.04.2020
4262 Clouds 1 1008 74 10000 8.2 10 16:57 26.04.2020
4263 Rain 1 1008 80 10000 8.2 10 16:38 26.04.2020
4264 Rain 1 1008 80 10000 8.2 10 16:19 26.04.2020
4265 Snow 1 1007 74 10000 8.2 20 15:57 26.04.2020
4266 Snow 1 1007 80 5000 8.7 10 15:37 26.04.2020
4267 Snow 1 1007 80 5000 8.7 10 15:18 26.04.2020
4268 Rain 1 1007 69 10000 4.6 10 14:41 26.04.2020
4269 Rain 1 1007 69 10000 4.6 10 14:19 26.04.2020
4270 Rain 1 1007 69 10000 4.6 10 14:19 26.04.2020
4271 Snow 1 1006 69 10000 5.7 20 13:59 26.04.2020
4272 Rain 1 1006 69 10000 5.1 20 13:40 26.04.2020
4273 Clouds 1 1006 69 10000 6.2 20 13:22 26.04.2020
4274 Clouds 1 1006 69 10000 6.2 20 12:57 26.04.2020
4275 Rain 1 1005 69 10000 5.1 20 12:39 26.04.2020
4276 Rain 1 1005 64 10000 6.7 20 12:20 26.04.2020
4277 Rain 1 1005 64 10000 6.7 20 11:55 26.04.2020
4278 Rain 1 1005 64 10000 6.7 20 11:36 26.04.2020
4279 Rain 1 1005 64 10000 6.7 20 11:18 26.04.2020
4280 Drizzle 0 1004 92 10000 6.7 20 10:42 26.04.2020
4281 Drizzle 0 1004 92 10000 6.7 20 10:24 26.04.2020
4282 Rain 0 1004 92 10000 6.7 30 09:58 26.04.2020
4283 Drizzle 0 1003 92 10000 7.7 20 09:39 26.04.2020
4284 Drizzle 0 1003 92 10000 7.7 20 09:20 26.04.2020
4285 Snow 0 1003 92 10000 5.1 20 08:41 26.04.2020
4286 Snow 0 1003 92 10000 5.1 20 08:23 26.04.2020
4287 Drizzle 0 1002 92 10000 5.1 30 07:49 26.04.2020
4288 Snow 0 1002 92 10000 6.2 30 07:25 26.04.2020
4289 Snow 0 1002 92 10000 6.2 20 06:55 26.04.2020
4290 Drizzle 0 1001 92 10000 6.7 30 06:32 26.04.2020
4291 Snow 0 1001 96 10000 6.2 20 05:54 26.04.2020
4292 Snow 0 1001 96 10000 8.7 10 05:34 26.04.2020
4293 Snow 0 1000 96 10000 6.7 350 04:42 26.04.2020
4294 Snow -1 1000 92 6000 8.2 10 03:49 26.04.2020
4295 Snow 0 1000 96 10000 7.7 10 02:40 26.04.2020
4296 Snow 0 1000 95 10000 7.7 10 02:20 26.04.2020
4297 Snow 0 999 95 10000 6.2 30 01:38 26.04.2020
4298 Snow 0 999 95 10000 6.2 30 01:19 26.04.2020
4299 Snow 0 999 95 10000 7.7 360 00:38 26.04.2020
4300 Snow 0 999 96 10000 7.7 360 00:18 26.04.2020
4301 Snow 0 998 96 10000 8.2 20 23:38 25.04.2020
4302 Snow 0 998 96 10000 8.2 20 23:20 25.04.2020
4303 Snow 0 998 96 6000 9.3 10 22:55 25.04.2020
4304 Snow 0 998 96 6000 9.3 10 22:37 25.04.2020
4305 Snow 0 998 96 6000 9.3 10 22:18 25.04.2020
4306 Snow 0 998 96 1100 7.7 350 21:39 25.04.2020
4307 Snow 0 998 97 1100 7.7 350 21:20 25.04.2020
4308 Rain 0 998 97 10000 7.7 360 20:57 25.04.2020
4309 Rain 0 998 97 7000 7.2 360 20:39 25.04.2020
4310 Rain 0 998 97 7000 7.2 360 20:20 25.04.2020
4311 Snow 0 997 97 8000 6.2 10 19:41 25.04.2020
4312 Snow 0 997 97 8000 6.2 10 19:23 25.04.2020
4313 Snow -1 997 92 1700 7.2 20 18:58 25.04.2020
4314 Drizzle 0 997 97 5000 9.3 350 18:39 25.04.2020
4315 Snow 0 997 97 4700 8.7 350 18:20 25.04.2020
4316 Snow 0 997 97 4700 8.7 350 17:58 25.04.2020
4317 Snow 0 997 97 6000 7.7 10 17:38 25.04.2020
4318 Snow 0 997 97 6000 7.7 10 17:38 25.04.2020
4319 Rain 0 997 97 5000 8.7 360 17:19 25.04.2020
4320 Rain 0 997 97 5000 8.7 360 16:55 25.04.2020
4321 Snow 0 997 97 10000 8.2 350 16:37 25.04.2020
4322 Snow 0 997 97 10000 8.2 350 16:18 25.04.2020
4323 Rain 0 996 97 8000 8.7 360 15:41 25.04.2020
4324 Rain 0 996 97 8000 8.7 360 15:41 25.04.2020
4325 Rain 0 996 97 8000 8.7 360 15:20 25.04.2020
4326 Rain 0 996 97 8000 8.7 360 15:20 25.04.2020
4327 Drizzle 0 996 97 8000 9.3 350 14:58 25.04.2020
4328 Snow 0 996 97 9000 10.8 360 14:39 25.04.2020
4329 Snow 0 996 97 9000 10.8 360 14:20 25.04.2020
4330 Snow 0 996 97 9000 10.8 360 14:20 25.04.2020
4331 Snow 0 996 97 3000 9.8 350 13:43 25.04.2020
4332 Snow 0 996 97 3000 9.8 350 13:22 25.04.2020
4333 Snow 0 996 97 5000 9.8 350 12:59 25.04.2020
4334 Snow 0 995 97 5000 11.3 360 12:41 25.04.2020
4335 Snow 0 995 97 5000 11.3 360 12:21 25.04.2020
4336 Snow -1 995 92 4000 11.8 360 11:59 25.04.2020
4337 Snow 0 995 97 4000 9.8 360 11:40 25.04.2020
4338 Snow 0 995 97 4000 9.8 360 11:22 25.04.2020
4339 Snow -1 995 92 1600 10.8 360 10:45 25.04.2020
4340 Snow -1 995 92 1600 10.8 360 10:25 25.04.2020
4341 Snow -1 994 92 1100 9.8 350 09:55 25.04.2020
4342 Snow -1 994 92 1200 11.3 350 09:36 25.04.2020
4343 Snow -1 994 92 1200 11.3 350 09:18 25.04.2020
4344 Snow -1 994 86 1400 10.3 350 08:40 25.04.2020
4345 Snow -1 994 86 1400 10.3 350 08:21 25.04.2020
4346 Snow -1 994 86 600 11.3 350 07:59 25.04.2020
4347 Snow -1 994 92 1100 10.8 360 07:40 25.04.2020
4348 Snow -1 994 92 1100 11.3 350 06:56 25.04.2020
4349 Snow -1 994 92 900 9.8 350 06:36 25.04.2020
4350 Snow -1 995 92 550 9.8 360 05:42 25.04.2020
4351 Snow -1 995 92 550 9.8 360 05:23 25.04.2020
4352 Snow -1 996 100 750 20.6 330 03:19 25.04.2020
4353 Snow 0 997 93 1100 24.7 320 02:28 25.04.2020
4354 Clouds 0 997 93 1700 24.2 320 01:55 25.04.2020
4355 Rain 0 998 93 6000 24.2 320 01:37 25.04.2020
4356 Drizzle 1 998 69 10000 24.7 320 01:18 25.04.2020
4357 Rain 1 998 69 10000 24.7 320 00:37 25.04.2020
4358 Clouds 1 999 74 10000 23.1 320 23:59 24.04.2020
4359 Clouds 0 999 92 10000 21.1 330 23:40 24.04.2020
4360 Clouds 0 999 92 10000 21.1 330 23:20 24.04.2020
4361 Clouds 0 1000 92 10000 19.5 330 22:41 24.04.2020
4362 Clouds 0 1000 92 10000 19.5 330 22:41 24.04.2020
4363 Clouds 0 1000 92 10000 19.5 330 22:20 24.04.2020
4364 Clouds 0 1000 92 10000 20.6 330 21:58 24.04.2020
4365 Clouds 0 1001 92 10000 20.1 330 21:40 24.04.2020
4366 Clouds 0 1001 92 10000 20.1 330 21:22 24.04.2020
4367 Clouds 0 1001 92 10000 20.1 320 20:57 24.04.2020
4368 Clouds 0 1001 92 10000 20.1 320 20:56 24.04.2020
4369 Clouds 0 1002 92 10000 21.1 320 20:38 24.04.2020
4370 Clouds 0 1002 92 10000 21.1 320 20:18 24.04.2020
4371 Clouds 0 1003 92 10000 19 330 19:44 24.04.2020
4372 Clouds 0 1003 92 10000 19 330 19:25 24.04.2020
4373 Clouds 1 1003 69 10000 17.5 320 18:58 24.04.2020
4374 Clouds 1 1003 69 10000 18.5 330 18:38 24.04.2020
4375 Clouds 1 1003 69 10000 18.5 330 18:20 24.04.2020
4376 Clouds 1 1003 69 10000 18.5 330 18:20 24.04.2020
4377 Clouds 1 1004 69 10000 18 340 17:42 24.04.2020
4378 Clouds 1 1004 69 10000 18 340 17:24 24.04.2020
4379 Rain 1 1004 69 10000 19.5 330 16:59 24.04.2020
4380 Rain 1 1004 74 10000 20.6 330 16:41 24.04.2020
4381 Rain 1 1004 74 10000 20.6 330 16:22 24.04.2020
4382 Clouds 1 1004 74 10000 20.6 340 15:59 24.04.2020
4383 Snow 0 1004 94 10000 20.1 340 15:38 24.04.2020
4384 Snow 0 1004 95 10000 20.1 340 15:18 24.04.2020
4385 Clouds 0 1005 95 8000 19.5 340 14:40 24.04.2020
4386 Clouds 0 1005 95 8000 19.5 340 14:21 24.04.2020
4387 Clouds 0 1005 95 7000 18 350 13:57 24.04.2020
4388 Snow -1 1005 92 1500 18.5 350 13:38 24.04.2020
4389 Snow -1 1005 92 1500 18.5 350 13:20 24.04.2020
4390 Snow -1 1005 92 4700 18.5 340 12:42 24.04.2020
4391 Snow -1 1005 92 4700 18.5 340 12:24 24.04.2020
4392 Snow -1 1005 92 7000 18 340 11:58 24.04.2020
4393 Snow -1 1005 86 3000 18.5 340 11:38 24.04.2020
4394 Snow -1 1005 86 3000 18.5 340 11:20 24.04.2020
4395 Snow -1 1005 86 3000 18.5 340 11:20 24.04.2020
4396 Snow -2 1005 86 2000 20.1 340 10:55 24.04.2020
4397 Snow -1 1005 74 6000 19.5 350 10:37 24.04.2020
4398 Snow -1 1005 74 6000 19.5 350 10:19 24.04.2020
4399 Snow -1 1006 74 9000 15.9 330 09:45 24.04.2020
4400 Snow -1 1006 74 9000 15.9 330 09:24 24.04.2020
4401 Snow -2 1006 74 9000 15.9 340 08:58 24.04.2020
4402 Clouds -2 1006 79 10000 18.5 340 08:39 24.04.2020
4403 Clouds -2 1006 79 10000 18.5 340 08:18 24.04.2020
4404 Clouds -2 1006 79 10000 18.5 350 07:46 24.04.2020
4405 Clouds -2 1006 79 10000 18.5 350 07:26 24.04.2020
4406 Clouds -1 1006 74 10000 18.5 340 06:57 24.04.2020
4407 Clouds -1 1007 68 10000 18 340 06:37 24.04.2020
4408 Clouds -1 1007 68 10000 16.5 350 05:48 24.04.2020
4409 Clouds -1 1008 63 10000 17 350 04:30 24.04.2020
4410 Clouds -3 1011 91 0 8.45 345 03:19 24.04.2020
4411 Clouds -3 1011 91 0 8.45 345 02:41 24.04.2020
4412 Clouds -1 1009 54 10000 13.9 340 02:20 24.04.2020
4413 Clouds -1 1009 54 10000 13.9 340 01:24 24.04.2020
4414 Clouds -1 1010 58 10000 12.9 350 00:38 24.04.2020
4415 Clouds -1 1010 58 10000 12.9 350 00:18 24.04.2020
4416 Clouds -1 1010 58 10000 10.8 350 23:44 23.04.2020
4417 Clouds -1 1010 58 10000 10.8 350 23:26 23.04.2020
4418 Clouds -1 1010 58 10000 10.8 350 23:26 23.04.2020
4419 Clouds -2 1010 63 10000 9.8 340 22:55 23.04.2020
4420 Clouds -1 1010 58 10000 9.8 360 22:37 23.04.2020
4421 Clouds -1 1010 58 10000 9.8 360 22:18 23.04.2020
4422 Clouds -2 1011 63 10000 9.3 360 21:56 23.04.2020
4423 Clouds -2 1011 63 10000 8.7 350 21:38 23.04.2020
4424 Clouds -1 1011 63 10000 8.7 360 21:20 23.04.2020
4425 Clouds -1 1011 63 10000 8.7 360 20:54 23.04.2020
4426 Clouds -1 1011 58 10000 7.2 350 20:36 23.04.2020
4427 Clouds -1 1011 58 10000 7.2 350 20:18 23.04.2020
4428 Clouds -1 1012 63 10000 7.2 360 19:42 23.04.2020
4429 Clouds -1 1012 63 10000 7.2 360 19:42 23.04.2020
4430 Clouds -1 1012 63 10000 7.2 360 19:22 23.04.2020
4431 -273 0 0 0 0 0 19:00 23.04.2020
4432 Clouds -1 1012 63 10000 7.2 360 18:59 23.04.2020
4433 Clouds -1 1013 63 10000 6.2 360 18:39 23.04.2020
4434 Clouds -1 1013 63 10000 6.2 360 18:21 23.04.2020
4435 Clouds 0 1013 89 10000 5.7 360 17:57 23.04.2020
4436 Clouds 0 1013 89 10000 4.1 10 17:38 23.04.2020
4437 Clouds 0 1013 89 10000 4.1 10 17:20 23.04.2020
4438 Clouds 0 1013 89 10000 4.1 20 16:44 23.04.2020
4439 Clouds 0 1013 89 10000 4.1 20 16:44 23.04.2020
4440 Clouds 0 1013 89 10000 4.1 20 16:21 23.04.2020
4441 Clouds 0 1014 89 10000 3.1 20 15:59 23.04.2020
4442 Clouds 0 1014 89 10000 3.1 30 15:40 23.04.2020
4443 Clouds 0 1014 90 10000 3.1 30 15:21 23.04.2020
4444 Clouds 0 1014 90 10000 2.6 60 14:41 23.04.2020
4445 Clouds 0 1014 89 10000 2.6 60 14:22 23.04.2020
4446 Clouds 0 1014 89 10000 2.1 60 13:59 23.04.2020
4447 Clouds 0 1015 89 10000 2.1 100 13:40 23.04.2020
4448 Clouds 0 1015 89 10000 2.1 100 13:22 23.04.2020
4449 Clouds 0 1015 89 10000 2.6 100 12:57 23.04.2020
4450 Clouds 1 1015 64 10000 3.1 80 12:38 23.04.2020
4451 Clouds 1 1015 64 10000 3.1 80 12:20 23.04.2020
4452 Clouds 1 1015 64 10000 2.6 40 11:47 23.04.2020
4453 Clouds 1 1015 64 10000 2.6 40 11:27 23.04.2020
4454 Clouds 1 1016 64 10000 1 0 10:58 23.04.2020
4455 Clouds 1 1016 64 10000 2.1 70 10:39 23.04.2020
4456 Clouds 1 1016 64 10000 2.1 70 10:20 23.04.2020
4457 Clouds 0 1016 87 10000 3.1 20 09:40 23.04.2020
4458 Clouds 0 1016 88 10000 3.1 20 09:18 23.04.2020
4459 Clouds 0 1016 88 10000 3.1 20 09:18 23.04.2020
4460 Clouds 0 1017 88 10000 2.6 10 08:50 23.04.2020
4461 Clouds 0 1017 88 10000 2.6 10 08:30 23.04.2020
4462 Clouds 0 1017 88 10000 2.1 40 07:57 23.04.2020
4463 Clouds -1 1018 80 10000 3.1 40 07:39 23.04.2020
4464 Clouds -1 1018 80 10000 3.1 40 07:39 23.04.2020
4465 Clouds -1 1018 80 10000 3.1 40 07:19 23.04.2020
4466 Clouds -1 1018 80 10000 3.6 30 06:44 23.04.2020
4467 Clouds 0 1019 89 10000 5.1 10 05:39 23.04.2020
4468 Clouds 0 1019 89 10000 5.1 20 05:21 23.04.2020
4469 Clouds 0 1020 89 10000 5.1 360 03:32 23.04.2020
4470 Drizzle 0 1020 87 10000 6.2 360 02:23 23.04.2020
4471 Drizzle 0 1021 87 10000 6.7 360 01:38 23.04.2020
4472 Clouds 0 1021 87 10000 7.2 360 00:55 23.04.2020
4473 Clouds 0 1021 86 10000 7.2 360 00:27 23.04.2020
4474 Clouds 0 1022 86 10000 6.2 360 23:58 22.04.2020
4475 Clouds 1 1022 80 10000 7.2 350 23:40 22.04.2020
4476 Clouds 1 1022 80 10000 7.2 350 23:19 22.04.2020
4477 Clouds 1 1022 80 10000 7.2 340 22:40 22.04.2020
4478 Clouds 1 1022 80 10000 7.2 340 22:20 22.04.2020
4479 Clouds 1 1022 80 10000 8.2 340 21:59 22.04.2020
4480 Clouds 1 1023 80 10000 8.7 340 21:40 22.04.2020
4481 Clouds 1 1023 80 10000 8.7 340 21:21 22.04.2020
4482 Clouds 2 1023 74 10000 8.2 340 20:57 22.04.2020
4483 Clouds 2 1023 74 10000 8.7 340 20:39 22.04.2020
4484 Clouds 2 1023 74 10000 8.7 340 20:18 22.04.2020
4485 Clouds 2 1024 74 10000 8.7 340 19:57 22.04.2020
4486 Clouds 2 1024 74 10000 9.3 340 19:37 22.04.2020
4487 Clouds 2 1024 74 10000 9.3 340 19:18 22.04.2020
4488 Clouds 2 1024 74 10000 8.2 340 18:56 22.04.2020
4489 Clouds 2 1024 74 10000 8.2 340 18:38 22.04.2020
4490 Clouds 2 1024 74 10000 8.2 340 18:20 22.04.2020
4491 Clouds 2 1024 80 10000 7.7 340 17:43 22.04.2020
4492 Clouds 2 1024 80 10000 7.7 340 17:25 22.04.2020
4493 Clouds 2 1024 80 10000 8.2 340 16:56 22.04.2020
4494 Clouds 3 1024 69 10000 9.8 350 16:38 22.04.2020
4495 Clouds 3 1024 69 10000 9.8 350 16:19 22.04.2020
4496 Clouds 3 1025 69 10000 11.8 340 15:41 22.04.2020
4497 Clouds 3 1025 69 10000 11.3 340 15:22 22.04.2020
4498 Clouds 3 1025 69 10000 11.3 340 14:58 22.04.2020
4499 Clouds 3 1025 69 10000 9.8 330 14:38 22.04.2020
4500 Clouds 3 1025 69 10000 9.8 330 14:19 22.04.2020
4501 Clouds 5 1025 56 10000 11.3 320 13:45 22.04.2020
4502 Clouds 4 1025 60 10000 12.3 320 13:21 22.04.2020
4503 Clouds 4 1025 60 10000 12.3 320 12:57 22.04.2020
4504 Clouds 4 1025 64 10000 12.9 320 12:39 22.04.2020
4505 Clouds 4 1025 64 10000 12.9 320 12:20 22.04.2020
4506 Clouds 4 1025 64 10000 12.9 320 11:40 22.04.2020
4507 Clouds 4 1025 64 10000 12.9 320 11:20 22.04.2020
4508 Clouds 4 1025 64 10000 12.9 320 10:59 22.04.2020
4509 Clouds 5 1025 60 10000 12.3 310 10:39 22.04.2020
4510 Clouds 5 1025 60 10000 12.3 310 10:19 22.04.2020
4511 Clouds 4 1025 69 10000 14.9 310 09:39 22.04.2020
4512 Clouds 4 1025 69 10000 14.9 310 09:20 22.04.2020
4513 Clouds 4 1025 69 10000 15.4 310 08:56 22.04.2020
4514 Clouds 4 1025 69 10000 15.4 310 08:56 22.04.2020
4515 Clouds 4 1025 78 10000 14.9 310 08:38 22.04.2020
4516 Clouds 4 1025 78 10000 14.9 310 08:19 22.04.2020
4517 Clouds 4 1026 69 10000 15.4 310 07:52 22.04.2020
4518 Clouds 3 1026 78 10000 14.4 310 07:24 22.04.2020
4519 Clouds 3 1026 78 10000 16.5 310 06:52 22.04.2020
4520 Clouds 3 1026 80 10000 17 290 05:48 22.04.2020
4521 Clouds 3 1026 80 10000 16.5 300 05:27 22.04.2020
4522 Clouds 3 1026 80 10000 16.5 300 05:27 22.04.2020
4523 Clouds 3 1027 80 10000 17 300 04:20 22.04.2020
4524 Clouds 4 1028 69 10000 18 300 02:40 22.04.2020
4525 Clouds 4 1028 69 10000 19.5 300 01:44 22.04.2020
4526 Clouds 4 1028 69 10000 19.5 300 01:24 22.04.2020
4527 Clouds 4 1028 64 10000 19.5 300 00:47 22.04.2020
4528 Clouds 4 1028 64 10000 17 300 00:22 22.04.2020
4529 Clouds 4 1029 64 10000 18 300 23:59 21.04.2020
4530 Clouds 4 1029 64 10000 17.5 300 23:40 21.04.2020
4531 Clouds 4 1029 64 10000 17.5 300 23:18 21.04.2020
4532 Clouds 3 1029 74 10000 21.1 290 22:40 21.04.2020
4533 Clouds 3 1029 74 10000 21.1 290 22:21 21.04.2020
4534 Clouds 3 1029 74 10000 20.6 290 21:59 21.04.2020
4535 Clouds 3 1029 74 10000 21.1 290 21:40 21.04.2020
4536 Clouds 3 1029 74 10000 21.1 290 21:40 21.04.2020
4537 Clouds 3 1029 74 10000 21.1 290 21:22 21.04.2020
4538 Clouds 3 1029 69 10000 21.6 300 20:55 21.04.2020
4539 Clouds 4 1029 60 10000 22.6 300 20:36 21.04.2020
4540 Clouds 4 1029 60 10000 22.6 300 20:18 21.04.2020
4541 Clouds 4 1029 55 10000 19.5 300 19:40 21.04.2020
4542 Clouds 4 1029 55 10000 19.5 300 19:40 21.04.2020
4543 Clouds 3 1029 69 10000 22.1 290 19:19 21.04.2020
4544 Clouds 3 1029 69 10000 22.1 290 18:57 21.04.2020
4545 Clouds 4 1029 64 10000 22.1 290 18:38 21.04.2020
4546 Clouds 4 1029 64 10000 22.1 290 18:19 21.04.2020
4547 Clouds 4 1029 69 10000 20.1 300 17:55 21.04.2020
4548 Clouds 4 1029 64 10000 21.6 300 17:37 21.04.2020
4549 Clouds 4 1029 64 10000 20.1 300 17:18 21.04.2020
4550 Clouds 3 1029 69 10000 18 300 16:39 21.04.2020
4551 Clouds 3 1029 69 10000 18 300 16:19 21.04.2020
4552 Clouds 4 1030 64 10000 18.5 300 15:57 21.04.2020
4553 Clouds 4 1029 60 10000 19 300 15:38 21.04.2020
4554 Clouds 4 1029 60 10000 19 300 15:20 21.04.2020
4555 Clouds 4 1029 60 10000 18.5 300 14:57 21.04.2020
4556 Clouds 3 1029 64 10000 19 300 14:39 21.04.2020
4557 Clouds 3 1029 64 10000 19 300 14:20 21.04.2020
4558 Clouds 3 1028 59 10000 19.5 310 13:40 21.04.2020
4559 Clouds 3 1028 59 10000 19.5 310 13:22 21.04.2020
4560 Clouds 3 1028 55 10000 19.5 310 12:55 21.04.2020
4561 Clouds 3 1028 51 10000 19.5 310 12:37 21.04.2020
4562 Clouds 3 1028 51 10000 19.5 310 12:18 21.04.2020
4563 Clouds 3 1027 55 10000 18 310 11:55 21.04.2020
4564 Clouds 3 1027 55 10000 18 320 11:36 21.04.2020
4565 Clouds 3 1026 51 10000 21.1 310 11:18 21.04.2020
4566 Clouds 3 1026 51 10000 21.1 310 10:55 21.04.2020
4567 Clouds 3 1026 55 10000 20.1 310 10:37 21.04.2020
4568 Clouds 3 1026 55 10000 20.1 310 10:19 21.04.2020
4569 Clouds 3 1025 55 10000 19.5 320 09:37 21.04.2020
4570 Clouds 3 1024 55 10000 19 320 09:19 21.04.2020
4571 Clouds 3 1024 55 10000 19 320 08:56 21.04.2020
4572 Clouds 3 1024 55 10000 19 310 08:38 21.04.2020
4573 Clouds 3 1024 55 10000 19 310 08:18 21.04.2020
4574 Clouds 3 1024 64 10000 19.5 320 07:43 21.04.2020
4575 Clouds 3 1024 64 10000 19.5 320 07:21 21.04.2020
4576 Clouds 3 1022 69 10000 18.5 310 06:44 21.04.2020
4577 Clouds 3 1022 69 10000 18.5 310 06:19 21.04.2020
4578 Clouds 4 1022 64 10000 18.5 310 05:48 21.04.2020
4579 Snow 2 1022 78 0 11.94 305 03:48 21.04.2020
4580 Clouds 4 1020 82 10000 19 290 03:27 21.04.2020
4581 Clouds 4 1021 80 10000 18 290 01:46 21.04.2020
4582 Clouds 4 1021 80 10000 18.5 290 00:53 21.04.2020
4583 Clouds 4 1021 80 10000 18.5 290 00:32 21.04.2020
4584 Clouds 4 1021 78 10000 15.9 280 23:44 20.04.2020
4585 Clouds 4 1021 78 10000 15.9 280 23:25 20.04.2020
4586 Clouds 4 1021 78 10000 15.4 280 22:57 20.04.2020
4587 Rain 4 1022 78 10000 16.5 280 22:38 20.04.2020
4588 Rain 4 1022 78 10000 16.5 280 22:19 20.04.2020
4589 Rain 4 1022 78 10000 16.5 280 22:19 20.04.2020
4590 Clouds 4 1022 69 10000 14.9 290 21:56 20.04.2020
4591 Clouds 4 1022 69 10000 14.9 290 21:38 20.04.2020
4592 Clouds 4 1022 69 10000 14.9 290 21:19 20.04.2020
4593 Clouds 3 1022 69 10000 16.5 290 20:56 20.04.2020
4594 Clouds 3 1022 69 10000 17 290 20:37 20.04.2020
4595 Clouds 3 1022 69 10000 17 290 20:18 20.04.2020
4596 Clouds 3 1022 74 10000 19 290 19:55 20.04.2020
4597 Clouds 3 1022 74 10000 19 290 19:37 20.04.2020
4598 Clouds 3 1022 74 10000 19 290 19:18 20.04.2020
4599 Clouds 4 1022 69 10000 22.6 300 18:42 20.04.2020
4600 Clouds 4 1022 69 10000 22.6 300 18:22 20.04.2020
4601 Clouds 4 1022 69 10000 22.6 300 18:22 20.04.2020
4602 Clouds 4 1022 69 10000 22.6 300 17:55 20.04.2020
4603 Clouds 4 1022 69 10000 20.1 300 17:37 20.04.2020
4604 Clouds 4 1022 69 10000 18 300 17:19 20.04.2020
4605 Clouds 4 1022 69 10000 18 300 16:57 20.04.2020
4606 Clouds 4 1022 69 10000 20.1 300 16:38 20.04.2020
4607 Clouds 4 1022 69 10000 20.1 300 16:18 20.04.2020
4608 Clouds 4 1021 69 10000 19.5 300 15:42 20.04.2020
4609 Clouds 4 1021 69 10000 19.5 300 15:23 20.04.2020
4610 Clouds 4 1021 69 10000 20.1 300 14:55 20.04.2020
4611 Clouds 4 1021 69 10000 22.1 300 14:36 20.04.2020
4612 Clouds 4 1021 69 10000 22.1 300 14:18 20.04.2020
4613 Clouds 4 1020 69 10000 20.6 300 13:41 20.04.2020
4614 Clouds 4 1020 69 10000 20.6 300 13:22 20.04.2020
4615 Clouds 4 1020 69 10000 20.6 300 12:54 20.04.2020
4616 Clouds 4 1019 69 10000 21.1 300 12:36 20.04.2020
4617 Clouds 4 1019 69 10000 21.1 300 12:18 20.04.2020
4618 Clouds 4 1019 69 10000 21.6 300 11:40 20.04.2020
4619 Clouds 4 1019 69 10000 21.6 300 11:21 20.04.2020
4620 Clouds 4 1018 69 10000 22.1 300 10:57 20.04.2020
4621 Clouds 4 1018 69 10000 22.1 300 10:57 20.04.2020
4622 Clouds 4 1018 69 10000 22.6 300 10:38 20.04.2020
4623 Clouds 4 1018 69 10000 22.6 300 10:19 20.04.2020
4624 Clouds 4 1018 69 10000 22.6 300 09:55 20.04.2020
4625 Clouds 4 1018 69 10000 23.1 290 09:36 20.04.2020
4626 Clouds 4 1018 69 10000 23.1 290 09:18 20.04.2020
4627 Clouds 4 1017 69 10000 20.1 290 08:41 20.04.2020
4628 Clouds 4 1017 69 10000 20.1 290 08:21 20.04.2020
4629 Clouds 4 1017 69 10000 19.5 290 07:52 20.04.2020
4630 Clouds 4 1017 69 10000 19 290 07:29 20.04.2020
4631 Clouds 4 1017 76 10000 17.5 290 06:57 20.04.2020
4632 Clouds 4 1017 76 10000 18.5 290 06:36 20.04.2020
4633 Clouds 4 1016 82 10000 17 300 05:41 20.04.2020
4634 Clouds 4 1016 80 10000 19 290 04:18 20.04.2020
4635 Rain 3 1015 100 10000 15.4 280 02:46 20.04.2020
4636 Rain 3 1015 100 10000 17.5 270 01:51 20.04.2020
4637 Rain 3 1015 100 10000 17.5 270 01:28 20.04.2020
4638 Drizzle 3 1015 93 10000 18.5 280 00:36 20.04.2020
4639 Drizzle 4 1015 86 10000 15.4 280 23:59 19.04.2020
4640 Drizzle 3 1016 93 10000 12.3 270 23:38 19.04.2020
4641 Drizzle 3 1016 93 10000 12.3 270 23:19 19.04.2020
4642 Clouds 4 1016 86 10000 10.8 270 22:41 19.04.2020
4643 Clouds 4 1016 86 10000 10.8 270 22:23 19.04.2020
4644 Clouds 3 1016 93 10000 11.8 290 21:58 19.04.2020
4645 Drizzle 3 1016 93 10000 12.3 290 21:40 19.04.2020
4646 Drizzle 3 1016 93 10000 12.3 290 21:21 19.04.2020
4647 Drizzle 3 1017 93 10000 10.3 270 20:55 19.04.2020
4648 Drizzle 3 1017 93 10000 15.4 290 20:37 19.04.2020
4649 Drizzle 3 1017 93 10000 15.4 290 20:19 19.04.2020
4650 Clouds 4 1017 86 10000 15.9 290 19:41 19.04.2020
4651 Clouds 4 1017 93 10000 15.4 290 19:23 19.04.2020
4652 Clouds 4 1017 93 10000 15.4 290 18:58 19.04.2020
4653 Drizzle 4 1017 93 10000 17 290 18:40 19.04.2020
4654 Drizzle 4 1017 93 10000 17 290 18:21 19.04.2020
4655 Drizzle 3 1017 100 6000 14.9 300 17:59 19.04.2020
4656 Clouds 4 1017 93 10000 17.5 290 17:41 19.04.2020
4657 Clouds 4 1017 93 10000 17.5 290 17:22 19.04.2020
4658 Clouds 4 1017 93 10000 17 290 16:58 19.04.2020
4659 Clouds 4 1017 93 10000 14.9 290 16:39 19.04.2020
4660 Clouds 4 1017 93 10000 14.9 290 16:21 19.04.2020
4661 Drizzle 4 1017 93 10000 15.4 290 15:54 19.04.2020
4662 Clouds 4 1017 93 10000 14.4 290 15:36 19.04.2020
4663 Clouds 4 1017 93 10000 14.4 290 15:18 19.04.2020
4664 Drizzle 3 1017 100 10000 13.9 290 14:38 19.04.2020
4665 Drizzle 3 1017 100 10000 13.9 290 14:20 19.04.2020
4666 Drizzle 3 1017 100 10000 13.9 290 14:20 19.04.2020
4667 Drizzle 3 1017 100 4000 11.3 290 13:54 19.04.2020
4668 Fog 3 1017 100 1200 7.7 280 13:36 19.04.2020
4669 Fog 3 1017 100 1200 7.7 280 13:18 19.04.2020
4670 Mist 3 1017 93 3000 9.8 290 12:42 19.04.2020
4671 Mist 3 1017 93 3000 9.8 290 12:23 19.04.2020
4672 Rain 3 1016 93 10000 12.9 290 11:39 19.04.2020
4673 Rain 3 1016 93 10000 12.9 290 11:20 19.04.2020
4674 Mist 3 1016 93 5000 12.3 300 10:59 19.04.2020
4675 Mist 3 1016 93 8000 13.4 290 10:41 19.04.2020
4676 Rain 3 1016 93 10000 13.4 290 10:20 19.04.2020
4677 Rain 3 1016 93 10000 13.4 290 09:51 19.04.2020
4678 Mist 3 1016 93 10000 11.8 290 09:32 19.04.2020
4679 Rain 3 1016 93 10000 10.3 300 08:59 19.04.2020
4680 Rain 3 1016 93 10000 11.8 300 08:38 19.04.2020
4681 Rain 3 1016 93 10000 11.8 300 08:18 19.04.2020
4682 Rain 3 1016 100 10000 10.3 290 07:45 19.04.2020
4683 Rain 3 1016 100 10000 10.3 290 07:25 19.04.2020
4684 Fog 3 1015 93 300 7.7 290 06:37 19.04.2020
4685 Fog 3 1015 93 300 7.7 290 06:18 19.04.2020
4686 Drizzle 3 1015 93 10000 11.8 290 04:56 19.04.2020
4687 Drizzle 2 1016 93 9000 12.3 290 03:24 19.04.2020
4688 Drizzle 3 1015 93 10000 9.8 290 02:22 19.04.2020
4689 Rain 3 1015 93 10000 10.8 290 01:39 19.04.2020
4690 Rain 3 1015 93 10000 10.8 290 01:19 19.04.2020
4691 Rain 3 1015 93 10000 8.2 280 00:40 19.04.2020
4692 Rain 3 1015 93 10000 8.2 280 00:19 19.04.2020
4693 Rain 3 1016 93 10000 9.3 290 23:41 18.04.2020
4694 Rain 3 1016 93 10000 9.3 290 23:19 18.04.2020
4695 Drizzle 3 1016 100 6000 8.7 270 22:43 18.04.2020
4696 Drizzle 3 1016 100 6000 8.7 270 22:23 18.04.2020
4697 Drizzle 3 1016 93 5000 8.2 270 21:58 18.04.2020
4698 Fog 2 1016 100 150 8.2 270 21:39 18.04.2020
4699 Fog 2 1016 100 150 8.2 270 21:21 18.04.2020
4700 Fog 2 1016 100 200 7.2 260 20:58 18.04.2020
4701 Rain 2 1016 100 10000 5.7 270 20:40 18.04.2020
4702 Rain 2 1016 100 10000 5.7 270 20:18 18.04.2020
4703 Rain 2 1016 93 10000 6.2 260 19:41 18.04.2020
4704 Rain 2 1016 93 10000 6.2 260 19:22 18.04.2020
4705 Rain 2 1016 93 10000 4.6 240 18:39 18.04.2020
4706 Clouds 2 1016 93 10000 4.6 240 18:20 18.04.2020
4707 Rain 2 1016 87 10000 4.1 230 17:58 18.04.2020
4708 Rain 2 1016 87 10000 5.1 250 17:39 18.04.2020
4709 Rain 2 1016 87 10000 5.1 250 17:19 18.04.2020
4710 Rain 2 1016 80 10000 4.6 260 16:43 18.04.2020
4711 Rain 2 1016 80 10000 4.6 260 16:22 18.04.2020
4712 Clouds 2 1015 80 10000 4.1 280 15:56 18.04.2020
4713 Clouds 3 1016 69 10000 3.6 290 15:37 18.04.2020
4714 Clouds 3 1016 69 10000 3.6 290 15:19 18.04.2020
4715 Clouds 3 1015 69 10000 5.1 320 14:44 18.04.2020
4716 Clouds 3 1015 69 10000 5.1 320 14:23 18.04.2020
4717 Clouds 3 1015 64 10000 7.2 320 13:44 18.04.2020
4718 Clouds 3 1015 64 10000 7.2 320 13:22 18.04.2020
4719 Clouds 3 1015 59 10000 8.7 320 12:55 18.04.2020
4720 Clouds 4 1014 60 10000 9.3 320 12:36 18.04.2020
4721 Clouds 4 1014 60 10000 9.3 320 12:36 18.04.2020
4722 Clouds 4 1014 60 10000 9.3 320 12:18 18.04.2020
4723 Clouds 2 1014 69 10000 11.8 320 11:42 18.04.2020
4724 Clouds 2 1014 69 10000 11.8 320 11:22 18.04.2020
4725 Clouds 2 1014 69 10000 11.8 320 11:22 18.04.2020
4726 Clouds 2 1013 69 10000 12.9 310 10:57 18.04.2020
4727 Clouds 2 1013 69 10000 12.9 320 10:36 18.04.2020
4728 Clouds 2 1013 69 10000 12.9 320 10:18 18.04.2020
4729 Clouds 2 1013 74 10000 12.9 320 09:41 18.04.2020
4730 Clouds 2 1013 74 10000 12.9 320 09:21 18.04.2020
4731 Clouds 2 1013 69 10000 14.4 320 08:43 18.04.2020
4732 Clouds 2 1013 69 10000 14.4 320 08:43 18.04.2020
4733 Clouds 2 1013 69 10000 14.4 320 08:24 18.04.2020
4734 Clouds 2 1012 69 10000 13.9 320 07:52 18.04.2020
4735 Clouds 2 1012 69 10000 13.9 320 07:33 18.04.2020
4736 Clouds 2 1011 69 10000 12.3 320 06:53 18.04.2020
4737 Clouds 2 1011 69 10000 12.3 320 06:19 18.04.2020
4738 Clouds 2 1011 69 10000 15.4 320 05:35 18.04.2020
4739 Clouds 2 1011 74 10000 15.9 320 04:46 18.04.2020
4740 Clouds 2 1011 74 10000 15.9 320 04:24 18.04.2020
4741 Rain 2 1010 87 10000 15.4 340 02:45 18.04.2020
4742 Rain 2 1010 88 10000 15.4 340 02:22 18.04.2020
4743 Clouds 1 1010 88 2500 15.9 330 01:51 18.04.2020
4744 Clouds 1 1010 88 2500 15.9 330 01:31 18.04.2020
4745 Rain 2 1010 88 10000 15.9 330 00:41 18.04.2020
4746 Rain 2 1010 86 10000 15.9 330 00:20 18.04.2020
4747 Snow 2 1010 86 10000 13.9 330 23:55 17.04.2020
4748 Rain 2 1010 86 10000 15.4 340 23:36 17.04.2020
4749 Rain 2 1010 86 10000 15.4 340 23:18 17.04.2020
4750 Snow 2 1009 80 10000 15.9 330 22:54 17.04.2020
4751 Rain 2 1009 80 10000 14.9 320 22:36 17.04.2020
4752 Rain 2 1009 80 10000 14.9 320 22:18 17.04.2020
4753 Clouds 3 1009 86 10000 13.4 330 21:41 17.04.2020
4754 Drizzle 2 1009 84 10000 15.4 340 21:21 17.04.2020
4755 Drizzle 2 1009 84 10000 15.4 340 20:56 17.04.2020
4756 Clouds 3 1009 84 10000 13.9 330 20:37 17.04.2020
4757 Clouds 3 1009 84 10000 13.9 330 20:18 17.04.2020
4758 Rain 3 1009 80 10000 13.4 330 19:56 17.04.2020
4759 Clouds 3 1008 84 10000 14.4 320 19:38 17.04.2020
4760 Clouds 3 1008 84 10000 14.4 320 19:19 17.04.2020
4761 Clouds 3 1008 84 10000 13.9 330 18:42 17.04.2020
4762 Clouds 3 1008 81 10000 13.9 330 18:22 17.04.2020
4763 Clouds 3 1008 74 10000 14.4 330 17:38 17.04.2020
4764 Clouds 3 1008 81 10000 12.3 330 17:20 17.04.2020
4765 Clouds 3 1008 81 10000 12.3 330 16:59 17.04.2020
4766 Clouds 3 1007 81 10000 12.9 330 16:41 17.04.2020
4767 Clouds 3 1007 81 10000 13.4 330 16:22 17.04.2020
4768 Rain 4 1007 74 10000 11.3 330 15:40 17.04.2020
4769 Rain 4 1007 74 10000 11.3 330 15:22 17.04.2020
4770 Clouds 4 1007 69 10000 13.4 330 14:55 17.04.2020
4771 Rain 4 1006 69 10000 14.4 340 14:36 17.04.2020
4772 Rain 4 1006 69 10000 14.4 340 14:18 17.04.2020
4773 Clouds 4 1006 74 10000 13.9 340 13:40 17.04.2020
4774 Clouds 4 1006 74 10000 13.9 340 13:20 17.04.2020
4775 Rain 4 1006 86 10000 13.9 340 12:57 17.04.2020
4776 Rain 4 1005 86 10000 13.4 340 12:38 17.04.2020
4777 Rain 4 1005 83 10000 13.4 340 12:20 17.04.2020
4778 Rain 3 1004 74 10000 13.9 340 11:40 17.04.2020
4779 Rain 3 1004 74 10000 13.9 340 11:19 17.04.2020
4780 Rain 3 1004 74 10000 13.4 340 11:19 17.04.2020
4781 Rain 3 1004 74 10000 13.9 340 10:43 17.04.2020
4782 Rain 3 1004 74 10000 13.9 340 10:22 17.04.2020
4783 Rain 3 1004 74 10000 12.9 330 09:57 17.04.2020
4784 Clouds 3 1004 82 10000 13.4 330 09:38 17.04.2020
4785 Clouds 3 1004 82 10000 13.4 330 09:19 17.04.2020
4786 Rain 2 1004 80 10000 12.9 330 08:48 17.04.2020
4787 Rain 2 1003 80 10000 12.9 330 08:27 17.04.2020
4788 Rain 2 1003 82 10000 12.3 330 07:58 17.04.2020
4789 Rain 2 1003 82 10000 12.3 330 07:39 17.04.2020
4790 Clouds 3 1003 74 10000 14.4 340 07:19 17.04.2020
4791 Rain 3 1003 74 10000 12.9 340 06:44 17.04.2020
4792 Clouds 2 1003 89 10000 10.3 320 05:58 17.04.2020
4793 Snow 2 1002 69 10000 11.8 340 03:27 17.04.2020
4794 Snow 2 1001 69 10000 11.3 340 02:55 17.04.2020
4795 Clouds 2 1001 69 10000 9.8 340 01:46 17.04.2020
4796 Clouds 2 1001 69 10000 10.8 340 01:22 17.04.2020
4797 Clouds 2 1001 74 10000 8.2 320 00:21 17.04.2020
4798 Clouds 1 1000 86 10000 6.7 320 23:55 16.04.2020
4799 Clouds 1 1000 86 10000 6.2 320 23:37 16.04.2020
4800 Clouds 0 1000 86 10000 6.2 320 23:19 16.04.2020
4801 Clouds 0 1000 80 10000 6.7 320 22:40 16.04.2020
4802 Clouds 0 1000 86 10000 6.7 320 22:22 16.04.2020
4803 Clouds 0 1000 86 10000 6.2 320 21:59 16.04.2020
4804 Clouds 0 1000 86 10000 6.2 320 21:41 16.04.2020
4805 Clouds 0 1000 86 10000 6.2 320 21:41 16.04.2020
4806 Clouds 0 1000 86 10000 6.2 320 21:41 16.04.2020
4807 Clouds 1 1000 80 10000 4.1 320 21:19 16.04.2020
4808 Clouds 1 1000 74 10000 3.1 300 20:43 16.04.2020
4809 Clouds 1 1000 74 10000 3.1 300 20:23 16.04.2020
4810 Clouds 1 1000 74 10000 2.6 330 19:59 16.04.2020
4811 Clouds 1 999 74 10000 2.6 350 19:40 16.04.2020
4812 Clouds 1 999 74 10000 2.6 350 19:20 16.04.2020
4813 Clouds 1 999 74 10000 2.1 340 18:57 16.04.2020
4814 Clouds 1 999 74 10000 2.1 340 18:39 16.04.2020
4815 Clouds 2 999 74 10000 2.1 340 18:20 16.04.2020
4816 Clouds 2 999 74 10000 1.5 350 17:45 16.04.2020
4817 Clouds 2 998 69 10000 1.5 0 17:26 16.04.2020
4818 Clouds 3 998 59 10000 1.5 350 17:00 16.04.2020
4819 Clouds 3 998 59 10000 1.5 350 17:00 16.04.2020
4820 -273 0 0 0 0 0 16:59 16.04.2020
4821 Clouds 3 998 59 10000 1.5 350 16:41 16.04.2020
4822 Clouds 4 998 64 10000 1 30 16:19 16.04.2020
4823 Clouds 4 998 60 10000 1.5 70 15:44 16.04.2020
4824 Clouds 4 998 60 10000 0.5 0 15:19 16.04.2020
4825 Clouds 3 997 64 10000 1 0 14:58 16.04.2020
4826 Clouds 3 997 64 10000 1 0 14:39 16.04.2020
4827 Clouds 4 997 64 10000 0.71 246 14:19 16.04.2020
4828 Clouds 3 997 69 10000 1.5 90 13:56 16.04.2020
4829 Clouds 4 997 60 10000 1.5 130 13:36 16.04.2020
4830 Clouds 4 997 60 10000 1.5 130 13:18 16.04.2020
4831 Clouds 3 996 64 10000 2.6 110 12:56 16.04.2020
4832 Clouds 3 996 64 10000 2.6 110 12:56 16.04.2020
4833 Clouds 3 996 64 10000 1.5 120 12:37 16.04.2020
4834 Clear 3 996 64 10000 1.5 120 12:18 16.04.2020
4835 Clear 3 996 59 10000 1.5 180 11:54 16.04.2020
4836 Clear 3 996 64 10000 2.1 200 11:36 16.04.2020
4837 Clear 3 996 64 10000 2.1 200 11:18 16.04.2020
4838 Clear 4 995 60 10000 3.1 200 10:39 16.04.2020
4839 Clear 3 995 64 10000 3.1 190 10:19 16.04.2020
4840 Clear 3 995 64 10000 3.1 200 09:58 16.04.2020
4841 Clear 3 995 64 10000 3.1 200 09:38 16.04.2020
4842 Clouds 3 994 69 10000 3.6 220 09:19 16.04.2020
4843 Clouds 2 994 74 10000 5.1 240 08:42 16.04.2020
4844 Clouds 2 994 74 10000 4.1 250 08:23 16.04.2020
4845 Clouds 1 994 74 10000 4.1 240 07:46 16.04.2020
4846 Clouds 1 994 74 10000 4.1 240 07:46 16.04.2020
4847 Clouds 2 994 69 10000 4.6 220 07:27 16.04.2020
4848 Clouds 0 993 94 10000 5.1 210 06:45 16.04.2020
4849 Clouds 0 992 94 10000 9.3 200 06:26 16.04.2020
4850 Clouds 0 992 94 10000 9.3 200 05:37 16.04.2020
4851 Clouds 1 991 74 10000 6.7 190 04:28 16.04.2020
4852 Clouds 1 991 80 10000 7.7 190 03:24 16.04.2020
4853 Clouds 1 990 74 10000 8.7 190 02:49 16.04.2020
4854 Clouds 1 990 74 10000 8.7 190 02:31 16.04.2020
4855 Clouds 1 990 74 10000 9.8 190 01:20 16.04.2020
4856 Clouds 1 989 74 10000 5.1 190 00:37 16.04.2020
4857 Clouds 1 989 74 10000 5.1 200 23:59 15.04.2020
4858 Clouds 1 989 74 10000 5.1 200 23:41 15.04.2020
4859 Clouds 1 989 74 10000 5.1 190 23:22 15.04.2020
4860 Clouds 1 989 74 10000 6.2 190 22:41 15.04.2020
4861 Clouds 1 989 74 10000 5.7 180 22:22 15.04.2020
4862 Clouds 1 989 74 10000 5.7 180 22:22 15.04.2020
4863 Clouds 2 988 69 10000 5.7 190 21:59 15.04.2020
4864 Clouds 2 988 69 10000 5.7 190 21:41 15.04.2020
4865 Clouds 2 988 69 10000 5.1 180 21:23 15.04.2020
4866 Clouds 1 988 74 10000 5.1 180 20:58 15.04.2020
4867 Clouds 1 988 74 10000 5.1 180 20:40 15.04.2020
4868 Clouds 1 988 74 10000 6.7 180 20:22 15.04.2020
4869 Clouds 2 987 69 10000 5.1 160 19:46 15.04.2020
4870 Clouds 3 987 69 10000 5.7 180 19:22 15.04.2020
4871 Clouds 2 987 69 10000 4.6 170 18:58 15.04.2020
4872 Clouds 3 987 69 10000 5.1 170 18:40 15.04.2020
4873 Clouds 3 987 69 10000 5.1 170 18:22 15.04.2020
4874 Clouds 3 987 69 10000 5.1 170 18:21 15.04.2020
4875 Clouds 2 987 69 10000 5.7 180 17:55 15.04.2020
4876 Clouds 2 987 69 10000 9.3 190 17:37 15.04.2020
4877 Clouds 2 987 69 10000 9.3 190 17:18 15.04.2020
4878 Clouds 2 986 69 10000 7.7 200 16:55 15.04.2020
4879 Clouds 2 986 69 10000 7.7 200 16:36 15.04.2020
4880 Clouds 2 986 64 10000 7.2 200 16:18 15.04.2020
4881 Clouds 2 986 64 10000 6.2 210 15:55 15.04.2020
4882 Clouds 2 986 64 10000 6.2 210 15:37 15.04.2020
4883 Clouds 2 986 64 10000 7.2 210 15:18 15.04.2020
4884 Clouds 2 986 64 10000 8.2 210 14:54 15.04.2020
4885 Clouds 2 986 64 10000 10.3 200 14:36 15.04.2020
4886 Clouds 2 986 64 10000 10.3 200 14:18 15.04.2020
4887 Clouds 1 985 69 10000 11.3 200 13:40 15.04.2020
4888 Clouds 1 985 69 10000 10.8 190 13:21 15.04.2020
4889 Clouds 2 985 64 10000 11.3 190 12:59 15.04.2020
4890 Clouds 2 985 64 10000 11.3 190 12:41 15.04.2020
4891 Clouds 1 985 74 10000 10.8 190 12:22 15.04.2020
4892 Clouds 1 985 74 10000 11.3 190 11:58 15.04.2020
4893 Snow 1 985 95 10000 9.8 190 11:38 15.04.2020
4894 Snow 1 985 95 10000 9.8 190 11:20 15.04.2020
4895 Snow 1 985 95 10000 9.3 190 10:39 15.04.2020
4896 Snow 0 986 86 4000 10.3 190 10:20 15.04.2020
4897 Snow 0 986 92 8000 8.2 190 09:57 15.04.2020
4898 Snow 0 986 92 8000 8.2 190 09:39 15.04.2020
4899 Snow 0 986 92 7000 8.7 180 09:20 15.04.2020
4900 Snow 0 986 86 8000 9.3 180 08:55 15.04.2020
4901 Snow 0 986 86 8000 9.3 180 08:37 15.04.2020
4902 Snow 0 986 86 8000 9.3 180 08:37 15.04.2020
4903 Snow 0 986 94 10000 8.7 190 08:18 15.04.2020
4904 Clouds 0 986 94 10000 10.3 190 07:46 15.04.2020
4905 Clouds 0 986 94 10000 9.8 190 07:28 15.04.2020
4906 Clouds 0 987 94 10000 10.3 190 06:32 15.04.2020
4907 Clouds 0 987 93 10000 8.2 180 05:50 15.04.2020
4908 Clouds 0 988 93 10000 13.9 190 04:48 15.04.2020
4909 Clouds 0 988 93 10000 13.9 190 04:24 15.04.2020
4910 Clouds 0 988 94 10000 7.7 170 03:23 15.04.2020
4911 Clouds 0 988 94 10000 9.8 150 02:52 15.04.2020
4912 Clouds 0 989 94 10000 8.7 180 01:54 15.04.2020
4913 Clouds 0 989 94 10000 8.7 180 01:25 15.04.2020
4914 Clouds 0 989 94 10000 9.3 180 00:51 15.04.2020
4915 Clouds 0 989 94 10000 8.7 170 00:30 15.04.2020
4916 Clouds 0 990 93 10000 11.3 170 23:57 14.04.2020
4917 Clouds 0 990 93 10000 11.3 170 23:39 14.04.2020
4918 Clouds 0 991 93 10000 8.7 160 23:21 14.04.2020
4919 Clouds -1 991 74 10000 9.3 140 22:58 14.04.2020
4920 Clouds -1 991 74 10000 9.3 140 22:39 14.04.2020
4921 Clear -1 992 74 10000 11.3 150 22:21 14.04.2020
4922 Clear -2 993 79 10000 7.7 160 21:58 14.04.2020
4923 Clear -2 993 79 10000 7.7 160 21:40 14.04.2020
4924 Clear -1 993 74 10000 6.7 150 21:20 14.04.2020
4925 Clouds -1 994 80 10000 9.8 150 20:59 14.04.2020
4926 Clouds -1 994 80 10000 9.8 150 20:40 14.04.2020
4927 Clear 0 994 93 10000 10.3 150 20:21 14.04.2020
4928 Clear 0 994 93 10000 10.3 150 20:21 14.04.2020
4929 Clear 0 995 93 10000 9.8 150 19:57 14.04.2020
4930 Clear 0 996 93 10000 6.7 140 19:38 14.04.2020
4931 Clear 0 996 93 10000 6.7 140 19:19 14.04.2020
4932 Clear 1 996 74 10000 6.7 150 18:41 14.04.2020
4933 Clouds 0 997 90 10000 5.1 130 18:22 14.04.2020
4934 Clouds 1 997 74 10000 3.1 140 17:58 14.04.2020
4935 Clouds 1 997 74 10000 3.1 140 17:58 14.04.2020
4936 Clouds 1 997 74 10000 3.1 140 17:39 14.04.2020
4937 Clouds 3 998 64 10000 3.1 140 17:20 14.04.2020
4938 Clouds 3 999 64 10000 1.5 160 16:58 14.04.2020
4939 Clouds 3 999 64 10000 1.5 160 16:39 14.04.2020
4940 Clouds 2 999 69 10000 3.1 220 16:20 14.04.2020
4941 Clouds 3 999 64 10000 2.1 210 15:57 14.04.2020
4942 Clouds 3 999 64 10000 2.1 210 15:38 14.04.2020
4943 Clouds 2 999 64 10000 1 0 15:19 14.04.2020
4944 Clouds 3 1000 59 10000 1.5 240 14:57 14.04.2020
4945 Clouds 3 1000 59 10000 1.5 240 14:38 14.04.2020
4946 Clouds 3 1001 64 10000 2.1 250 14:20 14.04.2020
4947 Clouds 2 1001 64 10000 1 0 13:43 14.04.2020
4948 Clouds 3 1001 59 10000 1 0 13:24 14.04.2020
4949 Clouds 2 1002 74 10000 1.5 0 12:56 14.04.2020
4950 Clouds 2 1003 74 10000 1 360 12:38 14.04.2020
4951 Clouds 2 1003 74 10000 1 360 12:19 14.04.2020
4952 Clouds 2 1003 69 10000 1 0 11:41 14.04.2020
4953 Clouds 2 1003 69 10000 1 0 11:41 14.04.2020
4954 Clouds 3 1003 69 10000 1 0 11:22 14.04.2020
4955 Clouds 0 1003 80 10000 2.6 60 10:56 14.04.2020
4956 Clouds 0 1003 80 10000 2.6 60 10:38 14.04.2020
4957 Clouds 2 1004 74 10000 3.1 50 10:19 14.04.2020
4958 Clouds 2 1004 69 10000 3.1 40 09:42 14.04.2020
4959 Clouds -1 1006 93 0 1.05 39 09:22 14.04.2020
4960 Clouds -1 1006 93 0 1.05 39 08:56 14.04.2020
4961 Clouds -1 1006 93 0 1.05 39 08:36 14.04.2020
4962 Clouds -1 1006 93 0 1.05 39 08:36 14.04.2020
4963 Mist 1 1005 93 10000 3.6 50 08:18 14.04.2020
4964 Rain 1 1005 93 10000 3.6 50 07:49 14.04.2020
4965 Rain -1 1005 80 10000 4.1 30 07:26 14.04.2020
4966 Rain 0 1005 93 10000 4.1 40 06:45 14.04.2020
4967 Clouds -2 1007 93 0 2.86 34 05:43 14.04.2020
4968 Clouds -2 1007 93 0 2.86 34 03:38 14.04.2020
4969 Clouds 0 1005 93 10000 5.1 30 02:34 14.04.2020
4970 Clouds 0 1005 93 10000 5.1 30 01:27 14.04.2020
4971 Clouds 0 1005 93 10000 6.2 40 00:52 14.04.2020
4972 Clouds 0 1006 93 10000 6.7 40 00:32 14.04.2020
4973 Rain -1 1005 86 10000 6.7 30 23:59 13.04.2020
4974 Rain -1 1005 86 10000 6.7 30 23:39 13.04.2020
4975 Rain -1 1005 86 10000 6.7 30 23:19 13.04.2020
4976 Rain 0 1005 93 10000 7.7 30 22:54 13.04.2020
4977 Rain 0 1005 93 10000 7.7 30 22:36 13.04.2020
4978 Snow 0 1006 92 10000 8.7 40 22:18 13.04.2020
4979 Rain 0 1005 93 10000 7.7 40 21:41 13.04.2020
4980 Rain 1 1005 90 10000 8.2 40 21:21 13.04.2020
4981 Rain 1 1005 80 10000 8.7 30 20:58 13.04.2020
4982 Rain 1 1005 80 10000 8.7 30 20:58 13.04.2020
4983 Rain 1 1005 80 10000 8.7 30 20:40 13.04.2020
4984 Rain 1 1005 74 10000 9.3 40 20:19 13.04.2020
4985 Rain 1 1005 80 10000 8.7 40 19:58 13.04.2020
4986 Rain 0 1005 90 9000 9.3 40 19:37 13.04.2020
4987 Rain 0 1005 90 9000 9.3 40 19:18 13.04.2020
4988 Rain 0 1004 90 350 9.8 40 18:57 13.04.2020
4989 Rain 0 1004 90 10000 8.7 50 18:37 13.04.2020
4990 Rain 0 1004 89 10000 8.7 50 18:18 13.04.2020
4991 Snow 1 1004 86 1000 9.3 40 17:56 13.04.2020
4992 Snow 1 1004 86 1000 9.3 40 17:37 13.04.2020
4993 Rain 1 1003 86 10000 9.8 40 17:19 13.04.2020
4994 Rain 1 1002 86 10000 10.3 50 16:57 13.04.2020
4995 Clouds 1 1002 86 10000 9.8 50 16:37 13.04.2020
4996 Clouds 1 1002 86 10000 9.8 50 16:19 13.04.2020
4997 Clouds 2 1001 86 10000 8.7 50 15:46 13.04.2020
4998 Rain 1 1001 86 10000 9.8 40 15:28 13.04.2020
4999 Rain 1 1000 90 10000 10.8 40 14:59 13.04.2020
5000 Rain 1 1000 90 10000 10.8 40 14:40 13.04.2020
5001 Rain 1 1000 86 10000 10.3 40 14:22 13.04.2020
5002 Rain 1 1000 86 10000 10.8 40 13:56 13.04.2020
5003 Rain 1 1000 86 10000 10.8 40 13:38 13.04.2020
5004 Rain 1 999 86 10000 10.3 40 13:20 13.04.2020
5005 Rain 1 999 86 10000 9.8 40 12:58 13.04.2020
5006 Rain 1 999 86 10000 9.8 40 12:40 13.04.2020
5007 Rain 1 999 86 10000 9.3 50 12:20 13.04.2020
5008 Snow 0 999 92 3500 10.3 50 11:58 13.04.2020
5009 Snow 0 999 92 3500 10.3 50 11:39 13.04.2020
5010 Snow 0 998 92 8000 8.2 50 11:18 13.04.2020
5011 Rain 0 998 92 10000 8.2 50 10:55 13.04.2020
5012 Rain 0 998 92 10000 8.2 50 10:36 13.04.2020
5013 Rain 0 998 92 10000 9.3 40 10:18 13.04.2020
5014 Snow 0 997 92 3500 7.7 50 09:43 13.04.2020
5015 Rain 0 997 96 10000 7.2 50 09:25 13.04.2020
5016 Rain -1 997 92 10000 8.2 40 08:45 13.04.2020
5017 Snow -1 997 92 3500 8.2 40 08:27 13.04.2020
5018 Clouds -1 997 86 10000 7.7 50 07:57 13.04.2020
5019 Clouds -1 996 86 10000 5.7 40 07:38 13.04.2020
5020 Clouds -1 996 86 10000 5.7 40 07:18 13.04.2020
5021 Clouds -1 996 80 10000 6.7 40 06:44 13.04.2020
5022 Clouds -1 996 74 10000 6.2 50 05:52 13.04.2020
5023 Clouds -1 996 74 10000 6.2 50 05:20 13.04.2020
5024 Clouds -2 995 86 10000 8.2 60 04:31 13.04.2020
5025 Snow -2 995 86 7000 7.7 60 03:56 13.04.2020
5026 Snow -2 995 86 7000 7.7 60 03:34 13.04.2020
5027 Snow -2 996 95 0 6.58 65 02:41 13.04.2020
5028 Snow -2 995 86 9000 6.7 60 01:47 13.04.2020
5029 Snow -2 995 86 9000 6.7 60 01:28 13.04.2020
5030 Clouds -2 995 86 10000 6.7 60 00:50 13.04.2020
5031 Clouds -2 995 79 8000 6.7 60 00:25 13.04.2020
5032 Snow -3 995 92 7000 8.7 60 23:57 12.04.2020
5033 Snow -3 995 92 7000 8.7 60 23:38 12.04.2020
5034 Snow -3 995 92 7000 8.7 60 23:38 12.04.2020
5035 Snow -3 995 92 5000 7.2 60 23:20 12.04.2020
5036 Snow -2 995 92 8000 7.2 60 22:54 12.04.2020
5037 Snow -2 995 92 8000 7.2 60 22:36 12.04.2020
5038 Snow -2 995 92 6000 7.7 60 22:18 12.04.2020
5039 Snow -2 995 92 9000 7.7 50 21:38 12.04.2020
5040 Clouds -2 995 86 10000 8.2 50 21:20 12.04.2020
5041 Clouds -2 995 86 10000 7.7 60 20:44 12.04.2020
5042 Clouds -2 995 86 10000 7.7 60 20:44 12.04.2020
5043 Clouds -3 995 86 10000 7.2 70 20:23 12.04.2020
5044 Snow -3 995 86 10000 7.2 50 19:59 12.04.2020
5045 Snow -3 996 79 10000 7.2 90 19:41 12.04.2020
5046 Snow -3 996 79 10000 7.2 90 19:19 12.04.2020
5047 Snow -3 996 86 8000 7.2 110 18:58 12.04.2020
5048 Snow -3 996 79 10000 7.7 110 18:39 12.04.2020
5049 Snow -2 996 74 10000 7.2 110 18:19 12.04.2020
5050 Snow -2 996 74 10000 7.2 110 17:54 12.04.2020
5051 Clouds -2 996 68 10000 5.7 100 17:36 12.04.2020
5052 Clouds -1 996 68 10000 5.7 100 17:18 12.04.2020
5053 Clouds -1 995 74 10000 6.2 110 16:41 12.04.2020
5054 Clouds -1 996 68 10000 5.7 70 16:21 12.04.2020
5055 Clouds -1 996 74 10000 4.1 110 15:52 12.04.2020
5056 Rain -1 996 68 10000 2.6 0 15:31 12.04.2020
5057 Snow -2 997 79 8000 4.1 150 14:57 12.04.2020
5058 Snow -2 997 79 8000 4.1 150 14:39 12.04.2020
5059 Snow -2 997 79 8000 4.1 150 14:39 12.04.2020
5060 Snow -2 997 79 8000 4.1 150 14:20 12.04.2020
5061 Rain -2 997 63 10000 4.6 150 13:55 12.04.2020
5062 Clouds -1 997 58 10000 5.7 140 13:36 12.04.2020
5063 Clouds -1 997 58 10000 5.7 140 13:18 12.04.2020
5064 Clouds -1 997 63 10000 6.7 130 12:45 12.04.2020
5065 Clouds -1 997 58 10000 6.2 130 12:21 12.04.2020
5066 Clouds -2 997 63 10000 5.7 130 11:58 12.04.2020
5067 Clouds -2 997 63 10000 5.7 130 11:37 12.04.2020
5068 Clouds -2 997 63 10000 5.7 130 11:37 12.04.2020
5069 Clouds 0 998 91 10000 2.6 160 11:18 12.04.2020
5070 Clouds -2 998 58 10000 3.6 150 10:55 12.04.2020
5071 Clouds -1 999 54 10000 2.6 180 10:37 12.04.2020
5072 Clouds -1 999 54 10000 2.6 180 10:19 12.04.2020
5073 Clouds -1 999 54 10000 3.6 140 09:56 12.04.2020
5074 Clouds -1 999 54 10000 3.6 140 09:37 12.04.2020
5075 Clouds -1 999 54 10000 2.6 210 09:19 12.04.2020
5076 Clouds -1 999 54 10000 3.1 180 08:47 12.04.2020
5077 Clouds -2 1000 63 10000 1.5 0 08:29 12.04.2020
5078 Clouds -2 1000 63 10000 1.5 30 07:47 12.04.2020
5079 Clouds -3 1001 68 10000 1 0 07:19 12.04.2020
5080 Clouds -3 1001 68 10000 0.5 0 06:42 12.04.2020
5081 Clouds -1 1001 63 10000 1 0 06:22 12.04.2020
5082 Clouds -2 1002 68 10000 2.1 0 05:42 12.04.2020
5083 Clouds -2 1003 74 10000 1.5 240 04:25 12.04.2020
5084 Clouds -2 1004 74 10000 1 0 03:29 12.04.2020
5085 Clouds -2 1004 86 10000 2.1 200 02:47 12.04.2020
5086 Snow -2 1005 86 10000 2.6 200 02:27 12.04.2020
5087 Clouds -1 1006 80 10000 3.1 210 01:22 12.04.2020
5088 Clouds -2 1006 86 10000 2.6 230 00:43 12.04.2020
5089 Snow -2 1006 86 10000 3.6 210 00:21 12.04.2020
5090 Snow -2 1007 92 10000 3.1 210 23:47 11.04.2020
5091 Snow -2 1007 92 9000 3.6 210 23:26 11.04.2020
5092 Snow -2 1007 92 8000 4.1 200 22:58 11.04.2020
5093 Snow -2 1007 92 8000 4.1 200 22:37 11.04.2020
5094 Snow -2 1008 86 10000 3.6 210 22:18 11.04.2020
5095 Snow -2 1008 86 10000 3.6 210 21:55 11.04.2020
5096 Snow -1 1008 80 10000 5.7 230 21:36 11.04.2020
5097 Snow -1 1008 80 10000 5.7 230 21:18 11.04.2020
5098 Snow -2 1008 74 10000 3.6 240 20:55 11.04.2020
5099 Snow -2 1008 74 10000 3.6 240 20:37 11.04.2020
5100 Snow -2 1008 74 10000 3.6 240 20:37 11.04.2020
5101 Snow -1 1009 74 10000 2.6 260 20:19 11.04.2020
5102 Snow -2 1009 86 10000 3.1 230 19:56 11.04.2020
5103 Snow -2 1009 92 10000 4.1 230 19:37 11.04.2020
5104 Snow -2 1009 92 10000 4.1 230 19:18 11.04.2020
5105 Snow -2 1009 86 10000 1 250 18:55 11.04.2020
5106 Snow -2 1009 86 10000 2.85 277 18:36 11.04.2020
5107 Snow -2 1009 86 10000 5.33 293 18:18 11.04.2020
5108 Rain -1 1010 80 10000 4.1 240 17:56 11.04.2020
5109 Rain -1 1010 80 10000 4.1 240 17:36 11.04.2020
5110 Rain -1 1010 80 10000 4.1 240 17:18 11.04.2020
5111 Rain -1 1010 86 10000 5.1 240 16:42 11.04.2020
5112 Snow -1 1010 80 10000 6.7 240 16:21 11.04.2020
5113 Snow -1 1010 80 10000 6.7 240 15:41 11.04.2020
5114 Snow 0 1010 89 10000 5.7 230 15:21 11.04.2020
5115 Snow -2 1011 92 10000 5.1 240 14:58 11.04.2020
5116 Snow -2 1011 92 10000 5.1 240 14:40 11.04.2020
5117 Snow -2 1011 92 1100 4.6 260 14:22 11.04.2020
5118 Snow -2 1011 92 2000 5.1 240 13:42 11.04.2020
5119 Rain -1 1011 80 10000 1 0 13:24 11.04.2020
5120 Rain -1 1011 86 10000 1.5 250 12:59 11.04.2020
5121 Rain -2 1011 86 10000 2.6 310 12:37 11.04.2020
5122 Rain -2 1011 86 10000 2.6 310 12:18 11.04.2020
5123 Rain -1 1010 74 10000 3.1 240 11:43 11.04.2020
5124 Clouds -2 1010 86 10000 2.1 220 11:21 11.04.2020
5125 Clouds -3 1010 86 10000 2.1 0 10:57 11.04.2020
5126 Clouds -3 1010 86 10000 2.1 0 10:37 11.04.2020
5127 Snow -3 1010 86 1000 2.6 0 10:19 11.04.2020
5128 Rain -1 1010 74 10000 4.1 260 09:57 11.04.2020
5129 Rain -1 1010 74 10000 4.1 260 09:38 11.04.2020
5130 Clouds -1 1010 68 10000 4.1 270 09:19 11.04.2020
5131 Snow -2 1010 79 10000 3.6 270 08:43 11.04.2020
5132 Snow -2 1010 79 10000 4.6 250 08:23 11.04.2020
5133 Snow -1 1010 74 10000 5.1 250 07:49 11.04.2020
5134 Snow -2 1010 74 10000 5.1 270 07:28 11.04.2020
5135 Snow -2 1010 86 10000 4.1 280 06:44 11.04.2020
5136 Snow -3 1009 86 10000 5.1 240 05:59 11.04.2020
5137 Snow -3 1010 92 10000 2.1 250 04:34 11.04.2020
5138 Snow -3 1009 92 8000 1 0 03:40 11.04.2020
5139 Snow -3 1009 86 5000 2.1 320 01:53 11.04.2020
5140 Snow -2 1008 79 10000 4.1 270 01:20 11.04.2020
5141 Snow -3 1008 92 10000 2.1 250 00:44 11.04.2020
5142 Snow -3 1008 86 10000 1.5 30 00:19 11.04.2020
5143 Snow -3 1008 92 8000 4.6 30 23:56 10.04.2020
5144 Snow -3 1008 92 8000 4.6 30 23:37 10.04.2020
5145 Snow -4 1008 100 10000 4.71 308 23:18 10.04.2020
5146 Snow -4 1008 100 10000 4.71 308 23:18 10.04.2020
5147 Snow -3 1008 86 2300 2.6 0 22:43 10.04.2020
5148 Snow -2 1008 74 10000 1.5 0 22:22 10.04.2020
5149 Snow -3 1008 79 10000 1.5 0 21:58 10.04.2020
5150 Snow -3 1008 79 10000 1.5 0 21:39 10.04.2020
5151 Snow -2 1008 74 10000 1 0 21:20 10.04.2020
5152 Snow -3 1007 86 10000 3.1 0 20:43 10.04.2020
5153 Snow -3 1007 86 1900 3.1 0 20:23 10.04.2020
5154 Snow -3 1007 86 10000 2.1 0 19:58 10.04.2020
5155 Snow -3 1007 86 10000 2.1 0 19:40 10.04.2020
5156 Snow -2 1007 74 10000 3.6 350 19:20 10.04.2020
5157 Snow -2 1006 74 10000 3.6 0 18:58 10.04.2020
5158 Snow -2 1006 74 10000 3.6 0 18:39 10.04.2020
5159 Snow -2 1006 86 10000 2.1 0 18:21 10.04.2020
5160 Snow -3 1006 92 6000 1 0 17:58 10.04.2020
5161 Snow -3 1006 92 6000 1 0 17:39 10.04.2020
5162 Rain -2 1006 79 10000 12.3 270 17:20 10.04.2020
5163 Rain -3 1005 86 10000 2.1 0 16:56 10.04.2020
5164 Rain -3 1005 86 10000 2.1 0 16:38 10.04.2020
5165 Snow -2 1006 79 1500 5.7 280 16:20 10.04.2020
5166 Snow -3 1005 86 550 3.6 0 15:56 10.04.2020
5167 Snow -3 1005 86 550 3.6 0 15:37 10.04.2020
5168 Snow -3 1005 86 550 3.6 0 15:37 10.04.2020
5169 Snow -1 1005 74 10000 5.7 270 15:18 10.04.2020
5170 Snow -2 1005 79 10000 6.7 270 14:56 10.04.2020
5171 Snow -2 1005 79 10000 6.7 270 14:38 10.04.2020
5172 Snow -2 1005 79 10000 6.7 270 14:38 10.04.2020
5173 Snow -3 1005 92 2400 4.1 270 14:18 10.04.2020
5174 Snow -2 1005 79 10000 3.6 0 13:43 10.04.2020
5175 Snow -3 1005 92 3500 4.6 270 13:21 10.04.2020
5176 Snow -3 1004 86 10000 8.2 240 12:44 10.04.2020
5177 Rain -3 1004 92 10000 4.6 260 12:24 10.04.2020
5178 Snow -3 1004 86 1100 7.2 270 11:58 10.04.2020
5179 Snow -3 1004 86 1100 7.2 270 11:39 10.04.2020
5180 Snow -3 1004 92 450 6.2 270 11:21 10.04.2020
5181 Snow -2 1004 79 10000 2.6 0 10:46 10.04.2020
5182 Snow -2 1003 79 10000 5.7 260 10:23 10.04.2020
5183 Snow -3 1004 92 1400 4.6 260 09:57 10.04.2020
5184 Snow -3 1004 92 1400 4.6 260 09:39 10.04.2020
5185 Snow -2 1003 79 10000 5.1 260 09:20 10.04.2020
5186 Rain -4 1003 92 10000 5.1 270 08:43 10.04.2020
5187 Snow -4 1003 92 10000 6.7 270 08:24 10.04.2020
5188 Snow -3 1004 79 1200 6.2 280 07:47 10.04.2020
5189 Snow -3 1004 79 10000 3.6 270 07:27 10.04.2020
5190 Snow -4 1004 85 10000 1.5 0 06:52 10.04.2020
5191 Snow -4 1004 85 400 3.1 0 06:29 10.04.2020
5192 Snow -2 1004 74 10000 2.1 0 05:43 10.04.2020
5193 Snow -2 1004 74 10000 1 0 05:18 10.04.2020
5194 Rain -3 1004 79 10000 3.1 0 03:53 10.04.2020
5195 Snow -3 1004 79 1200 5.7 0 03:32 10.04.2020
5196 Snow -3 1004 86 10000 0.5 0 02:49 10.04.2020
5197 Rain -3 1004 92 10000 1.5 0 02:31 10.04.2020
5198 Snow -3 1003 79 4000 7.2 220 01:30 10.04.2020
5199 Snow -3 1004 73 10000 4.6 210 00:53 10.04.2020
5200 Clouds -4 1004 79 8000 4.6 210 00:26 10.04.2020
5201 Snow -3 1005 73 8000 4.6 220 23:57 09.04.2020
5202 Snow -3 1005 73 8000 4.6 220 23:38 09.04.2020
5203 Snow -3 1005 73 8000 4.6 220 23:38 09.04.2020
5204 Clouds -4 1005 79 10000 5.1 230 23:20 09.04.2020
5205 Clouds -4 1006 79 10000 5.7 240 22:42 09.04.2020
5206 Clouds -4 1006 79 10000 6.7 240 22:24 09.04.2020
5207 Snow -5 1007 94 0 4.59 260 21:59 09.04.2020
5208 Snow -5 1007 94 0 4.59 260 21:37 09.04.2020
5209 Snow -5 1008 89 0 7.3 295 21:19 09.04.2020
5210 Rain -4 1007 62 10000 8.2 280 20:45 09.04.2020
5211 Rain -4 1007 62 10000 8.2 280 20:21 09.04.2020
5212 Rain -4 1007 62 10000 8.2 280 19:58 09.04.2020
5213 Rain -4 1007 68 9000 5.7 270 19:37 09.04.2020
5214 Rain -4 1007 68 9000 5.7 270 19:18 09.04.2020
5215 Rain -4 1007 58 10000 7.7 280 18:42 09.04.2020
5216 Rain -4 1007 68 10000 4.6 280 18:20 09.04.2020
5217 Rain -5 1007 79 10000 4.1 0 17:43 09.04.2020
5218 Rain -4 1007 79 9000 4.6 240 17:24 09.04.2020
5219 Snow -4 1007 73 7000 6.7 320 16:57 09.04.2020
5220 Snow -4 1007 73 7000 6.7 320 16:38 09.04.2020
5221 Clouds -4 1007 62 10000 2.1 0 16:19 09.04.2020
5222 Rain -4 1007 58 10000 2.6 0 15:55 09.04.2020
5223 Rain -4 1007 58 10000 2.6 0 15:37 09.04.2020
5224 Snow -4 1007 73 10000 3.1 330 15:18 09.04.2020
5225 Rain -4 1006 68 10000 4.1 0 14:42 09.04.2020
5226 Snow -4 1006 68 10000 5.1 340 14:21 09.04.2020
5227 Snow -4 1006 73 8000 5.1 350 13:56 09.04.2020
5228 Rain -4 1005 73 10000 5.7 340 13:37 09.04.2020
5229 Rain -4 1005 73 10000 5.7 340 13:18 09.04.2020
5230 Rain -4 1005 79 10000 6.7 340 12:42 09.04.2020
5231 Rain -4 1004 79 10000 6.2 350 12:23 09.04.2020
5232 Snow -4 1004 73 10000 5.7 360 11:59 09.04.2020
5233 Snow -4 1004 73 10000 5.7 360 11:40 09.04.2020
5234 Rain -3 1003 73 10000 5.7 20 11:20 09.04.2020
5235 Rain -4 1003 85 10000 4.6 30 10:57 09.04.2020
5236 Rain -4 1003 85 10000 4.6 30 10:39 09.04.2020
5237 Rain -4 1002 85 10000 4.6 20 10:19 09.04.2020
5238 Snow -4 1002 73 800 5.1 10 09:55 09.04.2020
5239 Snow -4 1002 73 800 5.1 10 09:37 09.04.2020
5240 Clouds -4 1002 85 10000 7.7 20 09:19 09.04.2020
5241 Rain -4 1001 79 10000 8.2 350 08:43 09.04.2020
5242 Snow -4 1000 73 8000 6.7 360 08:23 09.04.2020
5243 Rain -4 1000 85 10000 7.7 20 07:55 09.04.2020
5244 Snow -4 999 85 300 8.2 360 07:25 09.04.2020
5245 Snow -3 999 79 4000 6.2 30 06:55 09.04.2020
5246 Snow -3 997 79 10000 7.7 20 05:59 09.04.2020
5247 Snow -3 997 79 10000 7.7 20 05:38 09.04.2020
5248 Snow -2 995 74 7000 8.7 20 03:49 09.04.2020
5249 Snow -1 992 86 10000 6.7 30 02:25 09.04.2020
5250 Snow -1 992 86 10000 8.7 30 01:40 09.04.2020
5251 Snow 0 991 96 10000 9.3 30 01:20 09.04.2020
5252 Snow 0 989 96 7000 11.8 30 00:41 09.04.2020
5253 Snow 0 989 94 2600 11.3 30 00:19 09.04.2020
5254 Snow 0 988 94 2000 10.3 40 23:57 08.04.2020
5255 Snow 0 988 94 2000 10.3 40 23:39 08.04.2020
5256 Snow 1 987 94 4600 9.3 30 23:20 08.04.2020
5257 Snow 1 986 94 5000 7.7 40 22:43 08.04.2020
5258 Snow 1 986 94 5000 7.7 40 22:24 08.04.2020
5259 Clouds 1 985 94 5000 5.7 30 21:56 08.04.2020
5260 Clouds 1 985 94 6000 3.6 30 21:37 08.04.2020
5261 Clouds 1 985 94 6000 3.6 30 21:19 08.04.2020
5262 Clouds 2 985 94 4000 1.5 0 20:57 08.04.2020
5263 Clouds 2 985 94 4000 1.5 0 20:38 08.04.2020
5264 Clouds 2 985 94 4000 1.5 0 20:19 08.04.2020
5265 Clouds 2 985 94 4000 1.5 0 20:19 08.04.2020
5266 Snow 2 985 94 8000 2.6 0 19:42 08.04.2020
5267 Snow 2 985 94 10000 4.1 360 19:22 08.04.2020
5268 Clouds 2 986 94 10000 3.6 50 18:58 08.04.2020
5269 Clouds 2 986 94 10000 3.6 50 18:40 08.04.2020
5270 Rain 2 986 90 10000 5.7 40 18:20 08.04.2020
5271 Clouds 4 986 90 10000 2.1 280 17:43 08.04.2020
5272 Clouds 4 986 90 10000 2.1 280 17:22 08.04.2020
5273 Clouds 4 986 90 10000 2.1 280 17:22 08.04.2020
5274 Clouds 3 987 90 10000 1.5 240 16:59 08.04.2020
5275 Clouds 3 987 90 10000 1.5 240 16:41 08.04.2020
5276 Clouds 2 987 90 10000 1 0 16:22 08.04.2020
5277 Snow 2 988 90 4000 1.5 0 15:39 08.04.2020
5278 Snow 1 990 86 2000 1.5 170 15:21 08.04.2020
5279 Snow 1 990 86 2000 1.5 170 14:59 08.04.2020
5280 Snow 1 990 86 2000 1.5 170 14:41 08.04.2020
5281 Snow 2 990 74 10000 2.6 110 14:22 08.04.2020
5282 Snow 2 990 74 10000 2.6 110 14:22 08.04.2020
5283 Clouds 2 991 74 10000 2.1 100 13:44 08.04.2020
5284 Rain 3 992 69 10000 2.1 150 13:22 08.04.2020
5285 Rain 2 993 74 10000 2.6 190 12:58 08.04.2020
5286 Rain 2 993 74 10000 2.6 190 12:40 08.04.2020
5287 Snow 3 994 74 10000 1.5 170 12:18 08.04.2020
5288 Clouds 2 994 80 10000 2.6 240 11:42 08.04.2020
5289 Clouds 2 995 80 10000 4.1 230 11:23 08.04.2020
5290 Rain 2 995 80 10000 4.6 240 10:59 08.04.2020
5291 Rain 2 995 81 10000 2.6 220 10:41 08.04.2020
5292 Rain 2 995 81 10000 2.6 220 10:21 08.04.2020
5293 Rain 1 996 81 10000 4.1 270 09:59 08.04.2020
5294 Rain 1 996 81 10000 4.1 270 09:41 08.04.2020
5295 Clouds 1 996 81 10000 4.1 230 09:19 08.04.2020
5296 Fog 1 996 81 10000 4.1 230 08:58 08.04.2020
5297 Fog 1 996 81 10000 4.1 230 08:40 08.04.2020
5298 Snow 2 997 81 5000 8.7 240 08:21 08.04.2020
5299 Snow 3 997 81 4000 10.8 240 07:43 08.04.2020
5300 Clouds 2 997 81 10000 7.2 250 07:22 08.04.2020
5301 Rain 2 996 88 10000 24.7 290 06:33 08.04.2020
5302 Snow 3 994 88 10000 29.3 260 05:22 08.04.2020
5303 Snow 3 995 74 10000 19 250 03:20 08.04.2020
5304 Drizzle 2 995 80 10000 9.8 240 02:38 08.04.2020
5305 Snow 2 996 80 10000 8.7 230 02:18 08.04.2020
5306 Snow 3 997 69 10000 9.8 200 01:28 08.04.2020
5307 Snow 3 997 69 10000 11.3 200 00:50 08.04.2020
5308 Snow 3 998 69 10000 9.3 190 00:32 08.04.2020
5309 Clear 3 999 69 10000 8.7 200 23:57 07.04.2020
5310 Clear 3 999 69 10000 8.7 200 23:38 07.04.2020
5311 Clear 2 1000 74 10000 8.2 210 23:19 07.04.2020
5312 Clear 2 1000 80 10000 10.3 230 22:56 07.04.2020
5313 Clear 2 1000 80 10000 10.3 230 22:38 07.04.2020
5314 Clouds 3 1001 87 10000 11.8 230 22:18 07.04.2020
5315 Clouds 3 1002 87 10000 11.8 240 21:43 07.04.2020
5316 Clouds 3 1002 79 10000 13.4 240 21:23 07.04.2020
5317 Clouds 3 1003 79 10000 11.3 250 20:59 07.04.2020
5318 Rain 2 1003 79 10000 13.9 280 20:41 07.04.2020
5319 Rain 2 1003 79 10000 13.9 280 20:21 07.04.2020
5320 Rain 3 1003 79 10000 13.4 270 19:58 07.04.2020
5321 Clouds 3 1003 79 10000 15.4 270 19:38 07.04.2020
5322 Clouds 3 1003 79 10000 15.4 270 19:38 07.04.2020
5323 Clouds 3 1003 79 10000 15.4 270 19:20 07.04.2020
5324 Clouds 3 1003 86 10000 14.9 270 18:59 07.04.2020
5325 Clouds 3 1003 86 10000 14.9 270 18:40 07.04.2020
5326 Clouds 5 1003 81 10000 15.4 270 18:21 07.04.2020
5327 Rain 5 1002 75 10000 15.9 270 17:55 07.04.2020
5328 Rain 5 1002 75 10000 15.9 270 17:37 07.04.2020
5329 Rain 5 1002 75 10000 15.9 270 17:19 07.04.2020
5330 Clouds 4 1002 80 10000 14.9 270 16:43 07.04.2020
5331 Clouds 4 1002 81 10000 17 270 16:25 07.04.2020
5332 Clouds 5 1002 75 10000 16.5 270 15:44 07.04.2020
5333 Clouds 5 1002 75 10000 16.5 270 15:26 07.04.2020
5334 Rain 5 1001 75 10000 15.4 270 14:56 07.04.2020
5335 Rain 5 1001 75 10000 15.4 270 14:38 07.04.2020
5336 Clouds 5 1001 75 10000 15.9 270 14:19 07.04.2020
5337 Rain 5 1001 75 10000 13.9 270 13:42 07.04.2020
5338 Rain 5 1001 75 10000 13.9 270 13:19 07.04.2020
5339 Clouds 5 1000 80 10000 9.3 240 12:57 07.04.2020
5340 Clouds 5 1000 80 10000 11.8 260 12:38 07.04.2020
5341 Clouds 5 1000 80 10000 11.8 260 12:20 07.04.2020
5342 Clouds 4 1000 86 10000 9.3 240 11:57 07.04.2020
5343 Clouds 4 1000 86 10000 9.3 240 11:39 07.04.2020
5344 Clouds 4 1000 80 10000 7.2 220 11:19 07.04.2020
5345 Clouds 3 1001 86 10000 9.3 210 10:39 07.04.2020
5346 Clouds 3 1001 86 10000 9.3 210 10:20 07.04.2020
5347 Clouds 3 1001 86 10000 9.3 210 10:20 07.04.2020
5348 Clouds 3 1001 89 10000 11.3 210 09:56 07.04.2020
5349 Drizzle 3 1001 89 10000 11.3 200 09:38 07.04.2020
5350 Drizzle 3 1001 83 10000 11.3 200 09:18 07.04.2020
5351 Rain 3 1001 83 10000 11.8 200 08:40 07.04.2020
5352 Rain 3 1001 83 10000 10.8 200 08:21 07.04.2020
5353 Rain 2 1001 83 10000 10.8 200 07:46 07.04.2020
5354 Drizzle 3 1001 83 10000 10.8 200 07:26 07.04.2020
5355 Rain 2 1002 83 10000 8.7 200 06:53 07.04.2020
5356 Drizzle 2 1003 85 10000 9.8 210 06:27 07.04.2020
5357 Rain 2 1003 80 10000 10.8 210 05:59 07.04.2020
5358 Drizzle 2 1003 80 10000 10.3 210 05:26 07.04.2020
5359 Rain 2 1004 80 10000 10.8 200 04:22 07.04.2020
5360 Drizzle 2 1005 80 10000 5.1 200 03:23 07.04.2020
5361 Drizzle 1 1006 86 10000 4.1 190 02:47 07.04.2020
5362 Drizzle 1 1007 86 10000 8.7 200 01:43 07.04.2020
5363 Drizzle 1 1007 86 10000 8.7 200 01:22 07.04.2020
5364 Clouds 0 1008 93 10000 9.8 200 00:26 07.04.2020
5365 Snow 0 1009 93 10000 8.2 190 23:44 06.04.2020
5366 Clouds 0 1010 93 10000 7.7 190 23:22 06.04.2020
5367 Clouds -1 1010 80 10000 8.2 190 22:56 06.04.2020
5368 Clouds 0 1010 80 10000 8.2 190 22:37 06.04.2020
5369 Clouds 0 1011 74 10000 9.8 190 22:19 06.04.2020
5370 Clouds 0 1011 80 10000 9.3 190 21:56 06.04.2020
5371 Clouds 0 1011 80 10000 9.3 190 21:37 06.04.2020
5372 Clouds -1 1012 79 10000 8.7 190 21:18 06.04.2020
5373 Clouds -1 1012 79 10000 9.8 190 20:41 06.04.2020
5374 Clouds -2 1013 79 10000 8.2 190 20:21 06.04.2020
5375 Clouds -2 1013 74 10000 8.7 190 19:58 06.04.2020
5376 Clouds -2 1013 74 10000 8.7 190 19:58 06.04.2020
5377 Clouds -2 1014 68 10000 9.3 190 19:39 06.04.2020
5378 Clouds -2 1014 68 10000 9.3 190 19:20 06.04.2020
5379 Clouds -2 1014 68 10000 8.7 190 18:54 06.04.2020
5380 Clouds -3 1015 68 10000 6.7 180 18:36 06.04.2020
5381 Clouds -3 1015 68 10000 6.7 180 18:18 06.04.2020
5382 Clouds -2 1015 68 10000 8.7 190 17:41 06.04.2020
5383 Clouds -2 1015 63 10000 10.3 190 17:19 06.04.2020
5384 Clouds -2 1016 63 10000 11.8 190 16:50 06.04.2020
5385 Clouds -2 1016 58 10000 11.3 190 16:31 06.04.2020
5386 Clouds -2 1016 58 10000 11.3 180 15:40 06.04.2020
5387 Clouds -1 1019 42 10000 9.3 170 13:45 06.04.2020
5388 Clouds -1 1019 50 10000 8.7 170 13:24 06.04.2020
5389 Clouds -1 1019 54 10000 9.8 190 12:56 06.04.2020
5390 Clouds -1 1019 54 10000 9.8 190 12:56 06.04.2020
5391 Clouds -1 1019 54 10000 9.8 190 12:56 06.04.2020
5392 Clouds -1 1019 54 10000 9.8 190 12:56 06.04.2020
5393 Clouds -1 1019 54 10000 9.8 190 12:56 06.04.2020
5394 Clouds -1 1019 54 10000 9.8 190 12:21 06.04.2020
5395 Clouds 0 1020 89 10000 5.7 180 11:54 06.04.2020
5396 Clouds 0 1020 89 10000 5.7 180 11:54 06.04.2020
5397 Clouds 0 1020 89 10000 5.7 180 11:54 06.04.2020
5398 Clouds 0 1020 89 10000 5.7 180 11:54 06.04.2020
5399 Clouds 0 1020 89 10000 5.7 180 11:54 06.04.2020
5400 Clouds 0 1020 89 10000 5.7 180 11:31 06.04.2020
5401 Clouds -1 1020 58 10000 6.7 180 11:31 06.04.2020
5402 Clouds 0 1020 89 10000 5.7 180 11:31 06.04.2020
5403 Clouds 0 1020 89 10000 5.7 180 11:31 06.04.2020
5404 Clouds -1 1020 58 10000 6.7 180 11:31 06.04.2020
5405 Clouds -1 1020 58 10000 5.7 190 10:50 06.04.2020
5406 Clouds -1 1020 58 10000 5.7 190 10:50 06.04.2020
5407 Clouds -1 1020 58 10000 5.7 190 10:50 06.04.2020
5408 Clouds -1 1020 58 10000 5.7 190 10:50 06.04.2020
5409 Clouds -1 1020 58 10000 5.7 190 10:50 06.04.2020
5410 Clouds -1 1020 68 10000 3.6 180 10:21 06.04.2020
5411 Clouds -1 1021 68 10000 6.2 190 09:47 06.04.2020
5412 Clouds -1 1021 68 10000 6.2 190 09:47 06.04.2020
5413 Clouds -1 1021 68 10000 6.2 190 09:47 06.04.2020
5414 Clouds -1 1021 68 10000 6.2 190 09:47 06.04.2020
5415 Clouds -1 1021 68 10000 6.2 190 09:47 06.04.2020
5416 Clouds -1 1021 68 10000 5.7 200 09:20 06.04.2020
5417 Clouds -1 1021 79 10000 5.7 210 08:53 06.04.2020
5418 Clouds -1 1021 79 10000 5.7 210 08:30 06.04.2020
5419 Rain -1 1021 74 10000 4.6 270 07:30 06.04.2020
5420 Rain -2 1021 79 10000 4.1 230 07:30 06.04.2020
5421 Rain -2 1021 79 10000 4.1 230 07:30 06.04.2020
5422 Rain -1 1021 80 10000 7.2 250 06:41 06.04.2020
5423 Rain -1 1021 80 10000 7.7 230 06:22 06.04.2020
5424 Clouds -1 1020 74 10000 6.7 260 04:18 06.04.2020
5425 Clouds -3 1020 79 10000 6.7 240 02:57 06.04.2020
5426 Clouds -4 1020 79 10000 5.7 250 02:25 06.04.2020
5427 Clouds -3 1020 79 10000 3.6 250 01:23 06.04.2020
5428 Clouds -3 1019 79 10000 3.6 290 00:41 06.04.2020
5429 Clouds -2 1019 74 10000 5.7 280 00:21 06.04.2020
5430 Clouds -2 1019 74 10000 5.7 280 00:21 06.04.2020
5431 Clouds -3 1019 79 10000 4.1 250 23:43 05.04.2020
5432 Clouds -3 1019 73 10000 4.6 260 23:24 05.04.2020
5433 Clouds -1 1019 63 10000 5.7 310 22:55 05.04.2020
5434 Clouds -1 1019 63 10000 5.7 310 22:37 05.04.2020
5435 Clouds -1 1018 86 10000 6.7 330 22:18 05.04.2020
5436 Snow -2 1018 79 6000 12.9 310 21:45 05.04.2020
5437 Snow -2 1018 79 6000 12.9 310 21:45 05.04.2020
5438 Clouds -1 1017 79 10000 9.8 350 21:23 05.04.2020
5439 Snow -2 1016 92 3000 10.8 290 20:26 05.04.2020
5440 Rain -2 1016 86 9000 7.7 290 19:59 05.04.2020
5441 Rain -2 1016 86 9000 7.7 290 19:59 05.04.2020
5442 Rain -2 1016 86 9000 7.7 290 19:37 05.04.2020
5443 Snow -2 1015 92 9000 8.2 250 19:19 05.04.2020
5444 Snow -3 1015 86 9000 7.2 210 18:44 05.04.2020
5445 Snow -3 1015 86 9000 7.2 210 18:44 05.04.2020
5446 Snow -3 1015 86 9000 7.2 210 18:44 05.04.2020
5447 Snow -3 1015 79 9000 8.2 200 17:51 05.04.2020
5448 Snow -2 1015 79 9000 8.2 200 17:51 05.04.2020
5449 Snow -2 1015 79 9000 8.2 200 17:51 05.04.2020
5450 Snow -3 1015 79 9000 8.2 200 17:51 05.04.2020
5451 Snow -3 1015 79 9000 8.2 200 17:51 05.04.2020
5452 Rain -2 1015 73 10000 7.2 200 17:23 05.04.2020
5453 Rain -1 1015 63 10000 6.7 210 16:47 05.04.2020
5454 Rain -1 1015 54 10000 7.7 210 16:20 05.04.2020
5455 Rain -1 1015 54 10000 7.7 210 16:20 05.04.2020
5456 Snow -2 1015 54 10000 7.2 200 15:49 05.04.2020
5457 Snow -2 1015 54 10000 7.2 200 15:30 05.04.2020
5458 Snow -2 1015 50 10000 8.2 200 14:48 05.04.2020
5459 Snow -1 1015 54 10000 7.2 200 14:24 05.04.2020
5460 Snow -1 1014 50 10000 6.2 250 13:41 05.04.2020
5461 Snow -2 1014 58 10000 8.7 250 12:48 05.04.2020
5462 Clouds -2 1014 63 10000 8.7 270 11:41 05.04.2020
5463 Snow -3 1013 73 10000 10.3 270 11:20 05.04.2020
5464 Snow -3 1013 73 10000 10.3 270 11:20 05.04.2020
5465 Snow -2 1013 74 10000 8.2 270 10:48 05.04.2020
5466 Snow -3 1013 79 10000 10.8 290 10:24 05.04.2020
5467 Snow -3 1013 79 10000 10.8 290 10:24 05.04.2020
5468 Snow -3 1013 79 10000 10.8 290 10:24 05.04.2020
5469 Snow -3 1013 86 5000 8.7 260 09:56 05.04.2020
5470 Snow -3 1013 86 5000 8.7 260 09:56 05.04.2020
5471 Snow -3 1013 86 5000 8.7 260 09:31 05.04.2020
5472 Snow -3 1013 86 5000 8.7 260 09:31 05.04.2020
5473 Snow -3 1012 86 10000 10.8 290 08:57 05.04.2020
5474 Snow -3 1012 86 10000 10.8 290 08:57 05.04.2020
5475 Snow -3 1012 86 10000 10.8 290 08:57 05.04.2020
5476 Snow -3 1012 86 10000 10.8 290 08:57 05.04.2020
5477 Snow -3 1012 86 10000 10.8 290 08:57 05.04.2020
5478 Snow -3 1011 73 10000 9.8 290 07:25 05.04.2020
5479 Snow -3 1011 73 10000 9.8 290 07:25 05.04.2020
5480 Snow -3 1011 73 10000 9.8 290 07:25 05.04.2020
5481 Snow -4 1010 85 1100 10.8 270 04:33 05.04.2020
5482 Snow -4 1009 79 10000 9.3 280 03:30 05.04.2020
5483 Snow -4 1008 85 10000 9.8 270 02:49 05.04.2020
5484 Snow -4 1007 73 10000 8.7 270 01:46 05.04.2020
5485 Clouds -4 1007 73 10000 8.2 270 01:25 05.04.2020
5486 Rain -5 1006 92 10000 7.2 260 00:43 05.04.2020
5487 Snow -4 1006 85 2000 10.3 270 00:21 05.04.2020
5488 Snow -4 1006 85 3000 5.7 280 23:42 04.04.2020
5489 Rain -4 1005 85 10000 8.7 270 23:23 04.04.2020
5490 Rain -4 1005 85 10000 8.7 270 22:57 04.04.2020
5491 Clouds -4 1005 85 10000 6.2 260 22:39 04.04.2020
5492 Clouds -6 1005 92 10000 3.6 270 22:21 04.04.2020
5493 Clouds -6 1005 92 10000 3.6 270 21:58 04.04.2020
5494 Clouds -7 1005 92 10000 4.1 320 21:39 04.04.2020
5495 Snow -7 1004 85 10000 3.6 280 21:19 04.04.2020
5496 Snow -7 1004 85 10000 3.6 280 20:58 04.04.2020
5497 Snow -6 1004 92 10000 4.6 260 20:39 04.04.2020
5498 Snow -5 1003 92 700 6.7 260 20:20 04.04.2020
5499 Snow -5 1003 100 1900 6.7 250 19:56 04.04.2020
5500 Snow -5 1003 100 1900 6.7 250 19:37 04.04.2020
5501 Snow -5 1003 100 1000 5.7 250 19:18 04.04.2020
5502 Snow -5 1003 92 400 7.2 270 18:55 04.04.2020
5503 Snow -5 1003 92 400 7.2 270 18:37 04.04.2020
5504 Snow -5 1003 92 200 9.8 270 18:18 04.04.2020
5505 Snow -4 1002 85 10000 7.2 260 17:40 04.04.2020
5506 -273 0 0 0 0 0 17:20 04.04.2020
5507 Snow -5 1001 92 10000 6.7 310 16:55 04.04.2020
5508 Snow -5 1001 92 10000 6.7 310 16:37 04.04.2020
5509 Snow -5 1001 92 10000 6.7 310 16:37 04.04.2020
5510 Snow -4 1001 85 7000 8.2 290 16:19 04.04.2020
5511 Rain -3 1000 79 10000 4.6 260 15:40 04.04.2020
5512 Rain -2 1000 74 10000 5.7 270 15:22 04.04.2020
5513 Rain -2 1000 74 10000 5.7 270 14:57 04.04.2020
5514 Rain -4 1000 85 10000 6.2 260 14:39 04.04.2020
5515 Snow -4 999 85 1500 9.8 280 14:21 04.04.2020
5516 Rain -3 998 53 10000 6.7 300 13:55 04.04.2020
5517 Rain -3 998 53 10000 6.7 300 13:37 04.04.2020
5518 Rain -2 998 50 10000 7.2 300 13:18 04.04.2020
5519 Rain -3 997 49 10000 8.2 300 12:44 04.04.2020
5520 Rain -3 997 49 10000 8.2 300 12:44 04.04.2020
5521 Clouds -2 997 46 10000 8.2 300 12:23 04.04.2020
5522 Clouds -2 996 46 10000 10.8 300 11:58 04.04.2020
5523 Clouds -2 996 46 10000 10.8 300 11:38 04.04.2020
5524 Clouds -3 996 49 10000 10.8 300 11:19 04.04.2020
5525 Clouds -3 995 49 10000 12.3 310 10:55 04.04.2020
5526 Clouds -3 995 49 10000 12.3 310 10:37 04.04.2020
5527 Clouds -2 995 50 10000 11.8 310 10:18 04.04.2020
5528 Clouds -3 994 53 10000 12.3 310 09:54 04.04.2020
5529 Clouds -3 994 53 10000 12.3 310 09:36 04.04.2020
5530 Clouds -3 993 53 10000 13.4 310 09:18 04.04.2020
5531 Clouds -3 993 53 10000 14.4 310 08:38 04.04.2020
5532 Clouds -4 993 53 10000 13.4 300 08:20 04.04.2020
5533 Clouds -4 992 58 10000 13.9 310 07:44 04.04.2020
5534 Clouds -4 992 62 10000 14.4 310 07:26 04.04.2020
5535 Clouds -4 991 62 10000 15.4 310 06:51 04.04.2020
5536 Clouds -4 991 62 10000 15.4 310 06:19 04.04.2020
5537 Clouds -4 990 62 10000 16.5 310 05:41 04.04.2020
5538 Clouds -4 990 62 10000 16.5 310 05:23 04.04.2020
5539 Clouds -4 989 58 10000 14.9 300 04:30 04.04.2020
5540 Snow -4 988 85 3500 13.9 300 03:49 04.04.2020
5541 Rain -4 988 85 8000 13.9 290 02:51 04.04.2020
5542 Rain -4 988 85 8000 13.9 290 02:32 04.04.2020
5543 Snow -5 987 92 600 20.6 290 01:53 04.04.2020
5544 Rain -3 986 68 10000 16.5 310 01:25 04.04.2020
5545 Rain -3 986 79 10000 16.5 300 00:48 04.04.2020
5546 Snow -3 985 86 3500 19.5 310 00:29 04.04.2020
5547 Snow -3 985 92 600 6.7 250 23:40 03.04.2020
5548 Snow -5 985 85 1500 4.6 220 23:21 03.04.2020
5549 Snow -5 985 85 1500 4.6 220 22:58 03.04.2020
5550 Clouds -5 984 85 10000 4.6 220 22:39 03.04.2020
5551 Rain -5 984 85 10000 4.1 230 22:18 03.04.2020
5552 Clouds -5 984 85 10000 5.1 210 21:44 03.04.2020
5553 Clouds -5 984 79 10000 4.6 200 21:25 03.04.2020
5554 Clouds -5 984 79 10000 4.6 200 20:57 03.04.2020
5555 Clouds -4 984 79 10000 4.6 200 20:38 03.04.2020
5556 Rain -5 983 85 10000 4.6 200 20:20 03.04.2020
5557 Clouds -4 983 73 10000 6.2 200 19:57 03.04.2020
5558 Clouds -4 983 73 10000 6.2 200 19:39 03.04.2020
5559 Clouds -3 983 68 10000 5.7 210 19:21 03.04.2020
5560 Clouds -3 982 73 10000 5.1 200 18:59 03.04.2020
5561 Clouds -3 982 73 10000 5.1 200 18:41 03.04.2020
5562 Clouds -3 982 73 10000 5.1 200 18:41 03.04.2020
5563 Clouds -4 982 73 10000 5.1 210 18:23 03.04.2020
5564 Clouds -3 982 68 10000 5.7 240 17:57 03.04.2020
5565 Clouds -3 982 68 10000 5.7 240 17:39 03.04.2020
5566 Clouds -4 982 73 10000 5.7 230 17:18 03.04.2020
5567 Clouds -3 982 68 10000 5.1 230 16:45 03.04.2020
5568 Clouds -4 981 73 10000 5.1 220 16:22 03.04.2020
5569 Clouds -3 981 68 10000 5.7 220 15:58 03.04.2020
5570 Clouds -3 981 68 10000 5.7 220 15:40 03.04.2020
5571 Clouds -4 981 73 10000 5.1 220 15:21 03.04.2020
5572 Clouds -3 981 63 10000 5.1 220 14:56 03.04.2020
5573 Clouds -5 982 92 0 1.76 195 14:38 03.04.2020
5574 Clouds -4 981 68 10000 5.1 200 14:20 03.04.2020
5575 Clouds -4 981 68 10000 5.1 200 13:43 03.04.2020
5576 Clouds -4 981 68 10000 5.1 200 13:25 03.04.2020
5577 Clouds -4 980 68 10000 5.1 210 12:56 03.04.2020
5578 Clouds -4 980 68 10000 5.1 210 12:37 03.04.2020
5579 Clouds -4 980 68 10000 4.1 210 12:18 03.04.2020
5580 Clouds -4 980 68 10000 3.6 200 11:54 03.04.2020
5581 Clouds -4 980 68 10000 3.6 200 11:36 03.04.2020
5582 Clouds -3 980 58 10000 3.1 200 11:18 03.04.2020
5583 Clouds -4 980 62 10000 3.6 200 10:54 03.04.2020
5584 Clouds -4 980 62 10000 3.6 200 10:36 03.04.2020
5585 Clouds -5 979 62 10000 3.1 210 10:18 03.04.2020
5586 Clouds -5 979 62 10000 3.1 200 09:40 03.04.2020
5587 Clouds -5 979 62 10000 3.1 200 09:40 03.04.2020
5588 Clouds -6 979 67 10000 3.6 200 09:22 03.04.2020
5589 Clouds -6 979 67 10000 3.6 200 08:57 03.04.2020
5590 Clouds -6 979 67 10000 2.6 180 08:39 03.04.2020
5591 -273 0 0 0 0 0 08:20 03.04.2020
5592 Clouds -6 979 67 10000 4.6 200 07:50 03.04.2020
5593 Clouds -6 979 67 10000 4.6 200 07:31 03.04.2020
5594 Clouds -7 979 73 10000 3.6 180 06:49 03.04.2020
5595 Clouds -7 979 73 10000 3.6 180 06:24 03.04.2020
5596 Clouds -7 978 67 10000 3.1 170 05:40 03.04.2020
5597 Snow -8 979 93 0 3.41 171 03:45 03.04.2020
5598 Clouds -7 979 73 10000 4.6 180 02:56 03.04.2020
5599 Clouds -7 979 73 10000 4.6 180 02:27 03.04.2020
5600 Clouds -9 979 78 10000 4.1 180 01:23 03.04.2020
5601 Clouds -8 979 72 10000 4.6 180 00:40 03.04.2020
5602 Clouds -7 979 73 10000 7.7 190 00:20 03.04.2020
5603 Clouds -7 980 67 10000 8.7 180 23:42 02.04.2020
5604 Clouds -8 980 67 10000 6.7 180 23:23 02.04.2020
5605 Clouds -8 980 72 10000 4.6 150 22:58 02.04.2020
5606 Clouds -7 980 72 10000 4.6 150 22:39 02.04.2020
5607 Clouds -8 980 72 10000 6.2 140 22:20 02.04.2020
5608 Clouds -7 980 67 10000 6.7 140 21:54 02.04.2020
5609 Clouds -7 980 67 10000 6.7 140 21:36 02.04.2020
5610 Clouds -6 980 62 10000 8.2 140 21:18 02.04.2020
5611 Clouds -6 980 67 10000 10.3 150 20:42 02.04.2020
5612 Clouds -7 981 62 10000 10.3 150 20:22 02.04.2020
5613 Clouds -7 981 67 10000 8.2 130 19:45 02.04.2020
5614 Clouds -7 981 62 10000 8.2 140 19:21 02.04.2020
5615 Clouds -6 981 62 10000 9.3 150 19:00 02.04.2020
5616 Clouds -6 981 62 10000 9.3 150 18:41 02.04.2020
5617 Clouds -6 981 62 10000 7.7 160 18:21 02.04.2020
5618 Clouds -6 981 62 10000 7.7 160 18:21 02.04.2020
5619 Clear -6 982 62 10000 8.2 160 17:57 02.04.2020
5620 Clear -5 982 62 10000 8.2 160 17:39 02.04.2020
5621 Clear -4 982 57 10000 9.3 150 17:20 02.04.2020
5622 Clear -4 982 62 10000 9.8 160 16:56 02.04.2020
5623 Clear -4 982 62 10000 9.8 160 16:38 02.04.2020
5624 Clear -4 983 57 10000 8.7 150 16:20 02.04.2020
5625 Clear -4 983 62 10000 7.7 150 15:54 02.04.2020
5626 Clear -4 983 62 10000 7.7 150 15:36 02.04.2020
5627 Clear -3 983 53 10000 6.7 170 15:18 02.04.2020
5628 Clear -3 983 58 10000 6.2 190 14:40 02.04.2020
5629 Clear -3 983 58 10000 6.2 190 14:40 02.04.2020
5630 Clear -2 983 54 10000 6.2 190 14:20 02.04.2020
5631 Clear -3 983 58 10000 8.7 180 13:58 02.04.2020
5632 Clear -3 983 58 10000 8.7 180 13:39 02.04.2020
5633 Clouds -3 984 58 10000 9.8 180 13:21 02.04.2020
5634 Clouds -3 984 58 10000 9.8 180 12:56 02.04.2020
5635 Clouds -3 984 58 10000 9.8 180 12:56 02.04.2020
5636 Clouds -3 984 58 10000 9.8 180 12:56 02.04.2020
5637 Clouds -3 984 58 10000 9.8 180 12:37 02.04.2020
5638 Clouds -3 984 58 10000 9.3 180 12:19 02.04.2020
5639 Clouds -3 985 58 10000 9.3 180 11:57 02.04.2020
5640 Clouds -3 985 58 10000 9.3 180 11:38 02.04.2020
5641 Clouds -4 985 62 10000 8.7 180 11:19 02.04.2020
5642 Clouds -4 985 62 10000 8.7 180 11:19 02.04.2020
5643 Clouds -4 985 62 10000 8.7 180 10:55 02.04.2020
5644 Clouds -4 985 62 10000 8.7 180 10:55 02.04.2020
5645 Clouds -4 985 62 10000 8.7 180 10:37 02.04.2020
5646 Clear -3 986 58 10000 8.7 180 10:18 02.04.2020
5647 Clear -4 986 62 10000 8.2 190 09:43 02.04.2020
5648 Clear -4 986 62 10000 8.7 190 09:25 02.04.2020
5649 Clouds -4 986 62 10000 7.7 180 08:58 02.04.2020
5650 Clouds -4 986 62 10000 7.7 180 08:40 02.04.2020
5651 Clouds -4 986 62 10000 5.7 180 08:22 02.04.2020
5652 Clouds -4 987 67 10000 5.7 190 07:44 02.04.2020
5653 Clouds -5 987 67 10000 8.2 190 07:20 02.04.2020
5654 Clouds -5 987 67 10000 8.2 190 06:58 02.04.2020
5655 Clouds -5 988 67 10000 8.2 190 06:21 02.04.2020
5656 Clouds -5 988 67 10000 8.2 190 05:45 02.04.2020
5657 Clouds -5 989 67 10000 5.1 170 04:33 02.04.2020
5658 Clouds -5 992 73 10000 6.2 170 01:35 02.04.2020
5659 Clouds -6 992 79 10000 4.6 160 00:48 02.04.2020
5660 Clouds -6 993 73 10000 5.1 160 00:26 02.04.2020
5661 Clouds -6 993 79 10000 9.8 150 23:54 01.04.2020
5662 Clouds -6 993 79 10000 9.8 150 23:36 01.04.2020
5663 Clouds -5 993 79 10000 6.2 160 23:18 01.04.2020
5664 Clouds -5 993 79 10000 5.1 170 22:40 01.04.2020
5665 Clouds -4 994 73 10000 4.6 180 22:21 01.04.2020
5666 Clouds -5 994 79 10000 4.6 170 21:55 01.04.2020
5667 Clouds -5 994 79 10000 4.6 170 21:36 01.04.2020
5668 Snow -5 994 79 10000 3.6 180 21:18 01.04.2020
5669 Clouds -5 994 79 10000 3.1 160 20:54 01.04.2020
5670 Clouds -5 994 79 10000 3.1 160 20:36 01.04.2020
5671 Clouds -5 995 85 10000 5.1 130 20:18 01.04.2020
5672 Clouds -6 995 85 10000 4.1 130 19:41 01.04.2020
5673 Clouds -6 995 79 10000 3.1 140 19:21 01.04.2020
5674 Clouds -5 995 79 10000 3.1 140 18:46 01.04.2020
5675 Clouds -4 995 79 10000 1.5 150 18:27 01.04.2020
5676 Clouds -2 995 68 10000 1 150 17:59 01.04.2020
5677 Clouds -2 995 68 10000 1 150 17:59 01.04.2020
5678 Clouds -2 995 68 10000 1 150 17:39 01.04.2020
5679 Clouds -3 995 68 10000 1.5 80 17:21 01.04.2020
5680 Clouds -3 995 68 10000 1.5 80 16:59 01.04.2020
5681 Clouds -3 996 73 10000 1 0 16:41 01.04.2020
5682 Clouds -2 996 74 10000 1 280 16:22 01.04.2020
5683 Clouds -3 996 85 10000 3.78 104 15:58 01.04.2020
5684 Clouds -3 996 85 10000 3.78 104 15:38 01.04.2020
5685 Clouds -3 996 85 10000 3.78 104 15:38 01.04.2020
5686 Clouds -2 996 74 10000 1 0 15:20 01.04.2020
5687 Clouds 0 996 86 10000 2.76 37 14:57 01.04.2020
5688 Clouds 0 996 86 10000 2.76 37 14:38 01.04.2020
5689 Clouds -1 996 68 10000 1 0 14:19 01.04.2020
5690 Clouds -1 996 68 10000 1 0 13:57 01.04.2020
5691 Clouds -1 996 80 10000 1 0 13:37 01.04.2020
5692 Rain 0 997 88 10000 1 0 13:18 01.04.2020
5693 Rain 0 996 88 10000 2.1 80 12:54 01.04.2020
5694 Clouds -1 996 74 10000 1 0 12:36 01.04.2020
5695 Clouds -1 996 74 10000 1 0 12:18 01.04.2020
5696 Rain 0 996 87 10000 3.6 320 11:40 01.04.2020
5697 Rain -1 997 74 10000 4.6 310 11:21 01.04.2020
5698 Rain -1 997 74 10000 4.6 310 10:57 01.04.2020
5699 Snow -2 997 86 10000 7.7 340 10:37 01.04.2020
5700 Rain -2 997 73 10000 5.7 30 10:18 01.04.2020
5701 Rain -2 997 73 10000 5.7 30 10:18 01.04.2020
5702 Rain -2 997 73 10000 6.7 30 09:55 01.04.2020
5703 Rain -2 997 73 10000 6.7 30 09:37 01.04.2020
5704 Rain -3 997 85 10000 7.7 20 09:18 01.04.2020
5705 Rain -3 997 79 10000 8.7 30 08:40 01.04.2020
5706 Rain -2 996 86 10000 5.7 60 08:18 01.04.2020
5707 Snow -3 996 100 1500 6.2 50 07:42 01.04.2020
5708 Snow -4 996 92 1800 7.2 60 07:20 01.04.2020
5709 Rain -4 996 92 10000 9.3 50 06:47 01.04.2020
5710 Rain -3 996 79 10000 10.8 40 06:23 01.04.2020
5711 Clouds -5 996 85 10000 6.2 70 05:56 01.04.2020
5712 Snow -4 995 92 3400 9.3 60 04:30 01.04.2020
5713 Rain -4 995 92 10000 8.7 70 03:28 01.04.2020
5714 Snow -4 995 85 10000 8.7 60 02:49 01.04.2020
5715 Snow -4 994 92 10000 6.7 70 01:57 01.04.2020
5716 Snow -4 994 85 6000 8.2 60 01:38 01.04.2020
5717 Clouds -4 994 85 10000 8.2 60 01:18 01.04.2020
5718 Clouds -4 994 73 10000 8.7 60 00:45 01.04.2020
5719 Clouds -5 993 73 10000 8.7 70 00:20 01.04.2020
5720 Clouds -4 993 68 10000 10.8 60 23:42 31.03.2020
5721 Clouds -4 992 73 10000 11.8 70 23:23 31.03.2020
5722 Clouds -4 992 73 10000 11.8 70 22:58 31.03.2020
5723 Clouds -4 992 73 10000 11.8 70 22:37 31.03.2020
5724 Clouds -4 992 73 10000 9.8 80 22:19 31.03.2020
5725 Rain -4 991 73 10000 10.8 80 21:56 31.03.2020
5726 Rain -4 991 73 10000 10.8 80 21:38 31.03.2020
5727 Rain -4 991 79 10000 11.3 80 21:19 31.03.2020
5728 Rain -4 991 79 10000 11.3 80 20:55 31.03.2020
5729 Rain -4 990 79 10000 12.9 80 20:36 31.03.2020
5730 Rain -4 990 79 10000 12.9 80 20:18 31.03.2020
5731 Rain -4 990 79 10000 13.4 90 19:42 31.03.2020
5732 Rain -4 989 79 10000 14.4 90 19:23 31.03.2020
5733 Rain -4 988 79 10000 13.9 100 18:58 31.03.2020
5734 Rain -4 988 79 10000 13.9 100 18:39 31.03.2020
5735 Rain -4 988 85 10000 15.4 100 18:18 31.03.2020
5736 Snow -4 988 85 10000 14.4 100 17:55 31.03.2020
5737 Snow -4 988 85 10000 14.4 100 17:37 31.03.2020
5738 Snow -4 987 85 10000 13.9 100 17:18 31.03.2020
5739 Snow -4 987 85 5000 12.9 100 16:40 31.03.2020
5740 Snow -4 987 85 3500 13.9 100 16:19 31.03.2020
5741 Snow -4 987 85 3500 13.9 100 15:57 31.03.2020
5742 Snow -4 986 85 5000 11.3 110 15:39 31.03.2020
5743 Snow -4 986 85 5000 10.8 110 15:21 31.03.2020
5744 Snow -4 986 85 5000 10.8 110 14:57 31.03.2020
5745 Snow -4 986 85 7000 11.3 120 14:39 31.03.2020
5746 Snow -4 986 85 5000 10.8 120 14:20 31.03.2020
5747 Snow -4 986 79 6000 12.9 140 13:43 31.03.2020
5748 Snow -4 986 79 6000 14.4 150 13:20 31.03.2020
5749 Rain -4 986 79 10000 14.4 160 12:59 31.03.2020
5750 Rain -4 986 79 10000 14.4 160 12:40 31.03.2020
5751 Rain -4 986 73 10000 16.5 160 12:19 31.03.2020
5752 Snow -4 986 73 10000 14.4 170 11:40 31.03.2020
5753 Clouds -4 986 73 10000 14.4 170 11:20 31.03.2020
5754 Clouds -4 986 73 10000 14.4 170 10:59 31.03.2020
5755 Clouds -4 986 73 10000 14.9 180 10:40 31.03.2020
5756 Clouds -4 986 73 10000 16.5 170 10:22 31.03.2020
5757 Clouds -4 986 73 10000 16.5 170 09:59 31.03.2020
5758 Clouds -4 987 73 10000 16.5 170 09:40 31.03.2020
5759 Snow -5 987 85 8000 18.5 170 09:22 31.03.2020
5760 Snow -5 987 85 8000 18.5 170 08:57 31.03.2020
5761 Snow -5 988 85 8000 20.6 170 08:38 31.03.2020
5762 Snow -5 989 85 7000 22.1 170 08:19 31.03.2020
5763 Snow -5 989 85 7000 22.1 170 08:19 31.03.2020
5764 Clouds -5 990 85 9000 19.5 170 07:56 31.03.2020
5765 Clouds -5 990 85 9000 19.5 170 07:37 31.03.2020
5766 Clouds -5 991 79 9000 19 160 07:19 31.03.2020
5767 Clouds -5 992 85 5000 18 170 06:46 31.03.2020
5768 Clouds -5 993 79 8000 20.6 180 06:20 31.03.2020
5769 Snow -5 996 79 5000 19 180 05:39 31.03.2020
5770 Clouds -5 1002 73 9000 15.9 170 03:34 31.03.2020
5771 Clouds -5 1005 79 10000 10.8 160 02:18 31.03.2020
5772 Clouds -5 1005 79 10000 10.8 160 01:45 31.03.2020
5773 Clouds -4 1008 85 10000 5.1 180 00:47 31.03.2020
5774 Clouds -4 1009 85 10000 9.3 190 00:25 31.03.2020
5775 Clouds -4 1010 85 10000 6.7 180 23:56 30.03.2020
5776 Clouds -3 1010 85 10000 6.7 180 23:37 30.03.2020
5777 Clouds -3 1010 79 10000 5.1 180 23:18 30.03.2020
5778 Clouds -4 1011 85 10000 3.6 190 22:55 30.03.2020
5779 Clouds -4 1011 85 10000 3.6 190 22:36 30.03.2020
5780 Rain -4 1012 85 10000 3.6 190 22:18 30.03.2020
5781 Clouds -4 1012 85 10000 2.6 190 21:54 30.03.2020
5782 Clouds -4 1012 85 10000 2.6 190 21:36 30.03.2020
5783 Rain -4 1013 92 10000 1.5 0 21:18 30.03.2020
5784 Clouds -5 1013 79 10000 2.1 300 20:40 30.03.2020
5785 Rain -5 1014 92 10000 3.1 280 20:22 30.03.2020
5786 Rain -5 1014 85 10000 6.2 290 19:59 30.03.2020
5787 Rain -5 1014 85 10000 6.2 290 19:39 30.03.2020
5788 Rain -4 1014 85 10000 6.7 300 19:21 30.03.2020
5789 Rain -5 1015 92 10000 5.7 320 18:56 30.03.2020
5790 Rain -5 1015 92 10000 5.7 320 18:37 30.03.2020
5791 Snow -3 1015 86 5000 9.3 330 18:19 30.03.2020
5792 Rain -4 1015 92 10000 4.6 290 17:55 30.03.2020
5793 Rain -3 1015 92 10000 4.6 290 17:36 30.03.2020
5794 Snow -3 1015 86 3000 7.2 290 17:18 30.03.2020
5795 Rain -3 1016 85 10000 4.1 320 16:54 30.03.2020
5796 Rain -3 1016 85 10000 4.1 320 16:36 30.03.2020
5797 Snow -3 1016 79 2500 6.2 320 16:18 30.03.2020
5798 Snow -2 1016 86 10000 5.1 330 15:41 30.03.2020
5799 Snow -3 1016 79 2000 7.2 330 15:22 30.03.2020
5800 Rain -3 1016 86 7000 7.2 350 14:59 30.03.2020
5801 Rain -3 1016 86 7000 7.2 350 14:38 30.03.2020
5802 Rain -3 1016 85 9000 7.2 330 14:19 30.03.2020
5803 Rain -3 1016 85 9000 7.2 330 13:58 30.03.2020
5804 Rain -4 1015 85 9000 10.3 340 13:58 30.03.2020
5805 Rain -4 1015 85 9000 10.3 340 13:39 30.03.2020
5806 Snow -4 1015 85 10000 7.2 360 13:20 30.03.2020
5807 Snow -4 1015 85 2500 9.3 350 12:45 30.03.2020
5808 Rain -3 1015 86 10000 11.3 340 12:22 30.03.2020
5809 Rain -4 1015 85 10000 10.3 340 11:59 30.03.2020
5810 Rain -4 1015 85 10000 10.3 340 11:41 30.03.2020
5811 Clouds -4 1015 85 1000 13.9 330 11:22 30.03.2020
5812 Clouds -4 1015 85 1000 13.9 330 11:22 30.03.2020
5813 Clouds -4 1015 85 1000 13.9 330 10:57 30.03.2020
5814 Snow -4 1014 85 8000 14.9 320 10:38 30.03.2020
5815 -273 0 0 0 0 0 10:20 30.03.2020
5816 Clouds -3 1014 73 10000 19.5 340 09:41 30.03.2020
5817 Rain -2 1014 73 10000 13.9 330 09:20 30.03.2020
5818 Rain -4 1014 92 10000 16.5 320 08:58 30.03.2020
5819 Rain -4 1014 92 10000 16.5 320 08:38 30.03.2020
5820 Snow -4 1014 79 10000 13.4 310 08:20 30.03.2020
5821 Snow -4 1014 79 5000 13.4 320 07:44 30.03.2020
5822 Snow -5 1014 85 1000 19.5 320 07:23 30.03.2020
5823 Rain -5 1014 85 5000 13.9 330 06:47 30.03.2020
5824 Rain -5 1014 85 8000 14.4 330 06:25 30.03.2020
5825 Rain -4 1013 73 9000 15.9 330 05:44 30.03.2020
5826 Snow -5 1014 85 1800 14.4 320 04:37 30.03.2020
5827 Rain -4 1013 79 6000 17 340 04:18 30.03.2020
5828 Snow -5 1013 85 3500 13.9 320 02:45 30.03.2020
5829 Snow -4 1013 79 5000 15.9 340 01:58 30.03.2020
5830 Snow -4 1013 79 1500 13.9 330 01:18 30.03.2020
5831 Clouds -6 1013 92 1400 17 340 00:29 30.03.2020
5832 Rain -5 1013 79 9000 13.4 320 23:57 29.03.2020
5833 Rain -5 1013 79 9000 13.4 320 23:57 29.03.2020
5834 Rain -4 1013 79 9000 13.4 320 23:39 29.03.2020
5835 Snow -4 1013 68 7000 16.5 330 23:20 29.03.2020
5836 Rain -4 1012 73 10000 17.5 350 22:55 29.03.2020
5837 Rain -4 1012 73 10000 17.5 350 22:55 29.03.2020
5838 Rain -4 1012 73 10000 17.5 350 22:37 29.03.2020
5839 Rain -5 1013 79 10000 18 340 22:18 29.03.2020
5840 Snow -5 1013 85 10000 16.5 340 21:39 29.03.2020
5841 Snow -4 1012 79 5000 18 350 21:20 29.03.2020
5842 Rain -5 1012 92 10000 15.9 340 20:56 29.03.2020
5843 Rain -5 1012 92 10000 15.9 340 20:37 29.03.2020
5844 Snow -5 1012 85 10000 14.4 350 20:19 29.03.2020
5845 Clouds -4 1012 79 800 17.5 350 19:58 29.03.2020
5846 Clouds -4 1012 79 800 17.5 350 19:40 29.03.2020
5847 Clouds -5 1012 85 10000 17.5 340 19:22 29.03.2020
5848 Rain -4 1011 68 10000 17 330 18:57 29.03.2020
5849 Rain -4 1011 68 10000 17 330 18:38 29.03.2020
5850 Rain -4 1011 73 10000 19 340 18:19 29.03.2020
5851 Clouds -5 1011 85 10000 15.9 330 17:56 29.03.2020
5852 Clouds -5 1011 85 10000 15.9 330 17:38 29.03.2020
5853 Rain -5 1010 85 10000 13.9 320 17:19 29.03.2020
5854 Rain -5 1010 85 10000 13.9 320 16:56 29.03.2020
5855 Rain -5 1010 85 10000 13.9 320 16:38 29.03.2020
5856 Rain -5 1010 85 10000 13.9 320 16:38 29.03.2020
5857 Rain -4 1010 85 10000 17 330 16:19 29.03.2020
5858 Clouds -4 1010 92 7000 14.4 310 15:42 29.03.2020
5859 Clouds -4 1010 92 7000 14.4 310 15:42 29.03.2020
5860 Clouds -3 1010 79 2500 18 310 15:24 29.03.2020
5861 Rain -4 1010 79 6000 17 330 14:59 29.03.2020
5862 Rain -4 1010 79 6000 17 330 14:40 29.03.2020
5863 Rain -4 1010 73 7000 18 330 14:20 29.03.2020
5864 Snow -5 1010 85 3500 18 330 13:58 29.03.2020
5865 Snow -5 1010 85 3500 18 330 13:40 29.03.2020
5866 Rain -4 1010 73 7000 17 320 13:20 29.03.2020
5867 Rain -3 1009 73 10000 14.4 340 12:56 29.03.2020
5868 Clouds -3 1009 73 5000 19.5 340 12:37 29.03.2020
5869 Clouds -3 1009 73 5000 19.5 340 12:37 29.03.2020
5870 Clouds -3 1009 73 5000 19.5 340 12:19 29.03.2020
5871 Clouds -3 1009 73 5000 19.5 340 12:19 29.03.2020
5872 Rain -5 1009 85 9000 17.5 340 11:55 29.03.2020
5873 Rain -5 1009 85 9000 17.5 340 11:37 29.03.2020
5874 Snow -4 1009 79 5000 18 340 11:18 29.03.2020
5875 Snow -4 1009 79 5000 18 340 11:18 29.03.2020
5876 Snow -4 1009 79 4600 20.1 340 10:38 29.03.2020
5877 Snow -4 1008 68 2500 18 320 10:19 29.03.2020
5878 Snow -4 1008 73 2400 22.1 330 09:41 29.03.2020
5879 Snow -4 1008 73 5000 18.5 340 09:22 29.03.2020
5880 Snow -4 1008 62 10000 18 320 08:57 29.03.2020
5881 Snow -4 1008 62 10000 18 320 08:39 29.03.2020
5882 Snow -4 1008 73 1000 20.6 330 08:20 29.03.2020
5883 Snow -4 1008 73 3500 18.5 330 07:44 29.03.2020
5884 Snow -4 1007 73 5000 20.6 330 07:21 29.03.2020
5885 Snow -4 1007 73 4400 23.1 320 05:59 29.03.2020
5886 Snow -5 1007 73 250 24.2 320 04:56 29.03.2020
5887 Snow -6 1007 92 400 23.1 320 03:37 29.03.2020
5888 Snow -6 1007 92 500 21.6 330 01:57 29.03.2020
5889 Snow -6 1007 92 500 21.6 330 01:37 29.03.2020
5890 Snow -6 1007 92 200 20.1 330 01:19 29.03.2020
5891 Snow -5 1007 67 3600 22.6 340 00:39 29.03.2020
5892 Snow -5 1006 73 2200 23.1 340 23:59 28.03.2020
5893 Snow -5 1006 73 2200 23.1 340 23:40 28.03.2020
5894 Snow -5 1006 67 1900 24.2 340 23:22 28.03.2020
5895 Snow -5 1006 67 1000 24.7 330 22:42 28.03.2020
5896 Snow -5 1005 73 1400 23.7 330 22:22 28.03.2020
5897 Snow -5 1005 79 900 19.5 330 21:57 28.03.2020
5898 Snow -5 1005 79 900 19.5 330 21:39 28.03.2020
5899 Snow -5 1005 85 4000 20.1 330 21:19 28.03.2020
5900 Clouds -4 1005 85 2000 18.5 320 20:56 28.03.2020
5901 Clouds -4 1005 85 2000 18.5 320 20:37 28.03.2020
5902 Snow -4 1004 73 7000 20.6 320 20:18 28.03.2020
5903 Snow -4 1004 79 4100 24.2 320 19:55 28.03.2020
5904 Snow -4 1004 79 4100 24.2 320 19:36 28.03.2020
5905 Snow -5 1004 85 2300 20.6 320 19:18 28.03.2020
5906 Snow -4 1003 85 1000 22.1 320 18:39 28.03.2020
5907 Snow -4 1003 85 1000 22.1 320 18:39 28.03.2020
5908 Snow -4 1003 85 1600 18 320 18:20 28.03.2020
5909 Snow -4 1002 79 1900 18.5 290 17:42 28.03.2020
5910 Snow -3 1002 73 1800 19 300 17:22 28.03.2020
5911 Snow -4 1002 79 2800 19.5 320 16:59 28.03.2020
5912 Snow -4 1002 79 2800 19.5 320 16:38 28.03.2020
5913 Snow -4 1002 85 900 19.5 320 16:18 28.03.2020
5914 Rain -4 1002 85 5000 18 310 15:40 28.03.2020
5915 Rain -3 1002 79 8000 19 310 15:20 28.03.2020
5916 Rain -3 1002 79 8000 19 310 14:59 28.03.2020
5917 Snow -5 1002 85 7000 20.6 300 14:40 28.03.2020
5918 Rain -4 1002 85 9000 15.4 310 14:21 28.03.2020
5919 Rain -3 1001 73 8000 19.5 310 13:43 28.03.2020
5920 Rain -4 1001 79 7000 18 330 13:23 28.03.2020
5921 Snow -4 1001 85 1500 19 320 12:41 28.03.2020
5922 Rain -4 1001 85 7000 16.5 320 12:23 28.03.2020
5923 Rain -3 1001 79 5000 18 300 11:55 28.03.2020
5924 Rain -3 1001 73 10000 15.4 300 11:37 28.03.2020
5925 Rain -3 1001 73 10000 15.4 300 11:18 28.03.2020
5926 Clouds -4 1001 73 2000 18.5 300 10:39 28.03.2020
5927 Rain -3 1001 73 9000 14.9 300 10:20 28.03.2020
5928 Snow -3 1000 73 8000 19.5 310 09:43 28.03.2020
5929 Rain -4 1000 85 6000 17 310 09:24 28.03.2020
5930 Rain -3 1000 79 10000 5.7 0 08:59 28.03.2020
5931 Rain -3 1000 79 10000 5.7 0 08:41 28.03.2020
5932 Rain -4 1000 85 10000 4.6 0 08:22 28.03.2020
5933 Snow -3 998 92 1800 9.8 350 07:46 28.03.2020
5934 Snow -3 998 92 1800 9.8 350 07:28 28.03.2020
5935 Snow -2 996 92 800 12.3 360 06:37 28.03.2020
5936 Snow -2 996 92 800 12.3 360 06:18 28.03.2020
5937 Snow -2 996 100 800 2.6 40 05:21 28.03.2020
5938 Snow -1 995 92 2300 1 190 04:42 28.03.2020
5939 Snow -1 996 92 4000 2.1 280 03:55 28.03.2020
5940 Rain -1 997 80 10000 4.1 220 02:26 28.03.2020
5941 Clouds -1 997 80 10000 5.1 190 01:45 28.03.2020
5942 Clouds -1 998 86 10000 8.7 190 01:20 28.03.2020
5943 Rain -1 999 92 10000 8.2 190 00:46 28.03.2020
5944 Snow -1 999 92 10000 6.7 210 00:20 28.03.2020
5945 Snow 0 1000 100 10000 8.2 250 23:42 27.03.2020
5946 Rain 0 1000 100 10000 4.6 210 23:23 27.03.2020
5947 Rain 0 1001 100 10000 9.3 260 22:56 27.03.2020
5948 Rain 0 1001 100 10000 9.3 260 22:38 27.03.2020
5949 Snow -1 1002 100 7000 11.8 260 22:20 27.03.2020
5950 Snow -1 1002 100 400 17.5 270 21:55 27.03.2020
5951 Snow -1 1002 100 400 17.5 270 21:37 27.03.2020
5952 Clouds 0 1002 87 10000 12.3 260 21:19 27.03.2020
5953 Rain 0 1002 86 7000 12.3 260 20:42 27.03.2020
5954 Snow 0 1003 86 1500 14.9 270 20:21 27.03.2020
5955 Snow 0 1003 84 1500 14.9 270 19:59 27.03.2020
5956 Rain 0 1003 84 10000 14.4 260 19:41 27.03.2020
5957 Snow 0 1003 84 1500 18.5 270 19:22 27.03.2020
5958 Snow -1 1003 92 8000 15.9 270 18:56 27.03.2020
5959 Snow -1 1003 92 8000 15.9 270 18:38 27.03.2020
5960 Snow 0 1004 84 1200 22.1 270 18:19 27.03.2020
5961 Rain 1 1003 80 10000 14.9 250 17:40 27.03.2020
5962 Clouds 1 1003 74 10000 15.4 260 17:20 27.03.2020
5963 Rain 1 1004 74 10000 17 260 16:54 27.03.2020
5964 Rain 1 1004 74 10000 17 260 16:36 27.03.2020
5965 Rain 1 1004 74 10000 17 260 16:36 27.03.2020
5966 Clouds 1 1004 79 1400 14.4 250 16:18 27.03.2020
5967 Snow 0 1004 79 2500 14.9 240 15:41 27.03.2020
5968 Snow 0 1005 79 1500 18 260 15:23 27.03.2020
5969 Rain 2 1004 80 10000 12.3 240 14:46 27.03.2020
5970 Rain 2 1005 80 10000 11.3 240 14:25 27.03.2020
5971 Rain 2 1005 80 10000 11.3 240 14:25 27.03.2020
5972 Rain 1 1005 77 10000 10.8 230 13:56 27.03.2020
5973 -273 0 0 0 0 0 13:37 27.03.2020
5974 Rain 1 1005 77 10000 10.8 230 13:37 27.03.2020
5975 Rain 1 1005 86 10000 13.9 240 13:19 27.03.2020
5976 Rain 2 1005 80 10000 13.9 250 12:51 27.03.2020
5977 Rain 3 1005 69 10000 12.9 260 12:21 27.03.2020
5978 Rain 1 1006 76 10000 10.3 260 11:59 27.03.2020
5979 Rain 1 1006 76 10000 10.3 260 11:41 27.03.2020
5980 Clouds 1 1006 76 4000 11.8 270 11:22 27.03.2020
5981 Rain 1 1006 76 10000 10.8 260 10:54 27.03.2020
5982 Rain 1 1006 76 10000 10.8 260 10:36 27.03.2020
5983 Clouds 2 1006 80 3000 14.4 250 10:18 27.03.2020
5984 Rain 2 1006 80 10000 13.9 260 09:56 27.03.2020
5985 Rain 2 1006 80 10000 13.9 260 09:37 27.03.2020
5986 Snow 2 1006 74 10000 15.4 260 09:18 27.03.2020
5987 Rain 2 1006 76 10000 14.4 260 08:55 27.03.2020
5988 Rain 2 1006 76 10000 14.4 260 08:36 27.03.2020
5989 Rain 2 1006 80 10000 12.9 270 08:18 27.03.2020
5990 Rain 1 1006 77 10000 12.3 260 07:49 27.03.2020
5991 Rain 2 1006 80 10000 15.9 270 07:22 27.03.2020
5992 Rain 2 1006 74 10000 16.5 260 06:45 27.03.2020
5993 Rain 1 1006 86 10000 17.5 270 06:26 27.03.2020
5994 Rain 1 1005 83 10000 22.6 270 04:21 27.03.2020
5995 Clouds 2 1002 80 10000 19 260 02:25 27.03.2020
5996 Snow 1 1002 80 10000 18 250 01:22 27.03.2020
5997 Snow 3 1002 74 10000 19.5 260 00:48 27.03.2020
5998 Snow 2 1002 80 10000 17.5 260 00:23 27.03.2020
5999 Clouds 2 1002 80 10000 17 250 23:42 26.03.2020
6000 Rain 4 1002 69 10000 16.5 240 23:21 26.03.2020
6001 Rain 4 1002 64 10000 14.9 260 22:58 26.03.2020
6002 Rain 4 1002 64 10000 14.9 260 22:37 26.03.2020
6003 Clouds 5 1002 60 10000 12.3 260 22:19 26.03.2020
6004 Clouds 3 1002 69 10000 9.3 220 21:55 26.03.2020
6005 Clouds 3 1002 69 10000 9.3 220 21:55 26.03.2020
6006 Clouds 3 1002 69 10000 9.3 220 21:36 26.03.2020
6007 Clouds 3 1002 69 10000 12.3 200 21:18 26.03.2020
6008 Clouds 3 1002 69 10000 12.3 210 20:41 26.03.2020
6009 Clouds 3 1002 69 10000 12.3 210 20:41 26.03.2020
6010 Clouds 3 1003 69 10000 12.3 200 20:23 26.03.2020
6011 Clouds 3 1003 69 10000 12.3 200 19:58 26.03.2020
6012 Clouds 3 1003 69 10000 12.3 200 19:40 26.03.2020
6013 Clouds 3 1004 69 10000 11.8 200 19:22 26.03.2020
6014 Clouds 4 1004 60 10000 10.3 200 18:59 26.03.2020
6015 Clouds 4 1004 60 10000 10.3 200 18:41 26.03.2020
6016 Clouds 4 1005 64 10000 11.8 240 18:23 26.03.2020
6017 Clouds 4 1005 69 10000 13.9 240 17:45 26.03.2020
6018 Clouds 4 1005 69 10000 13.9 240 17:21 26.03.2020
6019 Clouds 4 1006 64 10000 15.9 250 16:59 26.03.2020
6020 Clouds 4 1006 64 10000 15.9 250 16:39 26.03.2020
6021 Clouds 4 1006 64 10000 14.9 250 16:21 26.03.2020
6022 Clouds 5 1006 60 10000 15.4 250 15:57 26.03.2020
6023 Clouds 5 1006 60 10000 15.4 250 15:38 26.03.2020
6024 Clouds 5 1006 60 10000 15.4 250 15:38 26.03.2020
6025 Clouds 5 1006 60 10000 17 260 15:20 26.03.2020
6026 Clouds 5 1006 60 10000 14.9 260 14:55 26.03.2020
6027 Clouds 5 1006 60 10000 14.9 260 14:36 26.03.2020
6028 Clouds 5 1006 60 10000 13.9 260 14:18 26.03.2020
6029 Clouds 4 1006 69 10000 14.4 260 13:41 26.03.2020
6030 Rain 3 1007 74 10000 18 250 13:22 26.03.2020
6031 Rain 3 1007 74 10000 17 250 12:55 26.03.2020
6032 Rain 3 1007 74 10000 17 250 12:37 26.03.2020
6033 Clouds 2 1007 80 10000 13.9 250 12:18 26.03.2020
6034 Rain 2 1007 80 10000 11.8 230 11:44 26.03.2020
6035 Clouds 1 1007 86 10000 10.3 210 11:20 26.03.2020
6036 Snow 1 1008 86 8000 11.8 200 10:42 26.03.2020
6037 Rain 1 1008 86 10000 8.2 200 10:20 26.03.2020
6038 Rain 1 1008 86 10000 8.2 200 09:59 26.03.2020
6039 Snow 1 1008 86 10000 11.8 230 09:41 26.03.2020
6040 Snow 0 1008 86 9000 9.3 240 09:19 26.03.2020
6041 Snow 1 1008 80 6000 9.3 250 08:44 26.03.2020
6042 Rain 1 1008 80 10000 9.3 280 08:26 26.03.2020
6043 Rain 1 1008 80 10000 9.3 280 08:26 26.03.2020
6044 Rain 1 1008 74 10000 11.3 280 07:57 26.03.2020
6045 Rain 1 1008 80 10000 9.3 280 07:57 26.03.2020
6046 Rain 1 1008 74 10000 11.3 280 07:38 26.03.2020
6047 Rain 1 1008 69 10000 16.5 290 07:19 26.03.2020
6048 Rain 0 1008 88 10000 18.5 290 06:38 26.03.2020
6049 Snow -1 1007 92 10000 22.6 300 05:51 26.03.2020
6050 Clouds -1 1006 92 10000 17.5 290 03:48 26.03.2020
6051 Snow -1 1006 86 1500 23.7 290 03:26 26.03.2020
6052 Clouds 1 1005 59 10000 23.1 290 02:52 26.03.2020
6053 Clouds 0 1004 89 10000 21.6 300 01:19 26.03.2020
6054 Clouds 0 1003 89 10000 19 300 00:33 26.03.2020
6055 Snow 0 1003 89 10000 25.2 300 23:44 25.03.2020
6056 Clouds -1 1002 86 3000 24.7 300 23:26 25.03.2020
6057 Clouds 1 1001 64 10000 20.6 300 22:56 25.03.2020
6058 Clouds 1 1001 64 10000 20.6 300 22:38 25.03.2020
6059 Clouds 1 1001 69 10000 23.1 290 22:19 25.03.2020
6060 Rain 1 1000 69 10000 25.7 300 21:54 25.03.2020
6061 Rain 1 1000 69 10000 25.7 300 21:36 25.03.2020
6062 Rain 1 1000 69 10000 21.1 300 21:18 25.03.2020
6063 Rain 1 999 64 10000 21.6 290 20:39 25.03.2020
6064 Snow 0 999 92 6000 19.5 300 20:20 25.03.2020
6065 Snow 1 998 69 10000 22.6 300 19:57 25.03.2020
6066 Snow 1 998 69 10000 22.6 300 19:38 25.03.2020
6067 Rain 1 997 64 10000 20.6 290 19:20 25.03.2020
6068 Rain 1 997 69 10000 20.6 300 18:54 25.03.2020
6069 Clouds 1 996 64 10000 22.1 290 18:36 25.03.2020
6070 Clouds 1 996 64 10000 22.1 290 18:18 25.03.2020
6071 Rain 1 996 69 10000 23.7 290 17:41 25.03.2020
6072 Clouds 1 995 69 10000 24.7 300 17:22 25.03.2020
6073 Clouds 1 995 74 10000 22.1 290 16:59 25.03.2020
6074 Clouds 1 995 74 10000 22.1 290 16:39 25.03.2020
6075 Clouds 2 994 69 10000 21.1 300 16:21 25.03.2020
6076 Rain 2 993 74 10000 21.1 300 15:44 25.03.2020
6077 Rain 2 992 80 10000 18.5 300 15:21 25.03.2020
6078 Rain 2 992 87 10000 22.1 300 14:59 25.03.2020
6079 Rain 2 992 85 10000 22.1 300 14:40 25.03.2020
6080 Rain 1 991 87 6000 16.5 290 14:20 25.03.2020
6081 Snow 1 990 86 4000 19.5 280 13:46 25.03.2020
6082 Clouds 1 989 78 5000 17.5 270 13:25 25.03.2020
6083 Rain 1 989 86 6000 18.5 260 12:55 25.03.2020
6084 Rain 1 989 80 10000 19 270 12:37 25.03.2020
6085 Rain 1 989 80 10000 19 270 12:18 25.03.2020
6086 Clouds 1 988 80 4000 15.9 260 11:41 25.03.2020
6087 Clouds 1 988 77 8000 14.4 250 11:21 25.03.2020
6088 Rain 2 988 80 10000 12.9 250 10:59 25.03.2020
6089 Rain 2 988 80 10000 12.9 250 10:40 25.03.2020
6090 Clouds 2 988 74 10000 20.1 260 10:19 25.03.2020
6091 Clouds 2 988 74 10000 20.1 260 10:19 25.03.2020
6092 Rain 3 987 64 10000 13.4 250 09:59 25.03.2020
6093 Rain 3 987 64 10000 13.4 250 09:40 25.03.2020
6094 Clouds 2 987 80 10000 11.3 240 09:21 25.03.2020
6095 Rain 3 987 69 10000 13.4 250 08:43 25.03.2020
6096 Clouds 3 987 69 10000 11.3 260 08:25 25.03.2020
6097 Clouds 3 987 69 10000 11.3 260 07:59 25.03.2020
6098 Clouds 4 987 64 10000 13.4 250 07:39 25.03.2020
6099 Clouds 3 987 69 10000 10.8 260 07:19 25.03.2020
6100 Clouds 3 987 69 10000 12.3 250 06:45 25.03.2020
6101 Clouds 3 987 74 10000 10.8 240 06:25 25.03.2020
6102 Clouds 2 988 74 10000 8.2 220 05:48 25.03.2020
6103 Snow 0 989 89 0 7.81 220 04:46 25.03.2020
6104 Snow 0 989 89 0 7.81 220 03:58 25.03.2020
6105 Snow 0 989 89 0 7.81 220 03:34 25.03.2020
6106 Clouds 3 991 74 10000 14.4 250 01:41 25.03.2020
6107 Clouds 3 991 74 10000 14.4 250 01:41 25.03.2020
6108 Clouds 3 991 74 10000 14.9 250 00:58 25.03.2020
6109 Clouds 3 991 74 10000 14.9 250 00:40 25.03.2020
6110 Clouds 3 991 74 10000 14.9 250 00:18 25.03.2020
6111 Clouds 3 991 74 10000 17 240 23:40 24.03.2020
6112 Clouds 3 991 69 10000 15.9 250 23:22 24.03.2020
6113 Clouds 3 992 74 10000 12.3 250 22:55 24.03.2020
6114 Clouds 3 992 74 10000 12.3 250 22:37 24.03.2020
6115 Clouds 3 992 74 10000 12.9 250 22:19 24.03.2020
6116 Clouds 3 992 74 10000 11.8 250 21:54 24.03.2020
6117 Clouds 3 992 69 10000 15.4 250 21:36 24.03.2020
6118 Clouds 3 992 74 10000 11.8 250 21:36 24.03.2020
6119 Clouds 3 992 69 10000 15.4 250 21:18 24.03.2020
6120 Clouds 3 993 74 10000 15.4 250 20:41 24.03.2020
6121 Rain 3 993 74 10000 13.9 250 20:23 24.03.2020
6122 Rain 2 993 79 10000 14.4 240 19:56 24.03.2020
6123 Rain 2 993 79 10000 14.4 240 19:56 24.03.2020
6124 Rain 2 993 79 10000 14.4 240 19:38 24.03.2020
6125 Rain 3 993 74 10000 21.6 250 19:18 24.03.2020
6126 Rain 3 993 74 10000 13.9 250 18:55 24.03.2020
6127 Rain 3 993 74 10000 13.9 250 18:36 24.03.2020
6128 Snow 3 994 74 10000 18.5 250 18:18 24.03.2020
6129 Rain 3 993 74 10000 17 250 17:41 24.03.2020
6130 Rain 3 993 69 10000 16.5 240 17:22 24.03.2020
6131 Rain 3 993 69 10000 16.5 240 17:22 24.03.2020
6132 Rain 4 993 74 10000 14.9 240 16:58 24.03.2020
6133 Rain 4 993 74 10000 14.9 240 16:39 24.03.2020
6134 Rain 4 993 74 10000 15.9 240 16:20 24.03.2020
6135 Rain 4 993 74 10000 15.9 240 16:20 24.03.2020
6136 Rain 3 993 74 10000 15.4 240 15:57 24.03.2020
6137 Rain 3 993 74 10000 15.4 240 15:37 24.03.2020
6138 Rain 4 993 69 10000 15.9 240 15:19 24.03.2020
6139 Rain 4 993 95 10000 14.4 240 14:42 24.03.2020
6140 Clouds 3 993 87 10000 14.4 250 14:19 24.03.2020
6141 Rain 5 993 65 10000 23.1 260 13:42 24.03.2020
6142 Clouds 4 992 88 10000 8.7 220 13:24 24.03.2020
6143 Clouds 4 992 88 10000 12.9 240 12:55 24.03.2020
6144 Clouds 4 992 88 10000 12.9 240 12:37 24.03.2020
6145 Rain 4 992 69 10000 9.3 200 12:18 24.03.2020
6146 Rain 5 991 60 10000 10.3 200 11:39 24.03.2020
6147 Clouds 5 991 60 10000 10.8 200 11:20 24.03.2020
6148 Clouds 5 991 60 10000 11.8 200 10:43 24.03.2020
6149 Clouds 5 992 60 10000 12.9 200 10:20 24.03.2020
6150 Clouds 5 992 60 10000 12.9 200 09:59 24.03.2020
6151 Clouds 5 992 60 10000 11.3 200 09:40 24.03.2020
6152 Clouds 6 992 65 10000 11.8 200 09:22 24.03.2020
6153 Clouds 5 992 65 10000 11.3 190 08:39 24.03.2020
6154 Clouds 5 992 65 10000 11.3 190 08:20 24.03.2020
6155 Clouds 5 992 69 10000 12.9 190 07:48 24.03.2020
6156 Clouds 4 993 64 10000 14.9 190 07:25 24.03.2020
6157 Clouds 4 993 64 10000 14.9 200 06:58 24.03.2020
6158 Clouds 4 994 64 10000 15.9 190 06:31 24.03.2020
6159 Clouds 4 995 64 10000 13.4 200 05:22 24.03.2020
6160 Clouds 3 995 69 10000 12.3 200 04:31 24.03.2020
6161 Clouds 4 996 64 10000 13.9 200 03:18 24.03.2020
6162 Clouds 3 997 69 10000 17 200 01:49 24.03.2020
6163 Clouds 3 998 69 10000 14.4 200 00:49 24.03.2020
6164 Clouds 3 998 69 10000 14.9 200 00:26 24.03.2020
6165 Clouds 3 999 69 10000 14.9 190 23:46 23.03.2020
6166 Clouds 3 999 74 10000 14.9 200 23:26 23.03.2020
6167 Clouds 3 1000 74 10000 13.9 190 22:56 23.03.2020
6168 Clouds 3 1000 74 10000 13.9 190 22:37 23.03.2020
6169 Clouds 4 1000 69 10000 12.3 190 22:19 23.03.2020
6170 Clouds 4 1001 69 10000 12.3 190 21:44 23.03.2020
6171 Clouds 4 1001 69 10000 12.9 190 21:21 23.03.2020
6172 Clouds 4 1002 69 10000 14.9 190 20:58 23.03.2020
6173 Clouds 4 1002 69 10000 14.9 190 20:40 23.03.2020
6174 Clouds 4 1002 64 10000 13.9 190 20:22 23.03.2020
6175 Clouds 4 1003 64 10000 12.9 190 19:54 23.03.2020
6176 Clouds 4 1003 64 10000 12.3 190 19:36 23.03.2020
6177 Clouds 4 1003 64 10000 12.3 190 19:18 23.03.2020
6178 Clouds 4 1004 64 10000 14.9 190 18:42 23.03.2020
6179 Clouds 4 1004 64 10000 12.9 190 18:23 23.03.2020
6180 Clouds 4 1005 64 10000 12.9 190 17:56 23.03.2020
6181 Clouds 4 1005 64 10000 12.9 190 17:56 23.03.2020
6182 Clouds 4 1005 64 10000 12.3 190 17:38 23.03.2020
6183 Clouds 4 1005 64 10000 12.3 190 17:18 23.03.2020
6184 Clouds 4 1006 64 10000 12.3 190 16:43 23.03.2020
6185 Clouds 4 1006 64 10000 11.3 190 16:25 23.03.2020
6186 Clouds 5 1007 64 10000 11.3 200 15:43 23.03.2020
6187 Clouds 5 1007 64 10000 10.3 200 15:21 23.03.2020
6188 Clouds 4 1007 69 10000 11.3 200 14:57 23.03.2020
6189 Clouds 4 1007 69 10000 11.3 200 14:37 23.03.2020
6190 Snow 4 1007 64 10000 9.3 200 14:18 23.03.2020
6191 Snow 4 1007 64 10000 9.3 200 14:18 23.03.2020
6192 Clouds 3 1008 69 10000 8.2 210 13:41 23.03.2020
6193 Clouds 3 1008 69 10000 8.2 210 13:41 23.03.2020
6194 Rain 3 1008 69 10000 11.3 200 13:22 23.03.2020
6195 Clouds 3 1008 69 10000 11.8 200 12:58 23.03.2020
6196 Clouds 3 1008 69 10000 11.8 200 12:40 23.03.2020
6197 Clouds 3 1009 69 10000 11.8 200 12:22 23.03.2020
6198 Clouds 3 1009 74 10000 9.3 220 11:42 23.03.2020
6199 Clouds 3 1010 74 10000 8.7 220 11:22 23.03.2020
6200 Clouds 3 1010 97 10000 10.3 240 10:58 23.03.2020
6201 Clouds 3 1010 97 10000 10.3 240 10:40 23.03.2020
6202 Clouds 3 1010 97 10000 10.3 240 10:40 23.03.2020
6203 Rain 3 1010 97 10000 11.3 220 10:22 23.03.2020
6204 Rain 3 1010 97 10000 14.4 240 09:58 23.03.2020
6205 Rain 3 1010 97 10000 14.4 240 09:40 23.03.2020
6206 Rain 3 1010 97 10000 14.9 250 09:19 23.03.2020
6207 Rain 3 1010 97 10000 12.9 260 08:38 23.03.2020
6208 Rain 2 1010 84 10000 15.4 260 08:19 23.03.2020
6209 Rain 3 1010 84 10000 19 260 07:51 23.03.2020
6210 Rain 3 1010 84 10000 19 260 07:32 23.03.2020
6211 Snow 2 1009 80 2500 17.5 280 06:55 23.03.2020
6212 Snow 2 1009 80 2500 17.5 280 06:32 23.03.2020
6213 Rain 2 1008 84 10000 18.5 260 05:43 23.03.2020
6214 Clouds 3 1008 69 10000 21.1 260 03:54 23.03.2020
6215 Clouds 3 1007 59 10000 17.5 270 02:44 23.03.2020
6216 Rain 2 1007 69 10000 21.1 260 01:42 23.03.2020
6217 Rain 1 1007 86 10000 21.6 270 00:46 23.03.2020
6218 Rain 1 1007 86 10000 21.6 270 00:26 23.03.2020
6219 Clouds 1 1007 86 10000 20.1 270 23:42 22.03.2020
6220 Clouds 1 1007 71 1500 15.4 260 23:24 22.03.2020
6221 Clouds 1 1006 86 6000 16.5 240 22:41 22.03.2020
6222 Clouds 1 1005 83 10000 16.5 240 22:20 22.03.2020
6223 Clouds 1 1006 86 10000 19 250 21:41 22.03.2020
6224 Clouds 1 1006 86 1000 24.2 270 21:23 22.03.2020
6225 Clouds 1 1006 86 1000 24.2 270 20:58 22.03.2020
6226 Clouds 3 1005 64 10000 17.5 260 20:40 22.03.2020
6227 Clouds 2 1005 96 10000 14.9 270 20:22 22.03.2020
6228 Clouds 3 1005 74 10000 19 260 19:56 22.03.2020
6229 Clouds 3 1005 74 10000 19 260 19:38 22.03.2020
6230 Snow 1 1005 96 6000 19 270 19:19 22.03.2020
6231 Rain 2 1003 69 10000 15.4 200 18:57 22.03.2020
6232 Rain 2 1003 69 10000 15.4 200 18:39 22.03.2020
6233 Clouds 2 1003 64 10000 14.9 200 18:20 22.03.2020
6234 Clouds 1 1003 69 10000 17 200 17:57 22.03.2020
6235 Clouds 2 1003 69 10000 17 200 17:38 22.03.2020
6236 Clouds 2 1004 64 10000 17 200 17:20 22.03.2020
6237 Clouds 3 1004 59 10000 17.5 200 16:57 22.03.2020
6238 Clouds 3 1004 59 10000 17.5 200 16:57 22.03.2020
6239 Clouds 3 1004 59 10000 17.5 200 16:39 22.03.2020
6240 Clouds 3 1005 59 10000 15.4 200 16:20 22.03.2020
6241 Clouds 3 1006 59 10000 15.9 200 15:40 22.03.2020
6242 Clouds 3 1007 59 10000 14.9 190 15:19 22.03.2020
6243 Clouds 3 1008 59 10000 13.4 200 14:46 22.03.2020
6244 Clouds 2 1008 64 10000 12.9 200 14:18 22.03.2020
6245 Clouds 2 1009 64 10000 11.8 200 13:43 22.03.2020
6246 Clouds 2 1010 64 10000 10.3 200 13:20 22.03.2020
6247 Clouds 2 1011 64 10000 10.8 200 12:58 22.03.2020
6248 Clouds 2 1011 64 10000 10.8 200 12:39 22.03.2020
6249 Clouds 2 1011 69 10000 9.3 190 12:19 22.03.2020
6250 Clouds 2 1012 69 10000 8.7 200 11:43 22.03.2020
6251 Clouds 2 1013 69 10000 9.8 200 11:25 22.03.2020
6252 Clouds 2 1013 69 10000 11.3 200 10:58 22.03.2020
6253 Clouds 2 1013 69 10000 11.3 200 10:39 22.03.2020
6254 Clouds 2 1014 69 10000 11.8 200 10:21 22.03.2020
6255 Clouds 2 1014 69 10000 12.9 190 09:45 22.03.2020
6256 Clouds 3 1015 69 10000 10.3 200 09:27 22.03.2020
6257 Clouds 3 1015 69 10000 11.8 200 08:48 22.03.2020
6258 Clouds 3 1015 69 10000 11.8 200 08:30 22.03.2020
6259 Snow 3 1016 69 10000 13.9 240 07:54 22.03.2020
6260 Snow 3 1016 69 10000 13.9 240 07:36 22.03.2020
6261 Snow 3 1016 74 10000 12.9 250 06:41 22.03.2020
6262 Snow 4 1017 64 10000 17 270 05:47 22.03.2020
6263 Drizzle 2 1018 96 10000 12.9 260 04:39 22.03.2020
6264 Snow 3 1018 96 10000 21.1 270 01:47 22.03.2020
6265 Drizzle 3 1018 97 10000 23.1 270 00:50 22.03.2020
6266 Drizzle 3 1018 97 10000 23.1 270 00:31 22.03.2020
6267 Drizzle 3 1018 97 10000 16.5 240 23:46 21.03.2020
6268 Rain 2 1018 93 10000 11.3 260 23:22 21.03.2020
6269 Drizzle 2 1019 97 10000 14.9 270 22:59 21.03.2020
6270 Drizzle 2 1019 97 10000 14.9 270 22:38 21.03.2020
6271 Drizzle 2 1019 97 10000 14.9 270 22:20 21.03.2020
6272 Rain 2 1019 97 10000 13.4 260 21:58 21.03.2020
6273 Rain 2 1019 97 10000 13.4 260 21:38 21.03.2020
6274 Snow 2 1019 97 10000 14.9 270 21:19 21.03.2020
6275 Drizzle 2 1019 97 10000 12.3 270 20:42 21.03.2020
6276 Rain 2 1019 97 10000 13.4 270 20:22 21.03.2020
6277 Snow 2 1019 97 10000 15.4 270 19:55 21.03.2020
6278 Snow 2 1019 97 10000 15.4 270 19:37 21.03.2020
6279 Snow 1 1019 97 10000 12.3 270 19:18 21.03.2020
6280 Snow 1 1019 86 10000 14.9 270 18:41 21.03.2020
6281 Snow 1 1019 86 9000 15.4 270 18:21 21.03.2020
6282 Rain 1 1020 86 8000 13.4 270 17:59 21.03.2020
6283 Rain 1 1020 86 8000 13.4 270 17:41 21.03.2020
6284 Clouds 1 1020 86 3500 13.9 260 17:22 21.03.2020
6285 Rain 0 1020 90 2400 14.4 260 16:43 21.03.2020
6286 Snow 0 1020 90 1600 12.9 260 16:24 21.03.2020
6287 Snow 0 1020 90 1600 12.9 260 16:24 21.03.2020
6288 Snow 0 1020 90 1600 12.9 260 15:59 21.03.2020
6289 Snow 0 1021 90 1700 12.3 260 15:40 21.03.2020
6290 Snow 0 1021 90 1800 13.9 260 15:22 21.03.2020
6291 Snow 0 1021 90 3500 13.4 250 14:57 21.03.2020
6292 Snow 0 1021 90 3500 13.4 250 14:38 21.03.2020
6293 Snow 0 1021 90 3500 13.4 250 14:38 21.03.2020
6294 Snow 0 1021 93 3500 13.9 270 14:20 21.03.2020
6295 Snow 0 1021 93 3500 13.9 270 13:58 21.03.2020
6296 Snow -1 1022 100 3000 11.8 270 13:39 21.03.2020
6297 Snow -1 1022 92 1500 8.7 280 13:21 21.03.2020
6298 Snow -1 1022 92 2500 9.8 280 12:57 21.03.2020
6299 Snow -1 1022 92 2500 9.8 280 12:37 21.03.2020
6300 Snow -1 1022 86 4000 12.9 290 12:19 21.03.2020
6301 Snow -1 1022 80 6000 13.4 300 11:55 21.03.2020
6302 Snow -1 1022 80 6000 13.4 300 11:37 21.03.2020
6303 Rain -1 1022 74 10000 15.9 300 11:18 21.03.2020
6304 Rain -1 1022 68 10000 19 300 10:56 21.03.2020
6305 Rain -1 1022 68 10000 19 300 10:38 21.03.2020
6306 Rain -2 1022 86 10000 15.9 290 10:18 21.03.2020
6307 Snow -3 1022 92 3500 16.5 290 09:40 21.03.2020
6308 Snow -3 1022 92 450 18.5 290 09:22 21.03.2020
6309 Snow -3 1022 92 450 18.5 290 08:59 21.03.2020
6310 Rain -3 1021 86 10000 10.3 270 08:41 21.03.2020
6311 Rain -3 1021 86 10000 10.3 290 08:22 21.03.2020
6312 Rain -3 1021 79 10000 8.2 270 07:42 21.03.2020
6313 Rain -4 1022 92 10000 12.9 290 07:23 21.03.2020
6314 Rain -3 1021 68 10000 13.4 300 06:46 21.03.2020
6315 Clouds -4 1021 85 10000 9.8 290 06:27 21.03.2020
6316 Rain -4 1021 92 10000 11.3 300 05:46 21.03.2020
6317 Rain -4 1021 85 10000 12.3 290 04:42 21.03.2020
6318 Clouds -5 1020 85 10000 7.2 260 02:40 21.03.2020
6319 Clouds -5 1020 85 10000 7.2 260 02:18 21.03.2020
6320 Clouds -5 1020 79 10000 7.2 250 01:31 21.03.2020
6321 Clouds -5 1020 73 10000 5.1 250 00:47 21.03.2020
6322 Clouds -5 1020 73 10000 5.1 240 00:25 21.03.2020
6323 Clouds -6 1020 79 10000 4.1 240 23:49 20.03.2020
6324 Clouds -6 1020 85 10000 3.6 230 23:26 20.03.2020
6325 Clouds -5 1019 79 10000 4.1 250 22:56 20.03.2020
6326 Clouds -5 1019 79 10000 4.1 250 22:37 20.03.2020
6327 Rain -5 1019 85 10000 4.1 260 22:19 20.03.2020
6328 Rain -5 1019 85 10000 3.6 250 21:54 20.03.2020
6329 Rain -5 1019 85 10000 3.6 250 21:36 20.03.2020
6330 Rain -4 1019 79 10000 4.6 260 21:18 20.03.2020
6331 Rain -5 1018 85 10000 3.6 320 20:42 20.03.2020
6332 Rain -5 1018 85 10000 4.1 250 20:21 20.03.2020
6333 Rain -5 1018 85 10000 4.1 250 19:59 20.03.2020
6334 Rain -5 1018 85 10000 4.6 270 19:40 20.03.2020
6335 Snow -5 1018 92 10000 4.6 290 19:18 20.03.2020
6336 Rain -4 1018 85 10000 4.6 290 18:54 20.03.2020
6337 Rain -4 1018 85 10000 4.6 290 18:36 20.03.2020
6338 Clouds -4 1017 85 8000 7.2 280 18:18 20.03.2020
6339 Snow -6 1017 85 8000 3.6 260 17:39 20.03.2020
6340 Snow -6 1017 85 10000 3.1 290 17:21 20.03.2020
6341 Rain -5 1017 92 10000 2.1 320 16:57 20.03.2020
6342 Rain -5 1017 92 10000 2.1 320 16:39 20.03.2020
6343 Snow -5 1016 85 1500 5.7 300 16:18 20.03.2020
6344 Snow -4 1016 85 4500 5.7 300 15:42 20.03.2020
6345 Snow -5 1016 92 9000 4.1 260 15:21 20.03.2020
6346 Rain -5 1016 85 10000 3.1 320 14:54 20.03.2020
6347 Rain -5 1016 85 10000 3.1 320 14:36 20.03.2020
6348 Snow -5 1016 79 9000 3.1 340 14:18 20.03.2020
6349 Rain -4 1016 79 10000 2.6 320 13:40 20.03.2020
6350 Clouds -5 1015 85 10000 5.1 350 13:19 20.03.2020
6351 Snow -5 1015 85 5000 5.7 320 12:39 20.03.2020
6352 Clouds -4 1015 73 10000 3.1 290 12:20 20.03.2020
6353 Clouds -4 1015 73 10000 3.1 290 12:20 20.03.2020
6354 Clouds -4 1015 73 10000 3.1 290 11:57 20.03.2020
6355 Clouds -4 1015 73 10000 3.1 290 11:38 20.03.2020
6356 Rain -4 1015 73 10000 2.6 310 11:18 20.03.2020
6357 Rain -4 1015 79 10000 4.6 320 10:41 20.03.2020
6358 Snow -5 1015 85 4000 7.2 330 10:21 20.03.2020
6359 Snow -5 1014 85 4000 5.7 350 09:56 20.03.2020
6360 Snow -5 1014 85 4000 5.7 350 09:56 20.03.2020
6361 Snow -5 1014 85 4000 5.7 350 09:37 20.03.2020
6362 Snow -4 1014 79 1000 9.3 350 09:18 20.03.2020
6363 Rain -4 1014 79 10000 10.3 350 08:42 20.03.2020
6364 Rain -5 1013 85 10000 7.7 350 08:22 20.03.2020
6365 Snow -4 1013 79 10000 11.3 360 07:54 20.03.2020
6366 Snow -4 1013 79 10000 11.3 360 07:36 20.03.2020
6367 Snow -6 1013 85 3000 12.9 350 07:18 20.03.2020
6368 Rain -5 1013 67 10000 9.3 330 06:41 20.03.2020
6369 Rain -5 1013 67 10000 9.3 330 06:41 20.03.2020
6370 Snow -5 1012 85 3500 17.5 340 04:52 20.03.2020
6371 Snow -5 1012 85 10000 17 310 03:40 20.03.2020
6372 Snow -5 1012 85 6000 17.5 320 02:20 20.03.2020
6373 Snow -6 1012 92 10000 12.3 320 00:59 20.03.2020
6374 Snow -6 1012 92 10000 12.3 320 00:31 20.03.2020
6375 Snow -5 1012 79 10000 15.4 330 23:49 19.03.2020
6376 Rain -4 1012 85 10000 13.4 320 23:30 19.03.2020
6377 Clouds -4 1012 85 1000 17 300 22:57 19.03.2020
6378 Clouds -4 1012 85 1000 17 300 22:38 19.03.2020
6379 Snow -5 1012 85 8000 8.2 290 22:20 19.03.2020
6380 Snow -5 1011 92 5000 6.2 280 21:55 19.03.2020
6381 Snow -5 1011 92 5000 6.2 280 21:37 19.03.2020
6382 Snow -5 1012 85 9000 4.6 250 21:18 19.03.2020
6383 Snow -5 1012 79 3200 5.1 280 20:42 19.03.2020
6384 Snow -6 1012 73 5000 7.7 320 20:23 19.03.2020
6385 Rain -6 1012 67 10000 9.3 320 19:56 19.03.2020
6386 Rain -6 1012 67 10000 9.3 320 19:38 19.03.2020
6387 Snow -6 1013 62 10000 10.3 330 19:19 19.03.2020
6388 Rain -6 1013 62 10000 12.9 330 18:56 19.03.2020
6389 Rain -6 1013 62 10000 12.9 330 18:38 19.03.2020
6390 Rain -6 1013 79 10000 13.9 340 18:19 19.03.2020
6391 Snow -7 1013 85 1500 13.4 340 17:41 19.03.2020
6392 Rain -6 1013 73 8000 13.4 340 17:19 19.03.2020
6393 Snow -6 1012 67 9000 14.4 340 16:45 19.03.2020
6394 Snow -6 1012 73 8000 13.4 320 16:25 19.03.2020
6395 Rain -6 1012 73 10000 14.4 330 15:55 19.03.2020
6396 Rain -6 1012 73 10000 14.4 330 15:36 19.03.2020
6397 Snow -7 1011 79 2000 12.3 320 15:18 19.03.2020
6398 Rain -7 1011 73 10000 15.4 340 14:43 19.03.2020
6399 Rain -7 1011 85 10000 15.4 330 14:21 19.03.2020
6400 Rain -6 1010 73 10000 15.9 340 13:41 19.03.2020
6401 Snow -7 1009 85 10000 12.9 320 13:20 19.03.2020
6402 Snow -6 1009 79 2500 13.4 330 12:58 19.03.2020
6403 Snow -6 1009 79 2500 13.4 330 12:40 19.03.2020
6404 Rain -6 1008 79 10000 12.3 320 12:21 19.03.2020
6405 Rain -6 1008 79 10000 14.4 330 11:43 19.03.2020
6406 Rain -6 1008 85 10000 15.4 330 11:24 19.03.2020
6407 Snow -6 1007 79 1500 13.4 320 10:57 19.03.2020
6408 Snow -6 1007 79 1500 13.4 320 10:38 19.03.2020
6409 Rain -6 1007 67 10000 12.9 330 10:19 19.03.2020
6410 Clouds -6 1006 79 10000 13.4 330 09:55 19.03.2020
6411 Clouds -6 1006 79 10000 13.4 330 09:37 19.03.2020
6412 Rain -6 1005 79 10000 14.4 340 09:18 19.03.2020
6413 Rain -6 1005 85 10000 12.9 330 08:41 19.03.2020
6414 Snow -5 1004 85 2500 15.9 340 08:20 19.03.2020
6415 Snow -5 1003 85 7000 15.4 350 07:44 19.03.2020
6416 Snow -5 1003 92 1500 16.5 340 07:25 19.03.2020
6417 Snow -5 1002 92 450 11.8 340 06:35 19.03.2020
6418 Snow -5 1001 92 1300 11.3 340 05:48 19.03.2020
6419 Snow -5 1001 92 1600 14.9 350 04:57 19.03.2020
6420 Snow -5 1001 92 1600 14.9 350 04:39 19.03.2020
6421 Snow -5 999 92 1400 9.8 30 02:49 19.03.2020
6422 Snow -4 998 92 500 8.7 50 01:21 19.03.2020
6423 Snow -4 997 100 1700 10.3 60 00:28 19.03.2020
6424 Snow -3 996 92 3000 10.3 70 23:51 18.03.2020
6425 Snow -3 996 92 2500 10.8 70 23:30 18.03.2020
6426 Snow -3 995 92 1500 10.3 80 22:56 18.03.2020
6427 Snow -3 995 92 1500 10.3 80 22:38 18.03.2020
6428 Snow -3 995 92 1900 8.7 70 22:20 18.03.2020
6429 Snow -2 995 92 1500 7.2 90 21:42 18.03.2020
6430 Rain -3 995 92 10000 1.5 250 21:21 18.03.2020
6431 Rain -3 994 85 10000 1.5 270 20:59 18.03.2020
6432 Rain -3 994 85 10000 1.5 270 20:40 18.03.2020
6433 Rain -3 994 85 10000 1.5 270 20:40 18.03.2020
6434 Rain -3 994 85 10000 2.6 270 20:20 18.03.2020
6435 Clouds -3 994 92 10000 3.1 280 19:58 18.03.2020
6436 Clouds -3 994 92 10000 3.1 280 19:39 18.03.2020
6437 Clouds -3 993 92 10000 2.1 250 19:20 18.03.2020
6438 Clouds -3 993 85 10000 1 0 18:42 18.03.2020
6439 Rain -3 993 85 10000 2.6 30 18:21 18.03.2020
6440 Rain -3 993 85 10000 2.6 30 18:21 18.03.2020
6441 Rain -2 993 86 10000 3.1 40 17:59 18.03.2020
6442 Rain -2 993 86 10000 3.1 40 17:41 18.03.2020
6443 Snow -2 993 86 10000 4.6 60 17:22 18.03.2020
6444 Snow -2 993 86 10000 4.6 60 17:22 18.03.2020
6445 Snow -2 993 79 10000 4.6 70 16:58 18.03.2020
6446 Snow -2 993 79 10000 4.6 70 16:40 18.03.2020
6447 Rain -2 992 86 10000 6.2 80 16:20 18.03.2020
6448 Rain -2 992 86 10000 6.2 80 15:45 18.03.2020
6449 Rain -2 992 86 10000 7.7 70 15:23 18.03.2020
6450 Clouds -1 992 86 10000 9.3 70 14:57 18.03.2020
6451 Clouds -1 992 86 10000 9.3 70 14:39 18.03.2020
6452 Snow -2 991 86 10000 10.3 60 14:20 18.03.2020
6453 Snow -1 991 92 9000 10.8 60 13:39 18.03.2020
6454 Snow -1 991 92 10000 7.7 70 13:19 18.03.2020
6455 Snow -1 991 92 10000 7.7 70 13:19 18.03.2020
6456 Clouds -1 991 86 10000 8.7 60 12:42 18.03.2020
6457 Clouds -1 991 80 10000 7.2 60 12:20 18.03.2020
6458 Clouds -1 990 80 10000 3.1 90 11:57 18.03.2020
6459 Clouds -2 990 86 10000 3.1 120 11:37 18.03.2020
6460 Clouds -2 990 86 10000 3.1 120 11:18 18.03.2020
6461 Clouds -2 989 86 10000 5.1 100 10:54 18.03.2020
6462 Clouds -2 989 86 10000 5.1 100 10:36 18.03.2020
6463 Clouds -2 989 86 10000 5.1 100 10:36 18.03.2020
6464 Clouds -2 989 86 10000 3.1 90 10:18 18.03.2020
6465 Clouds -2 989 79 10000 2.6 80 09:41 18.03.2020
6466 Clouds -3 989 86 10000 3.6 100 09:22 18.03.2020
6467 Clouds -3 988 92 10000 4.6 90 08:40 18.03.2020
6468 Clouds -4 988 85 10000 5.7 90 08:21 18.03.2020
6469 Clouds -4 988 92 10000 5.1 90 07:49 18.03.2020
6470 Clouds -4 988 92 10000 4.6 90 07:31 18.03.2020
6471 Clouds -4 987 92 10000 6.7 90 06:55 18.03.2020
6472 Clouds -4 987 92 10000 6.7 90 06:37 18.03.2020
6473 Snow -3 987 92 10000 6.7 90 05:37 18.03.2020
6474 Snow -3 987 92 4000 6.7 90 04:38 18.03.2020
6475 Snow -3 986 92 5000 7.7 100 03:21 18.03.2020
6476 Snow -3 986 92 3000 7.2 100 02:36 18.03.2020
6477 Snow -3 986 92 5000 4.6 90 01:42 18.03.2020
6478 Snow -4 986 92 5000 4.1 100 00:43 18.03.2020
6479 Snow -4 986 92 7000 4.6 100 00:21 18.03.2020
6480 Snow -3 986 85 3000 4.6 90 23:42 17.03.2020
6481 -273 0 0 0 0 0 23:21 17.03.2020
6482 Clouds -3 986 85 10000 5.1 90 22:45 17.03.2020
6483 Clouds -3 986 79 10000 4.6 70 22:26 17.03.2020
6484 Clouds -4 986 85 10000 1.5 30 21:44 17.03.2020
6485 Clouds -3 986 79 10000 2.1 110 21:25 17.03.2020
6486 Clouds -2 986 73 10000 3.1 130 20:58 17.03.2020
6487 Clouds -2 986 73 10000 3.1 130 20:38 17.03.2020
6488 Clouds -3 987 79 10000 4.1 130 20:19 17.03.2020
6489 Clouds -3 986 79 10000 5.7 140 19:42 17.03.2020
6490 Clouds -3 987 73 10000 6.2 150 19:20 17.03.2020
6491 Clouds -3 987 79 10000 8.2 160 18:58 17.03.2020
6492 Clouds -3 987 79 10000 10.8 140 18:40 17.03.2020
6493 Clouds -3 987 79 10000 10.8 140 18:21 17.03.2020
6494 Clouds -3 987 79 10000 12.9 150 17:56 17.03.2020
6495 Clouds -3 987 79 10000 12.9 150 17:38 17.03.2020
6496 Clouds -2 988 73 10000 11.8 130 17:19 17.03.2020
6497 Clouds -2 988 79 10000 14.9 150 16:42 17.03.2020
6498 Clouds -2 989 79 10000 13.4 150 16:19 17.03.2020
6499 Clouds -3 989 73 10000 9.3 140 15:47 17.03.2020
6500 Clouds -2 989 73 10000 6.7 140 15:23 17.03.2020
6501 Clouds -2 989 73 10000 5.1 130 14:49 17.03.2020
6502 Clouds -2 990 73 10000 6.7 130 14:30 17.03.2020
6503 Clouds -3 990 73 10000 5.7 110 13:58 17.03.2020
6504 Clouds -3 990 73 10000 5.7 110 13:40 17.03.2020
6505 Clouds -2 991 79 10000 6.7 110 13:22 17.03.2020
6506 Clouds -2 991 86 10000 7.7 110 12:47 17.03.2020
6507 Clouds -3 992 85 10000 5.7 110 12:25 17.03.2020
6508 Clouds -3 992 85 10000 5.7 90 11:57 17.03.2020
6509 Clouds -3 992 85 10000 5.7 90 11:39 17.03.2020
6510 Clouds -2 992 86 10000 4.1 80 11:20 17.03.2020
6511 Clouds -2 993 86 10000 2.6 110 10:54 17.03.2020
6512 Clouds -2 993 86 10000 2.6 110 10:36 17.03.2020
6513 Clouds -2 994 86 10000 2.1 110 10:18 17.03.2020
6514 Clouds -3 994 86 10000 1 100 09:45 17.03.2020
6515 Clouds -3 994 86 10000 1 100 09:45 17.03.2020
6516 Snow -3 994 86 10000 1 320 09:20 17.03.2020
6517 Snow -3 994 86 10000 2.6 310 08:58 17.03.2020
6518 Snow -3 994 86 10000 2.6 310 08:40 17.03.2020
6519 Snow -3 994 86 10000 3.6 310 08:18 17.03.2020
6520 Snow -3 995 86 9000 4.6 310 07:49 17.03.2020
6521 Snow -3 995 92 5000 8.7 300 07:20 17.03.2020
6522 Snow -3 995 86 5000 9.8 300 06:45 17.03.2020
6523 Snow -3 995 86 6000 11.8 290 06:25 17.03.2020
6524 Snow -3 996 86 7000 14.4 290 05:20 17.03.2020
6525 Snow -3 996 86 6000 21.1 300 03:31 17.03.2020
6526 Clouds -4 996 79 8000 23.7 300 01:50 17.03.2020
6527 Clouds -4 996 79 8000 23.7 300 01:31 17.03.2020
6528 Clouds -4 996 68 10000 25.2 290 00:52 17.03.2020
6529 Snow -5 996 92 5000 23.1 290 00:18 17.03.2020
6530 Clouds -5 995 79 10000 25.7 300 23:34 16.03.2020
6531 Clouds -5 995 79 10000 25.7 290 22:58 16.03.2020
6532 Clouds -5 995 79 10000 25.7 290 22:38 16.03.2020
6533 Clouds -4 995 79 10000 23.7 290 22:19 16.03.2020
6534 Clouds -5 995 85 6000 27.8 290 21:44 16.03.2020
6535 Snow -4 995 92 5000 25.2 300 21:26 16.03.2020
6536 Snow -5 994 92 4000 26.2 300 20:59 16.03.2020
6537 Snow -5 994 92 4000 26.2 300 20:39 16.03.2020
6538 Snow -5 994 85 2000 25.2 290 20:20 16.03.2020
6539 Clouds -5 993 85 4000 30.9 300 19:46 16.03.2020
6540 Clouds -5 993 92 2000 27.8 300 19:24 16.03.2020
6541 Snow -4 991 92 1000 29.8 290 18:59 16.03.2020
6542 Snow -4 991 92 1000 29.8 290 18:39 16.03.2020
6543 Snow -4 990 92 2000 27.8 300 18:20 16.03.2020
6544 Snow -4 989 92 700 34 290 17:46 16.03.2020
6545 Snow -3 988 92 1000 30.3 300 17:25 16.03.2020
6546 Snow -2 985 92 500 29.8 290 16:57 16.03.2020
6547 Snow -2 985 92 500 29.8 290 16:39 16.03.2020
6548 Snow -2 983 92 1500 15.9 220 16:20 16.03.2020
6549 Snow -4 983 92 1000 20.6 200 15:43 16.03.2020
6550 Rain -3 984 79 4000 20.6 200 15:23 16.03.2020
6551 Rain -3 984 73 6000 19.5 200 14:47 16.03.2020
6552 Rain -2 985 63 10000 14.4 190 14:20 16.03.2020
6553 Clouds -2 987 63 10000 13.9 180 13:48 16.03.2020
6554 Clouds -3 987 63 10000 12.3 180 13:28 16.03.2020
6555 Clouds -3 988 68 10000 13.4 190 12:58 16.03.2020
6556 Clouds -3 988 68 10000 13.4 190 12:39 16.03.2020
6557 Clouds -3 989 58 10000 10.3 190 12:20 16.03.2020
6558 Clouds -3 990 58 10000 7.7 220 11:43 16.03.2020
6559 Clouds -3 991 58 10000 9.8 250 11:25 16.03.2020
6560 Clouds -3 991 63 10000 8.7 250 10:45 16.03.2020
6561 Clouds -3 992 73 10000 10.3 290 10:24 16.03.2020
6562 Snow -3 991 68 10000 12.9 290 09:56 16.03.2020
6563 Snow -3 991 68 10000 12.9 290 09:37 16.03.2020
6564 Rain -3 991 62 10000 12.3 300 09:19 16.03.2020
6565 Rain -4 991 73 10000 12.3 300 08:43 16.03.2020
6566 Rain -4 991 68 10000 14.9 310 08:23 16.03.2020
6567 Rain -4 990 73 10000 12.9 310 07:43 16.03.2020
6568 Rain -4 990 73 10000 19 320 07:21 16.03.2020
6569 Snow -4 989 85 5000 21.6 320 06:41 16.03.2020
6570 Snow -4 988 92 800 20.6 320 06:22 16.03.2020
6571 Snow -5 985 73 10000 4.1 220 04:26 16.03.2020
6572 Clouds -6 985 73 10000 5.1 170 01:47 16.03.2020
6573 Clouds -6 985 67 10000 6.2 160 00:45 16.03.2020
6574 Clouds -6 985 73 10000 7.7 160 00:27 16.03.2020
6575 Clouds -4 986 58 10000 7.2 170 23:40 15.03.2020
6576 Clouds -4 986 57 10000 8.2 160 23:19 15.03.2020
6577 Clouds -4 986 53 10000 9.3 150 22:42 15.03.2020
6578 Clouds -4 986 53 10000 10.3 140 22:21 15.03.2020
6579 Clouds -4 986 57 10000 8.7 150 21:39 15.03.2020
6580 Clouds -4 987 57 10000 8.2 150 21:21 15.03.2020
6581 Clouds -4 987 57 10000 8.2 150 20:58 15.03.2020
6582 Clouds -4 987 57 10000 5.1 150 20:40 15.03.2020
6583 Clouds -4 987 53 10000 5.1 160 20:19 15.03.2020
6584 Clouds -5 988 57 10000 4.1 170 19:55 15.03.2020
6585 Clouds -5 988 57 10000 4.1 170 19:37 15.03.2020
6586 Clouds -5 988 62 10000 3.6 170 19:18 15.03.2020
6587 Clouds -5 988 62 10000 5.7 190 18:42 15.03.2020
6588 Clouds -4 988 58 10000 3.6 190 18:24 15.03.2020
6589 Clouds -6 988 67 10000 2.6 190 17:59 15.03.2020
6590 Clouds -6 988 67 10000 2.6 190 17:39 15.03.2020
6591 Clouds -5 989 57 10000 1.5 190 17:20 15.03.2020
6592 Clouds -4 989 57 10000 1 0 16:55 15.03.2020
6593 Clouds -4 989 57 10000 1 0 16:37 15.03.2020
6594 Clouds -4 989 53 10000 1.5 0 16:18 15.03.2020
6595 Clouds -3 989 53 10000 3.6 310 15:42 15.03.2020
6596 Clouds -3 989 53 10000 6.2 320 15:22 15.03.2020
6597 Clouds -2 989 54 10000 8.2 320 14:47 15.03.2020
6598 Clouds -2 989 54 10000 8.2 320 14:28 15.03.2020
6599 Clouds -3 989 58 10000 10.3 300 13:59 15.03.2020
6600 Clouds -3 989 58 10000 10.3 300 13:39 15.03.2020
6601 Clouds -2 988 54 10000 10.3 300 13:21 15.03.2020
6602 Clouds -2 988 54 10000 12.9 310 12:57 15.03.2020
6603 Clouds -2 988 54 10000 12.9 310 12:38 15.03.2020
6604 Clouds -2 987 50 10000 14.4 320 12:20 15.03.2020
6605 Clouds -2 987 50 10000 14.9 320 11:40 15.03.2020
6606 Snow -2 987 50 9000 15.9 320 11:22 15.03.2020
6607 Mist -2 985 54 9000 13.9 330 10:56 15.03.2020
6608 Mist -2 985 54 9000 13.9 330 10:38 15.03.2020
6609 Snow -2 984 50 10000 13.4 330 10:20 15.03.2020
6610 Snow -2 984 58 10000 16.5 340 09:41 15.03.2020
6611 Snow -3 983 73 9000 17.5 340 09:22 15.03.2020
6612 Snow -4 982 85 2000 22.1 340 08:54 15.03.2020
6613 Snow -4 982 85 2000 22.1 340 08:36 15.03.2020
6614 Clouds -4 981 79 7000 19.5 350 08:18 15.03.2020
6615 Snow -4 980 92 1200 18 350 07:44 15.03.2020
6616 Snow -4 978 85 1800 9.3 340 06:54 15.03.2020
6617 Snow -4 978 85 1800 9.3 340 06:34 15.03.2020
6618 Snow -4 977 92 5000 8.7 350 05:43 15.03.2020
6619 Snow -4 978 85 0 4.1 200 04:47 15.03.2020
6620 Snow -4 978 85 0 4.1 200 04:28 15.03.2020
6621 Snow -5 979 92 0 8.7 190 03:55 15.03.2020
6622 Clouds -5 980 79 0 12.3 190 02:48 15.03.2020
6623 Snow -5 982 79 0 18 190 01:50 15.03.2020
6624 Snow -7 984 92 0 23.7 190 00:51 15.03.2020
6625 Snow -7 984 92 0 23.7 190 00:51 15.03.2020
6626 Clouds -7 985 92 0 23.7 190 00:28 15.03.2020
6627 Snow -7 986 92 0 19 180 23:58 14.03.2020
6628 Snow -7 986 92 0 19 180 23:37 14.03.2020
6629 Snow -7 988 85 1100 15.4 170 23:19 14.03.2020
6630 Snow -7 991 85 1600 17 180 22:44 14.03.2020
6631 Snow -7 992 79 2600 14.9 170 22:26 14.03.2020
6632 Snow -7 994 73 10000 14.9 190 21:57 14.03.2020
6633 Snow -7 994 73 10000 14.9 190 21:37 14.03.2020
6634 Snow -7 995 67 10000 15.4 180 21:19 14.03.2020
6635 Snow -7 995 67 10000 15.4 180 21:19 14.03.2020
6636 Snow -7 995 67 10000 15.4 180 20:59 14.03.2020
6637 Snow -7 996 67 10000 9.8 180 20:41 14.03.2020
6638 Clouds -7 997 67 10000 6.7 170 20:20 14.03.2020
6639 Snow -7 998 62 10000 7.2 180 19:59 14.03.2020
6640 Snow -7 998 62 10000 7.2 180 19:40 14.03.2020
6641 Snow -7 998 62 10000 9.3 190 19:20 14.03.2020
6642 Snow -6 1000 62 10000 9.3 190 18:39 14.03.2020
6643 Snow -6 1001 62 10000 9.3 190 18:20 14.03.2020
6644 Snow -6 1001 62 10000 9.3 190 17:41 14.03.2020
6645 Snow -6 1001 67 10000 8.2 200 17:21 14.03.2020
6646 Snow -5 1002 57 10000 9.3 210 16:58 14.03.2020
6647 Snow -5 1002 57 10000 9.3 210 16:38 14.03.2020
6648 Snow -5 1002 67 10000 9.8 230 16:18 14.03.2020
6649 Rain -5 1003 73 10000 12.3 240 15:28 14.03.2020
6650 Rain -5 1003 73 10000 10.8 230 14:59 14.03.2020
6651 Rain -5 1003 73 10000 10.8 230 14:59 14.03.2020
6652 Rain -5 1003 73 10000 10.8 230 14:39 14.03.2020
6653 Rain -5 1003 73 10000 8.7 240 14:20 14.03.2020
6654 Rain -5 1003 73 10000 6.2 240 13:56 14.03.2020
6655 Rain -5 1003 73 10000 6.2 240 13:38 14.03.2020
6656 Rain -5 1003 73 10000 4.6 260 13:19 14.03.2020
6657 Snow -6 1004 79 10000 6.7 260 12:44 14.03.2020
6658 Rain -5 1003 67 10000 4.6 240 12:25 14.03.2020
6659 Rain -5 1003 62 10000 5.1 270 11:45 14.03.2020
6660 Clouds -6 1003 67 10000 4.1 300 11:26 14.03.2020
6661 Clouds -6 1003 67 10000 4.1 300 11:26 14.03.2020
6662 Clouds -7 1003 79 10000 4.1 320 10:57 14.03.2020
6663 Clouds -7 1003 79 10000 4.1 320 10:38 14.03.2020
6664 Snow -6 1003 67 10000 5.1 340 10:20 14.03.2020
6665 Snow -7 1003 73 10000 5.7 320 09:41 14.03.2020
6666 Snow -7 1003 79 10000 7.2 320 09:22 14.03.2020
6667 Snow -7 1003 73 8000 9.8 340 08:47 14.03.2020
6668 Snow -7 1002 57 10000 7.7 340 08:27 14.03.2020
6669 Snow -7 1002 57 10000 10.8 330 07:48 14.03.2020
6670 Snow -8 1002 67 10000 10.3 340 07:23 14.03.2020
6671 Snow -8 1001 72 7000 11.3 330 06:59 14.03.2020
6672 Snow -8 1001 72 7000 11.3 330 06:39 14.03.2020
6673 Snow -9 1000 85 8000 11.8 360 04:58 14.03.2020
6674 Snow -9 999 78 10000 14.4 340 03:42 14.03.2020
6675 Snow -8 999 67 2300 15.9 350 03:23 14.03.2020
6676 Snow -8 998 61 2800 15.4 350 02:19 14.03.2020
6677 Snow -9 996 85 10000 15.9 340 00:42 14.03.2020
6678 Snow -8 995 67 5000 16.5 340 23:45 13.03.2020
6679 Rain -8 994 78 10000 18.5 340 23:26 13.03.2020
6680 Snow -8 994 85 2500 14.9 330 22:47 13.03.2020
6681 Snow -7 993 72 4000 16.5 320 22:25 13.03.2020
6682 Snow -8 993 72 5000 16.5 330 21:43 13.03.2020
6683 Rain -7 992 79 10000 19.5 330 21:21 13.03.2020
6684 Rain -7 991 73 10000 18 330 20:57 13.03.2020
6685 Rain -7 991 73 10000 18 330 20:38 13.03.2020
6686 Snow -6 991 73 4000 19.5 330 20:19 13.03.2020
6687 Rain -6 990 79 10000 19 340 19:45 13.03.2020
6688 Rain -6 990 85 5000 20.1 340 19:27 13.03.2020
6689 Clouds -6 989 92 3000 12.9 360 18:47 13.03.2020
6690 Snow -7 989 92 600 9.8 260 18:29 13.03.2020
6691 Snow -7 989 85 800 10.3 250 17:57 13.03.2020
6692 Snow -6 989 85 800 10.3 250 17:38 13.03.2020
6693 Snow -6 989 85 3000 10.8 260 17:19 13.03.2020
6694 Rain -6 989 79 10000 10.3 250 16:42 13.03.2020
6695 Rain -8 989 72 10000 8.2 210 16:24 13.03.2020
6696 Clouds -8 989 72 10000 8.7 210 15:56 13.03.2020
6697 Clouds -8 989 72 10000 8.7 210 15:37 13.03.2020
6698 Clouds -7 989 67 10000 9.3 200 15:19 13.03.2020
6699 Clouds -7 989 73 10000 8.7 210 14:41 13.03.2020
6700 Clouds -8 989 78 10000 7.2 200 14:22 13.03.2020
6701 Clouds -8 989 78 10000 7.2 200 14:22 13.03.2020
6702 Clouds -8 989 78